<?xml version="1.0" encoding="UTF-8" standalone="no" ?>
<gpx xmlns="http://www.topografix.com/GPX/1/1" xmlns:xsi="http://www.w3.org/2001/XMLSchema-instance" xsi:schemaLocation="http://www.topografix.com/GPX/1/1 http://www.topografix.com/GPX/1/1/gpx.xsd" version="1.1" creator="VisuGPX - https://www.visugpx.com">
  <metadata>
    <name>130413ROBDolmenCarnierJuge</name>
    <desc><![CDATA[Excellente sortie! La plus dure jamais faite aux dires de Yannick. Ca lui a plu. On recommencera!]]></desc>
  </metadata>
  <trk>
    <name><![CDATA[130413ROBDolmenCarnierJuge]]></name>
    <trkseg>
      <trkpt lat="43.40401" lon="6.06547">
        <ele>224.19999694824</ele>
        <time>2013-04-13T12:09:23Z</time>
      </trkpt>
      <trkpt lat="43.40401" lon="6.06547">
        <ele>224.19999694824</ele>
        <time>2013-04-13T12:09:24Z</time>
      </trkpt>
      <trkpt lat="43.40401" lon="6.06547">
        <ele>224.19999694824</ele>
        <time>2013-04-13T12:09:26Z</time>
      </trkpt>
      <trkpt lat="43.40401" lon="6.06546">
        <ele>224.60000610352</ele>
        <time>2013-04-13T12:09:29Z</time>
      </trkpt>
      <trkpt lat="43.404" lon="6.06545">
        <ele>224.60000610352</ele>
        <time>2013-04-13T12:09:30Z</time>
      </trkpt>
      <trkpt lat="43.40403" lon="6.06538">
        <ele>224.60000610352</ele>
        <time>2013-04-13T12:09:34Z</time>
      </trkpt>
      <trkpt lat="43.40403" lon="6.06534">
        <ele>224.60000610352</ele>
        <time>2013-04-13T12:09:36Z</time>
      </trkpt>
      <trkpt lat="43.40405" lon="6.06524">
        <ele>224.60000610352</ele>
        <time>2013-04-13T12:09:40Z</time>
      </trkpt>
      <trkpt lat="43.40406" lon="6.06504">
        <ele>224.60000610352</ele>
        <time>2013-04-13T12:09:46Z</time>
      </trkpt>
      <trkpt lat="43.4041" lon="6.06482">
        <ele>224.60000610352</ele>
        <time>2013-04-13T12:09:52Z</time>
      </trkpt>
      <trkpt lat="43.40417" lon="6.06477">
        <ele>224.60000610352</ele>
        <time>2013-04-13T12:09:55Z</time>
      </trkpt>
      <trkpt lat="43.4042" lon="6.06478">
        <ele>224.60000610352</ele>
        <time>2013-04-13T12:09:56Z</time>
      </trkpt>
      <trkpt lat="43.40438" lon="6.06484">
        <ele>224.60000610352</ele>
        <time>2013-04-13T12:10:02Z</time>
      </trkpt>
      <trkpt lat="43.40458" lon="6.0649">
        <ele>224</ele>
        <time>2013-04-13T12:10:07Z</time>
      </trkpt>
      <trkpt lat="43.40467" lon="6.06494">
        <ele>223</ele>
        <time>2013-04-13T12:10:09Z</time>
      </trkpt>
      <trkpt lat="43.40481" lon="6.06497">
        <ele>222</ele>
        <time>2013-04-13T12:10:12Z</time>
      </trkpt>
      <trkpt lat="43.40501" lon="6.06505">
        <ele>222</ele>
        <time>2013-04-13T12:10:17Z</time>
      </trkpt>
      <trkpt lat="43.40517" lon="6.06512">
        <ele>222</ele>
        <time>2013-04-13T12:10:21Z</time>
      </trkpt>
      <trkpt lat="43.40543" lon="6.06519">
        <ele>220.80000305176</ele>
        <time>2013-04-13T12:10:26Z</time>
      </trkpt>
      <trkpt lat="43.40548" lon="6.06521">
        <ele>220.19999694824</ele>
        <time>2013-04-13T12:10:27Z</time>
      </trkpt>
      <trkpt lat="43.40553" lon="6.06523">
        <ele>219.80000305176</ele>
        <time>2013-04-13T12:10:28Z</time>
      </trkpt>
      <trkpt lat="43.40574" lon="6.06529">
        <ele>219.80000305176</ele>
        <time>2013-04-13T12:10:32Z</time>
      </trkpt>
      <trkpt lat="43.40584" lon="6.06531">
        <ele>219.39999389648</ele>
        <time>2013-04-13T12:10:34Z</time>
      </trkpt>
      <trkpt lat="43.40589" lon="6.06531">
        <ele>219</ele>
        <time>2013-04-13T12:10:35Z</time>
      </trkpt>
      <trkpt lat="43.40594" lon="6.06532">
        <ele>218.19999694824</ele>
        <time>2013-04-13T12:10:36Z</time>
      </trkpt>
      <trkpt lat="43.40603" lon="6.06535">
        <ele>216.60000610352</ele>
        <time>2013-04-13T12:10:38Z</time>
      </trkpt>
      <trkpt lat="43.40607" lon="6.06536">
        <ele>215.80000305176</ele>
        <time>2013-04-13T12:10:39Z</time>
      </trkpt>
      <trkpt lat="43.4061" lon="6.06536">
        <ele>215</ele>
        <time>2013-04-13T12:10:40Z</time>
      </trkpt>
      <trkpt lat="43.40612" lon="6.06537">
        <ele>215</ele>
        <time>2013-04-13T12:10:43Z</time>
      </trkpt>
      <trkpt lat="43.40614" lon="6.06536">
        <ele>215</ele>
        <time>2013-04-13T12:10:48Z</time>
      </trkpt>
      <trkpt lat="43.40616" lon="6.06534">
        <ele>215</ele>
        <time>2013-04-13T12:10:49Z</time>
      </trkpt>
      <trkpt lat="43.40623" lon="6.06522">
        <ele>215</ele>
        <time>2013-04-13T12:10:53Z</time>
      </trkpt>
      <trkpt lat="43.40633" lon="6.06504">
        <ele>215</ele>
        <time>2013-04-13T12:10:58Z</time>
      </trkpt>
      <trkpt lat="43.4064" lon="6.06495">
        <ele>215</ele>
        <time>2013-04-13T12:11:00Z</time>
      </trkpt>
      <trkpt lat="43.40644" lon="6.0649">
        <ele>214.39999389648</ele>
        <time>2013-04-13T12:11:01Z</time>
      </trkpt>
      <trkpt lat="43.40649" lon="6.06484">
        <ele>214</ele>
        <time>2013-04-13T12:11:02Z</time>
      </trkpt>
      <trkpt lat="43.40659" lon="6.06473">
        <ele>213.19999694824</ele>
        <time>2013-04-13T12:11:04Z</time>
      </trkpt>
      <trkpt lat="43.40664" lon="6.06468">
        <ele>212.60000610352</ele>
        <time>2013-04-13T12:11:05Z</time>
      </trkpt>
      <trkpt lat="43.40681" lon="6.06451">
        <ele>212.60000610352</ele>
        <time>2013-04-13T12:11:08Z</time>
      </trkpt>
      <trkpt lat="43.40687" lon="6.06445">
        <ele>212.60000610352</ele>
        <time>2013-04-13T12:11:09Z</time>
      </trkpt>
      <trkpt lat="43.40694" lon="6.06441">
        <ele>212.60000610352</ele>
        <time>2013-04-13T12:11:10Z</time>
      </trkpt>
      <trkpt lat="43.40702" lon="6.06437">
        <ele>212.19999694824</ele>
        <time>2013-04-13T12:11:11Z</time>
      </trkpt>
      <trkpt lat="43.4071" lon="6.06435">
        <ele>211.80000305176</ele>
        <time>2013-04-13T12:11:12Z</time>
      </trkpt>
      <trkpt lat="43.40725" lon="6.06432">
        <ele>210.39999389648</ele>
        <time>2013-04-13T12:11:14Z</time>
      </trkpt>
      <trkpt lat="43.40732" lon="6.06431">
        <ele>209.60000610352</ele>
        <time>2013-04-13T12:11:15Z</time>
      </trkpt>
      <trkpt lat="43.40739" lon="6.06431">
        <ele>209</ele>
        <time>2013-04-13T12:11:16Z</time>
      </trkpt>
      <trkpt lat="43.40745" lon="6.0643">
        <ele>208.19999694824</ele>
        <time>2013-04-13T12:11:17Z</time>
      </trkpt>
      <trkpt lat="43.40765" lon="6.06425">
        <ele>208.19999694824</ele>
        <time>2013-04-13T12:11:20Z</time>
      </trkpt>
      <trkpt lat="43.40772" lon="6.06422">
        <ele>208.19999694824</ele>
        <time>2013-04-13T12:11:21Z</time>
      </trkpt>
      <trkpt lat="43.40799" lon="6.06415">
        <ele>207.80000305176</ele>
        <time>2013-04-13T12:11:25Z</time>
      </trkpt>
      <trkpt lat="43.40818" lon="6.06423">
        <ele>206.60000610352</ele>
        <time>2013-04-13T12:11:28Z</time>
      </trkpt>
      <trkpt lat="43.40824" lon="6.06424">
        <ele>206.19999694824</ele>
        <time>2013-04-13T12:11:29Z</time>
      </trkpt>
      <trkpt lat="43.40843" lon="6.06419">
        <ele>206.19999694824</ele>
        <time>2013-04-13T12:11:32Z</time>
      </trkpt>
      <trkpt lat="43.40854" lon="6.06412">
        <ele>206.19999694824</ele>
        <time>2013-04-13T12:11:34Z</time>
      </trkpt>
      <trkpt lat="43.40879" lon="6.06387">
        <ele>206.19999694824</ele>
        <time>2013-04-13T12:11:39Z</time>
      </trkpt>
      <trkpt lat="43.40897" lon="6.06365">
        <ele>206.19999694824</ele>
        <time>2013-04-13T12:11:43Z</time>
      </trkpt>
      <trkpt lat="43.40904" lon="6.06354">
        <ele>206.19999694824</ele>
        <time>2013-04-13T12:11:45Z</time>
      </trkpt>
      <trkpt lat="43.40911" lon="6.06342">
        <ele>207</ele>
        <time>2013-04-13T12:11:47Z</time>
      </trkpt>
      <trkpt lat="43.40915" lon="6.06337">
        <ele>207.39999389648</ele>
        <time>2013-04-13T12:11:48Z</time>
      </trkpt>
      <trkpt lat="43.40922" lon="6.06328">
        <ele>208.39999389648</ele>
        <time>2013-04-13T12:11:50Z</time>
      </trkpt>
      <trkpt lat="43.40925" lon="6.06325">
        <ele>208.39999389648</ele>
        <time>2013-04-13T12:11:51Z</time>
      </trkpt>
      <trkpt lat="43.40929" lon="6.06321">
        <ele>208.39999389648</ele>
        <time>2013-04-13T12:11:54Z</time>
      </trkpt>
      <trkpt lat="43.40929" lon="6.06321">
        <ele>208.39999389648</ele>
        <time>2013-04-13T12:11:59Z</time>
      </trkpt>
      <trkpt lat="43.40929" lon="6.06321">
        <ele>208.39999389648</ele>
        <time>2013-04-13T12:12:10Z</time>
      </trkpt>
      <trkpt lat="43.40929" lon="6.06321">
        <ele>208.39999389648</ele>
        <time>2013-04-13T12:12:19Z</time>
      </trkpt>
      <trkpt lat="43.40929" lon="6.06321">
        <ele>208.39999389648</ele>
        <time>2013-04-13T12:12:21Z</time>
      </trkpt>
      <trkpt lat="43.40934" lon="6.06317">
        <ele>208.39999389648</ele>
        <time>2013-04-13T12:12:24Z</time>
      </trkpt>
      <trkpt lat="43.40936" lon="6.06315">
        <ele>208.39999389648</ele>
        <time>2013-04-13T12:12:25Z</time>
      </trkpt>
      <trkpt lat="43.40946" lon="6.06305">
        <ele>208.39999389648</ele>
        <time>2013-04-13T12:12:29Z</time>
      </trkpt>
      <trkpt lat="43.40954" lon="6.063">
        <ele>208.39999389648</ele>
        <time>2013-04-13T12:12:31Z</time>
      </trkpt>
      <trkpt lat="43.40967" lon="6.06294">
        <ele>208.39999389648</ele>
        <time>2013-04-13T12:12:34Z</time>
      </trkpt>
      <trkpt lat="43.4098" lon="6.06288">
        <ele>208.39999389648</ele>
        <time>2013-04-13T12:12:37Z</time>
      </trkpt>
      <trkpt lat="43.40989" lon="6.06285">
        <ele>208.39999389648</ele>
        <time>2013-04-13T12:12:39Z</time>
      </trkpt>
      <trkpt lat="43.41016" lon="6.06275">
        <ele>208.39999389648</ele>
        <time>2013-04-13T12:12:46Z</time>
      </trkpt>
      <trkpt lat="43.41024" lon="6.06273">
        <ele>208.39999389648</ele>
        <time>2013-04-13T12:12:48Z</time>
      </trkpt>
      <trkpt lat="43.41045" lon="6.06265">
        <ele>208.39999389648</ele>
        <time>2013-04-13T12:12:53Z</time>
      </trkpt>
      <trkpt lat="43.41064" lon="6.06257">
        <ele>208.39999389648</ele>
        <time>2013-04-13T12:12:58Z</time>
      </trkpt>
      <trkpt lat="43.41068" lon="6.06257">
        <ele>208.39999389648</ele>
        <time>2013-04-13T12:12:59Z</time>
      </trkpt>
      <trkpt lat="43.41087" lon="6.06253">
        <ele>208.39999389648</ele>
        <time>2013-04-13T12:13:04Z</time>
      </trkpt>
      <trkpt lat="43.41119" lon="6.06245">
        <ele>208.39999389648</ele>
        <time>2013-04-13T12:13:12Z</time>
      </trkpt>
      <trkpt lat="43.41134" lon="6.06239">
        <ele>208.39999389648</ele>
        <time>2013-04-13T12:13:16Z</time>
      </trkpt>
      <trkpt lat="43.41142" lon="6.06233">
        <ele>208.39999389648</ele>
        <time>2013-04-13T12:13:18Z</time>
      </trkpt>
      <trkpt lat="43.4117" lon="6.06221">
        <ele>208.39999389648</ele>
        <time>2013-04-13T12:13:25Z</time>
      </trkpt>
      <trkpt lat="43.41183" lon="6.06217">
        <ele>208.39999389648</ele>
        <time>2013-04-13T12:13:30Z</time>
      </trkpt>
      <trkpt lat="43.4119" lon="6.06214">
        <ele>208.39999389648</ele>
        <time>2013-04-13T12:13:37Z</time>
      </trkpt>
      <trkpt lat="43.41192" lon="6.06213">
        <ele>208.39999389648</ele>
        <time>2013-04-13T12:13:39Z</time>
      </trkpt>
      <trkpt lat="43.41193" lon="6.06212">
        <ele>208.39999389648</ele>
        <time>2013-04-13T12:13:41Z</time>
      </trkpt>
      <trkpt lat="43.41195" lon="6.06207">
        <ele>208.39999389648</ele>
        <time>2013-04-13T12:13:43Z</time>
      </trkpt>
      <trkpt lat="43.412" lon="6.06197">
        <ele>208.39999389648</ele>
        <time>2013-04-13T12:13:47Z</time>
      </trkpt>
      <trkpt lat="43.41201" lon="6.06195">
        <ele>208.39999389648</ele>
        <time>2013-04-13T12:13:48Z</time>
      </trkpt>
      <trkpt lat="43.41208" lon="6.06185">
        <ele>208.39999389648</ele>
        <time>2013-04-13T12:13:52Z</time>
      </trkpt>
      <trkpt lat="43.41207" lon="6.06183">
        <ele>208.39999389648</ele>
        <time>2013-04-13T12:13:53Z</time>
      </trkpt>
      <trkpt lat="43.41206" lon="6.06175">
        <ele>208.39999389648</ele>
        <time>2013-04-13T12:13:55Z</time>
      </trkpt>
      <trkpt lat="43.41203" lon="6.06151">
        <ele>208.39999389648</ele>
        <time>2013-04-13T12:14:01Z</time>
      </trkpt>
      <trkpt lat="43.41203" lon="6.06148">
        <ele>208.80000305176</ele>
        <time>2013-04-13T12:14:02Z</time>
      </trkpt>
      <trkpt lat="43.41202" lon="6.06143">
        <ele>209.19999694824</ele>
        <time>2013-04-13T12:14:03Z</time>
      </trkpt>
      <trkpt lat="43.41201" lon="6.06139">
        <ele>209.60000610352</ele>
        <time>2013-04-13T12:14:04Z</time>
      </trkpt>
      <trkpt lat="43.41201" lon="6.06134">
        <ele>210</ele>
        <time>2013-04-13T12:14:05Z</time>
      </trkpt>
      <trkpt lat="43.41202" lon="6.0613">
        <ele>210.39999389648</ele>
        <time>2013-04-13T12:14:06Z</time>
      </trkpt>
      <trkpt lat="43.41211" lon="6.06117">
        <ele>210.39999389648</ele>
        <time>2013-04-13T12:14:10Z</time>
      </trkpt>
      <trkpt lat="43.41227" lon="6.06107">
        <ele>210.39999389648</ele>
        <time>2013-04-13T12:14:16Z</time>
      </trkpt>
      <trkpt lat="43.41242" lon="6.061">
        <ele>210.39999389648</ele>
        <time>2013-04-13T12:14:21Z</time>
      </trkpt>
      <trkpt lat="43.41286" lon="6.06075">
        <ele>210.80000305176</ele>
        <time>2013-04-13T12:14:35Z</time>
      </trkpt>
      <trkpt lat="43.41296" lon="6.0607">
        <ele>212</ele>
        <time>2013-04-13T12:14:38Z</time>
      </trkpt>
      <trkpt lat="43.41299" lon="6.06068">
        <ele>212.39999389648</ele>
        <time>2013-04-13T12:14:39Z</time>
      </trkpt>
      <trkpt lat="43.4131" lon="6.06067">
        <ele>212.39999389648</ele>
        <time>2013-04-13T12:14:42Z</time>
      </trkpt>
      <trkpt lat="43.41323" lon="6.06081">
        <ele>212.39999389648</ele>
        <time>2013-04-13T12:14:47Z</time>
      </trkpt>
      <trkpt lat="43.41354" lon="6.06111">
        <ele>213</ele>
        <time>2013-04-13T12:14:58Z</time>
      </trkpt>
      <trkpt lat="43.41357" lon="6.06113">
        <ele>213.39999389648</ele>
        <time>2013-04-13T12:14:59Z</time>
      </trkpt>
      <trkpt lat="43.41378" lon="6.06136">
        <ele>214.60000610352</ele>
        <time>2013-04-13T12:15:08Z</time>
      </trkpt>
      <trkpt lat="43.41391" lon="6.06149">
        <ele>214.60000610352</ele>
        <time>2013-04-13T12:15:13Z</time>
      </trkpt>
      <trkpt lat="43.41401" lon="6.06158">
        <ele>215.80000305176</ele>
        <time>2013-04-13T12:15:17Z</time>
      </trkpt>
      <trkpt lat="43.41405" lon="6.06162">
        <ele>216.80000305176</ele>
        <time>2013-04-13T12:15:19Z</time>
      </trkpt>
      <trkpt lat="43.41422" lon="6.06172">
        <ele>217.19999694824</ele>
        <time>2013-04-13T12:15:25Z</time>
      </trkpt>
      <trkpt lat="43.41427" lon="6.06172">
        <ele>218</ele>
        <time>2013-04-13T12:15:27Z</time>
      </trkpt>
      <trkpt lat="43.41433" lon="6.06174">
        <ele>219</ele>
        <time>2013-04-13T12:15:29Z</time>
      </trkpt>
      <trkpt lat="43.41452" lon="6.0618">
        <ele>219</ele>
        <time>2013-04-13T12:15:36Z</time>
      </trkpt>
      <trkpt lat="43.41474" lon="6.06186">
        <ele>219</ele>
        <time>2013-04-13T12:15:43Z</time>
      </trkpt>
      <trkpt lat="43.41499" lon="6.06191">
        <ele>219</ele>
        <time>2013-04-13T12:15:51Z</time>
      </trkpt>
      <trkpt lat="43.41521" lon="6.06188">
        <ele>219</ele>
        <time>2013-04-13T12:15:58Z</time>
      </trkpt>
      <trkpt lat="43.41535" lon="6.06182">
        <ele>219.39999389648</ele>
        <time>2013-04-13T12:16:03Z</time>
      </trkpt>
      <trkpt lat="43.41538" lon="6.06182">
        <ele>219.80000305176</ele>
        <time>2013-04-13T12:16:04Z</time>
      </trkpt>
      <trkpt lat="43.41543" lon="6.06183">
        <ele>220.60000610352</ele>
        <time>2013-04-13T12:16:06Z</time>
      </trkpt>
      <trkpt lat="43.41545" lon="6.06183">
        <ele>221</ele>
        <time>2013-04-13T12:16:07Z</time>
      </trkpt>
      <trkpt lat="43.41561" lon="6.06174">
        <ele>221</ele>
        <time>2013-04-13T12:16:15Z</time>
      </trkpt>
      <trkpt lat="43.41563" lon="6.06175">
        <ele>221.39999389648</ele>
        <time>2013-04-13T12:16:17Z</time>
      </trkpt>
      <trkpt lat="43.41564" lon="6.06175">
        <ele>221.80000305176</ele>
        <time>2013-04-13T12:16:18Z</time>
      </trkpt>
      <trkpt lat="43.41567" lon="6.06177">
        <ele>222.60000610352</ele>
        <time>2013-04-13T12:16:20Z</time>
      </trkpt>
      <trkpt lat="43.41569" lon="6.06178">
        <ele>223</ele>
        <time>2013-04-13T12:16:21Z</time>
      </trkpt>
      <trkpt lat="43.41576" lon="6.06179">
        <ele>223</ele>
        <time>2013-04-13T12:16:25Z</time>
      </trkpt>
      <trkpt lat="43.41581" lon="6.06182">
        <ele>223</ele>
        <time>2013-04-13T12:16:27Z</time>
      </trkpt>
      <trkpt lat="43.41582" lon="6.06189">
        <ele>223</ele>
        <time>2013-04-13T12:16:29Z</time>
      </trkpt>
      <trkpt lat="43.4159" lon="6.06202">
        <ele>223</ele>
        <time>2013-04-13T12:16:34Z</time>
      </trkpt>
      <trkpt lat="43.41597" lon="6.06203">
        <ele>223</ele>
        <time>2013-04-13T12:16:38Z</time>
      </trkpt>
      <trkpt lat="43.416" lon="6.06195">
        <ele>223</ele>
        <time>2013-04-13T12:16:43Z</time>
      </trkpt>
      <trkpt lat="43.416" lon="6.06193">
        <ele>223</ele>
        <time>2013-04-13T12:16:44Z</time>
      </trkpt>
      <trkpt lat="43.41603" lon="6.0618">
        <ele>223</ele>
        <time>2013-04-13T12:16:48Z</time>
      </trkpt>
      <trkpt lat="43.41603" lon="6.06175">
        <ele>223</ele>
        <time>2013-04-13T12:16:49Z</time>
      </trkpt>
      <trkpt lat="43.4161" lon="6.06162">
        <ele>223</ele>
        <time>2013-04-13T12:16:53Z</time>
      </trkpt>
      <trkpt lat="43.41612" lon="6.06159">
        <ele>223</ele>
        <time>2013-04-13T12:16:54Z</time>
      </trkpt>
      <trkpt lat="43.41624" lon="6.06144">
        <ele>223</ele>
        <time>2013-04-13T12:17:00Z</time>
      </trkpt>
      <trkpt lat="43.41632" lon="6.06126">
        <ele>223</ele>
        <time>2013-04-13T12:17:06Z</time>
      </trkpt>
      <trkpt lat="43.41631" lon="6.06123">
        <ele>223</ele>
        <time>2013-04-13T12:17:07Z</time>
      </trkpt>
      <trkpt lat="43.41618" lon="6.06092">
        <ele>223</ele>
        <time>2013-04-13T12:17:15Z</time>
      </trkpt>
      <trkpt lat="43.41618" lon="6.06072">
        <ele>223</ele>
        <time>2013-04-13T12:17:20Z</time>
      </trkpt>
      <trkpt lat="43.41622" lon="6.0604">
        <ele>223</ele>
        <time>2013-04-13T12:17:28Z</time>
      </trkpt>
      <trkpt lat="43.41624" lon="6.06024">
        <ele>223</ele>
        <time>2013-04-13T12:17:32Z</time>
      </trkpt>
      <trkpt lat="43.41628" lon="6.05991">
        <ele>223</ele>
        <time>2013-04-13T12:17:41Z</time>
      </trkpt>
      <trkpt lat="43.41632" lon="6.05972">
        <ele>223</ele>
        <time>2013-04-13T12:17:47Z</time>
      </trkpt>
      <trkpt lat="43.41632" lon="6.05968">
        <ele>223.39999389648</ele>
        <time>2013-04-13T12:17:48Z</time>
      </trkpt>
      <trkpt lat="43.41634" lon="6.0596">
        <ele>224.19999694824</ele>
        <time>2013-04-13T12:17:50Z</time>
      </trkpt>
      <trkpt lat="43.41638" lon="6.05933">
        <ele>225</ele>
        <time>2013-04-13T12:17:57Z</time>
      </trkpt>
      <trkpt lat="43.4164" lon="6.05909">
        <ele>225</ele>
        <time>2013-04-13T12:18:03Z</time>
      </trkpt>
      <trkpt lat="43.41642" lon="6.05901">
        <ele>225</ele>
        <time>2013-04-13T12:18:05Z</time>
      </trkpt>
      <trkpt lat="43.41645" lon="6.05868">
        <ele>225</ele>
        <time>2013-04-13T12:18:13Z</time>
      </trkpt>
      <trkpt lat="43.41647" lon="6.05848">
        <ele>225.60000610352</ele>
        <time>2013-04-13T12:18:18Z</time>
      </trkpt>
      <trkpt lat="43.41647" lon="6.0584">
        <ele>226.39999389648</ele>
        <time>2013-04-13T12:18:20Z</time>
      </trkpt>
      <trkpt lat="43.41648" lon="6.05809">
        <ele>227.19999694824</ele>
        <time>2013-04-13T12:18:28Z</time>
      </trkpt>
      <trkpt lat="43.41649" lon="6.05781">
        <ele>227.19999694824</ele>
        <time>2013-04-13T12:18:35Z</time>
      </trkpt>
      <trkpt lat="43.41649" lon="6.05743">
        <ele>227.19999694824</ele>
        <time>2013-04-13T12:18:44Z</time>
      </trkpt>
      <trkpt lat="43.41647" lon="6.05707">
        <ele>227.19999694824</ele>
        <time>2013-04-13T12:18:52Z</time>
      </trkpt>
      <trkpt lat="43.41645" lon="6.0568">
        <ele>227.19999694824</ele>
        <time>2013-04-13T12:18:58Z</time>
      </trkpt>
      <trkpt lat="43.41642" lon="6.0565">
        <ele>227.19999694824</ele>
        <time>2013-04-13T12:19:04Z</time>
      </trkpt>
      <trkpt lat="43.41639" lon="6.05618">
        <ele>227.19999694824</ele>
        <time>2013-04-13T12:19:10Z</time>
      </trkpt>
      <trkpt lat="43.41637" lon="6.05608">
        <ele>227.19999694824</ele>
        <time>2013-04-13T12:19:12Z</time>
      </trkpt>
      <trkpt lat="43.4163" lon="6.05568">
        <ele>227.19999694824</ele>
        <time>2013-04-13T12:19:20Z</time>
      </trkpt>
      <trkpt lat="43.41622" lon="6.05532">
        <ele>226</ele>
        <time>2013-04-13T12:19:27Z</time>
      </trkpt>
      <trkpt lat="43.4162" lon="6.05522">
        <ele>225</ele>
        <time>2013-04-13T12:19:29Z</time>
      </trkpt>
      <trkpt lat="43.41607" lon="6.05478">
        <ele>225</ele>
        <time>2013-04-13T12:19:38Z</time>
      </trkpt>
      <trkpt lat="43.41599" lon="6.05452">
        <ele>225</ele>
        <time>2013-04-13T12:19:44Z</time>
      </trkpt>
      <trkpt lat="43.41589" lon="6.05416">
        <ele>225</ele>
        <time>2013-04-13T12:19:52Z</time>
      </trkpt>
      <trkpt lat="43.41576" lon="6.05381">
        <ele>225</ele>
        <time>2013-04-13T12:20:00Z</time>
      </trkpt>
      <trkpt lat="43.41564" lon="6.0535">
        <ele>225</ele>
        <time>2013-04-13T12:20:07Z</time>
      </trkpt>
      <trkpt lat="43.41555" lon="6.05329">
        <ele>225</ele>
        <time>2013-04-13T12:20:12Z</time>
      </trkpt>
      <trkpt lat="43.41548" lon="6.05297">
        <ele>225</ele>
        <time>2013-04-13T12:20:20Z</time>
      </trkpt>
      <trkpt lat="43.4154" lon="6.05269">
        <ele>224.60000610352</ele>
        <time>2013-04-13T12:20:27Z</time>
      </trkpt>
      <trkpt lat="43.41532" lon="6.05255">
        <ele>223</ele>
        <time>2013-04-13T12:20:31Z</time>
      </trkpt>
      <trkpt lat="43.41525" lon="6.05238">
        <ele>222.60000610352</ele>
        <time>2013-04-13T12:20:35Z</time>
      </trkpt>
      <trkpt lat="43.41519" lon="6.05224">
        <ele>221.39999389648</ele>
        <time>2013-04-13T12:20:38Z</time>
      </trkpt>
      <trkpt lat="43.4151" lon="6.05204">
        <ele>221</ele>
        <time>2013-04-13T12:20:43Z</time>
      </trkpt>
      <trkpt lat="43.41497" lon="6.05176">
        <ele>221</ele>
        <time>2013-04-13T12:20:50Z</time>
      </trkpt>
      <trkpt lat="43.41499" lon="6.05161">
        <ele>221</ele>
        <time>2013-04-13T12:20:53Z</time>
      </trkpt>
      <trkpt lat="43.41509" lon="6.05157">
        <ele>221</ele>
        <time>2013-04-13T12:20:56Z</time>
      </trkpt>
      <trkpt lat="43.41518" lon="6.05156">
        <ele>221</ele>
        <time>2013-04-13T12:20:59Z</time>
      </trkpt>
      <trkpt lat="43.41528" lon="6.05155">
        <ele>221</ele>
        <time>2013-04-13T12:21:02Z</time>
      </trkpt>
      <trkpt lat="43.41542" lon="6.05154">
        <ele>221</ele>
        <time>2013-04-13T12:21:07Z</time>
      </trkpt>
      <trkpt lat="43.41547" lon="6.05154">
        <ele>221.39999389648</ele>
        <time>2013-04-13T12:21:09Z</time>
      </trkpt>
      <trkpt lat="43.41552" lon="6.05155">
        <ele>222.19999694824</ele>
        <time>2013-04-13T12:21:11Z</time>
      </trkpt>
      <trkpt lat="43.41557" lon="6.05155">
        <ele>223</ele>
        <time>2013-04-13T12:21:13Z</time>
      </trkpt>
      <trkpt lat="43.41565" lon="6.05156">
        <ele>223</ele>
        <time>2013-04-13T12:21:17Z</time>
      </trkpt>
      <trkpt lat="43.41568" lon="6.05158">
        <ele>223</ele>
        <time>2013-04-13T12:21:22Z</time>
      </trkpt>
      <trkpt lat="43.41568" lon="6.05158">
        <ele>223</ele>
        <time>2013-04-13T12:21:45Z</time>
      </trkpt>
      <trkpt lat="43.41568" lon="6.05158">
        <ele>223</ele>
        <time>2013-04-13T12:21:59Z</time>
      </trkpt>
      <trkpt lat="43.41568" lon="6.05158">
        <ele>223</ele>
        <time>2013-04-13T12:22:01Z</time>
      </trkpt>
      <trkpt lat="43.41568" lon="6.05158">
        <ele>223</ele>
        <time>2013-04-13T12:22:25Z</time>
      </trkpt>
      <trkpt lat="43.41568" lon="6.05158">
        <ele>223</ele>
        <time>2013-04-13T12:22:40Z</time>
      </trkpt>
      <trkpt lat="43.41568" lon="6.05158">
        <ele>223</ele>
        <time>2013-04-13T12:22:44Z</time>
      </trkpt>
      <trkpt lat="43.41568" lon="6.05158">
        <ele>223</ele>
        <time>2013-04-13T12:22:52Z</time>
      </trkpt>
      <trkpt lat="43.41568" lon="6.05158">
        <ele>223</ele>
        <time>2013-04-13T12:22:59Z</time>
      </trkpt>
      <trkpt lat="43.41569" lon="6.05158">
        <ele>223</ele>
        <time>2013-04-13T12:23:07Z</time>
      </trkpt>
      <trkpt lat="43.41572" lon="6.05158">
        <ele>223</ele>
        <time>2013-04-13T12:23:09Z</time>
      </trkpt>
      <trkpt lat="43.41581" lon="6.05161">
        <ele>223.39999389648</ele>
        <time>2013-04-13T12:23:14Z</time>
      </trkpt>
      <trkpt lat="43.41584" lon="6.05161">
        <ele>223.80000305176</ele>
        <time>2013-04-13T12:23:15Z</time>
      </trkpt>
      <trkpt lat="43.41588" lon="6.05161">
        <ele>224.60000610352</ele>
        <time>2013-04-13T12:23:17Z</time>
      </trkpt>
      <trkpt lat="43.4159" lon="6.05161">
        <ele>225</ele>
        <time>2013-04-13T12:23:18Z</time>
      </trkpt>
      <trkpt lat="43.41604" lon="6.05163">
        <ele>225</ele>
        <time>2013-04-13T12:23:24Z</time>
      </trkpt>
      <trkpt lat="43.4161" lon="6.05164">
        <ele>225.80000305176</ele>
        <time>2013-04-13T12:23:27Z</time>
      </trkpt>
      <trkpt lat="43.41633" lon="6.05166">
        <ele>227</ele>
        <time>2013-04-13T12:23:37Z</time>
      </trkpt>
      <trkpt lat="43.41657" lon="6.05167">
        <ele>229</ele>
        <time>2013-04-13T12:23:48Z</time>
      </trkpt>
      <trkpt lat="43.41667" lon="6.05163">
        <ele>229</ele>
        <time>2013-04-13T12:23:53Z</time>
      </trkpt>
      <trkpt lat="43.41671" lon="6.05161">
        <ele>229</ele>
        <time>2013-04-13T12:23:55Z</time>
      </trkpt>
      <trkpt lat="43.41677" lon="6.05153">
        <ele>230.39999389648</ele>
        <time>2013-04-13T12:23:59Z</time>
      </trkpt>
      <trkpt lat="43.41682" lon="6.05146">
        <ele>231.19999694824</ele>
        <time>2013-04-13T12:24:02Z</time>
      </trkpt>
      <trkpt lat="43.41695" lon="6.05131">
        <ele>231.19999694824</ele>
        <time>2013-04-13T12:24:10Z</time>
      </trkpt>
      <trkpt lat="43.4171" lon="6.05119">
        <ele>231.19999694824</ele>
        <time>2013-04-13T12:24:17Z</time>
      </trkpt>
      <trkpt lat="43.41714" lon="6.05117">
        <ele>232</ele>
        <time>2013-04-13T12:24:19Z</time>
      </trkpt>
      <trkpt lat="43.41724" lon="6.0511">
        <ele>233.19999694824</ele>
        <time>2013-04-13T12:24:24Z</time>
      </trkpt>
      <trkpt lat="43.41736" lon="6.05112">
        <ele>233.80000305176</ele>
        <time>2013-04-13T12:24:30Z</time>
      </trkpt>
      <trkpt lat="43.41737" lon="6.05115">
        <ele>234.19999694824</ele>
        <time>2013-04-13T12:24:31Z</time>
      </trkpt>
      <trkpt lat="43.41736" lon="6.05128">
        <ele>235.39999389648</ele>
        <time>2013-04-13T12:24:35Z</time>
      </trkpt>
      <trkpt lat="43.41736" lon="6.0516">
        <ele>235.39999389648</ele>
        <time>2013-04-13T12:24:44Z</time>
      </trkpt>
      <trkpt lat="43.41742" lon="6.05174">
        <ele>235.39999389648</ele>
        <time>2013-04-13T12:24:49Z</time>
      </trkpt>
      <trkpt lat="43.41751" lon="6.05179">
        <ele>235.39999389648</ele>
        <time>2013-04-13T12:24:54Z</time>
      </trkpt>
      <trkpt lat="43.41759" lon="6.0518">
        <ele>235.39999389648</ele>
        <time>2013-04-13T12:24:57Z</time>
      </trkpt>
      <trkpt lat="43.41786" lon="6.05181">
        <ele>237.39999389648</ele>
        <time>2013-04-13T12:25:10Z</time>
      </trkpt>
      <trkpt lat="43.41802" lon="6.05184">
        <ele>238</ele>
        <time>2013-04-13T12:25:18Z</time>
      </trkpt>
      <trkpt lat="43.41806" lon="6.05185">
        <ele>238.80000305176</ele>
        <time>2013-04-13T12:25:20Z</time>
      </trkpt>
      <trkpt lat="43.41808" lon="6.05184">
        <ele>239.19999694824</ele>
        <time>2013-04-13T12:25:21Z</time>
      </trkpt>
      <trkpt lat="43.41818" lon="6.05185">
        <ele>239.60000610352</ele>
        <time>2013-04-13T12:25:26Z</time>
      </trkpt>
      <trkpt lat="43.41842" lon="6.05185">
        <ele>241</ele>
        <time>2013-04-13T12:25:37Z</time>
      </trkpt>
      <trkpt lat="43.41847" lon="6.05184">
        <ele>242</ele>
        <time>2013-04-13T12:25:39Z</time>
      </trkpt>
      <trkpt lat="43.41852" lon="6.05183">
        <ele>242</ele>
        <time>2013-04-13T12:25:41Z</time>
      </trkpt>
      <trkpt lat="43.41867" lon="6.05178">
        <ele>242</ele>
        <time>2013-04-13T12:25:48Z</time>
      </trkpt>
      <trkpt lat="43.41876" lon="6.05174">
        <ele>242.39999389648</ele>
        <time>2013-04-13T12:25:53Z</time>
      </trkpt>
      <trkpt lat="43.41877" lon="6.05174">
        <ele>242.80000305176</ele>
        <time>2013-04-13T12:25:54Z</time>
      </trkpt>
      <trkpt lat="43.41879" lon="6.05173">
        <ele>243.19999694824</ele>
        <time>2013-04-13T12:25:55Z</time>
      </trkpt>
      <trkpt lat="43.41879" lon="6.05173">
        <ele>243.60000610352</ele>
        <time>2013-04-13T12:25:56Z</time>
      </trkpt>
      <trkpt lat="43.41879" lon="6.05173">
        <ele>244</ele>
        <time>2013-04-13T12:26:00Z</time>
      </trkpt>
      <trkpt lat="43.41881" lon="6.05164">
        <ele>244</ele>
        <time>2013-04-13T12:26:06Z</time>
      </trkpt>
      <trkpt lat="43.41887" lon="6.05153">
        <ele>244.39999389648</ele>
        <time>2013-04-13T12:26:11Z</time>
      </trkpt>
      <trkpt lat="43.41888" lon="6.0515">
        <ele>244.80000305176</ele>
        <time>2013-04-13T12:26:12Z</time>
      </trkpt>
      <trkpt lat="43.41891" lon="6.05145">
        <ele>245.60000610352</ele>
        <time>2013-04-13T12:26:14Z</time>
      </trkpt>
      <trkpt lat="43.41893" lon="6.05144">
        <ele>246</ele>
        <time>2013-04-13T12:26:15Z</time>
      </trkpt>
      <trkpt lat="43.41913" lon="6.05156">
        <ele>246</ele>
        <time>2013-04-13T12:26:18Z</time>
      </trkpt>
      <trkpt lat="43.41938" lon="6.05152">
        <ele>246</ele>
        <time>2013-04-13T12:26:24Z</time>
      </trkpt>
      <trkpt lat="43.41968" lon="6.05138">
        <ele>246.39999389648</ele>
        <time>2013-04-13T12:26:35Z</time>
      </trkpt>
      <trkpt lat="43.4197" lon="6.05137">
        <ele>247</ele>
        <time>2013-04-13T12:26:36Z</time>
      </trkpt>
      <trkpt lat="43.41975" lon="6.05134">
        <ele>247.80000305176</ele>
        <time>2013-04-13T12:26:38Z</time>
      </trkpt>
      <trkpt lat="43.41978" lon="6.05133">
        <ele>248.19999694824</ele>
        <time>2013-04-13T12:26:39Z</time>
      </trkpt>
      <trkpt lat="43.41994" lon="6.05132">
        <ele>248.19999694824</ele>
        <time>2013-04-13T12:26:46Z</time>
      </trkpt>
      <trkpt lat="43.41999" lon="6.05132">
        <ele>248.60000610352</ele>
        <time>2013-04-13T12:26:48Z</time>
      </trkpt>
      <trkpt lat="43.42007" lon="6.05129">
        <ele>249.80000305176</ele>
        <time>2013-04-13T12:26:51Z</time>
      </trkpt>
      <trkpt lat="43.42012" lon="6.05128">
        <ele>250.19999694824</ele>
        <time>2013-04-13T12:26:53Z</time>
      </trkpt>
      <trkpt lat="43.42026" lon="6.05124">
        <ele>250.19999694824</ele>
        <time>2013-04-13T12:26:59Z</time>
      </trkpt>
      <trkpt lat="43.42043" lon="6.0512">
        <ele>250.19999694824</ele>
        <time>2013-04-13T12:27:08Z</time>
      </trkpt>
      <trkpt lat="43.42054" lon="6.05116">
        <ele>250.19999694824</ele>
        <time>2013-04-13T12:27:14Z</time>
      </trkpt>
      <trkpt lat="43.42059" lon="6.05115">
        <ele>250.19999694824</ele>
        <time>2013-04-13T12:27:16Z</time>
      </trkpt>
      <trkpt lat="43.42065" lon="6.05115">
        <ele>250.60000610352</ele>
        <time>2013-04-13T12:27:20Z</time>
      </trkpt>
      <trkpt lat="43.42069" lon="6.05114">
        <ele>251.39999389648</ele>
        <time>2013-04-13T12:27:22Z</time>
      </trkpt>
      <trkpt lat="43.42074" lon="6.05113">
        <ele>252.19999694824</ele>
        <time>2013-04-13T12:27:24Z</time>
      </trkpt>
      <trkpt lat="43.4209" lon="6.05113">
        <ele>252.19999694824</ele>
        <time>2013-04-13T12:27:31Z</time>
      </trkpt>
      <trkpt lat="43.42102" lon="6.05115">
        <ele>252.19999694824</ele>
        <time>2013-04-13T12:27:36Z</time>
      </trkpt>
      <trkpt lat="43.42115" lon="6.05115">
        <ele>252.19999694824</ele>
        <time>2013-04-13T12:27:41Z</time>
      </trkpt>
      <trkpt lat="43.42124" lon="6.05118">
        <ele>253.19999694824</ele>
        <time>2013-04-13T12:27:45Z</time>
      </trkpt>
      <trkpt lat="43.42126" lon="6.05118">
        <ele>253.60000610352</ele>
        <time>2013-04-13T12:27:46Z</time>
      </trkpt>
      <trkpt lat="43.42127" lon="6.05119">
        <ele>254</ele>
        <time>2013-04-13T12:27:47Z</time>
      </trkpt>
      <trkpt lat="43.42128" lon="6.0512">
        <ele>254.39999389648</ele>
        <time>2013-04-13T12:27:48Z</time>
      </trkpt>
      <trkpt lat="43.42128" lon="6.05119">
        <ele>254.39999389648</ele>
        <time>2013-04-13T12:27:51Z</time>
      </trkpt>
      <trkpt lat="43.42128" lon="6.05119">
        <ele>254.39999389648</ele>
        <time>2013-04-13T12:28:18Z</time>
      </trkpt>
      <trkpt lat="43.42128" lon="6.0512">
        <ele>254.39999389648</ele>
        <time>2013-04-13T12:28:51Z</time>
      </trkpt>
      <trkpt lat="43.42128" lon="6.0512">
        <ele>254.39999389648</ele>
        <time>2013-04-13T12:29:08Z</time>
      </trkpt>
      <trkpt lat="43.42128" lon="6.05119">
        <ele>254.39999389648</ele>
        <time>2013-04-13T12:29:11Z</time>
      </trkpt>
      <trkpt lat="43.42128" lon="6.05119">
        <ele>254.39999389648</ele>
        <time>2013-04-13T12:29:32Z</time>
      </trkpt>
      <trkpt lat="43.42128" lon="6.0512">
        <ele>254.39999389648</ele>
        <time>2013-04-13T12:30:15Z</time>
      </trkpt>
      <trkpt lat="43.42128" lon="6.0512">
        <ele>254.39999389648</ele>
        <time>2013-04-13T12:30:28Z</time>
      </trkpt>
      <trkpt lat="43.42129" lon="6.05121">
        <ele>254.39999389648</ele>
        <time>2013-04-13T12:30:37Z</time>
      </trkpt>
      <trkpt lat="43.4213" lon="6.05124">
        <ele>254.39999389648</ele>
        <time>2013-04-13T12:30:39Z</time>
      </trkpt>
      <trkpt lat="43.42136" lon="6.05133">
        <ele>254.39999389648</ele>
        <time>2013-04-13T12:30:45Z</time>
      </trkpt>
      <trkpt lat="43.42147" lon="6.05146">
        <ele>254.39999389648</ele>
        <time>2013-04-13T12:30:52Z</time>
      </trkpt>
      <trkpt lat="43.42154" lon="6.05155">
        <ele>254.80000305176</ele>
        <time>2013-04-13T12:30:56Z</time>
      </trkpt>
      <trkpt lat="43.42156" lon="6.05157">
        <ele>255.19999694824</ele>
        <time>2013-04-13T12:30:57Z</time>
      </trkpt>
      <trkpt lat="43.42163" lon="6.05162">
        <ele>256.39999389648</ele>
        <time>2013-04-13T12:31:00Z</time>
      </trkpt>
      <trkpt lat="43.42172" lon="6.05168">
        <ele>256.39999389648</ele>
        <time>2013-04-13T12:31:04Z</time>
      </trkpt>
      <trkpt lat="43.42187" lon="6.05175">
        <ele>256.39999389648</ele>
        <time>2013-04-13T12:31:10Z</time>
      </trkpt>
      <trkpt lat="43.42196" lon="6.05184">
        <ele>256.39999389648</ele>
        <time>2013-04-13T12:31:15Z</time>
      </trkpt>
      <trkpt lat="43.42199" lon="6.05185">
        <ele>256.39999389648</ele>
        <time>2013-04-13T12:31:16Z</time>
      </trkpt>
      <trkpt lat="43.42209" lon="6.05191">
        <ele>257.20001220703</ele>
        <time>2013-04-13T12:31:21Z</time>
      </trkpt>
      <trkpt lat="43.42223" lon="6.05199">
        <ele>258.39999389648</ele>
        <time>2013-04-13T12:31:28Z</time>
      </trkpt>
      <trkpt lat="43.42231" lon="6.05211">
        <ele>258.39999389648</ele>
        <time>2013-04-13T12:31:33Z</time>
      </trkpt>
      <trkpt lat="43.42241" lon="6.05217">
        <ele>258.39999389648</ele>
        <time>2013-04-13T12:31:38Z</time>
      </trkpt>
      <trkpt lat="43.4225" lon="6.05218">
        <ele>260.20001220703</ele>
        <time>2013-04-13T12:31:42Z</time>
      </trkpt>
      <trkpt lat="43.42266" lon="6.05217">
        <ele>260.60000610352</ele>
        <time>2013-04-13T12:31:49Z</time>
      </trkpt>
      <trkpt lat="43.42281" lon="6.05218">
        <ele>260.60000610352</ele>
        <time>2013-04-13T12:31:55Z</time>
      </trkpt>
      <trkpt lat="43.42293" lon="6.05221">
        <ele>261</ele>
        <time>2013-04-13T12:32:00Z</time>
      </trkpt>
      <trkpt lat="43.42303" lon="6.05225">
        <ele>262.79998779297</ele>
        <time>2013-04-13T12:32:04Z</time>
      </trkpt>
      <trkpt lat="43.4231" lon="6.05226">
        <ele>262.79998779297</ele>
        <time>2013-04-13T12:32:07Z</time>
      </trkpt>
      <trkpt lat="43.42326" lon="6.05229">
        <ele>262.79998779297</ele>
        <time>2013-04-13T12:32:14Z</time>
      </trkpt>
      <trkpt lat="43.42334" lon="6.05232">
        <ele>264.39999389648</ele>
        <time>2013-04-13T12:32:19Z</time>
      </trkpt>
      <trkpt lat="43.42344" lon="6.05233">
        <ele>265</ele>
        <time>2013-04-13T12:32:24Z</time>
      </trkpt>
      <trkpt lat="43.42353" lon="6.05235">
        <ele>266.60000610352</ele>
        <time>2013-04-13T12:32:29Z</time>
      </trkpt>
      <trkpt lat="43.42363" lon="6.05231">
        <ele>267</ele>
        <time>2013-04-13T12:32:34Z</time>
      </trkpt>
      <trkpt lat="43.42374" lon="6.05228">
        <ele>267</ele>
        <time>2013-04-13T12:32:40Z</time>
      </trkpt>
      <trkpt lat="43.4238" lon="6.0523">
        <ele>267.79998779297</ele>
        <time>2013-04-13T12:32:43Z</time>
      </trkpt>
      <trkpt lat="43.42397" lon="6.05226">
        <ele>269</ele>
        <time>2013-04-13T12:32:51Z</time>
      </trkpt>
      <trkpt lat="43.42414" lon="6.05223">
        <ele>269</ele>
        <time>2013-04-13T12:32:59Z</time>
      </trkpt>
      <trkpt lat="43.4243" lon="6.05225">
        <ele>269</ele>
        <time>2013-04-13T12:33:06Z</time>
      </trkpt>
      <trkpt lat="43.42436" lon="6.05223">
        <ele>269</ele>
        <time>2013-04-13T12:33:09Z</time>
      </trkpt>
      <trkpt lat="43.42442" lon="6.05221">
        <ele>269</ele>
        <time>2013-04-13T12:33:12Z</time>
      </trkpt>
      <trkpt lat="43.42451" lon="6.05218">
        <ele>269.39999389648</ele>
        <time>2013-04-13T12:33:16Z</time>
      </trkpt>
      <trkpt lat="43.42453" lon="6.05217">
        <ele>269.79998779297</ele>
        <time>2013-04-13T12:33:17Z</time>
      </trkpt>
      <trkpt lat="43.42459" lon="6.05216">
        <ele>271.20001220703</ele>
        <time>2013-04-13T12:33:22Z</time>
      </trkpt>
      <trkpt lat="43.4246" lon="6.05215">
        <ele>271.60000610352</ele>
        <time>2013-04-13T12:33:23Z</time>
      </trkpt>
      <trkpt lat="43.42464" lon="6.05212">
        <ele>273.20001220703</ele>
        <time>2013-04-13T12:33:27Z</time>
      </trkpt>
      <trkpt lat="43.42468" lon="6.05213">
        <ele>273.20001220703</ele>
        <time>2013-04-13T12:33:30Z</time>
      </trkpt>
      <trkpt lat="43.42473" lon="6.05214">
        <ele>273.20001220703</ele>
        <time>2013-04-13T12:33:35Z</time>
      </trkpt>
      <trkpt lat="43.42474" lon="6.05214">
        <ele>273.20001220703</ele>
        <time>2013-04-13T12:33:36Z</time>
      </trkpt>
      <trkpt lat="43.42475" lon="6.05213">
        <ele>273.20001220703</ele>
        <time>2013-04-13T12:33:39Z</time>
      </trkpt>
      <trkpt lat="43.42475" lon="6.05213">
        <ele>273.20001220703</ele>
        <time>2013-04-13T12:33:47Z</time>
      </trkpt>
      <trkpt lat="43.42475" lon="6.05213">
        <ele>273.20001220703</ele>
        <time>2013-04-13T12:33:53Z</time>
      </trkpt>
      <trkpt lat="43.42475" lon="6.05213">
        <ele>273.20001220703</ele>
        <time>2013-04-13T12:33:55Z</time>
      </trkpt>
      <trkpt lat="43.42479" lon="6.05216">
        <ele>273.20001220703</ele>
        <time>2013-04-13T12:33:58Z</time>
      </trkpt>
      <trkpt lat="43.42488" lon="6.0522">
        <ele>273.20001220703</ele>
        <time>2013-04-13T12:34:03Z</time>
      </trkpt>
      <trkpt lat="43.4249" lon="6.05222">
        <ele>273.20001220703</ele>
        <time>2013-04-13T12:34:04Z</time>
      </trkpt>
      <trkpt lat="43.42496" lon="6.05225">
        <ele>273.20001220703</ele>
        <time>2013-04-13T12:34:06Z</time>
      </trkpt>
      <trkpt lat="43.425" lon="6.05226">
        <ele>273.20001220703</ele>
        <time>2013-04-13T12:34:08Z</time>
      </trkpt>
      <trkpt lat="43.42512" lon="6.05228">
        <ele>273.20001220703</ele>
        <time>2013-04-13T12:34:14Z</time>
      </trkpt>
      <trkpt lat="43.42525" lon="6.05227">
        <ele>273.20001220703</ele>
        <time>2013-04-13T12:34:20Z</time>
      </trkpt>
      <trkpt lat="43.42535" lon="6.05226">
        <ele>273.20001220703</ele>
        <time>2013-04-13T12:34:25Z</time>
      </trkpt>
      <trkpt lat="43.42554" lon="6.0522">
        <ele>274.60000610352</ele>
        <time>2013-04-13T12:34:35Z</time>
      </trkpt>
      <trkpt lat="43.42557" lon="6.05219">
        <ele>275.39999389648</ele>
        <time>2013-04-13T12:34:37Z</time>
      </trkpt>
      <trkpt lat="43.42561" lon="6.05219">
        <ele>275.39999389648</ele>
        <time>2013-04-13T12:34:39Z</time>
      </trkpt>
      <trkpt lat="43.42564" lon="6.05219">
        <ele>275.39999389648</ele>
        <time>2013-04-13T12:34:41Z</time>
      </trkpt>
      <trkpt lat="43.42569" lon="6.05221">
        <ele>275.39999389648</ele>
        <time>2013-04-13T12:34:44Z</time>
      </trkpt>
      <trkpt lat="43.42575" lon="6.05222">
        <ele>275.39999389648</ele>
        <time>2013-04-13T12:34:48Z</time>
      </trkpt>
      <trkpt lat="43.42586" lon="6.05229">
        <ele>275.39999389648</ele>
        <time>2013-04-13T12:34:54Z</time>
      </trkpt>
      <trkpt lat="43.42599" lon="6.05242">
        <ele>275.39999389648</ele>
        <time>2013-04-13T12:35:02Z</time>
      </trkpt>
      <trkpt lat="43.42607" lon="6.0525">
        <ele>275.39999389648</ele>
        <time>2013-04-13T12:35:07Z</time>
      </trkpt>
      <trkpt lat="43.42624" lon="6.05262">
        <ele>277.60000610352</ele>
        <time>2013-04-13T12:35:16Z</time>
      </trkpt>
      <trkpt lat="43.42635" lon="6.05272">
        <ele>277.60000610352</ele>
        <time>2013-04-13T12:35:23Z</time>
      </trkpt>
      <trkpt lat="43.42641" lon="6.05281">
        <ele>277.60000610352</ele>
        <time>2013-04-13T12:35:28Z</time>
      </trkpt>
      <trkpt lat="43.42643" lon="6.05283">
        <ele>277.60000610352</ele>
        <time>2013-04-13T12:35:29Z</time>
      </trkpt>
      <trkpt lat="43.42649" lon="6.05288">
        <ele>279.60000610352</ele>
        <time>2013-04-13T12:35:34Z</time>
      </trkpt>
      <trkpt lat="43.42653" lon="6.05292">
        <ele>279.60000610352</ele>
        <time>2013-04-13T12:35:37Z</time>
      </trkpt>
      <trkpt lat="43.42654" lon="6.05296">
        <ele>279.60000610352</ele>
        <time>2013-04-13T12:35:39Z</time>
      </trkpt>
      <trkpt lat="43.42667" lon="6.05316">
        <ele>279.60000610352</ele>
        <time>2013-04-13T12:35:51Z</time>
      </trkpt>
      <trkpt lat="43.42677" lon="6.05331">
        <ele>280.60000610352</ele>
        <time>2013-04-13T12:35:59Z</time>
      </trkpt>
      <trkpt lat="43.42679" lon="6.05334">
        <ele>281.60000610352</ele>
        <time>2013-04-13T12:36:01Z</time>
      </trkpt>
      <trkpt lat="43.42681" lon="6.05335">
        <ele>282</ele>
        <time>2013-04-13T12:36:03Z</time>
      </trkpt>
      <trkpt lat="43.42684" lon="6.05339">
        <ele>282</ele>
        <time>2013-04-13T12:36:06Z</time>
      </trkpt>
      <trkpt lat="43.42685" lon="6.0534">
        <ele>282.39999389648</ele>
        <time>2013-04-13T12:36:07Z</time>
      </trkpt>
      <trkpt lat="43.42688" lon="6.05342">
        <ele>283.20001220703</ele>
        <time>2013-04-13T12:36:09Z</time>
      </trkpt>
      <trkpt lat="43.42691" lon="6.05342">
        <ele>284.20001220703</ele>
        <time>2013-04-13T12:36:11Z</time>
      </trkpt>
      <trkpt lat="43.42695" lon="6.05343">
        <ele>284.20001220703</ele>
        <time>2013-04-13T12:36:15Z</time>
      </trkpt>
      <trkpt lat="43.42701" lon="6.05343">
        <ele>284.20001220703</ele>
        <time>2013-04-13T12:36:21Z</time>
      </trkpt>
      <trkpt lat="43.42707" lon="6.05342">
        <ele>284.20001220703</ele>
        <time>2013-04-13T12:36:26Z</time>
      </trkpt>
      <trkpt lat="43.42716" lon="6.0534">
        <ele>284.20001220703</ele>
        <time>2013-04-13T12:36:31Z</time>
      </trkpt>
      <trkpt lat="43.42718" lon="6.05343">
        <ele>285</ele>
        <time>2013-04-13T12:36:33Z</time>
      </trkpt>
      <trkpt lat="43.42719" lon="6.05344">
        <ele>285.39999389648</ele>
        <time>2013-04-13T12:36:34Z</time>
      </trkpt>
      <trkpt lat="43.4272" lon="6.05347">
        <ele>286.20001220703</ele>
        <time>2013-04-13T12:36:36Z</time>
      </trkpt>
      <trkpt lat="43.42722" lon="6.05352">
        <ele>286.20001220703</ele>
        <time>2013-04-13T12:36:39Z</time>
      </trkpt>
      <trkpt lat="43.42722" lon="6.0536">
        <ele>286.20001220703</ele>
        <time>2013-04-13T12:36:45Z</time>
      </trkpt>
      <trkpt lat="43.4272" lon="6.05372">
        <ele>287</ele>
        <time>2013-04-13T12:36:53Z</time>
      </trkpt>
      <trkpt lat="43.42719" lon="6.05375">
        <ele>287.79998779297</ele>
        <time>2013-04-13T12:36:55Z</time>
      </trkpt>
      <trkpt lat="43.4272" lon="6.05378">
        <ele>288.20001220703</ele>
        <time>2013-04-13T12:36:57Z</time>
      </trkpt>
      <trkpt lat="43.42719" lon="6.05384">
        <ele>288.20001220703</ele>
        <time>2013-04-13T12:37:03Z</time>
      </trkpt>
      <trkpt lat="43.42719" lon="6.05384">
        <ele>288.20001220703</ele>
        <time>2013-04-13T12:37:16Z</time>
      </trkpt>
      <trkpt lat="43.42719" lon="6.05384">
        <ele>288.20001220703</ele>
        <time>2013-04-13T12:37:26Z</time>
      </trkpt>
      <trkpt lat="43.4272" lon="6.05388">
        <ele>288.20001220703</ele>
        <time>2013-04-13T12:37:33Z</time>
      </trkpt>
      <trkpt lat="43.42721" lon="6.0539">
        <ele>288.20001220703</ele>
        <time>2013-04-13T12:37:34Z</time>
      </trkpt>
      <trkpt lat="43.42724" lon="6.05397">
        <ele>288.20001220703</ele>
        <time>2013-04-13T12:37:38Z</time>
      </trkpt>
      <trkpt lat="43.42726" lon="6.05404">
        <ele>288.60000610352</ele>
        <time>2013-04-13T12:37:42Z</time>
      </trkpt>
      <trkpt lat="43.42727" lon="6.05406">
        <ele>289.20001220703</ele>
        <time>2013-04-13T12:37:43Z</time>
      </trkpt>
      <trkpt lat="43.42729" lon="6.05409">
        <ele>290</ele>
        <time>2013-04-13T12:37:45Z</time>
      </trkpt>
      <trkpt lat="43.4273" lon="6.05411">
        <ele>290.39999389648</ele>
        <time>2013-04-13T12:37:46Z</time>
      </trkpt>
      <trkpt lat="43.4273" lon="6.05415">
        <ele>290.39999389648</ele>
        <time>2013-04-13T12:37:48Z</time>
      </trkpt>
      <trkpt lat="43.42734" lon="6.05435">
        <ele>290.39999389648</ele>
        <time>2013-04-13T12:37:58Z</time>
      </trkpt>
      <trkpt lat="43.42733" lon="6.0545">
        <ele>292.39999389648</ele>
        <time>2013-04-13T12:38:06Z</time>
      </trkpt>
      <trkpt lat="43.42727" lon="6.05463">
        <ele>292.39999389648</ele>
        <time>2013-04-13T12:38:13Z</time>
      </trkpt>
      <trkpt lat="43.42725" lon="6.0547">
        <ele>292.39999389648</ele>
        <time>2013-04-13T12:38:17Z</time>
      </trkpt>
      <trkpt lat="43.42727" lon="6.05494">
        <ele>292.79998779297</ele>
        <time>2013-04-13T12:38:27Z</time>
      </trkpt>
      <trkpt lat="43.42728" lon="6.055">
        <ele>294</ele>
        <time>2013-04-13T12:38:30Z</time>
      </trkpt>
      <trkpt lat="43.4273" lon="6.05532">
        <ele>295</ele>
        <time>2013-04-13T12:38:44Z</time>
      </trkpt>
      <trkpt lat="43.42735" lon="6.05546">
        <ele>296.60000610352</ele>
        <time>2013-04-13T12:38:51Z</time>
      </trkpt>
      <trkpt lat="43.42738" lon="6.05554">
        <ele>296.60000610352</ele>
        <time>2013-04-13T12:38:55Z</time>
      </trkpt>
      <trkpt lat="43.42741" lon="6.05565">
        <ele>297</ele>
        <time>2013-04-13T12:39:01Z</time>
      </trkpt>
      <trkpt lat="43.42741" lon="6.05567">
        <ele>297.39999389648</ele>
        <time>2013-04-13T12:39:02Z</time>
      </trkpt>
      <trkpt lat="43.4275" lon="6.05578">
        <ele>298.79998779297</ele>
        <time>2013-04-13T12:39:11Z</time>
      </trkpt>
      <trkpt lat="43.42751" lon="6.0558">
        <ele>298.79998779297</ele>
        <time>2013-04-13T12:39:12Z</time>
      </trkpt>
      <trkpt lat="43.42756" lon="6.05591">
        <ele>300.79998779297</ele>
        <time>2013-04-13T12:39:19Z</time>
      </trkpt>
      <trkpt lat="43.42754" lon="6.05607">
        <ele>300.79998779297</ele>
        <time>2013-04-13T12:39:28Z</time>
      </trkpt>
      <trkpt lat="43.42753" lon="6.05611">
        <ele>300.79998779297</ele>
        <time>2013-04-13T12:39:30Z</time>
      </trkpt>
      <trkpt lat="43.42751" lon="6.05615">
        <ele>302</ele>
        <time>2013-04-13T12:39:33Z</time>
      </trkpt>
      <trkpt lat="43.42751" lon="6.05618">
        <ele>302.79998779297</ele>
        <time>2013-04-13T12:39:35Z</time>
      </trkpt>
      <trkpt lat="43.42751" lon="6.05619">
        <ele>302.79998779297</ele>
        <time>2013-04-13T12:39:36Z</time>
      </trkpt>
      <trkpt lat="43.42751" lon="6.05619">
        <ele>302.79998779297</ele>
        <time>2013-04-13T12:40:01Z</time>
      </trkpt>
      <trkpt lat="43.42751" lon="6.05619">
        <ele>302.79998779297</ele>
        <time>2013-04-13T12:40:14Z</time>
      </trkpt>
      <trkpt lat="43.42751" lon="6.0562">
        <ele>302.79998779297</ele>
        <time>2013-04-13T12:40:16Z</time>
      </trkpt>
      <trkpt lat="43.4275" lon="6.05621">
        <ele>302.79998779297</ele>
        <time>2013-04-13T12:40:19Z</time>
      </trkpt>
      <trkpt lat="43.42749" lon="6.05623">
        <ele>302.79998779297</ele>
        <time>2013-04-13T12:40:22Z</time>
      </trkpt>
      <trkpt lat="43.42749" lon="6.05623">
        <ele>302.79998779297</ele>
        <time>2013-04-13T12:40:37Z</time>
      </trkpt>
      <trkpt lat="43.42749" lon="6.05623">
        <ele>304.60000610352</ele>
        <time>2013-04-13T12:41:15Z</time>
      </trkpt>
      <trkpt lat="43.42749" lon="6.05623">
        <ele>303.79998779297</ele>
        <time>2013-04-13T12:41:23Z</time>
      </trkpt>
      <trkpt lat="43.42748" lon="6.05623">
        <ele>303.79998779297</ele>
        <time>2013-04-13T12:41:33Z</time>
      </trkpt>
      <trkpt lat="43.42748" lon="6.05623">
        <ele>303.79998779297</ele>
        <time>2013-04-13T12:41:39Z</time>
      </trkpt>
      <trkpt lat="43.42747" lon="6.05624">
        <ele>303.79998779297</ele>
        <time>2013-04-13T12:41:42Z</time>
      </trkpt>
      <trkpt lat="43.42743" lon="6.05633">
        <ele>303.79998779297</ele>
        <time>2013-04-13T12:41:48Z</time>
      </trkpt>
      <trkpt lat="43.42741" lon="6.05635">
        <ele>303.79998779297</ele>
        <time>2013-04-13T12:41:50Z</time>
      </trkpt>
      <trkpt lat="43.42735" lon="6.05641">
        <ele>303.79998779297</ele>
        <time>2013-04-13T12:41:54Z</time>
      </trkpt>
      <trkpt lat="43.42727" lon="6.05651">
        <ele>303.79998779297</ele>
        <time>2013-04-13T12:42:00Z</time>
      </trkpt>
      <trkpt lat="43.42725" lon="6.0566">
        <ele>303.79998779297</ele>
        <time>2013-04-13T12:42:04Z</time>
      </trkpt>
      <trkpt lat="43.42721" lon="6.05667">
        <ele>304.39999389648</ele>
        <time>2013-04-13T12:42:07Z</time>
      </trkpt>
      <trkpt lat="43.42719" lon="6.05673">
        <ele>305.60000610352</ele>
        <time>2013-04-13T12:42:10Z</time>
      </trkpt>
      <trkpt lat="43.42717" lon="6.05674">
        <ele>306</ele>
        <time>2013-04-13T12:42:11Z</time>
      </trkpt>
      <trkpt lat="43.4271" lon="6.0568">
        <ele>306</ele>
        <time>2013-04-13T12:42:16Z</time>
      </trkpt>
      <trkpt lat="43.42709" lon="6.05682">
        <ele>306</ele>
        <time>2013-04-13T12:42:17Z</time>
      </trkpt>
      <trkpt lat="43.42708" lon="6.05683">
        <ele>306.39999389648</ele>
        <time>2013-04-13T12:42:18Z</time>
      </trkpt>
      <trkpt lat="43.42707" lon="6.05685">
        <ele>306.79998779297</ele>
        <time>2013-04-13T12:42:19Z</time>
      </trkpt>
      <trkpt lat="43.42706" lon="6.05692">
        <ele>308.20001220703</ele>
        <time>2013-04-13T12:42:22Z</time>
      </trkpt>
      <trkpt lat="43.42703" lon="6.05699">
        <ele>308.20001220703</ele>
        <time>2013-04-13T12:42:26Z</time>
      </trkpt>
      <trkpt lat="43.42703" lon="6.05699">
        <ele>308.60000610352</ele>
        <time>2013-04-13T12:42:28Z</time>
      </trkpt>
      <trkpt lat="43.42702" lon="6.05699">
        <ele>309</ele>
        <time>2013-04-13T12:42:29Z</time>
      </trkpt>
      <trkpt lat="43.42702" lon="6.05699">
        <ele>310.20001220703</ele>
        <time>2013-04-13T12:42:32Z</time>
      </trkpt>
      <trkpt lat="43.42704" lon="6.05701">
        <ele>310.20001220703</ele>
        <time>2013-04-13T12:42:37Z</time>
      </trkpt>
      <trkpt lat="43.42703" lon="6.05705">
        <ele>310.20001220703</ele>
        <time>2013-04-13T12:42:39Z</time>
      </trkpt>
      <trkpt lat="43.42703" lon="6.05707">
        <ele>310.20001220703</ele>
        <time>2013-04-13T12:42:43Z</time>
      </trkpt>
      <trkpt lat="43.42705" lon="6.05698">
        <ele>310.20001220703</ele>
        <time>2013-04-13T12:42:55Z</time>
      </trkpt>
      <trkpt lat="43.42706" lon="6.05691">
        <ele>310.20001220703</ele>
        <time>2013-04-13T12:43:00Z</time>
      </trkpt>
      <trkpt lat="43.42706" lon="6.05688">
        <ele>310.20001220703</ele>
        <time>2013-04-13T12:43:02Z</time>
      </trkpt>
      <trkpt lat="43.42706" lon="6.05687">
        <ele>310.20001220703</ele>
        <time>2013-04-13T12:43:05Z</time>
      </trkpt>
      <trkpt lat="43.42706" lon="6.05687">
        <ele>310.20001220703</ele>
        <time>2013-04-13T12:43:08Z</time>
      </trkpt>
      <trkpt lat="43.42706" lon="6.05687">
        <ele>310.20001220703</ele>
        <time>2013-04-13T12:43:13Z</time>
      </trkpt>
      <trkpt lat="43.42706" lon="6.05687">
        <ele>310.20001220703</ele>
        <time>2013-04-13T12:43:20Z</time>
      </trkpt>
      <trkpt lat="43.42706" lon="6.05687">
        <ele>310.20001220703</ele>
        <time>2013-04-13T12:43:35Z</time>
      </trkpt>
      <trkpt lat="43.42706" lon="6.05687">
        <ele>309.79998779297</ele>
        <time>2013-04-13T12:44:20Z</time>
      </trkpt>
      <trkpt lat="43.42706" lon="6.05687">
        <ele>308.20001220703</ele>
        <time>2013-04-13T12:44:41Z</time>
      </trkpt>
      <trkpt lat="43.42706" lon="6.05687">
        <ele>308.20001220703</ele>
        <time>2013-04-13T12:44:46Z</time>
      </trkpt>
      <trkpt lat="43.42706" lon="6.0569">
        <ele>308.20001220703</ele>
        <time>2013-04-13T12:44:49Z</time>
      </trkpt>
      <trkpt lat="43.42705" lon="6.05696">
        <ele>308.20001220703</ele>
        <time>2013-04-13T12:44:51Z</time>
      </trkpt>
      <trkpt lat="43.42702" lon="6.05705">
        <ele>308.20001220703</ele>
        <time>2013-04-13T12:44:55Z</time>
      </trkpt>
      <trkpt lat="43.42702" lon="6.05707">
        <ele>308.20001220703</ele>
        <time>2013-04-13T12:44:56Z</time>
      </trkpt>
      <trkpt lat="43.427" lon="6.05712">
        <ele>308.60000610352</ele>
        <time>2013-04-13T12:44:58Z</time>
      </trkpt>
      <trkpt lat="43.427" lon="6.05715">
        <ele>309.20001220703</ele>
        <time>2013-04-13T12:44:59Z</time>
      </trkpt>
      <trkpt lat="43.427" lon="6.05717">
        <ele>309.60000610352</ele>
        <time>2013-04-13T12:45:00Z</time>
      </trkpt>
      <trkpt lat="43.42699" lon="6.05719">
        <ele>310</ele>
        <time>2013-04-13T12:45:01Z</time>
      </trkpt>
      <trkpt lat="43.42699" lon="6.05721">
        <ele>310.39999389648</ele>
        <time>2013-04-13T12:45:02Z</time>
      </trkpt>
      <trkpt lat="43.42698" lon="6.05725">
        <ele>310.39999389648</ele>
        <time>2013-04-13T12:45:04Z</time>
      </trkpt>
      <trkpt lat="43.42698" lon="6.05731">
        <ele>310.39999389648</ele>
        <time>2013-04-13T12:45:06Z</time>
      </trkpt>
      <trkpt lat="43.427" lon="6.05735">
        <ele>310.79998779297</ele>
        <time>2013-04-13T12:45:08Z</time>
      </trkpt>
      <trkpt lat="43.42701" lon="6.05736">
        <ele>311.20001220703</ele>
        <time>2013-04-13T12:45:09Z</time>
      </trkpt>
      <trkpt lat="43.42701" lon="6.05736">
        <ele>311.60000610352</ele>
        <time>2013-04-13T12:45:10Z</time>
      </trkpt>
      <trkpt lat="43.42701" lon="6.05736">
        <ele>312.60000610352</ele>
        <time>2013-04-13T12:45:14Z</time>
      </trkpt>
      <trkpt lat="43.42698" lon="6.05732">
        <ele>312.60000610352</ele>
        <time>2013-04-13T12:45:19Z</time>
      </trkpt>
      <trkpt lat="43.42698" lon="6.05731">
        <ele>312.60000610352</ele>
        <time>2013-04-13T12:45:26Z</time>
      </trkpt>
      <trkpt lat="43.42698" lon="6.05731">
        <ele>312.60000610352</ele>
        <time>2013-04-13T12:45:53Z</time>
      </trkpt>
      <trkpt lat="43.42698" lon="6.05731">
        <ele>312.60000610352</ele>
        <time>2013-04-13T12:46:20Z</time>
      </trkpt>
      <trkpt lat="43.42698" lon="6.05731">
        <ele>312.60000610352</ele>
        <time>2013-04-13T12:46:40Z</time>
      </trkpt>
      <trkpt lat="43.42698" lon="6.05731">
        <ele>312.60000610352</ele>
        <time>2013-04-13T12:46:44Z</time>
      </trkpt>
      <trkpt lat="43.42698" lon="6.05731">
        <ele>312.60000610352</ele>
        <time>2013-04-13T12:47:00Z</time>
      </trkpt>
      <trkpt lat="43.42698" lon="6.05731">
        <ele>312.60000610352</ele>
        <time>2013-04-13T12:47:13Z</time>
      </trkpt>
      <trkpt lat="43.42698" lon="6.05731">
        <ele>312.60000610352</ele>
        <time>2013-04-13T12:47:17Z</time>
      </trkpt>
      <trkpt lat="43.42698" lon="6.05731">
        <ele>312.60000610352</ele>
        <time>2013-04-13T12:47:18Z</time>
      </trkpt>
      <trkpt lat="43.42699" lon="6.05732">
        <ele>312.60000610352</ele>
        <time>2013-04-13T12:47:25Z</time>
      </trkpt>
      <trkpt lat="43.42704" lon="6.05736">
        <ele>312.60000610352</ele>
        <time>2013-04-13T12:47:29Z</time>
      </trkpt>
      <trkpt lat="43.42705" lon="6.05737">
        <ele>312.60000610352</ele>
        <time>2013-04-13T12:47:30Z</time>
      </trkpt>
      <trkpt lat="43.42713" lon="6.05736">
        <ele>312.60000610352</ele>
        <time>2013-04-13T12:47:34Z</time>
      </trkpt>
      <trkpt lat="43.42715" lon="6.05736">
        <ele>312.60000610352</ele>
        <time>2013-04-13T12:47:35Z</time>
      </trkpt>
      <trkpt lat="43.42732" lon="6.05739">
        <ele>312.60000610352</ele>
        <time>2013-04-13T12:47:43Z</time>
      </trkpt>
      <trkpt lat="43.4274" lon="6.0574">
        <ele>312.60000610352</ele>
        <time>2013-04-13T12:47:47Z</time>
      </trkpt>
      <trkpt lat="43.42746" lon="6.05741">
        <ele>312.60000610352</ele>
        <time>2013-04-13T12:47:50Z</time>
      </trkpt>
      <trkpt lat="43.42754" lon="6.05739">
        <ele>312.60000610352</ele>
        <time>2013-04-13T12:47:55Z</time>
      </trkpt>
      <trkpt lat="43.42767" lon="6.0573">
        <ele>312.60000610352</ele>
        <time>2013-04-13T12:48:02Z</time>
      </trkpt>
      <trkpt lat="43.42777" lon="6.05731">
        <ele>312.60000610352</ele>
        <time>2013-04-13T12:48:07Z</time>
      </trkpt>
      <trkpt lat="43.4278" lon="6.05734">
        <ele>313.39999389648</ele>
        <time>2013-04-13T12:48:09Z</time>
      </trkpt>
      <trkpt lat="43.42781" lon="6.05735">
        <ele>313.79998779297</ele>
        <time>2013-04-13T12:48:10Z</time>
      </trkpt>
      <trkpt lat="43.42788" lon="6.05736">
        <ele>314.60000610352</ele>
        <time>2013-04-13T12:48:13Z</time>
      </trkpt>
      <trkpt lat="43.42791" lon="6.05737">
        <ele>314.60000610352</ele>
        <time>2013-04-13T12:48:15Z</time>
      </trkpt>
      <trkpt lat="43.42792" lon="6.05739">
        <ele>314.60000610352</ele>
        <time>2013-04-13T12:48:16Z</time>
      </trkpt>
      <trkpt lat="43.42799" lon="6.05744">
        <ele>314.60000610352</ele>
        <time>2013-04-13T12:48:21Z</time>
      </trkpt>
      <trkpt lat="43.4281" lon="6.0574">
        <ele>314.60000610352</ele>
        <time>2013-04-13T12:48:26Z</time>
      </trkpt>
      <trkpt lat="43.42818" lon="6.05736">
        <ele>314.60000610352</ele>
        <time>2013-04-13T12:48:30Z</time>
      </trkpt>
      <trkpt lat="43.42822" lon="6.05736">
        <ele>314.60000610352</ele>
        <time>2013-04-13T12:48:32Z</time>
      </trkpt>
      <trkpt lat="43.42828" lon="6.05734">
        <ele>314.60000610352</ele>
        <time>2013-04-13T12:48:35Z</time>
      </trkpt>
      <trkpt lat="43.42831" lon="6.05732">
        <ele>314.60000610352</ele>
        <time>2013-04-13T12:48:37Z</time>
      </trkpt>
      <trkpt lat="43.42832" lon="6.05731">
        <ele>314.60000610352</ele>
        <time>2013-04-13T12:48:39Z</time>
      </trkpt>
      <trkpt lat="43.42834" lon="6.05729">
        <ele>314.60000610352</ele>
        <time>2013-04-13T12:48:41Z</time>
      </trkpt>
      <trkpt lat="43.42837" lon="6.05723">
        <ele>314.60000610352</ele>
        <time>2013-04-13T12:48:45Z</time>
      </trkpt>
      <trkpt lat="43.42838" lon="6.05722">
        <ele>314.60000610352</ele>
        <time>2013-04-13T12:48:46Z</time>
      </trkpt>
      <trkpt lat="43.42838" lon="6.0572">
        <ele>314.60000610352</ele>
        <time>2013-04-13T12:48:47Z</time>
      </trkpt>
      <trkpt lat="43.42841" lon="6.0571">
        <ele>314.60000610352</ele>
        <time>2013-04-13T12:48:52Z</time>
      </trkpt>
      <trkpt lat="43.42842" lon="6.05704">
        <ele>314.60000610352</ele>
        <time>2013-04-13T12:48:54Z</time>
      </trkpt>
      <trkpt lat="43.42844" lon="6.05687">
        <ele>314.60000610352</ele>
        <time>2013-04-13T12:49:00Z</time>
      </trkpt>
      <trkpt lat="43.42845" lon="6.05673">
        <ele>314.60000610352</ele>
        <time>2013-04-13T12:49:05Z</time>
      </trkpt>
      <trkpt lat="43.42846" lon="6.0566">
        <ele>315</ele>
        <time>2013-04-13T12:49:09Z</time>
      </trkpt>
      <trkpt lat="43.42847" lon="6.05652">
        <ele>315.79998779297</ele>
        <time>2013-04-13T12:49:11Z</time>
      </trkpt>
      <trkpt lat="43.42847" lon="6.05643">
        <ele>316.60000610352</ele>
        <time>2013-04-13T12:49:13Z</time>
      </trkpt>
      <trkpt lat="43.42851" lon="6.05602">
        <ele>316.60000610352</ele>
        <time>2013-04-13T12:49:22Z</time>
      </trkpt>
      <trkpt lat="43.42856" lon="6.05567">
        <ele>316.60000610352</ele>
        <time>2013-04-13T12:49:30Z</time>
      </trkpt>
      <trkpt lat="43.42863" lon="6.05542">
        <ele>316.60000610352</ele>
        <time>2013-04-13T12:49:36Z</time>
      </trkpt>
      <trkpt lat="43.42869" lon="6.05539">
        <ele>316.60000610352</ele>
        <time>2013-04-13T12:49:40Z</time>
      </trkpt>
      <trkpt lat="43.42875" lon="6.0554">
        <ele>316.20001220703</ele>
        <time>2013-04-13T12:49:42Z</time>
      </trkpt>
      <trkpt lat="43.42878" lon="6.05542">
        <ele>315.79998779297</ele>
        <time>2013-04-13T12:49:43Z</time>
      </trkpt>
      <trkpt lat="43.42884" lon="6.05545">
        <ele>315</ele>
        <time>2013-04-13T12:49:45Z</time>
      </trkpt>
      <trkpt lat="43.42891" lon="6.05552">
        <ele>314.60000610352</ele>
        <time>2013-04-13T12:49:49Z</time>
      </trkpt>
      <trkpt lat="43.42896" lon="6.05554">
        <ele>314.60000610352</ele>
        <time>2013-04-13T12:49:51Z</time>
      </trkpt>
      <trkpt lat="43.42902" lon="6.05555">
        <ele>314.60000610352</ele>
        <time>2013-04-13T12:49:54Z</time>
      </trkpt>
      <trkpt lat="43.4291" lon="6.05553">
        <ele>314.60000610352</ele>
        <time>2013-04-13T12:49:58Z</time>
      </trkpt>
      <trkpt lat="43.42913" lon="6.0555">
        <ele>314.60000610352</ele>
        <time>2013-04-13T12:50:00Z</time>
      </trkpt>
      <trkpt lat="43.42919" lon="6.05545">
        <ele>313</ele>
        <time>2013-04-13T12:50:03Z</time>
      </trkpt>
      <trkpt lat="43.42927" lon="6.0554">
        <ele>312.60000610352</ele>
        <time>2013-04-13T12:50:07Z</time>
      </trkpt>
      <trkpt lat="43.42931" lon="6.05536">
        <ele>312.60000610352</ele>
        <time>2013-04-13T12:50:10Z</time>
      </trkpt>
      <trkpt lat="43.42932" lon="6.05534">
        <ele>312.60000610352</ele>
        <time>2013-04-13T12:50:11Z</time>
      </trkpt>
      <trkpt lat="43.42933" lon="6.05531">
        <ele>312.60000610352</ele>
        <time>2013-04-13T12:50:13Z</time>
      </trkpt>
      <trkpt lat="43.42937" lon="6.0553">
        <ele>312.60000610352</ele>
        <time>2013-04-13T12:50:16Z</time>
      </trkpt>
      <trkpt lat="43.42945" lon="6.05525">
        <ele>312.60000610352</ele>
        <time>2013-04-13T12:50:22Z</time>
      </trkpt>
      <trkpt lat="43.42957" lon="6.05521">
        <ele>312.60000610352</ele>
        <time>2013-04-13T12:50:28Z</time>
      </trkpt>
      <trkpt lat="43.42965" lon="6.05518">
        <ele>312.60000610352</ele>
        <time>2013-04-13T12:50:32Z</time>
      </trkpt>
      <trkpt lat="43.42966" lon="6.05517">
        <ele>313</ele>
        <time>2013-04-13T12:50:33Z</time>
      </trkpt>
      <trkpt lat="43.42969" lon="6.05516">
        <ele>313.39999389648</ele>
        <time>2013-04-13T12:50:34Z</time>
      </trkpt>
      <trkpt lat="43.42972" lon="6.05514">
        <ele>314.20001220703</ele>
        <time>2013-04-13T12:50:36Z</time>
      </trkpt>
      <trkpt lat="43.42978" lon="6.05512">
        <ele>314.60000610352</ele>
        <time>2013-04-13T12:50:39Z</time>
      </trkpt>
      <trkpt lat="43.42986" lon="6.05504">
        <ele>316</ele>
        <time>2013-04-13T12:50:44Z</time>
      </trkpt>
      <trkpt lat="43.42988" lon="6.05504">
        <ele>316.39999389648</ele>
        <time>2013-04-13T12:50:45Z</time>
      </trkpt>
      <trkpt lat="43.42989" lon="6.05504">
        <ele>316.79998779297</ele>
        <time>2013-04-13T12:50:46Z</time>
      </trkpt>
      <trkpt lat="43.42993" lon="6.05503">
        <ele>316.79998779297</ele>
        <time>2013-04-13T12:50:49Z</time>
      </trkpt>
      <trkpt lat="43.42995" lon="6.05504">
        <ele>318.20001220703</ele>
        <time>2013-04-13T12:50:51Z</time>
      </trkpt>
      <trkpt lat="43.42999" lon="6.05504">
        <ele>319</ele>
        <time>2013-04-13T12:50:53Z</time>
      </trkpt>
      <trkpt lat="43.43" lon="6.05505">
        <ele>319</ele>
        <time>2013-04-13T12:50:55Z</time>
      </trkpt>
      <trkpt lat="43.43002" lon="6.05505">
        <ele>319</ele>
        <time>2013-04-13T12:50:56Z</time>
      </trkpt>
      <trkpt lat="43.43003" lon="6.05505">
        <ele>319</ele>
        <time>2013-04-13T12:51:02Z</time>
      </trkpt>
      <trkpt lat="43.43003" lon="6.05505">
        <ele>319</ele>
        <time>2013-04-13T12:51:07Z</time>
      </trkpt>
      <trkpt lat="43.43004" lon="6.05505">
        <ele>319</ele>
        <time>2013-04-13T12:51:13Z</time>
      </trkpt>
      <trkpt lat="43.43004" lon="6.05505">
        <ele>319</ele>
        <time>2013-04-13T12:51:33Z</time>
      </trkpt>
      <trkpt lat="43.43004" lon="6.05505">
        <ele>319</ele>
        <time>2013-04-13T12:51:46Z</time>
      </trkpt>
      <trkpt lat="43.43005" lon="6.05505">
        <ele>319</ele>
        <time>2013-04-13T12:51:51Z</time>
      </trkpt>
      <trkpt lat="43.43005" lon="6.05505">
        <ele>319</ele>
        <time>2013-04-13T12:51:52Z</time>
      </trkpt>
      <trkpt lat="43.43009" lon="6.05509">
        <ele>319</ele>
        <time>2013-04-13T12:51:55Z</time>
      </trkpt>
      <trkpt lat="43.4301" lon="6.05511">
        <ele>319</ele>
        <time>2013-04-13T12:51:56Z</time>
      </trkpt>
      <trkpt lat="43.43013" lon="6.05515">
        <ele>319</ele>
        <time>2013-04-13T12:51:58Z</time>
      </trkpt>
      <trkpt lat="43.43014" lon="6.0552">
        <ele>319</ele>
        <time>2013-04-13T12:52:00Z</time>
      </trkpt>
      <trkpt lat="43.43015" lon="6.05523">
        <ele>319</ele>
        <time>2013-04-13T12:52:01Z</time>
      </trkpt>
      <trkpt lat="43.43018" lon="6.05539">
        <ele>319</ele>
        <time>2013-04-13T12:52:05Z</time>
      </trkpt>
      <trkpt lat="43.43019" lon="6.05542">
        <ele>319</ele>
        <time>2013-04-13T12:52:06Z</time>
      </trkpt>
      <trkpt lat="43.43025" lon="6.05561">
        <ele>319</ele>
        <time>2013-04-13T12:52:11Z</time>
      </trkpt>
      <trkpt lat="43.43028" lon="6.05573">
        <ele>319</ele>
        <time>2013-04-13T12:52:15Z</time>
      </trkpt>
      <trkpt lat="43.4303" lon="6.05577">
        <ele>319</ele>
        <time>2013-04-13T12:52:17Z</time>
      </trkpt>
      <trkpt lat="43.43031" lon="6.05579">
        <ele>319</ele>
        <time>2013-04-13T12:52:18Z</time>
      </trkpt>
      <trkpt lat="43.43031" lon="6.05585">
        <ele>318.20001220703</ele>
        <time>2013-04-13T12:52:21Z</time>
      </trkpt>
      <trkpt lat="43.43033" lon="6.0559">
        <ele>317.39999389648</ele>
        <time>2013-04-13T12:52:23Z</time>
      </trkpt>
      <trkpt lat="43.43035" lon="6.05597">
        <ele>317</ele>
        <time>2013-04-13T12:52:26Z</time>
      </trkpt>
      <trkpt lat="43.43036" lon="6.05606">
        <ele>317</ele>
        <time>2013-04-13T12:52:30Z</time>
      </trkpt>
      <trkpt lat="43.43035" lon="6.05609">
        <ele>317</ele>
        <time>2013-04-13T12:52:32Z</time>
      </trkpt>
      <trkpt lat="43.43035" lon="6.05612">
        <ele>317</ele>
        <time>2013-04-13T12:52:34Z</time>
      </trkpt>
      <trkpt lat="43.43031" lon="6.05623">
        <ele>317</ele>
        <time>2013-04-13T12:52:40Z</time>
      </trkpt>
      <trkpt lat="43.43031" lon="6.05628">
        <ele>316.39999389648</ele>
        <time>2013-04-13T12:52:42Z</time>
      </trkpt>
      <trkpt lat="43.4303" lon="6.05629">
        <ele>316</ele>
        <time>2013-04-13T12:52:43Z</time>
      </trkpt>
      <trkpt lat="43.4303" lon="6.05629">
        <ele>315.60000610352</ele>
        <time>2013-04-13T12:52:44Z</time>
      </trkpt>
      <trkpt lat="43.4303" lon="6.05629">
        <ele>314.60000610352</ele>
        <time>2013-04-13T12:52:53Z</time>
      </trkpt>
      <trkpt lat="43.4303" lon="6.05629">
        <ele>314.60000610352</ele>
        <time>2013-04-13T12:52:57Z</time>
      </trkpt>
      <trkpt lat="43.4303" lon="6.05632">
        <ele>314.60000610352</ele>
        <time>2013-04-13T12:53:08Z</time>
      </trkpt>
      <trkpt lat="43.43031" lon="6.05633">
        <ele>314.60000610352</ele>
        <time>2013-04-13T12:53:09Z</time>
      </trkpt>
      <trkpt lat="43.43029" lon="6.0564">
        <ele>314.60000610352</ele>
        <time>2013-04-13T12:53:12Z</time>
      </trkpt>
      <trkpt lat="43.43027" lon="6.05661">
        <ele>314.60000610352</ele>
        <time>2013-04-13T12:53:18Z</time>
      </trkpt>
      <trkpt lat="43.43029" lon="6.05671">
        <ele>314.60000610352</ele>
        <time>2013-04-13T12:53:22Z</time>
      </trkpt>
      <trkpt lat="43.43029" lon="6.05674">
        <ele>314.60000610352</ele>
        <time>2013-04-13T12:53:23Z</time>
      </trkpt>
      <trkpt lat="43.4303" lon="6.05692">
        <ele>313.60000610352</ele>
        <time>2013-04-13T12:53:27Z</time>
      </trkpt>
      <trkpt lat="43.43026" lon="6.057">
        <ele>312.79998779297</ele>
        <time>2013-04-13T12:53:29Z</time>
      </trkpt>
      <trkpt lat="43.43024" lon="6.05707">
        <ele>312.20001220703</ele>
        <time>2013-04-13T12:53:31Z</time>
      </trkpt>
      <trkpt lat="43.43022" lon="6.05727">
        <ele>311.79998779297</ele>
        <time>2013-04-13T12:53:36Z</time>
      </trkpt>
      <trkpt lat="43.4302" lon="6.0573">
        <ele>311.39999389648</ele>
        <time>2013-04-13T12:53:37Z</time>
      </trkpt>
      <trkpt lat="43.43011" lon="6.05742">
        <ele>310</ele>
        <time>2013-04-13T12:53:42Z</time>
      </trkpt>
      <trkpt lat="43.43008" lon="6.05751">
        <ele>310</ele>
        <time>2013-04-13T12:53:45Z</time>
      </trkpt>
      <trkpt lat="43.43005" lon="6.05764">
        <ele>310</ele>
        <time>2013-04-13T12:53:49Z</time>
      </trkpt>
      <trkpt lat="43.43004" lon="6.05772">
        <ele>309.39999389648</ele>
        <time>2013-04-13T12:53:51Z</time>
      </trkpt>
      <trkpt lat="43.43003" lon="6.05774">
        <ele>309</ele>
        <time>2013-04-13T12:53:52Z</time>
      </trkpt>
      <trkpt lat="43.43002" lon="6.05777">
        <ele>308.60000610352</ele>
        <time>2013-04-13T12:53:53Z</time>
      </trkpt>
      <trkpt lat="43.43002" lon="6.05779">
        <ele>308.20001220703</ele>
        <time>2013-04-13T12:53:54Z</time>
      </trkpt>
      <trkpt lat="43.43002" lon="6.05781">
        <ele>307.79998779297</ele>
        <time>2013-04-13T12:53:55Z</time>
      </trkpt>
      <trkpt lat="43.43001" lon="6.05782">
        <ele>307.79998779297</ele>
        <time>2013-04-13T12:53:58Z</time>
      </trkpt>
      <trkpt lat="43.43001" lon="6.05782">
        <ele>307.79998779297</ele>
        <time>2013-04-13T12:54:23Z</time>
      </trkpt>
      <trkpt lat="43.43001" lon="6.05782">
        <ele>307.79998779297</ele>
        <time>2013-04-13T12:54:44Z</time>
      </trkpt>
      <trkpt lat="43.43001" lon="6.05782">
        <ele>307.79998779297</ele>
        <time>2013-04-13T12:54:46Z</time>
      </trkpt>
      <trkpt lat="43.43001" lon="6.05785">
        <ele>307.79998779297</ele>
        <time>2013-04-13T12:54:56Z</time>
      </trkpt>
      <trkpt lat="43.43001" lon="6.05788">
        <ele>307.79998779297</ele>
        <time>2013-04-13T12:54:57Z</time>
      </trkpt>
      <trkpt lat="43.43005" lon="6.05801">
        <ele>307.79998779297</ele>
        <time>2013-04-13T12:55:01Z</time>
      </trkpt>
      <trkpt lat="43.43005" lon="6.05806">
        <ele>307.39999389648</ele>
        <time>2013-04-13T12:55:02Z</time>
      </trkpt>
      <trkpt lat="43.43006" lon="6.05809">
        <ele>307</ele>
        <time>2013-04-13T12:55:03Z</time>
      </trkpt>
      <trkpt lat="43.43006" lon="6.05812">
        <ele>306.60000610352</ele>
        <time>2013-04-13T12:55:04Z</time>
      </trkpt>
      <trkpt lat="43.43005" lon="6.05817">
        <ele>306.20001220703</ele>
        <time>2013-04-13T12:55:05Z</time>
      </trkpt>
      <trkpt lat="43.43005" lon="6.05822">
        <ele>305.60000610352</ele>
        <time>2013-04-13T12:55:06Z</time>
      </trkpt>
      <trkpt lat="43.43007" lon="6.05836">
        <ele>304.20001220703</ele>
        <time>2013-04-13T12:55:09Z</time>
      </trkpt>
      <trkpt lat="43.43007" lon="6.0584">
        <ele>303.60000610352</ele>
        <time>2013-04-13T12:55:10Z</time>
      </trkpt>
      <trkpt lat="43.43007" lon="6.05846">
        <ele>302.60000610352</ele>
        <time>2013-04-13T12:55:12Z</time>
      </trkpt>
      <trkpt lat="43.43008" lon="6.05849">
        <ele>302</ele>
        <time>2013-04-13T12:55:13Z</time>
      </trkpt>
      <trkpt lat="43.4301" lon="6.05852">
        <ele>301.39999389648</ele>
        <time>2013-04-13T12:55:14Z</time>
      </trkpt>
      <trkpt lat="43.43012" lon="6.05855">
        <ele>301</ele>
        <time>2013-04-13T12:55:15Z</time>
      </trkpt>
      <trkpt lat="43.43018" lon="6.05859">
        <ele>300.20001220703</ele>
        <time>2013-04-13T12:55:17Z</time>
      </trkpt>
      <trkpt lat="43.43021" lon="6.05861">
        <ele>299.79998779297</ele>
        <time>2013-04-13T12:55:18Z</time>
      </trkpt>
      <trkpt lat="43.43025" lon="6.05862">
        <ele>299.20001220703</ele>
        <time>2013-04-13T12:55:19Z</time>
      </trkpt>
      <trkpt lat="43.4303" lon="6.05862">
        <ele>298.60000610352</ele>
        <time>2013-04-13T12:55:20Z</time>
      </trkpt>
      <trkpt lat="43.43034" lon="6.05862">
        <ele>297.20001220703</ele>
        <time>2013-04-13T12:55:21Z</time>
      </trkpt>
      <trkpt lat="43.43042" lon="6.05859">
        <ele>295.60000610352</ele>
        <time>2013-04-13T12:55:23Z</time>
      </trkpt>
      <trkpt lat="43.43044" lon="6.05858">
        <ele>294.79998779297</ele>
        <time>2013-04-13T12:55:24Z</time>
      </trkpt>
      <trkpt lat="43.43047" lon="6.05856">
        <ele>294.20001220703</ele>
        <time>2013-04-13T12:55:25Z</time>
      </trkpt>
      <trkpt lat="43.43049" lon="6.05855">
        <ele>293.39999389648</ele>
        <time>2013-04-13T12:55:26Z</time>
      </trkpt>
      <trkpt lat="43.43053" lon="6.05854">
        <ele>292.79998779297</ele>
        <time>2013-04-13T12:55:27Z</time>
      </trkpt>
      <trkpt lat="43.43056" lon="6.05853">
        <ele>292</ele>
        <time>2013-04-13T12:55:28Z</time>
      </trkpt>
      <trkpt lat="43.43062" lon="6.05852">
        <ele>291.39999389648</ele>
        <time>2013-04-13T12:55:29Z</time>
      </trkpt>
      <trkpt lat="43.4307" lon="6.05852">
        <ele>290.20001220703</ele>
        <time>2013-04-13T12:55:31Z</time>
      </trkpt>
      <trkpt lat="43.43078" lon="6.05851">
        <ele>288.60000610352</ele>
        <time>2013-04-13T12:55:33Z</time>
      </trkpt>
      <trkpt lat="43.43083" lon="6.0585">
        <ele>287.79998779297</ele>
        <time>2013-04-13T12:55:34Z</time>
      </trkpt>
      <trkpt lat="43.43087" lon="6.05848">
        <ele>287</ele>
        <time>2013-04-13T12:55:35Z</time>
      </trkpt>
      <trkpt lat="43.431" lon="6.05845">
        <ele>284</ele>
        <time>2013-04-13T12:55:39Z</time>
      </trkpt>
      <trkpt lat="43.43106" lon="6.05842">
        <ele>282.39999389648</ele>
        <time>2013-04-13T12:55:41Z</time>
      </trkpt>
      <trkpt lat="43.43106" lon="6.05841">
        <ele>281.60000610352</ele>
        <time>2013-04-13T12:55:42Z</time>
      </trkpt>
      <trkpt lat="43.43108" lon="6.05842">
        <ele>280.79998779297</ele>
        <time>2013-04-13T12:55:43Z</time>
      </trkpt>
      <trkpt lat="43.43109" lon="6.05842">
        <ele>280</ele>
        <time>2013-04-13T12:55:44Z</time>
      </trkpt>
      <trkpt lat="43.43113" lon="6.05844">
        <ele>278.20001220703</ele>
        <time>2013-04-13T12:55:46Z</time>
      </trkpt>
      <trkpt lat="43.4312" lon="6.05844">
        <ele>277.79998779297</ele>
        <time>2013-04-13T12:55:48Z</time>
      </trkpt>
      <trkpt lat="43.43126" lon="6.05844">
        <ele>276.79998779297</ele>
        <time>2013-04-13T12:55:50Z</time>
      </trkpt>
      <trkpt lat="43.43135" lon="6.05843">
        <ele>275.39999389648</ele>
        <time>2013-04-13T12:55:52Z</time>
      </trkpt>
      <trkpt lat="43.43144" lon="6.0584">
        <ele>274</ele>
        <time>2013-04-13T12:55:54Z</time>
      </trkpt>
      <trkpt lat="43.4315" lon="6.05839">
        <ele>273.20001220703</ele>
        <time>2013-04-13T12:55:55Z</time>
      </trkpt>
      <trkpt lat="43.43159" lon="6.05835">
        <ele>272.60000610352</ele>
        <time>2013-04-13T12:55:57Z</time>
      </trkpt>
      <trkpt lat="43.43163" lon="6.05834">
        <ele>272.20001220703</ele>
        <time>2013-04-13T12:55:58Z</time>
      </trkpt>
      <trkpt lat="43.43167" lon="6.05833">
        <ele>271.60000610352</ele>
        <time>2013-04-13T12:55:59Z</time>
      </trkpt>
      <trkpt lat="43.43172" lon="6.05831">
        <ele>271</ele>
        <time>2013-04-13T12:56:00Z</time>
      </trkpt>
      <trkpt lat="43.43176" lon="6.0583">
        <ele>270.20001220703</ele>
        <time>2013-04-13T12:56:01Z</time>
      </trkpt>
      <trkpt lat="43.43179" lon="6.05826">
        <ele>269.60000610352</ele>
        <time>2013-04-13T12:56:02Z</time>
      </trkpt>
      <trkpt lat="43.43179" lon="6.0582">
        <ele>268.79998779297</ele>
        <time>2013-04-13T12:56:03Z</time>
      </trkpt>
      <trkpt lat="43.43181" lon="6.05815">
        <ele>268</ele>
        <time>2013-04-13T12:56:04Z</time>
      </trkpt>
      <trkpt lat="43.43183" lon="6.05812">
        <ele>267.20001220703</ele>
        <time>2013-04-13T12:56:05Z</time>
      </trkpt>
      <trkpt lat="43.43186" lon="6.05804">
        <ele>265.60000610352</ele>
        <time>2013-04-13T12:56:07Z</time>
      </trkpt>
      <trkpt lat="43.43188" lon="6.058">
        <ele>265.60000610352</ele>
        <time>2013-04-13T12:56:08Z</time>
      </trkpt>
      <trkpt lat="43.43192" lon="6.05789">
        <ele>265.60000610352</ele>
        <time>2013-04-13T12:56:12Z</time>
      </trkpt>
      <trkpt lat="43.43192" lon="6.0579">
        <ele>265.60000610352</ele>
        <time>2013-04-13T12:56:16Z</time>
      </trkpt>
      <trkpt lat="43.43192" lon="6.0579">
        <ele>265.60000610352</ele>
        <time>2013-04-13T12:56:37Z</time>
      </trkpt>
      <trkpt lat="43.43192" lon="6.0579">
        <ele>265.60000610352</ele>
        <time>2013-04-13T12:56:45Z</time>
      </trkpt>
      <trkpt lat="43.43192" lon="6.0579">
        <ele>265.60000610352</ele>
        <time>2013-04-13T12:56:49Z</time>
      </trkpt>
      <trkpt lat="43.43192" lon="6.05792">
        <ele>265.60000610352</ele>
        <time>2013-04-13T12:56:52Z</time>
      </trkpt>
      <trkpt lat="43.43191" lon="6.05794">
        <ele>265.60000610352</ele>
        <time>2013-04-13T12:56:56Z</time>
      </trkpt>
      <trkpt lat="43.43189" lon="6.05796">
        <ele>265.60000610352</ele>
        <time>2013-04-13T12:56:58Z</time>
      </trkpt>
      <trkpt lat="43.43185" lon="6.05803">
        <ele>265.60000610352</ele>
        <time>2013-04-13T12:57:04Z</time>
      </trkpt>
      <trkpt lat="43.43181" lon="6.0581">
        <ele>265.60000610352</ele>
        <time>2013-04-13T12:57:09Z</time>
      </trkpt>
      <trkpt lat="43.43179" lon="6.05811">
        <ele>265.60000610352</ele>
        <time>2013-04-13T12:57:11Z</time>
      </trkpt>
      <trkpt lat="43.4318" lon="6.05814">
        <ele>265.60000610352</ele>
        <time>2013-04-13T12:57:13Z</time>
      </trkpt>
      <trkpt lat="43.43184" lon="6.05812">
        <ele>265.60000610352</ele>
        <time>2013-04-13T12:57:16Z</time>
      </trkpt>
      <trkpt lat="43.43185" lon="6.0581">
        <ele>265.60000610352</ele>
        <time>2013-04-13T12:57:17Z</time>
      </trkpt>
      <trkpt lat="43.4319" lon="6.05798">
        <ele>265.60000610352</ele>
        <time>2013-04-13T12:57:22Z</time>
      </trkpt>
      <trkpt lat="43.43199" lon="6.05782">
        <ele>265.60000610352</ele>
        <time>2013-04-13T12:57:27Z</time>
      </trkpt>
      <trkpt lat="43.43207" lon="6.05773">
        <ele>265.20001220703</ele>
        <time>2013-04-13T12:57:30Z</time>
      </trkpt>
      <trkpt lat="43.4321" lon="6.05768">
        <ele>264.39999389648</ele>
        <time>2013-04-13T12:57:32Z</time>
      </trkpt>
      <trkpt lat="43.43212" lon="6.05763">
        <ele>263.39999389648</ele>
        <time>2013-04-13T12:57:34Z</time>
      </trkpt>
      <trkpt lat="43.43214" lon="6.05735">
        <ele>263.39999389648</ele>
        <time>2013-04-13T12:57:43Z</time>
      </trkpt>
      <trkpt lat="43.43214" lon="6.0572">
        <ele>263.39999389648</ele>
        <time>2013-04-13T12:57:48Z</time>
      </trkpt>
      <trkpt lat="43.43215" lon="6.05713">
        <ele>263.39999389648</ele>
        <time>2013-04-13T12:57:50Z</time>
      </trkpt>
      <trkpt lat="43.43219" lon="6.05683">
        <ele>263.39999389648</ele>
        <time>2013-04-13T12:57:58Z</time>
      </trkpt>
      <trkpt lat="43.4322" lon="6.05656">
        <ele>263.39999389648</ele>
        <time>2013-04-13T12:58:04Z</time>
      </trkpt>
      <trkpt lat="43.43223" lon="6.05631">
        <ele>263.39999389648</ele>
        <time>2013-04-13T12:58:10Z</time>
      </trkpt>
      <trkpt lat="43.43227" lon="6.05586">
        <ele>263.39999389648</ele>
        <time>2013-04-13T12:58:23Z</time>
      </trkpt>
      <trkpt lat="43.43227" lon="6.05582">
        <ele>263</ele>
        <time>2013-04-13T12:58:24Z</time>
      </trkpt>
      <trkpt lat="43.43229" lon="6.05576">
        <ele>262.20001220703</ele>
        <time>2013-04-13T12:58:26Z</time>
      </trkpt>
      <trkpt lat="43.4323" lon="6.0557">
        <ele>261.39999389648</ele>
        <time>2013-04-13T12:58:28Z</time>
      </trkpt>
      <trkpt lat="43.4323" lon="6.05567">
        <ele>261.39999389648</ele>
        <time>2013-04-13T12:58:29Z</time>
      </trkpt>
      <trkpt lat="43.43234" lon="6.05548">
        <ele>261.39999389648</ele>
        <time>2013-04-13T12:58:35Z</time>
      </trkpt>
      <trkpt lat="43.43242" lon="6.05522">
        <ele>261.39999389648</ele>
        <time>2013-04-13T12:58:41Z</time>
      </trkpt>
      <trkpt lat="43.43244" lon="6.05513">
        <ele>261.39999389648</ele>
        <time>2013-04-13T12:58:43Z</time>
      </trkpt>
      <trkpt lat="43.43256" lon="6.05475">
        <ele>261</ele>
        <time>2013-04-13T12:58:49Z</time>
      </trkpt>
      <trkpt lat="43.43259" lon="6.05468">
        <ele>260.39999389648</ele>
        <time>2013-04-13T12:58:50Z</time>
      </trkpt>
      <trkpt lat="43.43262" lon="6.0546">
        <ele>260</ele>
        <time>2013-04-13T12:58:51Z</time>
      </trkpt>
      <trkpt lat="43.43264" lon="6.05452">
        <ele>259.60000610352</ele>
        <time>2013-04-13T12:58:52Z</time>
      </trkpt>
      <trkpt lat="43.43267" lon="6.05444">
        <ele>259</ele>
        <time>2013-04-13T12:58:53Z</time>
      </trkpt>
      <trkpt lat="43.4327" lon="6.05436">
        <ele>258.60000610352</ele>
        <time>2013-04-13T12:58:54Z</time>
      </trkpt>
      <trkpt lat="43.43272" lon="6.05428">
        <ele>258</ele>
        <time>2013-04-13T12:58:55Z</time>
      </trkpt>
      <trkpt lat="43.43275" lon="6.0542">
        <ele>257.60000610352</ele>
        <time>2013-04-13T12:58:56Z</time>
      </trkpt>
      <trkpt lat="43.43277" lon="6.05412">
        <ele>257</ele>
        <time>2013-04-13T12:58:57Z</time>
      </trkpt>
      <trkpt lat="43.43279" lon="6.05405">
        <ele>256.60000610352</ele>
        <time>2013-04-13T12:58:58Z</time>
      </trkpt>
      <trkpt lat="43.43282" lon="6.054">
        <ele>256.60000610352</ele>
        <time>2013-04-13T12:58:59Z</time>
      </trkpt>
      <trkpt lat="43.43293" lon="6.05379">
        <ele>256.60000610352</ele>
        <time>2013-04-13T12:59:04Z</time>
      </trkpt>
      <trkpt lat="43.43301" lon="6.0536">
        <ele>256.60000610352</ele>
        <time>2013-04-13T12:59:09Z</time>
      </trkpt>
      <trkpt lat="43.43303" lon="6.05356">
        <ele>256.60000610352</ele>
        <time>2013-04-13T12:59:10Z</time>
      </trkpt>
      <trkpt lat="43.43311" lon="6.05342">
        <ele>256.60000610352</ele>
        <time>2013-04-13T12:59:14Z</time>
      </trkpt>
      <trkpt lat="43.43316" lon="6.05328">
        <ele>256.60000610352</ele>
        <time>2013-04-13T12:59:17Z</time>
      </trkpt>
      <trkpt lat="43.43328" lon="6.05297">
        <ele>256.60000610352</ele>
        <time>2013-04-13T12:59:23Z</time>
      </trkpt>
      <trkpt lat="43.43333" lon="6.05286">
        <ele>256.60000610352</ele>
        <time>2013-04-13T12:59:25Z</time>
      </trkpt>
      <trkpt lat="43.43343" lon="6.05265">
        <ele>256.20001220703</ele>
        <time>2013-04-13T12:59:29Z</time>
      </trkpt>
      <trkpt lat="43.43347" lon="6.05255">
        <ele>255.39999389648</ele>
        <time>2013-04-13T12:59:31Z</time>
      </trkpt>
      <trkpt lat="43.43348" lon="6.05251">
        <ele>255</ele>
        <time>2013-04-13T12:59:32Z</time>
      </trkpt>
      <trkpt lat="43.4335" lon="6.05246">
        <ele>254.60000610352</ele>
        <time>2013-04-13T12:59:33Z</time>
      </trkpt>
      <trkpt lat="43.43354" lon="6.05236">
        <ele>254.60000610352</ele>
        <time>2013-04-13T12:59:35Z</time>
      </trkpt>
      <trkpt lat="43.43366" lon="6.05197">
        <ele>254.60000610352</ele>
        <time>2013-04-13T12:59:43Z</time>
      </trkpt>
      <trkpt lat="43.43375" lon="6.0517">
        <ele>254.60000610352</ele>
        <time>2013-04-13T12:59:50Z</time>
      </trkpt>
      <trkpt lat="43.43382" lon="6.05148">
        <ele>254.60000610352</ele>
        <time>2013-04-13T12:59:56Z</time>
      </trkpt>
      <trkpt lat="43.43384" lon="6.05141">
        <ele>255</ele>
        <time>2013-04-13T12:59:58Z</time>
      </trkpt>
      <trkpt lat="43.43386" lon="6.05135">
        <ele>255.80000305176</ele>
        <time>2013-04-13T13:00:00Z</time>
      </trkpt>
      <trkpt lat="43.43388" lon="6.05129">
        <ele>256.60000610352</ele>
        <time>2013-04-13T13:00:02Z</time>
      </trkpt>
      <trkpt lat="43.43389" lon="6.05126">
        <ele>256.60000610352</ele>
        <time>2013-04-13T13:00:03Z</time>
      </trkpt>
      <trkpt lat="43.43396" lon="6.05109">
        <ele>256.60000610352</ele>
        <time>2013-04-13T13:00:09Z</time>
      </trkpt>
      <trkpt lat="43.43398" lon="6.05105">
        <ele>257</ele>
        <time>2013-04-13T13:00:10Z</time>
      </trkpt>
      <trkpt lat="43.43398" lon="6.05102">
        <ele>257.39999389648</ele>
        <time>2013-04-13T13:00:11Z</time>
      </trkpt>
      <trkpt lat="43.43402" lon="6.05091">
        <ele>258.60000610352</ele>
        <time>2013-04-13T13:00:14Z</time>
      </trkpt>
      <trkpt lat="43.43404" lon="6.05083">
        <ele>258.60000610352</ele>
        <time>2013-04-13T13:00:16Z</time>
      </trkpt>
      <trkpt lat="43.43412" lon="6.05047">
        <ele>258.20001220703</ele>
        <time>2013-04-13T13:00:23Z</time>
      </trkpt>
      <trkpt lat="43.43413" lon="6.0504">
        <ele>257.79998779297</ele>
        <time>2013-04-13T13:00:24Z</time>
      </trkpt>
      <trkpt lat="43.43415" lon="6.05027">
        <ele>256.79998779297</ele>
        <time>2013-04-13T13:00:26Z</time>
      </trkpt>
      <trkpt lat="43.43416" lon="6.0502">
        <ele>256.39999389648</ele>
        <time>2013-04-13T13:00:27Z</time>
      </trkpt>
      <trkpt lat="43.4342" lon="6.04998">
        <ele>255.80000305176</ele>
        <time>2013-04-13T13:00:30Z</time>
      </trkpt>
      <trkpt lat="43.43421" lon="6.04991">
        <ele>255.39999389648</ele>
        <time>2013-04-13T13:00:31Z</time>
      </trkpt>
      <trkpt lat="43.43423" lon="6.04984">
        <ele>255</ele>
        <time>2013-04-13T13:00:32Z</time>
      </trkpt>
      <trkpt lat="43.43424" lon="6.04977">
        <ele>254.60000610352</ele>
        <time>2013-04-13T13:00:33Z</time>
      </trkpt>
      <trkpt lat="43.43425" lon="6.04971">
        <ele>254</ele>
        <time>2013-04-13T13:00:34Z</time>
      </trkpt>
      <trkpt lat="43.43427" lon="6.04949">
        <ele>254</ele>
        <time>2013-04-13T13:00:37Z</time>
      </trkpt>
      <trkpt lat="43.43429" lon="6.04929">
        <ele>254</ele>
        <time>2013-04-13T13:00:40Z</time>
      </trkpt>
      <trkpt lat="43.4343" lon="6.04916">
        <ele>254</ele>
        <time>2013-04-13T13:00:42Z</time>
      </trkpt>
      <trkpt lat="43.43432" lon="6.04878">
        <ele>254</ele>
        <time>2013-04-13T13:00:49Z</time>
      </trkpt>
      <trkpt lat="43.43433" lon="6.04846">
        <ele>254</ele>
        <time>2013-04-13T13:00:55Z</time>
      </trkpt>
      <trkpt lat="43.43435" lon="6.04814">
        <ele>254</ele>
        <time>2013-04-13T13:01:01Z</time>
      </trkpt>
      <trkpt lat="43.43438" lon="6.04778">
        <ele>254</ele>
        <time>2013-04-13T13:01:08Z</time>
      </trkpt>
      <trkpt lat="43.43439" lon="6.04761">
        <ele>254</ele>
        <time>2013-04-13T13:01:12Z</time>
      </trkpt>
      <trkpt lat="43.4344" lon="6.04756">
        <ele>254</ele>
        <time>2013-04-13T13:01:13Z</time>
      </trkpt>
      <trkpt lat="43.4344" lon="6.04741">
        <ele>254.39999389648</ele>
        <time>2013-04-13T13:01:16Z</time>
      </trkpt>
      <trkpt lat="43.43441" lon="6.04732">
        <ele>255.19999694824</ele>
        <time>2013-04-13T13:01:18Z</time>
      </trkpt>
      <trkpt lat="43.43441" lon="6.04723">
        <ele>256</ele>
        <time>2013-04-13T13:01:20Z</time>
      </trkpt>
      <trkpt lat="43.43442" lon="6.04696">
        <ele>256</ele>
        <time>2013-04-13T13:01:25Z</time>
      </trkpt>
      <trkpt lat="43.43447" lon="6.04683">
        <ele>256</ele>
        <time>2013-04-13T13:01:28Z</time>
      </trkpt>
      <trkpt lat="43.43448" lon="6.04679">
        <ele>256</ele>
        <time>2013-04-13T13:01:29Z</time>
      </trkpt>
      <trkpt lat="43.43447" lon="6.04675">
        <ele>256</ele>
        <time>2013-04-13T13:01:30Z</time>
      </trkpt>
      <trkpt lat="43.43447" lon="6.04668">
        <ele>256</ele>
        <time>2013-04-13T13:01:32Z</time>
      </trkpt>
      <trkpt lat="43.43452" lon="6.04654">
        <ele>256</ele>
        <time>2013-04-13T13:01:36Z</time>
      </trkpt>
      <trkpt lat="43.43455" lon="6.04631">
        <ele>256</ele>
        <time>2013-04-13T13:01:42Z</time>
      </trkpt>
      <trkpt lat="43.43464" lon="6.04575">
        <ele>256</ele>
        <time>2013-04-13T13:01:57Z</time>
      </trkpt>
      <trkpt lat="43.4347" lon="6.04564">
        <ele>257</ele>
        <time>2013-04-13T13:02:01Z</time>
      </trkpt>
      <trkpt lat="43.43486" lon="6.04534">
        <ele>258.20001220703</ele>
        <time>2013-04-13T13:02:10Z</time>
      </trkpt>
      <trkpt lat="43.43492" lon="6.04513">
        <ele>258.20001220703</ele>
        <time>2013-04-13T13:02:15Z</time>
      </trkpt>
      <trkpt lat="43.43496" lon="6.04488">
        <ele>258.20001220703</ele>
        <time>2013-04-13T13:02:21Z</time>
      </trkpt>
      <trkpt lat="43.43495" lon="6.04467">
        <ele>258.20001220703</ele>
        <time>2013-04-13T13:02:26Z</time>
      </trkpt>
      <trkpt lat="43.43492" lon="6.04444">
        <ele>258.20001220703</ele>
        <time>2013-04-13T13:02:32Z</time>
      </trkpt>
      <trkpt lat="43.43489" lon="6.0442">
        <ele>258.20001220703</ele>
        <time>2013-04-13T13:02:38Z</time>
      </trkpt>
      <trkpt lat="43.43486" lon="6.04391">
        <ele>258.20001220703</ele>
        <time>2013-04-13T13:02:45Z</time>
      </trkpt>
      <trkpt lat="43.43487" lon="6.04366">
        <ele>258.20001220703</ele>
        <time>2013-04-13T13:02:51Z</time>
      </trkpt>
      <trkpt lat="43.43491" lon="6.04335">
        <ele>258.20001220703</ele>
        <time>2013-04-13T13:02:58Z</time>
      </trkpt>
      <trkpt lat="43.43493" lon="6.04306">
        <ele>258.20001220703</ele>
        <time>2013-04-13T13:03:03Z</time>
      </trkpt>
      <trkpt lat="43.43494" lon="6.04295">
        <ele>258.20001220703</ele>
        <time>2013-04-13T13:03:05Z</time>
      </trkpt>
      <trkpt lat="43.43501" lon="6.04268">
        <ele>258.20001220703</ele>
        <time>2013-04-13T13:03:10Z</time>
      </trkpt>
      <trkpt lat="43.43505" lon="6.04258">
        <ele>258.20001220703</ele>
        <time>2013-04-13T13:03:12Z</time>
      </trkpt>
      <trkpt lat="43.43516" lon="6.04243">
        <ele>258.20001220703</ele>
        <time>2013-04-13T13:03:16Z</time>
      </trkpt>
      <trkpt lat="43.4352" lon="6.04241">
        <ele>258.20001220703</ele>
        <time>2013-04-13T13:03:17Z</time>
      </trkpt>
      <trkpt lat="43.4353" lon="6.0423">
        <ele>258.20001220703</ele>
        <time>2013-04-13T13:03:20Z</time>
      </trkpt>
      <trkpt lat="43.43535" lon="6.04221">
        <ele>258.20001220703</ele>
        <time>2013-04-13T13:03:22Z</time>
      </trkpt>
      <trkpt lat="43.43541" lon="6.04207">
        <ele>258.20001220703</ele>
        <time>2013-04-13T13:03:25Z</time>
      </trkpt>
      <trkpt lat="43.43539" lon="6.04182">
        <ele>258.20001220703</ele>
        <time>2013-04-13T13:03:30Z</time>
      </trkpt>
      <trkpt lat="43.43535" lon="6.0417">
        <ele>258.20001220703</ele>
        <time>2013-04-13T13:03:33Z</time>
      </trkpt>
      <trkpt lat="43.43535" lon="6.04162">
        <ele>258.20001220703</ele>
        <time>2013-04-13T13:03:35Z</time>
      </trkpt>
      <trkpt lat="43.43538" lon="6.0415">
        <ele>258.20001220703</ele>
        <time>2013-04-13T13:03:38Z</time>
      </trkpt>
      <trkpt lat="43.43541" lon="6.04143">
        <ele>258.20001220703</ele>
        <time>2013-04-13T13:03:40Z</time>
      </trkpt>
      <trkpt lat="43.43551" lon="6.04115">
        <ele>258.20001220703</ele>
        <time>2013-04-13T13:03:47Z</time>
      </trkpt>
      <trkpt lat="43.43557" lon="6.04105">
        <ele>258.20001220703</ele>
        <time>2013-04-13T13:03:51Z</time>
      </trkpt>
      <trkpt lat="43.43558" lon="6.04097">
        <ele>258.20001220703</ele>
        <time>2013-04-13T13:03:55Z</time>
      </trkpt>
      <trkpt lat="43.43563" lon="6.04084">
        <ele>258.20001220703</ele>
        <time>2013-04-13T13:03:59Z</time>
      </trkpt>
      <trkpt lat="43.43566" lon="6.04073">
        <ele>258.20001220703</ele>
        <time>2013-04-13T13:04:02Z</time>
      </trkpt>
      <trkpt lat="43.43572" lon="6.0406">
        <ele>258.20001220703</ele>
        <time>2013-04-13T13:04:06Z</time>
      </trkpt>
      <trkpt lat="43.43575" lon="6.04054">
        <ele>258.60000610352</ele>
        <time>2013-04-13T13:04:08Z</time>
      </trkpt>
      <trkpt lat="43.43577" lon="6.0405">
        <ele>259</ele>
        <time>2013-04-13T13:04:09Z</time>
      </trkpt>
      <trkpt lat="43.43583" lon="6.04041">
        <ele>260.20001220703</ele>
        <time>2013-04-13T13:04:12Z</time>
      </trkpt>
      <trkpt lat="43.43589" lon="6.0403">
        <ele>260.20001220703</ele>
        <time>2013-04-13T13:04:16Z</time>
      </trkpt>
      <trkpt lat="43.43593" lon="6.04023">
        <ele>260.60000610352</ele>
        <time>2013-04-13T13:04:18Z</time>
      </trkpt>
      <trkpt lat="43.43594" lon="6.04019">
        <ele>261</ele>
        <time>2013-04-13T13:04:19Z</time>
      </trkpt>
      <trkpt lat="43.43597" lon="6.04014">
        <ele>262</ele>
        <time>2013-04-13T13:04:21Z</time>
      </trkpt>
      <trkpt lat="43.43598" lon="6.04011">
        <ele>262.39999389648</ele>
        <time>2013-04-13T13:04:22Z</time>
      </trkpt>
      <trkpt lat="43.436" lon="6.04004">
        <ele>262.39999389648</ele>
        <time>2013-04-13T13:04:24Z</time>
      </trkpt>
      <trkpt lat="43.43604" lon="6.03994">
        <ele>262.39999389648</ele>
        <time>2013-04-13T13:04:29Z</time>
      </trkpt>
      <trkpt lat="43.43606" lon="6.0398">
        <ele>262.39999389648</ele>
        <time>2013-04-13T13:04:33Z</time>
      </trkpt>
      <trkpt lat="43.43605" lon="6.03976">
        <ele>262.39999389648</ele>
        <time>2013-04-13T13:04:34Z</time>
      </trkpt>
      <trkpt lat="43.43606" lon="6.03955">
        <ele>262.39999389648</ele>
        <time>2013-04-13T13:04:38Z</time>
      </trkpt>
      <trkpt lat="43.43605" lon="6.0395">
        <ele>262.39999389648</ele>
        <time>2013-04-13T13:04:39Z</time>
      </trkpt>
      <trkpt lat="43.43605" lon="6.03938">
        <ele>262</ele>
        <time>2013-04-13T13:04:43Z</time>
      </trkpt>
      <trkpt lat="43.43604" lon="6.03938">
        <ele>261.60000610352</ele>
        <time>2013-04-13T13:04:44Z</time>
      </trkpt>
      <trkpt lat="43.43599" lon="6.03929">
        <ele>260.20001220703</ele>
        <time>2013-04-13T13:04:48Z</time>
      </trkpt>
      <trkpt lat="43.43597" lon="6.03926">
        <ele>260.20001220703</ele>
        <time>2013-04-13T13:04:50Z</time>
      </trkpt>
      <trkpt lat="43.43597" lon="6.03921">
        <ele>260.20001220703</ele>
        <time>2013-04-13T13:04:52Z</time>
      </trkpt>
      <trkpt lat="43.43596" lon="6.03917">
        <ele>260.20001220703</ele>
        <time>2013-04-13T13:04:56Z</time>
      </trkpt>
      <trkpt lat="43.43594" lon="6.03911">
        <ele>260.20001220703</ele>
        <time>2013-04-13T13:05:00Z</time>
      </trkpt>
      <trkpt lat="43.43591" lon="6.03899">
        <ele>260.20001220703</ele>
        <time>2013-04-13T13:05:05Z</time>
      </trkpt>
      <trkpt lat="43.43593" lon="6.03877">
        <ele>260.79998779297</ele>
        <time>2013-04-13T13:05:15Z</time>
      </trkpt>
      <trkpt lat="43.4359" lon="6.03865">
        <ele>262.39999389648</ele>
        <time>2013-04-13T13:05:20Z</time>
      </trkpt>
      <trkpt lat="43.43591" lon="6.03853">
        <ele>262.39999389648</ele>
        <time>2013-04-13T13:05:25Z</time>
      </trkpt>
      <trkpt lat="43.43589" lon="6.0385">
        <ele>262.39999389648</ele>
        <time>2013-04-13T13:05:26Z</time>
      </trkpt>
      <trkpt lat="43.43588" lon="6.03838">
        <ele>262.39999389648</ele>
        <time>2013-04-13T13:05:31Z</time>
      </trkpt>
      <trkpt lat="43.43586" lon="6.03826">
        <ele>262.39999389648</ele>
        <time>2013-04-13T13:05:36Z</time>
      </trkpt>
      <trkpt lat="43.43583" lon="6.03818">
        <ele>262.39999389648</ele>
        <time>2013-04-13T13:05:40Z</time>
      </trkpt>
      <trkpt lat="43.43577" lon="6.03805">
        <ele>262.39999389648</ele>
        <time>2013-04-13T13:05:46Z</time>
      </trkpt>
      <trkpt lat="43.43576" lon="6.03803">
        <ele>262.79998779297</ele>
        <time>2013-04-13T13:05:47Z</time>
      </trkpt>
      <trkpt lat="43.43574" lon="6.038">
        <ele>263.60000610352</ele>
        <time>2013-04-13T13:05:49Z</time>
      </trkpt>
      <trkpt lat="43.43574" lon="6.03798">
        <ele>264</ele>
        <time>2013-04-13T13:05:50Z</time>
      </trkpt>
      <trkpt lat="43.43572" lon="6.03795">
        <ele>264.39999389648</ele>
        <time>2013-04-13T13:05:52Z</time>
      </trkpt>
      <trkpt lat="43.4357" lon="6.03788">
        <ele>264.39999389648</ele>
        <time>2013-04-13T13:05:57Z</time>
      </trkpt>
      <trkpt lat="43.4357" lon="6.03788">
        <ele>264.39999389648</ele>
        <time>2013-04-13T13:06:04Z</time>
      </trkpt>
      <trkpt lat="43.43568" lon="6.03786">
        <ele>264.39999389648</ele>
        <time>2013-04-13T13:06:09Z</time>
      </trkpt>
      <trkpt lat="43.43567" lon="6.03783">
        <ele>264.39999389648</ele>
        <time>2013-04-13T13:06:11Z</time>
      </trkpt>
      <trkpt lat="43.43567" lon="6.03778">
        <ele>264.39999389648</ele>
        <time>2013-04-13T13:06:13Z</time>
      </trkpt>
      <trkpt lat="43.43569" lon="6.03775">
        <ele>264.39999389648</ele>
        <time>2013-04-13T13:06:14Z</time>
      </trkpt>
      <trkpt lat="43.43573" lon="6.03769">
        <ele>264.39999389648</ele>
        <time>2013-04-13T13:06:17Z</time>
      </trkpt>
      <trkpt lat="43.4357" lon="6.03761">
        <ele>264.39999389648</ele>
        <time>2013-04-13T13:06:20Z</time>
      </trkpt>
      <trkpt lat="43.4357" lon="6.03753">
        <ele>264.39999389648</ele>
        <time>2013-04-13T13:06:22Z</time>
      </trkpt>
      <trkpt lat="43.4357" lon="6.03725">
        <ele>263.60000610352</ele>
        <time>2013-04-13T13:06:27Z</time>
      </trkpt>
      <trkpt lat="43.4357" lon="6.03721">
        <ele>262.60000610352</ele>
        <time>2013-04-13T13:06:28Z</time>
      </trkpt>
      <trkpt lat="43.4357" lon="6.03716">
        <ele>262.20001220703</ele>
        <time>2013-04-13T13:06:29Z</time>
      </trkpt>
      <trkpt lat="43.4357" lon="6.03711">
        <ele>262.20001220703</ele>
        <time>2013-04-13T13:06:30Z</time>
      </trkpt>
      <trkpt lat="43.43572" lon="6.03686">
        <ele>262.20001220703</ele>
        <time>2013-04-13T13:06:36Z</time>
      </trkpt>
      <trkpt lat="43.43574" lon="6.03674">
        <ele>262.20001220703</ele>
        <time>2013-04-13T13:06:41Z</time>
      </trkpt>
      <trkpt lat="43.43573" lon="6.03672">
        <ele>262.20001220703</ele>
        <time>2013-04-13T13:06:46Z</time>
      </trkpt>
      <trkpt lat="43.43573" lon="6.03672">
        <ele>262.20001220703</ele>
        <time>2013-04-13T13:06:48Z</time>
      </trkpt>
      <trkpt lat="43.43573" lon="6.03671">
        <ele>262.20001220703</ele>
        <time>2013-04-13T13:06:51Z</time>
      </trkpt>
      <trkpt lat="43.43571" lon="6.03664">
        <ele>262.20001220703</ele>
        <time>2013-04-13T13:07:00Z</time>
      </trkpt>
      <trkpt lat="43.43571" lon="6.03664">
        <ele>262.20001220703</ele>
        <time>2013-04-13T13:07:07Z</time>
      </trkpt>
      <trkpt lat="43.43571" lon="6.03663">
        <ele>262.20001220703</ele>
        <time>2013-04-13T13:07:14Z</time>
      </trkpt>
      <trkpt lat="43.43573" lon="6.03662">
        <ele>262.20001220703</ele>
        <time>2013-04-13T13:07:15Z</time>
      </trkpt>
      <trkpt lat="43.43579" lon="6.03648">
        <ele>262.20001220703</ele>
        <time>2013-04-13T13:07:20Z</time>
      </trkpt>
      <trkpt lat="43.43581" lon="6.03636">
        <ele>262.20001220703</ele>
        <time>2013-04-13T13:07:24Z</time>
      </trkpt>
      <trkpt lat="43.43582" lon="6.03633">
        <ele>262.20001220703</ele>
        <time>2013-04-13T13:07:25Z</time>
      </trkpt>
      <trkpt lat="43.43581" lon="6.03609">
        <ele>262.20001220703</ele>
        <time>2013-04-13T13:07:33Z</time>
      </trkpt>
      <trkpt lat="43.43582" lon="6.03589">
        <ele>262.20001220703</ele>
        <time>2013-04-13T13:07:39Z</time>
      </trkpt>
      <trkpt lat="43.43584" lon="6.03577">
        <ele>262.20001220703</ele>
        <time>2013-04-13T13:07:44Z</time>
      </trkpt>
      <trkpt lat="43.43587" lon="6.03566">
        <ele>262.20001220703</ele>
        <time>2013-04-13T13:07:49Z</time>
      </trkpt>
      <trkpt lat="43.43592" lon="6.03556">
        <ele>262.20001220703</ele>
        <time>2013-04-13T13:07:55Z</time>
      </trkpt>
      <trkpt lat="43.43594" lon="6.03555">
        <ele>262.20001220703</ele>
        <time>2013-04-13T13:07:56Z</time>
      </trkpt>
      <trkpt lat="43.43598" lon="6.03546">
        <ele>262.20001220703</ele>
        <time>2013-04-13T13:08:01Z</time>
      </trkpt>
      <trkpt lat="43.43604" lon="6.03531">
        <ele>262.20001220703</ele>
        <time>2013-04-13T13:08:07Z</time>
      </trkpt>
      <trkpt lat="43.43609" lon="6.03516">
        <ele>262.20001220703</ele>
        <time>2013-04-13T13:08:12Z</time>
      </trkpt>
      <trkpt lat="43.4361" lon="6.03504">
        <ele>262.20001220703</ele>
        <time>2013-04-13T13:08:16Z</time>
      </trkpt>
      <trkpt lat="43.43611" lon="6.03495">
        <ele>262.20001220703</ele>
        <time>2013-04-13T13:08:19Z</time>
      </trkpt>
      <trkpt lat="43.43616" lon="6.03476">
        <ele>262.20001220703</ele>
        <time>2013-04-13T13:08:25Z</time>
      </trkpt>
      <trkpt lat="43.4362" lon="6.03467">
        <ele>262.20001220703</ele>
        <time>2013-04-13T13:08:28Z</time>
      </trkpt>
      <trkpt lat="43.43621" lon="6.03464">
        <ele>262.20001220703</ele>
        <time>2013-04-13T13:08:29Z</time>
      </trkpt>
      <trkpt lat="43.43626" lon="6.03446">
        <ele>262.20001220703</ele>
        <time>2013-04-13T13:08:35Z</time>
      </trkpt>
      <trkpt lat="43.43627" lon="6.03434">
        <ele>263.39999389648</ele>
        <time>2013-04-13T13:08:40Z</time>
      </trkpt>
      <trkpt lat="43.43626" lon="6.03429">
        <ele>264.20001220703</ele>
        <time>2013-04-13T13:08:42Z</time>
      </trkpt>
      <trkpt lat="43.43626" lon="6.0342">
        <ele>264.20001220703</ele>
        <time>2013-04-13T13:08:46Z</time>
      </trkpt>
      <trkpt lat="43.43626" lon="6.03403">
        <ele>264.20001220703</ele>
        <time>2013-04-13T13:08:51Z</time>
      </trkpt>
      <trkpt lat="43.43631" lon="6.03384">
        <ele>264.20001220703</ele>
        <time>2013-04-13T13:08:56Z</time>
      </trkpt>
      <trkpt lat="43.43636" lon="6.03372">
        <ele>264.20001220703</ele>
        <time>2013-04-13T13:09:00Z</time>
      </trkpt>
      <trkpt lat="43.43641" lon="6.03361">
        <ele>264.20001220703</ele>
        <time>2013-04-13T13:09:05Z</time>
      </trkpt>
      <trkpt lat="43.43656" lon="6.03332">
        <ele>264.20001220703</ele>
        <time>2013-04-13T13:09:15Z</time>
      </trkpt>
      <trkpt lat="43.43663" lon="6.03318">
        <ele>264.20001220703</ele>
        <time>2013-04-13T13:09:20Z</time>
      </trkpt>
      <trkpt lat="43.43663" lon="6.03309">
        <ele>264.20001220703</ele>
        <time>2013-04-13T13:09:24Z</time>
      </trkpt>
      <trkpt lat="43.43665" lon="6.03305">
        <ele>264.20001220703</ele>
        <time>2013-04-13T13:09:26Z</time>
      </trkpt>
      <trkpt lat="43.43675" lon="6.03294">
        <ele>264.20001220703</ele>
        <time>2013-04-13T13:09:32Z</time>
      </trkpt>
      <trkpt lat="43.43684" lon="6.03275">
        <ele>264.20001220703</ele>
        <time>2013-04-13T13:09:39Z</time>
      </trkpt>
      <trkpt lat="43.43689" lon="6.03254">
        <ele>264.20001220703</ele>
        <time>2013-04-13T13:09:46Z</time>
      </trkpt>
      <trkpt lat="43.43687" lon="6.03237">
        <ele>264.20001220703</ele>
        <time>2013-04-13T13:09:52Z</time>
      </trkpt>
      <trkpt lat="43.43685" lon="6.03224">
        <ele>264.20001220703</ele>
        <time>2013-04-13T13:09:57Z</time>
      </trkpt>
      <trkpt lat="43.43687" lon="6.0321">
        <ele>264.20001220703</ele>
        <time>2013-04-13T13:10:03Z</time>
      </trkpt>
      <trkpt lat="43.43692" lon="6.03188">
        <ele>264.20001220703</ele>
        <time>2013-04-13T13:10:12Z</time>
      </trkpt>
      <trkpt lat="43.43692" lon="6.03181">
        <ele>264.20001220703</ele>
        <time>2013-04-13T13:10:15Z</time>
      </trkpt>
      <trkpt lat="43.43691" lon="6.03173">
        <ele>264.20001220703</ele>
        <time>2013-04-13T13:10:19Z</time>
      </trkpt>
      <trkpt lat="43.43691" lon="6.03163">
        <ele>264.20001220703</ele>
        <time>2013-04-13T13:10:24Z</time>
      </trkpt>
      <trkpt lat="43.43689" lon="6.03155">
        <ele>264.20001220703</ele>
        <time>2013-04-13T13:10:29Z</time>
      </trkpt>
      <trkpt lat="43.43688" lon="6.03152">
        <ele>264.20001220703</ele>
        <time>2013-04-13T13:10:31Z</time>
      </trkpt>
      <trkpt lat="43.43688" lon="6.03151">
        <ele>264.20001220703</ele>
        <time>2013-04-13T13:10:34Z</time>
      </trkpt>
      <trkpt lat="43.43688" lon="6.03151">
        <ele>264.20001220703</ele>
        <time>2013-04-13T13:10:40Z</time>
      </trkpt>
      <trkpt lat="43.43688" lon="6.03151">
        <ele>264.20001220703</ele>
        <time>2013-04-13T13:10:59Z</time>
      </trkpt>
      <trkpt lat="43.43688" lon="6.03151">
        <ele>264.20001220703</ele>
        <time>2013-04-13T13:11:13Z</time>
      </trkpt>
      <trkpt lat="43.43689" lon="6.0315">
        <ele>264.20001220703</ele>
        <time>2013-04-13T13:11:15Z</time>
      </trkpt>
      <trkpt lat="43.43689" lon="6.0315">
        <ele>264.20001220703</ele>
        <time>2013-04-13T13:11:18Z</time>
      </trkpt>
      <trkpt lat="43.43688" lon="6.0315">
        <ele>264.20001220703</ele>
        <time>2013-04-13T13:11:21Z</time>
      </trkpt>
      <trkpt lat="43.43688" lon="6.03147">
        <ele>264.20001220703</ele>
        <time>2013-04-13T13:11:28Z</time>
      </trkpt>
      <trkpt lat="43.43686" lon="6.03142">
        <ele>264.20001220703</ele>
        <time>2013-04-13T13:11:34Z</time>
      </trkpt>
      <trkpt lat="43.43688" lon="6.03141">
        <ele>264.20001220703</ele>
        <time>2013-04-13T13:11:37Z</time>
      </trkpt>
      <trkpt lat="43.4369" lon="6.0314">
        <ele>264.79998779297</ele>
        <time>2013-04-13T13:11:39Z</time>
      </trkpt>
      <trkpt lat="43.43689" lon="6.0314">
        <ele>265.20001220703</ele>
        <time>2013-04-13T13:11:40Z</time>
      </trkpt>
      <trkpt lat="43.43689" lon="6.03136">
        <ele>266.39999389648</ele>
        <time>2013-04-13T13:11:43Z</time>
      </trkpt>
      <trkpt lat="43.43689" lon="6.03134">
        <ele>266.39999389648</ele>
        <time>2013-04-13T13:11:45Z</time>
      </trkpt>
      <trkpt lat="43.43689" lon="6.03134">
        <ele>266.39999389648</ele>
        <time>2013-04-13T13:12:18Z</time>
      </trkpt>
      <trkpt lat="43.43689" lon="6.03135">
        <ele>266.39999389648</ele>
        <time>2013-04-13T13:12:33Z</time>
      </trkpt>
      <trkpt lat="43.4369" lon="6.03134">
        <ele>266.39999389648</ele>
        <time>2013-04-13T13:12:39Z</time>
      </trkpt>
      <trkpt lat="43.43689" lon="6.03127">
        <ele>266.39999389648</ele>
        <time>2013-04-13T13:12:49Z</time>
      </trkpt>
      <trkpt lat="43.43689" lon="6.03125">
        <ele>266.39999389648</ele>
        <time>2013-04-13T13:12:53Z</time>
      </trkpt>
      <trkpt lat="43.43689" lon="6.03125">
        <ele>266.39999389648</ele>
        <time>2013-04-13T13:12:59Z</time>
      </trkpt>
      <trkpt lat="43.43689" lon="6.03125">
        <ele>266.39999389648</ele>
        <time>2013-04-13T13:13:10Z</time>
      </trkpt>
      <trkpt lat="43.43689" lon="6.03115">
        <ele>266.39999389648</ele>
        <time>2013-04-13T13:13:16Z</time>
      </trkpt>
      <trkpt lat="43.43694" lon="6.03099">
        <ele>266.39999389648</ele>
        <time>2013-04-13T13:13:22Z</time>
      </trkpt>
      <trkpt lat="43.43694" lon="6.03095">
        <ele>266.39999389648</ele>
        <time>2013-04-13T13:13:23Z</time>
      </trkpt>
      <trkpt lat="43.437" lon="6.03076">
        <ele>266.39999389648</ele>
        <time>2013-04-13T13:13:29Z</time>
      </trkpt>
      <trkpt lat="43.43715" lon="6.0306">
        <ele>266.39999389648</ele>
        <time>2013-04-13T13:13:36Z</time>
      </trkpt>
      <trkpt lat="43.4372" lon="6.03056">
        <ele>266.39999389648</ele>
        <time>2013-04-13T13:13:38Z</time>
      </trkpt>
      <trkpt lat="43.43723" lon="6.03054">
        <ele>266</ele>
        <time>2013-04-13T13:13:39Z</time>
      </trkpt>
      <trkpt lat="43.43726" lon="6.03051">
        <ele>265.60000610352</ele>
        <time>2013-04-13T13:13:40Z</time>
      </trkpt>
      <trkpt lat="43.43729" lon="6.03049">
        <ele>265.20001220703</ele>
        <time>2013-04-13T13:13:41Z</time>
      </trkpt>
      <trkpt lat="43.43733" lon="6.03047">
        <ele>264.60000610352</ele>
        <time>2013-04-13T13:13:42Z</time>
      </trkpt>
      <trkpt lat="43.43736" lon="6.03045">
        <ele>264.20001220703</ele>
        <time>2013-04-13T13:13:43Z</time>
      </trkpt>
      <trkpt lat="43.43747" lon="6.0304">
        <ele>264.20001220703</ele>
        <time>2013-04-13T13:13:46Z</time>
      </trkpt>
      <trkpt lat="43.43752" lon="6.03039">
        <ele>264.20001220703</ele>
        <time>2013-04-13T13:13:47Z</time>
      </trkpt>
      <trkpt lat="43.43761" lon="6.03034">
        <ele>263.79998779297</ele>
        <time>2013-04-13T13:13:50Z</time>
      </trkpt>
      <trkpt lat="43.43762" lon="6.03031">
        <ele>263.39999389648</ele>
        <time>2013-04-13T13:13:51Z</time>
      </trkpt>
      <trkpt lat="43.43763" lon="6.03028">
        <ele>262.60000610352</ele>
        <time>2013-04-13T13:13:52Z</time>
      </trkpt>
      <trkpt lat="43.43763" lon="6.03026">
        <ele>262.20001220703</ele>
        <time>2013-04-13T13:13:53Z</time>
      </trkpt>
      <trkpt lat="43.43764" lon="6.03024">
        <ele>262.20001220703</ele>
        <time>2013-04-13T13:13:54Z</time>
      </trkpt>
      <trkpt lat="43.43764" lon="6.03019">
        <ele>262.20001220703</ele>
        <time>2013-04-13T13:13:59Z</time>
      </trkpt>
      <trkpt lat="43.43765" lon="6.03019">
        <ele>262.20001220703</ele>
        <time>2013-04-13T13:14:07Z</time>
      </trkpt>
      <trkpt lat="43.43765" lon="6.03019">
        <ele>262.20001220703</ele>
        <time>2013-04-13T13:14:18Z</time>
      </trkpt>
      <trkpt lat="43.43765" lon="6.03019">
        <ele>262.20001220703</ele>
        <time>2013-04-13T13:14:26Z</time>
      </trkpt>
      <trkpt lat="43.43766" lon="6.03019">
        <ele>262.20001220703</ele>
        <time>2013-04-13T13:14:27Z</time>
      </trkpt>
      <trkpt lat="43.43766" lon="6.03019">
        <ele>262.20001220703</ele>
        <time>2013-04-13T13:14:54Z</time>
      </trkpt>
      <trkpt lat="43.43766" lon="6.03019">
        <ele>262.20001220703</ele>
        <time>2013-04-13T13:15:08Z</time>
      </trkpt>
      <trkpt lat="43.43765" lon="6.03019">
        <ele>262.20001220703</ele>
        <time>2013-04-13T13:15:14Z</time>
      </trkpt>
      <trkpt lat="43.43765" lon="6.03019">
        <ele>262.20001220703</ele>
        <time>2013-04-13T13:15:40Z</time>
      </trkpt>
      <trkpt lat="43.43765" lon="6.03019">
        <ele>262.20001220703</ele>
        <time>2013-04-13T13:15:55Z</time>
      </trkpt>
      <trkpt lat="43.43765" lon="6.03018">
        <ele>262.20001220703</ele>
        <time>2013-04-13T13:16:06Z</time>
      </trkpt>
      <trkpt lat="43.43765" lon="6.03016">
        <ele>262.20001220703</ele>
        <time>2013-04-13T13:16:11Z</time>
      </trkpt>
      <trkpt lat="43.43768" lon="6.03013">
        <ele>262.20001220703</ele>
        <time>2013-04-13T13:16:16Z</time>
      </trkpt>
      <trkpt lat="43.43768" lon="6.03013">
        <ele>262.20001220703</ele>
        <time>2013-04-13T13:16:23Z</time>
      </trkpt>
      <trkpt lat="43.43768" lon="6.03013">
        <ele>262.20001220703</ele>
        <time>2013-04-13T13:16:24Z</time>
      </trkpt>
      <trkpt lat="43.43768" lon="6.03013">
        <ele>262.20001220703</ele>
        <time>2013-04-13T13:16:36Z</time>
      </trkpt>
      <trkpt lat="43.43768" lon="6.03013">
        <ele>262.20001220703</ele>
        <time>2013-04-13T13:16:38Z</time>
      </trkpt>
      <trkpt lat="43.43768" lon="6.03012">
        <ele>262.20001220703</ele>
        <time>2013-04-13T13:16:44Z</time>
      </trkpt>
      <trkpt lat="43.43769" lon="6.03011">
        <ele>262.20001220703</ele>
        <time>2013-04-13T13:16:45Z</time>
      </trkpt>
      <trkpt lat="43.43776" lon="6.02999">
        <ele>262.20001220703</ele>
        <time>2013-04-13T13:16:51Z</time>
      </trkpt>
      <trkpt lat="43.43783" lon="6.02983">
        <ele>262.20001220703</ele>
        <time>2013-04-13T13:16:58Z</time>
      </trkpt>
      <trkpt lat="43.43784" lon="6.02968">
        <ele>262.20001220703</ele>
        <time>2013-04-13T13:17:04Z</time>
      </trkpt>
      <trkpt lat="43.43787" lon="6.02954">
        <ele>262.20001220703</ele>
        <time>2013-04-13T13:17:10Z</time>
      </trkpt>
      <trkpt lat="43.43789" lon="6.02946">
        <ele>262.20001220703</ele>
        <time>2013-04-13T13:17:14Z</time>
      </trkpt>
      <trkpt lat="43.4379" lon="6.02941">
        <ele>262.20001220703</ele>
        <time>2013-04-13T13:17:16Z</time>
      </trkpt>
      <trkpt lat="43.43793" lon="6.02924">
        <ele>262.20001220703</ele>
        <time>2013-04-13T13:17:23Z</time>
      </trkpt>
      <trkpt lat="43.43791" lon="6.02909">
        <ele>262.20001220703</ele>
        <time>2013-04-13T13:17:29Z</time>
      </trkpt>
      <trkpt lat="43.43792" lon="6.02894">
        <ele>262.20001220703</ele>
        <time>2013-04-13T13:17:34Z</time>
      </trkpt>
      <trkpt lat="43.43793" lon="6.02886">
        <ele>262.60000610352</ele>
        <time>2013-04-13T13:17:37Z</time>
      </trkpt>
      <trkpt lat="43.43793" lon="6.02882">
        <ele>263.60000610352</ele>
        <time>2013-04-13T13:17:39Z</time>
      </trkpt>
      <trkpt lat="43.43793" lon="6.02879">
        <ele>264</ele>
        <time>2013-04-13T13:17:40Z</time>
      </trkpt>
      <trkpt lat="43.43794" lon="6.02876">
        <ele>264.39999389648</ele>
        <time>2013-04-13T13:17:41Z</time>
      </trkpt>
      <trkpt lat="43.438" lon="6.02856">
        <ele>264.39999389648</ele>
        <time>2013-04-13T13:17:47Z</time>
      </trkpt>
      <trkpt lat="43.43805" lon="6.02842">
        <ele>264.39999389648</ele>
        <time>2013-04-13T13:17:52Z</time>
      </trkpt>
      <trkpt lat="43.43808" lon="6.02828">
        <ele>264.39999389648</ele>
        <time>2013-04-13T13:17:57Z</time>
      </trkpt>
      <trkpt lat="43.43806" lon="6.02818">
        <ele>264.39999389648</ele>
        <time>2013-04-13T13:18:03Z</time>
      </trkpt>
      <trkpt lat="43.43806" lon="6.02815">
        <ele>264.39999389648</ele>
        <time>2013-04-13T13:18:05Z</time>
      </trkpt>
      <trkpt lat="43.43805" lon="6.0281">
        <ele>264.39999389648</ele>
        <time>2013-04-13T13:18:08Z</time>
      </trkpt>
      <trkpt lat="43.43803" lon="6.02807">
        <ele>264.39999389648</ele>
        <time>2013-04-13T13:18:10Z</time>
      </trkpt>
      <trkpt lat="43.43796" lon="6.02802">
        <ele>265.60000610352</ele>
        <time>2013-04-13T13:18:16Z</time>
      </trkpt>
      <trkpt lat="43.43795" lon="6.028">
        <ele>266</ele>
        <time>2013-04-13T13:18:17Z</time>
      </trkpt>
      <trkpt lat="43.43795" lon="6.02799">
        <ele>266.39999389648</ele>
        <time>2013-04-13T13:18:18Z</time>
      </trkpt>
      <trkpt lat="43.43795" lon="6.02798">
        <ele>266.39999389648</ele>
        <time>2013-04-13T13:18:20Z</time>
      </trkpt>
      <trkpt lat="43.43796" lon="6.02798">
        <ele>266.39999389648</ele>
        <time>2013-04-13T13:18:28Z</time>
      </trkpt>
      <trkpt lat="43.43795" lon="6.02795">
        <ele>266.39999389648</ele>
        <time>2013-04-13T13:18:37Z</time>
      </trkpt>
      <trkpt lat="43.43792" lon="6.02791">
        <ele>266.39999389648</ele>
        <time>2013-04-13T13:18:41Z</time>
      </trkpt>
      <trkpt lat="43.43791" lon="6.0279">
        <ele>266.39999389648</ele>
        <time>2013-04-13T13:18:42Z</time>
      </trkpt>
      <trkpt lat="43.4379" lon="6.02788">
        <ele>266.39999389648</ele>
        <time>2013-04-13T13:18:43Z</time>
      </trkpt>
      <trkpt lat="43.43787" lon="6.02782">
        <ele>266.39999389648</ele>
        <time>2013-04-13T13:18:47Z</time>
      </trkpt>
      <trkpt lat="43.43785" lon="6.02775">
        <ele>266.39999389648</ele>
        <time>2013-04-13T13:18:51Z</time>
      </trkpt>
      <trkpt lat="43.43785" lon="6.02766">
        <ele>266.39999389648</ele>
        <time>2013-04-13T13:18:56Z</time>
      </trkpt>
      <trkpt lat="43.43785" lon="6.02757">
        <ele>266.39999389648</ele>
        <time>2013-04-13T13:19:01Z</time>
      </trkpt>
      <trkpt lat="43.43787" lon="6.02752">
        <ele>266.39999389648</ele>
        <time>2013-04-13T13:19:04Z</time>
      </trkpt>
      <trkpt lat="43.43787" lon="6.02749">
        <ele>266.39999389648</ele>
        <time>2013-04-13T13:19:05Z</time>
      </trkpt>
      <trkpt lat="43.43787" lon="6.02736">
        <ele>266.39999389648</ele>
        <time>2013-04-13T13:19:11Z</time>
      </trkpt>
      <trkpt lat="43.43785" lon="6.02731">
        <ele>266.39999389648</ele>
        <time>2013-04-13T13:19:13Z</time>
      </trkpt>
      <trkpt lat="43.43784" lon="6.02728">
        <ele>266.39999389648</ele>
        <time>2013-04-13T13:19:15Z</time>
      </trkpt>
      <trkpt lat="43.43778" lon="6.02723">
        <ele>266.39999389648</ele>
        <time>2013-04-13T13:19:21Z</time>
      </trkpt>
      <trkpt lat="43.43769" lon="6.02718">
        <ele>266.39999389648</ele>
        <time>2013-04-13T13:19:27Z</time>
      </trkpt>
      <trkpt lat="43.43763" lon="6.02709">
        <ele>266.79998779297</ele>
        <time>2013-04-13T13:19:33Z</time>
      </trkpt>
      <trkpt lat="43.43763" lon="6.02706">
        <ele>267.60000610352</ele>
        <time>2013-04-13T13:19:35Z</time>
      </trkpt>
      <trkpt lat="43.43771" lon="6.027">
        <ele>268.60000610352</ele>
        <time>2013-04-13T13:19:42Z</time>
      </trkpt>
      <trkpt lat="43.43774" lon="6.02696">
        <ele>268.60000610352</ele>
        <time>2013-04-13T13:19:44Z</time>
      </trkpt>
      <trkpt lat="43.43779" lon="6.02688">
        <ele>268.60000610352</ele>
        <time>2013-04-13T13:19:49Z</time>
      </trkpt>
      <trkpt lat="43.43782" lon="6.02684">
        <ele>268.60000610352</ele>
        <time>2013-04-13T13:19:51Z</time>
      </trkpt>
      <trkpt lat="43.43783" lon="6.02682">
        <ele>268.60000610352</ele>
        <time>2013-04-13T13:19:53Z</time>
      </trkpt>
      <trkpt lat="43.43784" lon="6.02681">
        <ele>268.60000610352</ele>
        <time>2013-04-13T13:19:54Z</time>
      </trkpt>
      <trkpt lat="43.43783" lon="6.02671">
        <ele>268.60000610352</ele>
        <time>2013-04-13T13:20:00Z</time>
      </trkpt>
      <trkpt lat="43.43784" lon="6.02667">
        <ele>268.60000610352</ele>
        <time>2013-04-13T13:20:03Z</time>
      </trkpt>
      <trkpt lat="43.43784" lon="6.02666">
        <ele>268.60000610352</ele>
        <time>2013-04-13T13:20:08Z</time>
      </trkpt>
      <trkpt lat="43.43784" lon="6.02666">
        <ele>268.60000610352</ele>
        <time>2013-04-13T13:20:10Z</time>
      </trkpt>
      <trkpt lat="43.43784" lon="6.02665">
        <ele>268.60000610352</ele>
        <time>2013-04-13T13:20:21Z</time>
      </trkpt>
      <trkpt lat="43.43785" lon="6.02663">
        <ele>268.60000610352</ele>
        <time>2013-04-13T13:20:22Z</time>
      </trkpt>
      <trkpt lat="43.43784" lon="6.02655">
        <ele>268.60000610352</ele>
        <time>2013-04-13T13:20:27Z</time>
      </trkpt>
      <trkpt lat="43.43782" lon="6.02648">
        <ele>268.60000610352</ele>
        <time>2013-04-13T13:20:32Z</time>
      </trkpt>
      <trkpt lat="43.43782" lon="6.02645">
        <ele>268.60000610352</ele>
        <time>2013-04-13T13:20:34Z</time>
      </trkpt>
      <trkpt lat="43.43787" lon="6.02625">
        <ele>268.60000610352</ele>
        <time>2013-04-13T13:20:47Z</time>
      </trkpt>
      <trkpt lat="43.43789" lon="6.02613">
        <ele>268.60000610352</ele>
        <time>2013-04-13T13:20:54Z</time>
      </trkpt>
      <trkpt lat="43.43792" lon="6.02603">
        <ele>268.60000610352</ele>
        <time>2013-04-13T13:21:00Z</time>
      </trkpt>
      <trkpt lat="43.43793" lon="6.02593">
        <ele>268.60000610352</ele>
        <time>2013-04-13T13:21:04Z</time>
      </trkpt>
      <trkpt lat="43.43793" lon="6.02588">
        <ele>268.60000610352</ele>
        <time>2013-04-13T13:21:06Z</time>
      </trkpt>
      <trkpt lat="43.43793" lon="6.02572">
        <ele>268.60000610352</ele>
        <time>2013-04-13T13:21:12Z</time>
      </trkpt>
      <trkpt lat="43.4379" lon="6.02559">
        <ele>268.60000610352</ele>
        <time>2013-04-13T13:21:18Z</time>
      </trkpt>
      <trkpt lat="43.43789" lon="6.02547">
        <ele>268.60000610352</ele>
        <time>2013-04-13T13:21:23Z</time>
      </trkpt>
      <trkpt lat="43.43789" lon="6.02539">
        <ele>268.60000610352</ele>
        <time>2013-04-13T13:21:26Z</time>
      </trkpt>
      <trkpt lat="43.4379" lon="6.02531">
        <ele>268.60000610352</ele>
        <time>2013-04-13T13:21:29Z</time>
      </trkpt>
      <trkpt lat="43.43795" lon="6.02516">
        <ele>268.60000610352</ele>
        <time>2013-04-13T13:21:34Z</time>
      </trkpt>
      <trkpt lat="43.43793" lon="6.02506">
        <ele>268.60000610352</ele>
        <time>2013-04-13T13:21:38Z</time>
      </trkpt>
      <trkpt lat="43.43796" lon="6.02487">
        <ele>268.60000610352</ele>
        <time>2013-04-13T13:21:44Z</time>
      </trkpt>
      <trkpt lat="43.43793" lon="6.0248">
        <ele>268.60000610352</ele>
        <time>2013-04-13T13:21:48Z</time>
      </trkpt>
      <trkpt lat="43.43792" lon="6.02478">
        <ele>268.60000610352</ele>
        <time>2013-04-13T13:21:51Z</time>
      </trkpt>
      <trkpt lat="43.43788" lon="6.02479">
        <ele>268.60000610352</ele>
        <time>2013-04-13T13:21:54Z</time>
      </trkpt>
      <trkpt lat="43.43786" lon="6.02477">
        <ele>269</ele>
        <time>2013-04-13T13:21:56Z</time>
      </trkpt>
      <trkpt lat="43.43785" lon="6.02477">
        <ele>269.39999389648</ele>
        <time>2013-04-13T13:21:57Z</time>
      </trkpt>
      <trkpt lat="43.43785" lon="6.02476">
        <ele>269.79998779297</ele>
        <time>2013-04-13T13:21:58Z</time>
      </trkpt>
      <trkpt lat="43.43785" lon="6.02476">
        <ele>270.79998779297</ele>
        <time>2013-04-13T13:22:17Z</time>
      </trkpt>
      <trkpt lat="43.43785" lon="6.02476">
        <ele>270.79998779297</ele>
        <time>2013-04-13T13:22:35Z</time>
      </trkpt>
      <trkpt lat="43.43785" lon="6.02476">
        <ele>270.79998779297</ele>
        <time>2013-04-13T13:22:38Z</time>
      </trkpt>
      <trkpt lat="43.43785" lon="6.02476">
        <ele>270.79998779297</ele>
        <time>2013-04-13T13:22:40Z</time>
      </trkpt>
      <trkpt lat="43.43785" lon="6.02475">
        <ele>270.79998779297</ele>
        <time>2013-04-13T13:22:43Z</time>
      </trkpt>
      <trkpt lat="43.43784" lon="6.02475">
        <ele>270.79998779297</ele>
        <time>2013-04-13T13:22:45Z</time>
      </trkpt>
      <trkpt lat="43.43784" lon="6.02475">
        <ele>270.79998779297</ele>
        <time>2013-04-13T13:22:56Z</time>
      </trkpt>
      <trkpt lat="43.43784" lon="6.02475">
        <ele>270.79998779297</ele>
        <time>2013-04-13T13:23:03Z</time>
      </trkpt>
      <trkpt lat="43.43782" lon="6.02474">
        <ele>270.79998779297</ele>
        <time>2013-04-13T13:23:09Z</time>
      </trkpt>
      <trkpt lat="43.4378" lon="6.02473">
        <ele>270.79998779297</ele>
        <time>2013-04-13T13:23:11Z</time>
      </trkpt>
      <trkpt lat="43.43777" lon="6.0247">
        <ele>270.79998779297</ele>
        <time>2013-04-13T13:23:13Z</time>
      </trkpt>
      <trkpt lat="43.43777" lon="6.02466">
        <ele>270.79998779297</ele>
        <time>2013-04-13T13:23:16Z</time>
      </trkpt>
      <trkpt lat="43.43777" lon="6.02464">
        <ele>270.79998779297</ele>
        <time>2013-04-13T13:23:17Z</time>
      </trkpt>
      <trkpt lat="43.43776" lon="6.02461">
        <ele>270.79998779297</ele>
        <time>2013-04-13T13:23:19Z</time>
      </trkpt>
      <trkpt lat="43.43773" lon="6.02456">
        <ele>270.79998779297</ele>
        <time>2013-04-13T13:23:22Z</time>
      </trkpt>
      <trkpt lat="43.43774" lon="6.02446">
        <ele>271.20001220703</ele>
        <time>2013-04-13T13:23:27Z</time>
      </trkpt>
      <trkpt lat="43.43774" lon="6.02443">
        <ele>272</ele>
        <time>2013-04-13T13:23:29Z</time>
      </trkpt>
      <trkpt lat="43.43771" lon="6.02436">
        <ele>272.79998779297</ele>
        <time>2013-04-13T13:23:33Z</time>
      </trkpt>
      <trkpt lat="43.43771" lon="6.02433">
        <ele>272.79998779297</ele>
        <time>2013-04-13T13:23:35Z</time>
      </trkpt>
      <trkpt lat="43.43765" lon="6.02424">
        <ele>272.79998779297</ele>
        <time>2013-04-13T13:23:41Z</time>
      </trkpt>
      <trkpt lat="43.4376" lon="6.02414">
        <ele>272.79998779297</ele>
        <time>2013-04-13T13:23:47Z</time>
      </trkpt>
      <trkpt lat="43.43756" lon="6.02406">
        <ele>272.79998779297</ele>
        <time>2013-04-13T13:23:53Z</time>
      </trkpt>
      <trkpt lat="43.43752" lon="6.02403">
        <ele>272.79998779297</ele>
        <time>2013-04-13T13:23:56Z</time>
      </trkpt>
      <trkpt lat="43.4375" lon="6.02401">
        <ele>272.79998779297</ele>
        <time>2013-04-13T13:23:57Z</time>
      </trkpt>
      <trkpt lat="43.43747" lon="6.02398">
        <ele>273.60000610352</ele>
        <time>2013-04-13T13:23:59Z</time>
      </trkpt>
      <trkpt lat="43.43744" lon="6.02393">
        <ele>275</ele>
        <time>2013-04-13T13:24:02Z</time>
      </trkpt>
      <trkpt lat="43.43742" lon="6.0239">
        <ele>275</ele>
        <time>2013-04-13T13:24:04Z</time>
      </trkpt>
      <trkpt lat="43.43742" lon="6.02388">
        <ele>275</ele>
        <time>2013-04-13T13:24:10Z</time>
      </trkpt>
      <trkpt lat="43.43742" lon="6.02388">
        <ele>275</ele>
        <time>2013-04-13T13:24:18Z</time>
      </trkpt>
      <trkpt lat="43.43742" lon="6.02388">
        <ele>275</ele>
        <time>2013-04-13T13:24:21Z</time>
      </trkpt>
      <trkpt lat="43.4374" lon="6.02383">
        <ele>275</ele>
        <time>2013-04-13T13:24:28Z</time>
      </trkpt>
      <trkpt lat="43.43739" lon="6.02381">
        <ele>275</ele>
        <time>2013-04-13T13:24:30Z</time>
      </trkpt>
      <trkpt lat="43.43739" lon="6.02378">
        <ele>275</ele>
        <time>2013-04-13T13:24:32Z</time>
      </trkpt>
      <trkpt lat="43.43737" lon="6.02376">
        <ele>275</ele>
        <time>2013-04-13T13:24:35Z</time>
      </trkpt>
      <trkpt lat="43.43736" lon="6.02374">
        <ele>275.79998779297</ele>
        <time>2013-04-13T13:24:37Z</time>
      </trkpt>
      <trkpt lat="43.43736" lon="6.02372">
        <ele>276.39999389648</ele>
        <time>2013-04-13T13:24:38Z</time>
      </trkpt>
      <trkpt lat="43.43733" lon="6.02369">
        <ele>277.20001220703</ele>
        <time>2013-04-13T13:24:40Z</time>
      </trkpt>
      <trkpt lat="43.43732" lon="6.02369">
        <ele>277.20001220703</ele>
        <time>2013-04-13T13:24:42Z</time>
      </trkpt>
      <trkpt lat="43.43726" lon="6.02367">
        <ele>277.20001220703</ele>
        <time>2013-04-13T13:24:48Z</time>
      </trkpt>
      <trkpt lat="43.43724" lon="6.02365">
        <ele>277.20001220703</ele>
        <time>2013-04-13T13:24:50Z</time>
      </trkpt>
      <trkpt lat="43.4372" lon="6.02359">
        <ele>277.20001220703</ele>
        <time>2013-04-13T13:24:53Z</time>
      </trkpt>
      <trkpt lat="43.43716" lon="6.0235">
        <ele>277.20001220703</ele>
        <time>2013-04-13T13:24:57Z</time>
      </trkpt>
      <trkpt lat="43.43716" lon="6.02348">
        <ele>277.20001220703</ele>
        <time>2013-04-13T13:24:58Z</time>
      </trkpt>
      <trkpt lat="43.43716" lon="6.02338">
        <ele>277.20001220703</ele>
        <time>2013-04-13T13:25:02Z</time>
      </trkpt>
      <trkpt lat="43.43719" lon="6.02337">
        <ele>277.20001220703</ele>
        <time>2013-04-13T13:25:03Z</time>
      </trkpt>
      <trkpt lat="43.43724" lon="6.02331">
        <ele>277.20001220703</ele>
        <time>2013-04-13T13:25:06Z</time>
      </trkpt>
      <trkpt lat="43.43725" lon="6.02328">
        <ele>277.20001220703</ele>
        <time>2013-04-13T13:25:07Z</time>
      </trkpt>
      <trkpt lat="43.43727" lon="6.02319">
        <ele>276.60000610352</ele>
        <time>2013-04-13T13:25:10Z</time>
      </trkpt>
      <trkpt lat="43.43729" lon="6.02315">
        <ele>276.20001220703</ele>
        <time>2013-04-13T13:25:11Z</time>
      </trkpt>
      <trkpt lat="43.43735" lon="6.02303">
        <ele>274.79998779297</ele>
        <time>2013-04-13T13:25:14Z</time>
      </trkpt>
      <trkpt lat="43.43739" lon="6.02295">
        <ele>274.39999389648</ele>
        <time>2013-04-13T13:25:16Z</time>
      </trkpt>
      <trkpt lat="43.43742" lon="6.02291">
        <ele>274</ele>
        <time>2013-04-13T13:25:17Z</time>
      </trkpt>
      <trkpt lat="43.43744" lon="6.02286">
        <ele>273.39999389648</ele>
        <time>2013-04-13T13:25:18Z</time>
      </trkpt>
      <trkpt lat="43.43746" lon="6.02281">
        <ele>273</ele>
        <time>2013-04-13T13:25:19Z</time>
      </trkpt>
      <trkpt lat="43.43749" lon="6.02277">
        <ele>272.60000610352</ele>
        <time>2013-04-13T13:25:20Z</time>
      </trkpt>
      <trkpt lat="43.43752" lon="6.02273">
        <ele>272.60000610352</ele>
        <time>2013-04-13T13:25:21Z</time>
      </trkpt>
      <trkpt lat="43.4376" lon="6.02258">
        <ele>271.60000610352</ele>
        <time>2013-04-13T13:25:24Z</time>
      </trkpt>
      <trkpt lat="43.43762" lon="6.02254">
        <ele>271.20001220703</ele>
        <time>2013-04-13T13:25:25Z</time>
      </trkpt>
      <trkpt lat="43.43764" lon="6.02248">
        <ele>270.79998779297</ele>
        <time>2013-04-13T13:25:26Z</time>
      </trkpt>
      <trkpt lat="43.43763" lon="6.02245">
        <ele>270.39999389648</ele>
        <time>2013-04-13T13:25:27Z</time>
      </trkpt>
      <trkpt lat="43.43764" lon="6.0224">
        <ele>270.39999389648</ele>
        <time>2013-04-13T13:25:28Z</time>
      </trkpt>
      <trkpt lat="43.43765" lon="6.02234">
        <ele>270.39999389648</ele>
        <time>2013-04-13T13:25:30Z</time>
      </trkpt>
      <trkpt lat="43.43765" lon="6.02229">
        <ele>270.39999389648</ele>
        <time>2013-04-13T13:25:32Z</time>
      </trkpt>
      <trkpt lat="43.43765" lon="6.02211">
        <ele>270.39999389648</ele>
        <time>2013-04-13T13:25:38Z</time>
      </trkpt>
      <trkpt lat="43.43765" lon="6.02205">
        <ele>270.39999389648</ele>
        <time>2013-04-13T13:25:40Z</time>
      </trkpt>
      <trkpt lat="43.43766" lon="6.02193">
        <ele>270.39999389648</ele>
        <time>2013-04-13T13:25:44Z</time>
      </trkpt>
      <trkpt lat="43.43772" lon="6.02179">
        <ele>270.39999389648</ele>
        <time>2013-04-13T13:25:49Z</time>
      </trkpt>
      <trkpt lat="43.43777" lon="6.02162">
        <ele>270.39999389648</ele>
        <time>2013-04-13T13:25:55Z</time>
      </trkpt>
      <trkpt lat="43.43779" lon="6.02156">
        <ele>270.39999389648</ele>
        <time>2013-04-13T13:25:57Z</time>
      </trkpt>
      <trkpt lat="43.43785" lon="6.02148">
        <ele>270.39999389648</ele>
        <time>2013-04-13T13:26:00Z</time>
      </trkpt>
      <trkpt lat="43.43798" lon="6.02134">
        <ele>270.39999389648</ele>
        <time>2013-04-13T13:26:06Z</time>
      </trkpt>
      <trkpt lat="43.43809" lon="6.02123">
        <ele>270.39999389648</ele>
        <time>2013-04-13T13:26:11Z</time>
      </trkpt>
      <trkpt lat="43.43811" lon="6.02109">
        <ele>270.39999389648</ele>
        <time>2013-04-13T13:26:16Z</time>
      </trkpt>
      <trkpt lat="43.43814" lon="6.02095">
        <ele>270.39999389648</ele>
        <time>2013-04-13T13:26:21Z</time>
      </trkpt>
      <trkpt lat="43.4382" lon="6.02074">
        <ele>270.39999389648</ele>
        <time>2013-04-13T13:26:27Z</time>
      </trkpt>
      <trkpt lat="43.4383" lon="6.0205">
        <ele>270.39999389648</ele>
        <time>2013-04-13T13:26:33Z</time>
      </trkpt>
      <trkpt lat="43.43834" lon="6.02027">
        <ele>270.39999389648</ele>
        <time>2013-04-13T13:26:39Z</time>
      </trkpt>
      <trkpt lat="43.43836" lon="6.02004">
        <ele>270.39999389648</ele>
        <time>2013-04-13T13:26:46Z</time>
      </trkpt>
      <trkpt lat="43.43837" lon="6.01997">
        <ele>270.39999389648</ele>
        <time>2013-04-13T13:26:48Z</time>
      </trkpt>
      <trkpt lat="43.43838" lon="6.01982">
        <ele>270.39999389648</ele>
        <time>2013-04-13T13:26:52Z</time>
      </trkpt>
      <trkpt lat="43.4384" lon="6.0197">
        <ele>270.39999389648</ele>
        <time>2013-04-13T13:26:56Z</time>
      </trkpt>
      <trkpt lat="43.43841" lon="6.01965">
        <ele>270.39999389648</ele>
        <time>2013-04-13T13:26:57Z</time>
      </trkpt>
      <trkpt lat="43.43848" lon="6.01947">
        <ele>270.39999389648</ele>
        <time>2013-04-13T13:27:01Z</time>
      </trkpt>
      <trkpt lat="43.43861" lon="6.01922">
        <ele>270.39999389648</ele>
        <time>2013-04-13T13:27:07Z</time>
      </trkpt>
      <trkpt lat="43.43866" lon="6.01906">
        <ele>270.39999389648</ele>
        <time>2013-04-13T13:27:12Z</time>
      </trkpt>
      <trkpt lat="43.43871" lon="6.01885">
        <ele>270.79998779297</ele>
        <time>2013-04-13T13:27:18Z</time>
      </trkpt>
      <trkpt lat="43.43872" lon="6.01877">
        <ele>271.60000610352</ele>
        <time>2013-04-13T13:27:20Z</time>
      </trkpt>
      <trkpt lat="43.43875" lon="6.0187">
        <ele>272.39999389648</ele>
        <time>2013-04-13T13:27:22Z</time>
      </trkpt>
      <trkpt lat="43.43876" lon="6.01862">
        <ele>272.39999389648</ele>
        <time>2013-04-13T13:27:24Z</time>
      </trkpt>
      <trkpt lat="43.43879" lon="6.01842">
        <ele>272.39999389648</ele>
        <time>2013-04-13T13:27:29Z</time>
      </trkpt>
      <trkpt lat="43.4388" lon="6.01816">
        <ele>272.39999389648</ele>
        <time>2013-04-13T13:27:36Z</time>
      </trkpt>
      <trkpt lat="43.43881" lon="6.01808">
        <ele>272.79998779297</ele>
        <time>2013-04-13T13:27:39Z</time>
      </trkpt>
      <trkpt lat="43.43881" lon="6.01804">
        <ele>273.20001220703</ele>
        <time>2013-04-13T13:27:40Z</time>
      </trkpt>
      <trkpt lat="43.43884" lon="6.01795">
        <ele>274.39999389648</ele>
        <time>2013-04-13T13:27:43Z</time>
      </trkpt>
      <trkpt lat="43.43886" lon="6.01786">
        <ele>274.39999389648</ele>
        <time>2013-04-13T13:27:46Z</time>
      </trkpt>
      <trkpt lat="43.43889" lon="6.01772">
        <ele>274.39999389648</ele>
        <time>2013-04-13T13:27:51Z</time>
      </trkpt>
      <trkpt lat="43.4389" lon="6.01766">
        <ele>275.79998779297</ele>
        <time>2013-04-13T13:27:53Z</time>
      </trkpt>
      <trkpt lat="43.43885" lon="6.01736">
        <ele>276.60000610352</ele>
        <time>2013-04-13T13:28:03Z</time>
      </trkpt>
      <trkpt lat="43.43879" lon="6.01721">
        <ele>276.60000610352</ele>
        <time>2013-04-13T13:28:09Z</time>
      </trkpt>
      <trkpt lat="43.43875" lon="6.01709">
        <ele>278</ele>
        <time>2013-04-13T13:28:14Z</time>
      </trkpt>
      <trkpt lat="43.43875" lon="6.01706">
        <ele>278.39999389648</ele>
        <time>2013-04-13T13:28:16Z</time>
      </trkpt>
      <trkpt lat="43.43874" lon="6.01704">
        <ele>278.79998779297</ele>
        <time>2013-04-13T13:28:17Z</time>
      </trkpt>
      <trkpt lat="43.43873" lon="6.01694">
        <ele>278.79998779297</ele>
        <time>2013-04-13T13:28:21Z</time>
      </trkpt>
      <trkpt lat="43.43873" lon="6.01681">
        <ele>278.79998779297</ele>
        <time>2013-04-13T13:28:27Z</time>
      </trkpt>
      <trkpt lat="43.43872" lon="6.0167">
        <ele>278.79998779297</ele>
        <time>2013-04-13T13:28:31Z</time>
      </trkpt>
      <trkpt lat="43.4387" lon="6.01665">
        <ele>279.20001220703</ele>
        <time>2013-04-13T13:28:33Z</time>
      </trkpt>
      <trkpt lat="43.43868" lon="6.01662">
        <ele>280</ele>
        <time>2013-04-13T13:28:35Z</time>
      </trkpt>
      <trkpt lat="43.43867" lon="6.01661">
        <ele>280.39999389648</ele>
        <time>2013-04-13T13:28:36Z</time>
      </trkpt>
      <trkpt lat="43.43865" lon="6.0166">
        <ele>280.79998779297</ele>
        <time>2013-04-13T13:28:37Z</time>
      </trkpt>
      <trkpt lat="43.43864" lon="6.01661">
        <ele>280.79998779297</ele>
        <time>2013-04-13T13:28:38Z</time>
      </trkpt>
      <trkpt lat="43.43861" lon="6.01662">
        <ele>280.79998779297</ele>
        <time>2013-04-13T13:28:41Z</time>
      </trkpt>
      <trkpt lat="43.43859" lon="6.01664">
        <ele>280.79998779297</ele>
        <time>2013-04-13T13:28:43Z</time>
      </trkpt>
      <trkpt lat="43.43859" lon="6.01664">
        <ele>280.79998779297</ele>
        <time>2013-04-13T13:28:44Z</time>
      </trkpt>
      <trkpt lat="43.43859" lon="6.01664">
        <ele>280.79998779297</ele>
        <time>2013-04-13T13:28:48Z</time>
      </trkpt>
      <trkpt lat="43.43859" lon="6.01664">
        <ele>280.79998779297</ele>
        <time>2013-04-13T13:29:10Z</time>
      </trkpt>
      <trkpt lat="43.43859" lon="6.01664">
        <ele>280.79998779297</ele>
        <time>2013-04-13T13:29:19Z</time>
      </trkpt>
      <trkpt lat="43.43857" lon="6.01666">
        <ele>280.79998779297</ele>
        <time>2013-04-13T13:29:26Z</time>
      </trkpt>
      <trkpt lat="43.43856" lon="6.01666">
        <ele>280.79998779297</ele>
        <time>2013-04-13T13:29:27Z</time>
      </trkpt>
      <trkpt lat="43.43849" lon="6.01671">
        <ele>280.79998779297</ele>
        <time>2013-04-13T13:29:32Z</time>
      </trkpt>
      <trkpt lat="43.43841" lon="6.01677">
        <ele>280.79998779297</ele>
        <time>2013-04-13T13:29:38Z</time>
      </trkpt>
      <trkpt lat="43.43836" lon="6.0168">
        <ele>280.79998779297</ele>
        <time>2013-04-13T13:29:41Z</time>
      </trkpt>
      <trkpt lat="43.43821" lon="6.0169">
        <ele>280.79998779297</ele>
        <time>2013-04-13T13:29:49Z</time>
      </trkpt>
      <trkpt lat="43.43809" lon="6.01695">
        <ele>280.79998779297</ele>
        <time>2013-04-13T13:29:54Z</time>
      </trkpt>
      <trkpt lat="43.43803" lon="6.01697">
        <ele>280.79998779297</ele>
        <time>2013-04-13T13:29:57Z</time>
      </trkpt>
      <trkpt lat="43.43801" lon="6.01698">
        <ele>280.79998779297</ele>
        <time>2013-04-13T13:29:58Z</time>
      </trkpt>
      <trkpt lat="43.43788" lon="6.01697">
        <ele>280.79998779297</ele>
        <time>2013-04-13T13:30:04Z</time>
      </trkpt>
      <trkpt lat="43.43777" lon="6.01695">
        <ele>283</ele>
        <time>2013-04-13T13:30:09Z</time>
      </trkpt>
      <trkpt lat="43.43759" lon="6.01689">
        <ele>283</ele>
        <time>2013-04-13T13:30:18Z</time>
      </trkpt>
      <trkpt lat="43.43738" lon="6.01682">
        <ele>284.60000610352</ele>
        <time>2013-04-13T13:30:29Z</time>
      </trkpt>
      <trkpt lat="43.43736" lon="6.01681">
        <ele>285</ele>
        <time>2013-04-13T13:30:30Z</time>
      </trkpt>
      <trkpt lat="43.43725" lon="6.01675">
        <ele>285</ele>
        <time>2013-04-13T13:30:37Z</time>
      </trkpt>
      <trkpt lat="43.43717" lon="6.01672">
        <ele>285.79998779297</ele>
        <time>2013-04-13T13:30:41Z</time>
      </trkpt>
      <trkpt lat="43.43713" lon="6.01667">
        <ele>287.20001220703</ele>
        <time>2013-04-13T13:30:44Z</time>
      </trkpt>
      <trkpt lat="43.43703" lon="6.01658">
        <ele>287.20001220703</ele>
        <time>2013-04-13T13:30:50Z</time>
      </trkpt>
      <trkpt lat="43.43692" lon="6.01649">
        <ele>287.20001220703</ele>
        <time>2013-04-13T13:30:56Z</time>
      </trkpt>
      <trkpt lat="43.43682" lon="6.01647">
        <ele>287.20001220703</ele>
        <time>2013-04-13T13:31:02Z</time>
      </trkpt>
      <trkpt lat="43.43676" lon="6.01644">
        <ele>287.60000610352</ele>
        <time>2013-04-13T13:31:07Z</time>
      </trkpt>
      <trkpt lat="43.43674" lon="6.01643">
        <ele>288.79998779297</ele>
        <time>2013-04-13T13:31:09Z</time>
      </trkpt>
      <trkpt lat="43.43673" lon="6.01642">
        <ele>289.20001220703</ele>
        <time>2013-04-13T13:31:10Z</time>
      </trkpt>
      <trkpt lat="43.43666" lon="6.0164">
        <ele>289.20001220703</ele>
        <time>2013-04-13T13:31:15Z</time>
      </trkpt>
      <trkpt lat="43.43657" lon="6.01636">
        <ele>289.20001220703</ele>
        <time>2013-04-13T13:31:22Z</time>
      </trkpt>
      <trkpt lat="43.43651" lon="6.01632">
        <ele>289.20001220703</ele>
        <time>2013-04-13T13:31:27Z</time>
      </trkpt>
      <trkpt lat="43.4365" lon="6.01632">
        <ele>289.20001220703</ele>
        <time>2013-04-13T13:31:28Z</time>
      </trkpt>
      <trkpt lat="43.43647" lon="6.01626">
        <ele>289.20001220703</ele>
        <time>2013-04-13T13:31:33Z</time>
      </trkpt>
      <trkpt lat="43.43644" lon="6.01624">
        <ele>289.60000610352</ele>
        <time>2013-04-13T13:31:37Z</time>
      </trkpt>
      <trkpt lat="43.43644" lon="6.01624">
        <ele>291.20001220703</ele>
        <time>2013-04-13T13:31:41Z</time>
      </trkpt>
      <trkpt lat="43.43644" lon="6.01624">
        <ele>291.20001220703</ele>
        <time>2013-04-13T13:31:44Z</time>
      </trkpt>
      <trkpt lat="43.43643" lon="6.01622">
        <ele>291.20001220703</ele>
        <time>2013-04-13T13:31:49Z</time>
      </trkpt>
      <trkpt lat="43.43641" lon="6.01617">
        <ele>291.20001220703</ele>
        <time>2013-04-13T13:31:52Z</time>
      </trkpt>
      <trkpt lat="43.43639" lon="6.01612">
        <ele>291.20001220703</ele>
        <time>2013-04-13T13:31:54Z</time>
      </trkpt>
      <trkpt lat="43.43633" lon="6.01596">
        <ele>291.20001220703</ele>
        <time>2013-04-13T13:32:01Z</time>
      </trkpt>
      <trkpt lat="43.43625" lon="6.01583">
        <ele>291.20001220703</ele>
        <time>2013-04-13T13:32:08Z</time>
      </trkpt>
      <trkpt lat="43.43615" lon="6.01573">
        <ele>291.20001220703</ele>
        <time>2013-04-13T13:32:14Z</time>
      </trkpt>
      <trkpt lat="43.43607" lon="6.01563">
        <ele>291.20001220703</ele>
        <time>2013-04-13T13:32:20Z</time>
      </trkpt>
      <trkpt lat="43.436" lon="6.01559">
        <ele>291.20001220703</ele>
        <time>2013-04-13T13:32:24Z</time>
      </trkpt>
      <trkpt lat="43.4359" lon="6.01552">
        <ele>292.79998779297</ele>
        <time>2013-04-13T13:32:31Z</time>
      </trkpt>
      <trkpt lat="43.43588" lon="6.01552">
        <ele>293.20001220703</ele>
        <time>2013-04-13T13:32:32Z</time>
      </trkpt>
      <trkpt lat="43.43573" lon="6.01547">
        <ele>293.20001220703</ele>
        <time>2013-04-13T13:32:42Z</time>
      </trkpt>
      <trkpt lat="43.43562" lon="6.01546">
        <ele>295.20001220703</ele>
        <time>2013-04-13T13:32:49Z</time>
      </trkpt>
      <trkpt lat="43.43552" lon="6.01546">
        <ele>295.20001220703</ele>
        <time>2013-04-13T13:32:55Z</time>
      </trkpt>
      <trkpt lat="43.43542" lon="6.01545">
        <ele>295.20001220703</ele>
        <time>2013-04-13T13:33:02Z</time>
      </trkpt>
      <trkpt lat="43.43536" lon="6.01543">
        <ele>295.20001220703</ele>
        <time>2013-04-13T13:33:06Z</time>
      </trkpt>
      <trkpt lat="43.43533" lon="6.01542">
        <ele>295.20001220703</ele>
        <time>2013-04-13T13:33:08Z</time>
      </trkpt>
      <trkpt lat="43.43521" lon="6.01537">
        <ele>295.20001220703</ele>
        <time>2013-04-13T13:33:15Z</time>
      </trkpt>
      <trkpt lat="43.43513" lon="6.01532">
        <ele>295.20001220703</ele>
        <time>2013-04-13T13:33:21Z</time>
      </trkpt>
      <trkpt lat="43.4351" lon="6.01531">
        <ele>296</ele>
        <time>2013-04-13T13:33:23Z</time>
      </trkpt>
      <trkpt lat="43.43509" lon="6.01529">
        <ele>296.39999389648</ele>
        <time>2013-04-13T13:33:24Z</time>
      </trkpt>
      <trkpt lat="43.43507" lon="6.01529">
        <ele>296.79998779297</ele>
        <time>2013-04-13T13:33:25Z</time>
      </trkpt>
      <trkpt lat="43.43499" lon="6.0153">
        <ele>297.20001220703</ele>
        <time>2013-04-13T13:33:31Z</time>
      </trkpt>
      <trkpt lat="43.43495" lon="6.01531">
        <ele>297.20001220703</ele>
        <time>2013-04-13T13:33:34Z</time>
      </trkpt>
      <trkpt lat="43.43492" lon="6.01532">
        <ele>297.20001220703</ele>
        <time>2013-04-13T13:33:36Z</time>
      </trkpt>
      <trkpt lat="43.43488" lon="6.01531">
        <ele>298</ele>
        <time>2013-04-13T13:33:38Z</time>
      </trkpt>
      <trkpt lat="43.43486" lon="6.01532">
        <ele>299</ele>
        <time>2013-04-13T13:33:40Z</time>
      </trkpt>
      <trkpt lat="43.43485" lon="6.01532">
        <ele>299.39999389648</ele>
        <time>2013-04-13T13:33:41Z</time>
      </trkpt>
      <trkpt lat="43.43484" lon="6.01532">
        <ele>299.39999389648</ele>
        <time>2013-04-13T13:33:46Z</time>
      </trkpt>
      <trkpt lat="43.43484" lon="6.01532">
        <ele>299.39999389648</ele>
        <time>2013-04-13T13:34:12Z</time>
      </trkpt>
      <trkpt lat="43.43484" lon="6.01532">
        <ele>299.39999389648</ele>
        <time>2013-04-13T13:34:23Z</time>
      </trkpt>
      <trkpt lat="43.43484" lon="6.01532">
        <ele>299.39999389648</ele>
        <time>2013-04-13T13:34:40Z</time>
      </trkpt>
      <trkpt lat="43.4348" lon="6.0153">
        <ele>299.39999389648</ele>
        <time>2013-04-13T13:34:44Z</time>
      </trkpt>
      <trkpt lat="43.43478" lon="6.01531">
        <ele>299.39999389648</ele>
        <time>2013-04-13T13:34:45Z</time>
      </trkpt>
      <trkpt lat="43.43473" lon="6.0153">
        <ele>299.39999389648</ele>
        <time>2013-04-13T13:34:48Z</time>
      </trkpt>
      <trkpt lat="43.43464" lon="6.01529">
        <ele>299.39999389648</ele>
        <time>2013-04-13T13:34:54Z</time>
      </trkpt>
      <trkpt lat="43.43462" lon="6.01527">
        <ele>299.39999389648</ele>
        <time>2013-04-13T13:34:55Z</time>
      </trkpt>
      <trkpt lat="43.43454" lon="6.01524">
        <ele>299.39999389648</ele>
        <time>2013-04-13T13:35:00Z</time>
      </trkpt>
      <trkpt lat="43.43451" lon="6.01522">
        <ele>300.20001220703</ele>
        <time>2013-04-13T13:35:02Z</time>
      </trkpt>
      <trkpt lat="43.43451" lon="6.01521">
        <ele>300.60000610352</ele>
        <time>2013-04-13T13:35:03Z</time>
      </trkpt>
      <trkpt lat="43.4345" lon="6.01521">
        <ele>301</ele>
        <time>2013-04-13T13:35:04Z</time>
      </trkpt>
      <trkpt lat="43.43449" lon="6.01521">
        <ele>301.39999389648</ele>
        <time>2013-04-13T13:35:06Z</time>
      </trkpt>
      <trkpt lat="43.43447" lon="6.01514">
        <ele>301.39999389648</ele>
        <time>2013-04-13T13:35:13Z</time>
      </trkpt>
      <trkpt lat="43.43444" lon="6.01505">
        <ele>301.39999389648</ele>
        <time>2013-04-13T13:35:18Z</time>
      </trkpt>
      <trkpt lat="43.43441" lon="6.01488">
        <ele>301.39999389648</ele>
        <time>2013-04-13T13:35:25Z</time>
      </trkpt>
      <trkpt lat="43.43437" lon="6.01477">
        <ele>301.39999389648</ele>
        <time>2013-04-13T13:35:31Z</time>
      </trkpt>
      <trkpt lat="43.43433" lon="6.01465">
        <ele>303.39999389648</ele>
        <time>2013-04-13T13:35:37Z</time>
      </trkpt>
      <trkpt lat="43.43431" lon="6.01455">
        <ele>303.39999389648</ele>
        <time>2013-04-13T13:35:42Z</time>
      </trkpt>
      <trkpt lat="43.43432" lon="6.01432">
        <ele>303.39999389648</ele>
        <time>2013-04-13T13:35:54Z</time>
      </trkpt>
      <trkpt lat="43.4343" lon="6.01426">
        <ele>304.20001220703</ele>
        <time>2013-04-13T13:35:58Z</time>
      </trkpt>
      <trkpt lat="43.43429" lon="6.01423">
        <ele>305</ele>
        <time>2013-04-13T13:36:00Z</time>
      </trkpt>
      <trkpt lat="43.43429" lon="6.01421">
        <ele>305.39999389648</ele>
        <time>2013-04-13T13:36:01Z</time>
      </trkpt>
      <trkpt lat="43.4343" lon="6.01412">
        <ele>305.39999389648</ele>
        <time>2013-04-13T13:36:06Z</time>
      </trkpt>
      <trkpt lat="43.4343" lon="6.01402">
        <ele>305.39999389648</ele>
        <time>2013-04-13T13:36:11Z</time>
      </trkpt>
      <trkpt lat="43.43429" lon="6.01391">
        <ele>305.39999389648</ele>
        <time>2013-04-13T13:36:17Z</time>
      </trkpt>
      <trkpt lat="43.43427" lon="6.01382">
        <ele>306</ele>
        <time>2013-04-13T13:36:23Z</time>
      </trkpt>
      <trkpt lat="43.43427" lon="6.01382">
        <ele>307.60000610352</ele>
        <time>2013-04-13T13:36:37Z</time>
      </trkpt>
      <trkpt lat="43.43427" lon="6.01382">
        <ele>307.60000610352</ele>
        <time>2013-04-13T13:36:58Z</time>
      </trkpt>
      <trkpt lat="43.43427" lon="6.0138">
        <ele>307.60000610352</ele>
        <time>2013-04-13T13:37:02Z</time>
      </trkpt>
      <trkpt lat="43.43427" lon="6.01372">
        <ele>307.60000610352</ele>
        <time>2013-04-13T13:37:05Z</time>
      </trkpt>
      <trkpt lat="43.43427" lon="6.0137">
        <ele>307.60000610352</ele>
        <time>2013-04-13T13:37:06Z</time>
      </trkpt>
      <trkpt lat="43.43424" lon="6.01358">
        <ele>307.60000610352</ele>
        <time>2013-04-13T13:37:11Z</time>
      </trkpt>
      <trkpt lat="43.43422" lon="6.01348">
        <ele>307.60000610352</ele>
        <time>2013-04-13T13:37:16Z</time>
      </trkpt>
      <trkpt lat="43.43422" lon="6.01345">
        <ele>307.60000610352</ele>
        <time>2013-04-13T13:37:17Z</time>
      </trkpt>
      <trkpt lat="43.43425" lon="6.01335">
        <ele>308.39999389648</ele>
        <time>2013-04-13T13:37:22Z</time>
      </trkpt>
      <trkpt lat="43.43428" lon="6.01332">
        <ele>309.39999389648</ele>
        <time>2013-04-13T13:37:24Z</time>
      </trkpt>
      <trkpt lat="43.43435" lon="6.01325">
        <ele>309.79998779297</ele>
        <time>2013-04-13T13:37:28Z</time>
      </trkpt>
      <trkpt lat="43.43438" lon="6.01321">
        <ele>310.60000610352</ele>
        <time>2013-04-13T13:37:30Z</time>
      </trkpt>
      <trkpt lat="43.4344" lon="6.01316">
        <ele>311.79998779297</ele>
        <time>2013-04-13T13:37:33Z</time>
      </trkpt>
      <trkpt lat="43.43446" lon="6.013">
        <ele>313.39999389648</ele>
        <time>2013-04-13T13:37:40Z</time>
      </trkpt>
      <trkpt lat="43.43451" lon="6.01293">
        <ele>313.79998779297</ele>
        <time>2013-04-13T13:37:45Z</time>
      </trkpt>
      <trkpt lat="43.43454" lon="6.01284">
        <ele>314.20001220703</ele>
        <time>2013-04-13T13:37:50Z</time>
      </trkpt>
      <trkpt lat="43.43454" lon="6.01282">
        <ele>314.60000610352</ele>
        <time>2013-04-13T13:37:51Z</time>
      </trkpt>
      <trkpt lat="43.43451" lon="6.01275">
        <ele>316</ele>
        <time>2013-04-13T13:37:54Z</time>
      </trkpt>
      <trkpt lat="43.43452" lon="6.0127">
        <ele>316</ele>
        <time>2013-04-13T13:37:56Z</time>
      </trkpt>
      <trkpt lat="43.43452" lon="6.0127">
        <ele>316</ele>
        <time>2013-04-13T13:37:57Z</time>
      </trkpt>
      <trkpt lat="43.43454" lon="6.01262">
        <ele>316</ele>
        <time>2013-04-13T13:38:01Z</time>
      </trkpt>
      <trkpt lat="43.43454" lon="6.01261">
        <ele>316</ele>
        <time>2013-04-13T13:38:02Z</time>
      </trkpt>
      <trkpt lat="43.43456" lon="6.01257">
        <ele>316.39999389648</ele>
        <time>2013-04-13T13:38:05Z</time>
      </trkpt>
      <trkpt lat="43.43457" lon="6.01256">
        <ele>316.79998779297</ele>
        <time>2013-04-13T13:38:06Z</time>
      </trkpt>
      <trkpt lat="43.43458" lon="6.01255">
        <ele>317.20001220703</ele>
        <time>2013-04-13T13:38:07Z</time>
      </trkpt>
      <trkpt lat="43.43464" lon="6.01246">
        <ele>318.20001220703</ele>
        <time>2013-04-13T13:38:16Z</time>
      </trkpt>
      <trkpt lat="43.43469" lon="6.01239">
        <ele>318.20001220703</ele>
        <time>2013-04-13T13:38:22Z</time>
      </trkpt>
      <trkpt lat="43.43472" lon="6.01234">
        <ele>318.20001220703</ele>
        <time>2013-04-13T13:38:26Z</time>
      </trkpt>
      <trkpt lat="43.43474" lon="6.01228">
        <ele>318.20001220703</ele>
        <time>2013-04-13T13:38:30Z</time>
      </trkpt>
      <trkpt lat="43.43474" lon="6.01222">
        <ele>319</ele>
        <time>2013-04-13T13:38:34Z</time>
      </trkpt>
      <trkpt lat="43.43475" lon="6.01217">
        <ele>320.20001220703</ele>
        <time>2013-04-13T13:38:37Z</time>
      </trkpt>
      <trkpt lat="43.43475" lon="6.01208">
        <ele>320.20001220703</ele>
        <time>2013-04-13T13:38:42Z</time>
      </trkpt>
      <trkpt lat="43.43475" lon="6.01204">
        <ele>320.20001220703</ele>
        <time>2013-04-13T13:38:45Z</time>
      </trkpt>
      <trkpt lat="43.43475" lon="6.012">
        <ele>320.20001220703</ele>
        <time>2013-04-13T13:38:49Z</time>
      </trkpt>
      <trkpt lat="43.43476" lon="6.01199">
        <ele>320.20001220703</ele>
        <time>2013-04-13T13:38:51Z</time>
      </trkpt>
      <trkpt lat="43.43476" lon="6.01199">
        <ele>320.20001220703</ele>
        <time>2013-04-13T13:39:09Z</time>
      </trkpt>
      <trkpt lat="43.43476" lon="6.01199">
        <ele>320.20001220703</ele>
        <time>2013-04-13T13:40:06Z</time>
      </trkpt>
      <trkpt lat="43.43476" lon="6.01199">
        <ele>320.20001220703</ele>
        <time>2013-04-13T13:40:11Z</time>
      </trkpt>
      <trkpt lat="43.43476" lon="6.01199">
        <ele>320.20001220703</ele>
        <time>2013-04-13T13:40:19Z</time>
      </trkpt>
      <trkpt lat="43.43476" lon="6.012">
        <ele>320.20001220703</ele>
        <time>2013-04-13T13:40:25Z</time>
      </trkpt>
      <trkpt lat="43.43476" lon="6.01201">
        <ele>320.20001220703</ele>
        <time>2013-04-13T13:40:32Z</time>
      </trkpt>
      <trkpt lat="43.43476" lon="6.01201">
        <ele>320.20001220703</ele>
        <time>2013-04-13T13:40:33Z</time>
      </trkpt>
      <trkpt lat="43.43475" lon="6.01199">
        <ele>320.20001220703</ele>
        <time>2013-04-13T13:40:39Z</time>
      </trkpt>
      <trkpt lat="43.43475" lon="6.01197">
        <ele>320.20001220703</ele>
        <time>2013-04-13T13:40:45Z</time>
      </trkpt>
      <trkpt lat="43.43474" lon="6.01194">
        <ele>320.20001220703</ele>
        <time>2013-04-13T13:40:47Z</time>
      </trkpt>
      <trkpt lat="43.43474" lon="6.01182">
        <ele>320.20001220703</ele>
        <time>2013-04-13T13:40:53Z</time>
      </trkpt>
      <trkpt lat="43.43474" lon="6.01175">
        <ele>320.20001220703</ele>
        <time>2013-04-13T13:40:56Z</time>
      </trkpt>
      <trkpt lat="43.43474" lon="6.01172">
        <ele>320.60000610352</ele>
        <time>2013-04-13T13:40:57Z</time>
      </trkpt>
      <trkpt lat="43.43474" lon="6.01167">
        <ele>321.39999389648</ele>
        <time>2013-04-13T13:40:59Z</time>
      </trkpt>
      <trkpt lat="43.43474" lon="6.01163">
        <ele>322.39999389648</ele>
        <time>2013-04-13T13:41:01Z</time>
      </trkpt>
      <trkpt lat="43.43474" lon="6.01153">
        <ele>322.39999389648</ele>
        <time>2013-04-13T13:41:05Z</time>
      </trkpt>
      <trkpt lat="43.43476" lon="6.01144">
        <ele>322.39999389648</ele>
        <time>2013-04-13T13:41:09Z</time>
      </trkpt>
      <trkpt lat="43.43479" lon="6.01139">
        <ele>322.39999389648</ele>
        <time>2013-04-13T13:41:12Z</time>
      </trkpt>
      <trkpt lat="43.43486" lon="6.01126">
        <ele>324.39999389648</ele>
        <time>2013-04-13T13:41:19Z</time>
      </trkpt>
      <trkpt lat="43.43492" lon="6.0111">
        <ele>324.39999389648</ele>
        <time>2013-04-13T13:41:26Z</time>
      </trkpt>
      <trkpt lat="43.43497" lon="6.01098">
        <ele>324.39999389648</ele>
        <time>2013-04-13T13:41:31Z</time>
      </trkpt>
      <trkpt lat="43.435" lon="6.01084">
        <ele>324.39999389648</ele>
        <time>2013-04-13T13:41:37Z</time>
      </trkpt>
      <trkpt lat="43.435" lon="6.01081">
        <ele>324.79998779297</ele>
        <time>2013-04-13T13:41:38Z</time>
      </trkpt>
      <trkpt lat="43.43499" lon="6.01066">
        <ele>326.60000610352</ele>
        <time>2013-04-13T13:41:44Z</time>
      </trkpt>
      <trkpt lat="43.43495" lon="6.0105">
        <ele>326.60000610352</ele>
        <time>2013-04-13T13:41:51Z</time>
      </trkpt>
      <trkpt lat="43.43492" lon="6.01033">
        <ele>326.60000610352</ele>
        <time>2013-04-13T13:41:58Z</time>
      </trkpt>
      <trkpt lat="43.43493" lon="6.01028">
        <ele>327.39999389648</ele>
        <time>2013-04-13T13:42:00Z</time>
      </trkpt>
      <trkpt lat="43.43493" lon="6.01022">
        <ele>328.79998779297</ele>
        <time>2013-04-13T13:42:03Z</time>
      </trkpt>
      <trkpt lat="43.43492" lon="6.01006">
        <ele>329.20001220703</ele>
        <time>2013-04-13T13:42:11Z</time>
      </trkpt>
      <trkpt lat="43.43492" lon="6.01005">
        <ele>329.60000610352</ele>
        <time>2013-04-13T13:42:12Z</time>
      </trkpt>
      <trkpt lat="43.43492" lon="6.01003">
        <ele>330</ele>
        <time>2013-04-13T13:42:13Z</time>
      </trkpt>
      <trkpt lat="43.43493" lon="6.01">
        <ele>330.79998779297</ele>
        <time>2013-04-13T13:42:15Z</time>
      </trkpt>
      <trkpt lat="43.43493" lon="6.00995">
        <ele>330.79998779297</ele>
        <time>2013-04-13T13:42:18Z</time>
      </trkpt>
      <trkpt lat="43.43497" lon="6.00981">
        <ele>330.79998779297</ele>
        <time>2013-04-13T13:42:25Z</time>
      </trkpt>
      <trkpt lat="43.43498" lon="6.00977">
        <ele>331.39999389648</ele>
        <time>2013-04-13T13:42:27Z</time>
      </trkpt>
      <trkpt lat="43.43499" lon="6.00975">
        <ele>331.79998779297</ele>
        <time>2013-04-13T13:42:28Z</time>
      </trkpt>
      <trkpt lat="43.435" lon="6.00967">
        <ele>333.20001220703</ele>
        <time>2013-04-13T13:42:31Z</time>
      </trkpt>
      <trkpt lat="43.43501" lon="6.00961">
        <ele>333.60000610352</ele>
        <time>2013-04-13T13:42:34Z</time>
      </trkpt>
      <trkpt lat="43.43502" lon="6.00955">
        <ele>334.79998779297</ele>
        <time>2013-04-13T13:42:37Z</time>
      </trkpt>
      <trkpt lat="43.43504" lon="6.00946">
        <ele>335.20001220703</ele>
        <time>2013-04-13T13:42:42Z</time>
      </trkpt>
      <trkpt lat="43.43504" lon="6.00943">
        <ele>335.20001220703</ele>
        <time>2013-04-13T13:42:44Z</time>
      </trkpt>
      <trkpt lat="43.4351" lon="6.00909">
        <ele>337.20001220703</ele>
        <time>2013-04-13T13:43:03Z</time>
      </trkpt>
      <trkpt lat="43.43513" lon="6.00886">
        <ele>339.39999389648</ele>
        <time>2013-04-13T13:43:17Z</time>
      </trkpt>
      <trkpt lat="43.43517" lon="6.00871">
        <ele>341.60000610352</ele>
        <time>2013-04-13T13:43:27Z</time>
      </trkpt>
      <trkpt lat="43.43518" lon="6.00866">
        <ele>341.60000610352</ele>
        <time>2013-04-13T13:43:30Z</time>
      </trkpt>
      <trkpt lat="43.43524" lon="6.00844">
        <ele>342.39999389648</ele>
        <time>2013-04-13T13:43:44Z</time>
      </trkpt>
      <trkpt lat="43.43526" lon="6.00839">
        <ele>343.60000610352</ele>
        <time>2013-04-13T13:43:47Z</time>
      </trkpt>
      <trkpt lat="43.43526" lon="6.00834">
        <ele>343.60000610352</ele>
        <time>2013-04-13T13:43:50Z</time>
      </trkpt>
      <trkpt lat="43.43526" lon="6.00831">
        <ele>343.60000610352</ele>
        <time>2013-04-13T13:43:52Z</time>
      </trkpt>
      <trkpt lat="43.43527" lon="6.00825">
        <ele>343.60000610352</ele>
        <time>2013-04-13T13:43:56Z</time>
      </trkpt>
      <trkpt lat="43.43528" lon="6.00819">
        <ele>343.60000610352</ele>
        <time>2013-04-13T13:44:01Z</time>
      </trkpt>
      <trkpt lat="43.43528" lon="6.00819">
        <ele>343.60000610352</ele>
        <time>2013-04-13T13:44:24Z</time>
      </trkpt>
      <trkpt lat="43.43528" lon="6.00819">
        <ele>343.60000610352</ele>
        <time>2013-04-13T13:44:40Z</time>
      </trkpt>
      <trkpt lat="43.43529" lon="6.00819">
        <ele>343.60000610352</ele>
        <time>2013-04-13T13:44:49Z</time>
      </trkpt>
      <trkpt lat="43.43529" lon="6.00819">
        <ele>344</ele>
        <time>2013-04-13T13:45:11Z</time>
      </trkpt>
      <trkpt lat="43.43529" lon="6.00818">
        <ele>345.79998779297</ele>
        <time>2013-04-13T13:46:04Z</time>
      </trkpt>
      <trkpt lat="43.43529" lon="6.00818">
        <ele>345.79998779297</ele>
        <time>2013-04-13T13:46:20Z</time>
      </trkpt>
      <trkpt lat="43.43529" lon="6.00818">
        <ele>345.79998779297</ele>
        <time>2013-04-13T13:46:44Z</time>
      </trkpt>
      <trkpt lat="43.43529" lon="6.00818">
        <ele>345.79998779297</ele>
        <time>2013-04-13T13:47:07Z</time>
      </trkpt>
      <trkpt lat="43.43529" lon="6.00818">
        <ele>345.79998779297</ele>
        <time>2013-04-13T13:47:19Z</time>
      </trkpt>
      <trkpt lat="43.4353" lon="6.00818">
        <ele>345.79998779297</ele>
        <time>2013-04-13T13:47:24Z</time>
      </trkpt>
      <trkpt lat="43.4353" lon="6.00818">
        <ele>345.79998779297</ele>
        <time>2013-04-13T13:47:49Z</time>
      </trkpt>
      <trkpt lat="43.4353" lon="6.00818">
        <ele>345.79998779297</ele>
        <time>2013-04-13T13:47:55Z</time>
      </trkpt>
      <trkpt lat="43.43529" lon="6.00818">
        <ele>345.79998779297</ele>
        <time>2013-04-13T13:48:03Z</time>
      </trkpt>
      <trkpt lat="43.43529" lon="6.00818">
        <ele>345.79998779297</ele>
        <time>2013-04-13T13:48:18Z</time>
      </trkpt>
      <trkpt lat="43.4353" lon="6.00817">
        <ele>345.79998779297</ele>
        <time>2013-04-13T13:48:41Z</time>
      </trkpt>
      <trkpt lat="43.4353" lon="6.00817">
        <ele>345.79998779297</ele>
        <time>2013-04-13T13:49:12Z</time>
      </trkpt>
      <trkpt lat="43.4353" lon="6.00817">
        <ele>345.79998779297</ele>
        <time>2013-04-13T13:50:05Z</time>
      </trkpt>
      <trkpt lat="43.4353" lon="6.00817">
        <ele>345.79998779297</ele>
        <time>2013-04-13T13:50:29Z</time>
      </trkpt>
      <trkpt lat="43.4353" lon="6.00817">
        <ele>345.79998779297</ele>
        <time>2013-04-13T13:51:23Z</time>
      </trkpt>
      <trkpt lat="43.4353" lon="6.00817">
        <ele>345.79998779297</ele>
        <time>2013-04-13T13:51:34Z</time>
      </trkpt>
      <trkpt lat="43.4353" lon="6.00817">
        <ele>345.79998779297</ele>
        <time>2013-04-13T13:51:45Z</time>
      </trkpt>
      <trkpt lat="43.43533" lon="6.00806">
        <ele>345.79998779297</ele>
        <time>2013-04-13T13:51:51Z</time>
      </trkpt>
      <trkpt lat="43.43537" lon="6.00795">
        <ele>345.79998779297</ele>
        <time>2013-04-13T13:51:56Z</time>
      </trkpt>
      <trkpt lat="43.43539" lon="6.0079">
        <ele>345.79998779297</ele>
        <time>2013-04-13T13:51:58Z</time>
      </trkpt>
      <trkpt lat="43.43543" lon="6.0077">
        <ele>345.79998779297</ele>
        <time>2013-04-13T13:52:04Z</time>
      </trkpt>
      <trkpt lat="43.43552" lon="6.00743">
        <ele>345.79998779297</ele>
        <time>2013-04-13T13:52:11Z</time>
      </trkpt>
      <trkpt lat="43.43559" lon="6.00723">
        <ele>345.79998779297</ele>
        <time>2013-04-13T13:52:15Z</time>
      </trkpt>
      <trkpt lat="43.43562" lon="6.00716">
        <ele>345.39999389648</ele>
        <time>2013-04-13T13:52:16Z</time>
      </trkpt>
      <trkpt lat="43.43565" lon="6.00709">
        <ele>345</ele>
        <time>2013-04-13T13:52:17Z</time>
      </trkpt>
      <trkpt lat="43.43569" lon="6.00702">
        <ele>344.60000610352</ele>
        <time>2013-04-13T13:52:18Z</time>
      </trkpt>
      <trkpt lat="43.43572" lon="6.00694">
        <ele>343.79998779297</ele>
        <time>2013-04-13T13:52:19Z</time>
      </trkpt>
      <trkpt lat="43.43576" lon="6.00685">
        <ele>343.20001220703</ele>
        <time>2013-04-13T13:52:20Z</time>
      </trkpt>
      <trkpt lat="43.43578" lon="6.00677">
        <ele>342.60000610352</ele>
        <time>2013-04-13T13:52:21Z</time>
      </trkpt>
      <trkpt lat="43.43579" lon="6.00669">
        <ele>342</ele>
        <time>2013-04-13T13:52:22Z</time>
      </trkpt>
      <trkpt lat="43.43578" lon="6.00662">
        <ele>341.39999389648</ele>
        <time>2013-04-13T13:52:23Z</time>
      </trkpt>
      <trkpt lat="43.43576" lon="6.00656">
        <ele>340.79998779297</ele>
        <time>2013-04-13T13:52:24Z</time>
      </trkpt>
      <trkpt lat="43.43573" lon="6.0065">
        <ele>340.20001220703</ele>
        <time>2013-04-13T13:52:25Z</time>
      </trkpt>
      <trkpt lat="43.4357" lon="6.00645">
        <ele>339.60000610352</ele>
        <time>2013-04-13T13:52:26Z</time>
      </trkpt>
      <trkpt lat="43.43562" lon="6.00636">
        <ele>337.60000610352</ele>
        <time>2013-04-13T13:52:28Z</time>
      </trkpt>
      <trkpt lat="43.43558" lon="6.00631">
        <ele>336.79998779297</ele>
        <time>2013-04-13T13:52:29Z</time>
      </trkpt>
      <trkpt lat="43.43556" lon="6.00627">
        <ele>336</ele>
        <time>2013-04-13T13:52:30Z</time>
      </trkpt>
      <trkpt lat="43.43557" lon="6.00618">
        <ele>334.39999389648</ele>
        <time>2013-04-13T13:52:32Z</time>
      </trkpt>
      <trkpt lat="43.43558" lon="6.00613">
        <ele>333.60000610352</ele>
        <time>2013-04-13T13:52:33Z</time>
      </trkpt>
      <trkpt lat="43.43559" lon="6.00607">
        <ele>333.60000610352</ele>
        <time>2013-04-13T13:52:34Z</time>
      </trkpt>
      <trkpt lat="43.43561" lon="6.00598">
        <ele>333.60000610352</ele>
        <time>2013-04-13T13:52:36Z</time>
      </trkpt>
      <trkpt lat="43.43566" lon="6.00589">
        <ele>333</ele>
        <time>2013-04-13T13:52:39Z</time>
      </trkpt>
      <trkpt lat="43.43568" lon="6.00586">
        <ele>332.60000610352</ele>
        <time>2013-04-13T13:52:40Z</time>
      </trkpt>
      <trkpt lat="43.4357" lon="6.00584">
        <ele>332.20001220703</ele>
        <time>2013-04-13T13:52:41Z</time>
      </trkpt>
      <trkpt lat="43.43572" lon="6.00582">
        <ele>331.60000610352</ele>
        <time>2013-04-13T13:52:42Z</time>
      </trkpt>
      <trkpt lat="43.43576" lon="6.00572">
        <ele>331.20001220703</ele>
        <time>2013-04-13T13:52:45Z</time>
      </trkpt>
      <trkpt lat="43.4358" lon="6.00563">
        <ele>330.79998779297</ele>
        <time>2013-04-13T13:52:47Z</time>
      </trkpt>
      <trkpt lat="43.43584" lon="6.00554">
        <ele>329.79998779297</ele>
        <time>2013-04-13T13:52:49Z</time>
      </trkpt>
      <trkpt lat="43.43591" lon="6.00545">
        <ele>328.79998779297</ele>
        <time>2013-04-13T13:52:51Z</time>
      </trkpt>
      <trkpt lat="43.43605" lon="6.00527">
        <ele>328.39999389648</ele>
        <time>2013-04-13T13:52:55Z</time>
      </trkpt>
      <trkpt lat="43.43608" lon="6.00522">
        <ele>328</ele>
        <time>2013-04-13T13:52:56Z</time>
      </trkpt>
      <trkpt lat="43.43611" lon="6.00516">
        <ele>327.60000610352</ele>
        <time>2013-04-13T13:52:57Z</time>
      </trkpt>
      <trkpt lat="43.43613" lon="6.0051">
        <ele>327</ele>
        <time>2013-04-13T13:52:58Z</time>
      </trkpt>
      <trkpt lat="43.43615" lon="6.00503">
        <ele>326.60000610352</ele>
        <time>2013-04-13T13:52:59Z</time>
      </trkpt>
      <trkpt lat="43.43621" lon="6.00482">
        <ele>326.60000610352</ele>
        <time>2013-04-13T13:53:02Z</time>
      </trkpt>
      <trkpt lat="43.43622" lon="6.00475">
        <ele>326.20001220703</ele>
        <time>2013-04-13T13:53:03Z</time>
      </trkpt>
      <trkpt lat="43.43623" lon="6.00469">
        <ele>325.79998779297</ele>
        <time>2013-04-13T13:53:04Z</time>
      </trkpt>
      <trkpt lat="43.43623" lon="6.00468">
        <ele>325.39999389648</ele>
        <time>2013-04-13T13:53:05Z</time>
      </trkpt>
      <trkpt lat="43.43623" lon="6.00467">
        <ele>325</ele>
        <time>2013-04-13T13:53:06Z</time>
      </trkpt>
      <trkpt lat="43.43623" lon="6.00467">
        <ele>324.60000610352</ele>
        <time>2013-04-13T13:53:07Z</time>
      </trkpt>
      <trkpt lat="43.43623" lon="6.00463">
        <ele>324.60000610352</ele>
        <time>2013-04-13T13:53:10Z</time>
      </trkpt>
      <trkpt lat="43.43623" lon="6.00446">
        <ele>324.60000610352</ele>
        <time>2013-04-13T13:53:14Z</time>
      </trkpt>
      <trkpt lat="43.43623" lon="6.00437">
        <ele>324</ele>
        <time>2013-04-13T13:53:16Z</time>
      </trkpt>
      <trkpt lat="43.43623" lon="6.00426">
        <ele>322.60000610352</ele>
        <time>2013-04-13T13:53:18Z</time>
      </trkpt>
      <trkpt lat="43.43621" lon="6.00421">
        <ele>322.20001220703</ele>
        <time>2013-04-13T13:53:19Z</time>
      </trkpt>
      <trkpt lat="43.4362" lon="6.00416">
        <ele>322.20001220703</ele>
        <time>2013-04-13T13:53:20Z</time>
      </trkpt>
      <trkpt lat="43.43617" lon="6.00411">
        <ele>322.20001220703</ele>
        <time>2013-04-13T13:53:21Z</time>
      </trkpt>
      <trkpt lat="43.43612" lon="6.004">
        <ele>322.20001220703</ele>
        <time>2013-04-13T13:53:23Z</time>
      </trkpt>
      <trkpt lat="43.43611" lon="6.00394">
        <ele>321.79998779297</ele>
        <time>2013-04-13T13:53:24Z</time>
      </trkpt>
      <trkpt lat="43.4361" lon="6.00387">
        <ele>321.20001220703</ele>
        <time>2013-04-13T13:53:25Z</time>
      </trkpt>
      <trkpt lat="43.4361" lon="6.0038">
        <ele>320.79998779297</ele>
        <time>2013-04-13T13:53:26Z</time>
      </trkpt>
      <trkpt lat="43.43611" lon="6.00372">
        <ele>320.39999389648</ele>
        <time>2013-04-13T13:53:27Z</time>
      </trkpt>
      <trkpt lat="43.43612" lon="6.00365">
        <ele>320</ele>
        <time>2013-04-13T13:53:28Z</time>
      </trkpt>
      <trkpt lat="43.43618" lon="6.00343">
        <ele>320</ele>
        <time>2013-04-13T13:53:31Z</time>
      </trkpt>
      <trkpt lat="43.43623" lon="6.00333">
        <ele>319.60000610352</ele>
        <time>2013-04-13T13:53:33Z</time>
      </trkpt>
      <trkpt lat="43.43626" lon="6.00328">
        <ele>319</ele>
        <time>2013-04-13T13:53:34Z</time>
      </trkpt>
      <trkpt lat="43.43629" lon="6.00324">
        <ele>318.60000610352</ele>
        <time>2013-04-13T13:53:35Z</time>
      </trkpt>
      <trkpt lat="43.43631" lon="6.00321">
        <ele>318.20001220703</ele>
        <time>2013-04-13T13:53:36Z</time>
      </trkpt>
      <trkpt lat="43.43644" lon="6.00303">
        <ele>317.39999389648</ele>
        <time>2013-04-13T13:53:41Z</time>
      </trkpt>
      <trkpt lat="43.43648" lon="6.003">
        <ele>316.39999389648</ele>
        <time>2013-04-13T13:53:42Z</time>
      </trkpt>
      <trkpt lat="43.43652" lon="6.00295">
        <ele>316</ele>
        <time>2013-04-13T13:53:43Z</time>
      </trkpt>
      <trkpt lat="43.43655" lon="6.0029">
        <ele>315.60000610352</ele>
        <time>2013-04-13T13:53:44Z</time>
      </trkpt>
      <trkpt lat="43.43658" lon="6.00283">
        <ele>315.60000610352</ele>
        <time>2013-04-13T13:53:46Z</time>
      </trkpt>
      <trkpt lat="43.43662" lon="6.00277">
        <ele>315.60000610352</ele>
        <time>2013-04-13T13:53:49Z</time>
      </trkpt>
      <trkpt lat="43.43665" lon="6.00274">
        <ele>315.60000610352</ele>
        <time>2013-04-13T13:53:51Z</time>
      </trkpt>
      <trkpt lat="43.43673" lon="6.00261">
        <ele>315.20001220703</ele>
        <time>2013-04-13T13:53:58Z</time>
      </trkpt>
      <trkpt lat="43.43674" lon="6.0026">
        <ele>314.79998779297</ele>
        <time>2013-04-13T13:53:59Z</time>
      </trkpt>
      <trkpt lat="43.43678" lon="6.00256">
        <ele>313.39999389648</ele>
        <time>2013-04-13T13:54:03Z</time>
      </trkpt>
      <trkpt lat="43.43679" lon="6.00255">
        <ele>313.39999389648</ele>
        <time>2013-04-13T13:54:04Z</time>
      </trkpt>
      <trkpt lat="43.43678" lon="6.00252">
        <ele>313.39999389648</ele>
        <time>2013-04-13T13:54:07Z</time>
      </trkpt>
      <trkpt lat="43.43676" lon="6.0025">
        <ele>313.39999389648</ele>
        <time>2013-04-13T13:54:09Z</time>
      </trkpt>
      <trkpt lat="43.43671" lon="6.00245">
        <ele>313.39999389648</ele>
        <time>2013-04-13T13:54:15Z</time>
      </trkpt>
      <trkpt lat="43.43666" lon="6.00239">
        <ele>313.39999389648</ele>
        <time>2013-04-13T13:54:22Z</time>
      </trkpt>
      <trkpt lat="43.43666" lon="6.00239">
        <ele>313.39999389648</ele>
        <time>2013-04-13T13:54:33Z</time>
      </trkpt>
      <trkpt lat="43.43666" lon="6.00239">
        <ele>313.39999389648</ele>
        <time>2013-04-13T13:54:39Z</time>
      </trkpt>
      <trkpt lat="43.43666" lon="6.00239">
        <ele>313.39999389648</ele>
        <time>2013-04-13T13:55:08Z</time>
      </trkpt>
      <trkpt lat="43.43666" lon="6.00239">
        <ele>313.39999389648</ele>
        <time>2013-04-13T13:55:26Z</time>
      </trkpt>
      <trkpt lat="43.43666" lon="6.00239">
        <ele>313.39999389648</ele>
        <time>2013-04-13T13:55:37Z</time>
      </trkpt>
      <trkpt lat="43.4367" lon="6.00242">
        <ele>313.39999389648</ele>
        <time>2013-04-13T13:55:46Z</time>
      </trkpt>
      <trkpt lat="43.43674" lon="6.00247">
        <ele>313.39999389648</ele>
        <time>2013-04-13T13:55:51Z</time>
      </trkpt>
      <trkpt lat="43.4368" lon="6.00255">
        <ele>313.39999389648</ele>
        <time>2013-04-13T13:55:56Z</time>
      </trkpt>
      <trkpt lat="43.4369" lon="6.00262">
        <ele>313.39999389648</ele>
        <time>2013-04-13T13:56:01Z</time>
      </trkpt>
      <trkpt lat="43.43703" lon="6.00264">
        <ele>313.39999389648</ele>
        <time>2013-04-13T13:56:07Z</time>
      </trkpt>
      <trkpt lat="43.43715" lon="6.00265">
        <ele>313.39999389648</ele>
        <time>2013-04-13T13:56:14Z</time>
      </trkpt>
      <trkpt lat="43.43725" lon="6.00262">
        <ele>313.39999389648</ele>
        <time>2013-04-13T13:56:20Z</time>
      </trkpt>
      <trkpt lat="43.43727" lon="6.00262">
        <ele>313.39999389648</ele>
        <time>2013-04-13T13:56:21Z</time>
      </trkpt>
      <trkpt lat="43.43737" lon="6.00254">
        <ele>313.39999389648</ele>
        <time>2013-04-13T13:56:27Z</time>
      </trkpt>
      <trkpt lat="43.43741" lon="6.00238">
        <ele>313.39999389648</ele>
        <time>2013-04-13T13:56:34Z</time>
      </trkpt>
      <trkpt lat="43.43743" lon="6.00222">
        <ele>313.39999389648</ele>
        <time>2013-04-13T13:56:40Z</time>
      </trkpt>
      <trkpt lat="43.43743" lon="6.00206">
        <ele>313.39999389648</ele>
        <time>2013-04-13T13:56:46Z</time>
      </trkpt>
      <trkpt lat="43.43747" lon="6.00197">
        <ele>313.39999389648</ele>
        <time>2013-04-13T13:56:50Z</time>
      </trkpt>
      <trkpt lat="43.43749" lon="6.00191">
        <ele>313.39999389648</ele>
        <time>2013-04-13T13:56:53Z</time>
      </trkpt>
      <trkpt lat="43.43752" lon="6.00183">
        <ele>313.39999389648</ele>
        <time>2013-04-13T13:56:57Z</time>
      </trkpt>
      <trkpt lat="43.43754" lon="6.00174">
        <ele>313.79998779297</ele>
        <time>2013-04-13T13:57:02Z</time>
      </trkpt>
      <trkpt lat="43.43755" lon="6.00162">
        <ele>315.60000610352</ele>
        <time>2013-04-13T13:57:07Z</time>
      </trkpt>
      <trkpt lat="43.43754" lon="6.00151">
        <ele>315.60000610352</ele>
        <time>2013-04-13T13:57:13Z</time>
      </trkpt>
      <trkpt lat="43.43752" lon="6.00144">
        <ele>315.60000610352</ele>
        <time>2013-04-13T13:57:17Z</time>
      </trkpt>
      <trkpt lat="43.43745" lon="6.00129">
        <ele>316</ele>
        <time>2013-04-13T13:57:25Z</time>
      </trkpt>
      <trkpt lat="43.43743" lon="6.00123">
        <ele>317.20001220703</ele>
        <time>2013-04-13T13:57:28Z</time>
      </trkpt>
      <trkpt lat="43.43743" lon="6.00119">
        <ele>317.60000610352</ele>
        <time>2013-04-13T13:57:30Z</time>
      </trkpt>
      <trkpt lat="43.43738" lon="6.00107">
        <ele>317.60000610352</ele>
        <time>2013-04-13T13:57:36Z</time>
      </trkpt>
      <trkpt lat="43.43733" lon="6.00095">
        <ele>317.60000610352</ele>
        <time>2013-04-13T13:57:43Z</time>
      </trkpt>
      <trkpt lat="43.43729" lon="6.00083">
        <ele>318.20001220703</ele>
        <time>2013-04-13T13:57:50Z</time>
      </trkpt>
      <trkpt lat="43.43725" lon="6.00076">
        <ele>319.79998779297</ele>
        <time>2013-04-13T13:57:54Z</time>
      </trkpt>
      <trkpt lat="43.43723" lon="6.00072">
        <ele>319.79998779297</ele>
        <time>2013-04-13T13:57:57Z</time>
      </trkpt>
      <trkpt lat="43.43721" lon="6.00069">
        <ele>319.79998779297</ele>
        <time>2013-04-13T13:57:59Z</time>
      </trkpt>
      <trkpt lat="43.43717" lon="6.00063">
        <ele>319.79998779297</ele>
        <time>2013-04-13T13:58:03Z</time>
      </trkpt>
      <trkpt lat="43.43715" lon="6.00058">
        <ele>319.79998779297</ele>
        <time>2013-04-13T13:58:07Z</time>
      </trkpt>
      <trkpt lat="43.43713" lon="6.00058">
        <ele>319.79998779297</ele>
        <time>2013-04-13T13:58:09Z</time>
      </trkpt>
      <trkpt lat="43.43713" lon="6.00058">
        <ele>319.79998779297</ele>
        <time>2013-04-13T13:58:14Z</time>
      </trkpt>
      <trkpt lat="43.43713" lon="6.00058">
        <ele>319.79998779297</ele>
        <time>2013-04-13T13:58:18Z</time>
      </trkpt>
      <trkpt lat="43.43713" lon="6.00058">
        <ele>319.79998779297</ele>
        <time>2013-04-13T13:58:25Z</time>
      </trkpt>
      <trkpt lat="43.43712" lon="6.00055">
        <ele>319.79998779297</ele>
        <time>2013-04-13T13:58:30Z</time>
      </trkpt>
      <trkpt lat="43.4371" lon="6.00053">
        <ele>319.79998779297</ele>
        <time>2013-04-13T13:58:32Z</time>
      </trkpt>
      <trkpt lat="43.43701" lon="6.00044">
        <ele>320.60000610352</ele>
        <time>2013-04-13T13:58:39Z</time>
      </trkpt>
      <trkpt lat="43.437" lon="6.00043">
        <ele>321</ele>
        <time>2013-04-13T13:58:40Z</time>
      </trkpt>
      <trkpt lat="43.43699" lon="6.00041">
        <ele>321.39999389648</ele>
        <time>2013-04-13T13:58:41Z</time>
      </trkpt>
      <trkpt lat="43.43697" lon="6.0004">
        <ele>321.79998779297</ele>
        <time>2013-04-13T13:58:42Z</time>
      </trkpt>
      <trkpt lat="43.43694" lon="6.00033">
        <ele>321.79998779297</ele>
        <time>2013-04-13T13:58:46Z</time>
      </trkpt>
      <trkpt lat="43.4369" lon="6.00026">
        <ele>321.79998779297</ele>
        <time>2013-04-13T13:58:50Z</time>
      </trkpt>
      <trkpt lat="43.4369" lon="6.00026">
        <ele>321.79998779297</ele>
        <time>2013-04-13T13:59:12Z</time>
      </trkpt>
      <trkpt lat="43.4369" lon="6.00026">
        <ele>321.79998779297</ele>
        <time>2013-04-13T13:59:25Z</time>
      </trkpt>
      <trkpt lat="43.4369" lon="6.00024">
        <ele>321.79998779297</ele>
        <time>2013-04-13T13:59:31Z</time>
      </trkpt>
      <trkpt lat="43.43689" lon="6.0002">
        <ele>321.79998779297</ele>
        <time>2013-04-13T13:59:33Z</time>
      </trkpt>
      <trkpt lat="43.43686" lon="6.00015">
        <ele>321.79998779297</ele>
        <time>2013-04-13T13:59:36Z</time>
      </trkpt>
      <trkpt lat="43.43684" lon="6.00009">
        <ele>322.20001220703</ele>
        <time>2013-04-13T13:59:39Z</time>
      </trkpt>
      <trkpt lat="43.43683" lon="6.00007">
        <ele>322.60000610352</ele>
        <time>2013-04-13T13:59:40Z</time>
      </trkpt>
      <trkpt lat="43.43682" lon="6.00004">
        <ele>323.39999389648</ele>
        <time>2013-04-13T13:59:42Z</time>
      </trkpt>
      <trkpt lat="43.43677" lon="5.99996">
        <ele>323.79998779297</ele>
        <time>2013-04-13T13:59:47Z</time>
      </trkpt>
      <trkpt lat="43.43668" lon="5.99979">
        <ele>323.79998779297</ele>
        <time>2013-04-13T13:59:57Z</time>
      </trkpt>
      <trkpt lat="43.43667" lon="5.99971">
        <ele>324.39999389648</ele>
        <time>2013-04-13T14:00:01Z</time>
      </trkpt>
      <trkpt lat="43.43669" lon="5.99956">
        <ele>326</ele>
        <time>2013-04-13T14:00:08Z</time>
      </trkpt>
      <trkpt lat="43.43671" lon="5.9994">
        <ele>326</ele>
        <time>2013-04-13T14:00:16Z</time>
      </trkpt>
      <trkpt lat="43.43672" lon="5.99924">
        <ele>328</ele>
        <time>2013-04-13T14:00:24Z</time>
      </trkpt>
      <trkpt lat="43.43674" lon="5.99896">
        <ele>328</ele>
        <time>2013-04-13T14:00:38Z</time>
      </trkpt>
      <trkpt lat="43.43677" lon="5.99871">
        <ele>328</ele>
        <time>2013-04-13T14:00:51Z</time>
      </trkpt>
      <trkpt lat="43.4368" lon="5.99861">
        <ele>328</ele>
        <time>2013-04-13T14:00:57Z</time>
      </trkpt>
      <trkpt lat="43.43682" lon="5.9985">
        <ele>329.20001220703</ele>
        <time>2013-04-13T14:01:03Z</time>
      </trkpt>
      <trkpt lat="43.43682" lon="5.99846">
        <ele>330</ele>
        <time>2013-04-13T14:01:05Z</time>
      </trkpt>
      <trkpt lat="43.43682" lon="5.99833">
        <ele>330</ele>
        <time>2013-04-13T14:01:11Z</time>
      </trkpt>
      <trkpt lat="43.43682" lon="5.99829">
        <ele>330.39999389648</ele>
        <time>2013-04-13T14:01:13Z</time>
      </trkpt>
      <trkpt lat="43.43682" lon="5.99819">
        <ele>332</ele>
        <time>2013-04-13T14:01:17Z</time>
      </trkpt>
      <trkpt lat="43.43682" lon="5.99812">
        <ele>332</ele>
        <time>2013-04-13T14:01:20Z</time>
      </trkpt>
      <trkpt lat="43.4368" lon="5.99791">
        <ele>332.60000610352</ele>
        <time>2013-04-13T14:01:30Z</time>
      </trkpt>
      <trkpt lat="43.43679" lon="5.99776">
        <ele>334.39999389648</ele>
        <time>2013-04-13T14:01:38Z</time>
      </trkpt>
      <trkpt lat="43.43682" lon="5.99766">
        <ele>334.39999389648</ele>
        <time>2013-04-13T14:01:44Z</time>
      </trkpt>
      <trkpt lat="43.43685" lon="5.99761">
        <ele>335.20001220703</ele>
        <time>2013-04-13T14:01:48Z</time>
      </trkpt>
      <trkpt lat="43.4369" lon="5.99753">
        <ele>336.39999389648</ele>
        <time>2013-04-13T14:01:54Z</time>
      </trkpt>
      <trkpt lat="43.43692" lon="5.9975">
        <ele>336.39999389648</ele>
        <time>2013-04-13T14:01:57Z</time>
      </trkpt>
      <trkpt lat="43.43698" lon="5.9975">
        <ele>337.79998779297</ele>
        <time>2013-04-13T14:02:01Z</time>
      </trkpt>
      <trkpt lat="43.43705" lon="5.99749">
        <ele>338.79998779297</ele>
        <time>2013-04-13T14:02:07Z</time>
      </trkpt>
      <trkpt lat="43.43707" lon="5.99747">
        <ele>338.79998779297</ele>
        <time>2013-04-13T14:02:09Z</time>
      </trkpt>
      <trkpt lat="43.43708" lon="5.99744">
        <ele>338.79998779297</ele>
        <time>2013-04-13T14:02:11Z</time>
      </trkpt>
      <trkpt lat="43.43711" lon="5.99737">
        <ele>338.79998779297</ele>
        <time>2013-04-13T14:02:16Z</time>
      </trkpt>
      <trkpt lat="43.43713" lon="5.99734">
        <ele>338.79998779297</ele>
        <time>2013-04-13T14:02:19Z</time>
      </trkpt>
      <trkpt lat="43.43713" lon="5.99732">
        <ele>339.60000610352</ele>
        <time>2013-04-13T14:02:24Z</time>
      </trkpt>
      <trkpt lat="43.43713" lon="5.99732">
        <ele>340.79998779297</ele>
        <time>2013-04-13T14:02:41Z</time>
      </trkpt>
      <trkpt lat="43.43713" lon="5.99732">
        <ele>340.79998779297</ele>
        <time>2013-04-13T14:03:04Z</time>
      </trkpt>
      <trkpt lat="43.43713" lon="5.99732">
        <ele>340.79998779297</ele>
        <time>2013-04-13T14:03:25Z</time>
      </trkpt>
      <trkpt lat="43.43713" lon="5.99732">
        <ele>340.79998779297</ele>
        <time>2013-04-13T14:05:03Z</time>
      </trkpt>
      <trkpt lat="43.43713" lon="5.99732">
        <ele>340.79998779297</ele>
        <time>2013-04-13T14:05:18Z</time>
      </trkpt>
      <trkpt lat="43.43712" lon="5.99731">
        <ele>340.79998779297</ele>
        <time>2013-04-13T14:05:19Z</time>
      </trkpt>
      <trkpt lat="43.4371" lon="5.99723">
        <ele>340.79998779297</ele>
        <time>2013-04-13T14:05:24Z</time>
      </trkpt>
      <trkpt lat="43.4371" lon="5.99715">
        <ele>340.79998779297</ele>
        <time>2013-04-13T14:05:28Z</time>
      </trkpt>
      <trkpt lat="43.43709" lon="5.99702">
        <ele>340.79998779297</ele>
        <time>2013-04-13T14:05:33Z</time>
      </trkpt>
      <trkpt lat="43.43708" lon="5.99669">
        <ele>340.79998779297</ele>
        <time>2013-04-13T14:05:45Z</time>
      </trkpt>
      <trkpt lat="43.43707" lon="5.99653">
        <ele>340.79998779297</ele>
        <time>2013-04-13T14:05:50Z</time>
      </trkpt>
      <trkpt lat="43.43703" lon="5.99625">
        <ele>340.79998779297</ele>
        <time>2013-04-13T14:05:56Z</time>
      </trkpt>
      <trkpt lat="43.43701" lon="5.99604">
        <ele>340.39999389648</ele>
        <time>2013-04-13T14:06:00Z</time>
      </trkpt>
      <trkpt lat="43.43701" lon="5.99593">
        <ele>339.39999389648</ele>
        <time>2013-04-13T14:06:02Z</time>
      </trkpt>
      <trkpt lat="43.43701" lon="5.99587">
        <ele>339</ele>
        <time>2013-04-13T14:06:03Z</time>
      </trkpt>
      <trkpt lat="43.43701" lon="5.99582">
        <ele>338.39999389648</ele>
        <time>2013-04-13T14:06:04Z</time>
      </trkpt>
      <trkpt lat="43.437" lon="5.99566">
        <ele>338.39999389648</ele>
        <time>2013-04-13T14:06:07Z</time>
      </trkpt>
      <trkpt lat="43.437" lon="5.99555">
        <ele>338.39999389648</ele>
        <time>2013-04-13T14:06:09Z</time>
      </trkpt>
      <trkpt lat="43.43699" lon="5.99533">
        <ele>338</ele>
        <time>2013-04-13T14:06:13Z</time>
      </trkpt>
      <trkpt lat="43.43701" lon="5.99522">
        <ele>337.20001220703</ele>
        <time>2013-04-13T14:06:15Z</time>
      </trkpt>
      <trkpt lat="43.43702" lon="5.99513">
        <ele>336.20001220703</ele>
        <time>2013-04-13T14:06:17Z</time>
      </trkpt>
      <trkpt lat="43.4371" lon="5.99482">
        <ele>336.20001220703</ele>
        <time>2013-04-13T14:06:26Z</time>
      </trkpt>
      <trkpt lat="43.4371" lon="5.99472">
        <ele>336.20001220703</ele>
        <time>2013-04-13T14:06:29Z</time>
      </trkpt>
      <trkpt lat="43.4371" lon="5.99459">
        <ele>336.20001220703</ele>
        <time>2013-04-13T14:06:33Z</time>
      </trkpt>
      <trkpt lat="43.4371" lon="5.99452">
        <ele>336.20001220703</ele>
        <time>2013-04-13T14:06:35Z</time>
      </trkpt>
      <trkpt lat="43.43707" lon="5.99421">
        <ele>336.20001220703</ele>
        <time>2013-04-13T14:06:41Z</time>
      </trkpt>
      <trkpt lat="43.437" lon="5.99382">
        <ele>336.20001220703</ele>
        <time>2013-04-13T14:06:49Z</time>
      </trkpt>
      <trkpt lat="43.43696" lon="5.99375">
        <ele>335.79998779297</ele>
        <time>2013-04-13T14:06:51Z</time>
      </trkpt>
      <trkpt lat="43.43694" lon="5.99372">
        <ele>335.39999389648</ele>
        <time>2013-04-13T14:06:52Z</time>
      </trkpt>
      <trkpt lat="43.43691" lon="5.99369">
        <ele>335</ele>
        <time>2013-04-13T14:06:53Z</time>
      </trkpt>
      <trkpt lat="43.43686" lon="5.99363">
        <ele>334</ele>
        <time>2013-04-13T14:06:55Z</time>
      </trkpt>
      <trkpt lat="43.43684" lon="5.99361">
        <ele>334</ele>
        <time>2013-04-13T14:06:56Z</time>
      </trkpt>
      <trkpt lat="43.43674" lon="5.99351">
        <ele>334</ele>
        <time>2013-04-13T14:07:01Z</time>
      </trkpt>
      <trkpt lat="43.43672" lon="5.99347">
        <ele>334</ele>
        <time>2013-04-13T14:07:05Z</time>
      </trkpt>
      <trkpt lat="43.43671" lon="5.99343">
        <ele>334</ele>
        <time>2013-04-13T14:07:07Z</time>
      </trkpt>
      <trkpt lat="43.43664" lon="5.99328">
        <ele>333.60000610352</ele>
        <time>2013-04-13T14:07:12Z</time>
      </trkpt>
      <trkpt lat="43.4366" lon="5.99318">
        <ele>332.39999389648</ele>
        <time>2013-04-13T14:07:15Z</time>
      </trkpt>
      <trkpt lat="43.43658" lon="5.99314">
        <ele>332</ele>
        <time>2013-04-13T14:07:16Z</time>
      </trkpt>
      <trkpt lat="43.43655" lon="5.99305">
        <ele>332</ele>
        <time>2013-04-13T14:07:19Z</time>
      </trkpt>
      <trkpt lat="43.4365" lon="5.99288">
        <ele>332</ele>
        <time>2013-04-13T14:07:25Z</time>
      </trkpt>
      <trkpt lat="43.43649" lon="5.99279">
        <ele>332</ele>
        <time>2013-04-13T14:07:28Z</time>
      </trkpt>
      <trkpt lat="43.43648" lon="5.99276">
        <ele>332</ele>
        <time>2013-04-13T14:07:30Z</time>
      </trkpt>
      <trkpt lat="43.43647" lon="5.99274">
        <ele>332.39999389648</ele>
        <time>2013-04-13T14:07:31Z</time>
      </trkpt>
      <trkpt lat="43.43647" lon="5.99271">
        <ele>332.79998779297</ele>
        <time>2013-04-13T14:07:32Z</time>
      </trkpt>
      <trkpt lat="43.43647" lon="5.99269">
        <ele>333.20001220703</ele>
        <time>2013-04-13T14:07:33Z</time>
      </trkpt>
      <trkpt lat="43.43647" lon="5.99267">
        <ele>333.60000610352</ele>
        <time>2013-04-13T14:07:34Z</time>
      </trkpt>
      <trkpt lat="43.43647" lon="5.99266">
        <ele>334</ele>
        <time>2013-04-13T14:07:35Z</time>
      </trkpt>
      <trkpt lat="43.43647" lon="5.99264">
        <ele>334</ele>
        <time>2013-04-13T14:07:36Z</time>
      </trkpt>
      <trkpt lat="43.43647" lon="5.99264">
        <ele>334</ele>
        <time>2013-04-13T14:07:41Z</time>
      </trkpt>
      <trkpt lat="43.43647" lon="5.99264">
        <ele>334</ele>
        <time>2013-04-13T14:07:48Z</time>
      </trkpt>
      <trkpt lat="43.43647" lon="5.99268">
        <ele>334</ele>
        <time>2013-04-13T14:07:53Z</time>
      </trkpt>
      <trkpt lat="43.43647" lon="5.99277">
        <ele>334</ele>
        <time>2013-04-13T14:07:58Z</time>
      </trkpt>
      <trkpt lat="43.4365" lon="5.99286">
        <ele>334</ele>
        <time>2013-04-13T14:08:02Z</time>
      </trkpt>
      <trkpt lat="43.43651" lon="5.9929">
        <ele>334</ele>
        <time>2013-04-13T14:08:03Z</time>
      </trkpt>
      <trkpt lat="43.43651" lon="5.993">
        <ele>334</ele>
        <time>2013-04-13T14:08:07Z</time>
      </trkpt>
      <trkpt lat="43.4365" lon="5.99303">
        <ele>334</ele>
        <time>2013-04-13T14:08:09Z</time>
      </trkpt>
      <trkpt lat="43.43646" lon="5.99306">
        <ele>333.20001220703</ele>
        <time>2013-04-13T14:08:12Z</time>
      </trkpt>
      <trkpt lat="43.43645" lon="5.99307">
        <ele>332.79998779297</ele>
        <time>2013-04-13T14:08:13Z</time>
      </trkpt>
      <trkpt lat="43.43644" lon="5.99307">
        <ele>332.39999389648</ele>
        <time>2013-04-13T14:08:14Z</time>
      </trkpt>
      <trkpt lat="43.43643" lon="5.99307">
        <ele>332</ele>
        <time>2013-04-13T14:08:15Z</time>
      </trkpt>
      <trkpt lat="43.43638" lon="5.99306">
        <ele>332</ele>
        <time>2013-04-13T14:08:19Z</time>
      </trkpt>
      <trkpt lat="43.4363" lon="5.99302">
        <ele>332.39999389648</ele>
        <time>2013-04-13T14:08:26Z</time>
      </trkpt>
      <trkpt lat="43.43629" lon="5.99302">
        <ele>332.79998779297</ele>
        <time>2013-04-13T14:08:27Z</time>
      </trkpt>
      <trkpt lat="43.43621" lon="5.99294">
        <ele>334</ele>
        <time>2013-04-13T14:08:32Z</time>
      </trkpt>
      <trkpt lat="43.43619" lon="5.99291">
        <ele>334</ele>
        <time>2013-04-13T14:08:34Z</time>
      </trkpt>
      <trkpt lat="43.43607" lon="5.99276">
        <ele>334</ele>
        <time>2013-04-13T14:08:45Z</time>
      </trkpt>
      <trkpt lat="43.43601" lon="5.99271">
        <ele>334</ele>
        <time>2013-04-13T14:08:49Z</time>
      </trkpt>
      <trkpt lat="43.43598" lon="5.99269">
        <ele>334</ele>
        <time>2013-04-13T14:08:51Z</time>
      </trkpt>
      <trkpt lat="43.4359" lon="5.99267">
        <ele>334.39999389648</ele>
        <time>2013-04-13T14:08:56Z</time>
      </trkpt>
      <trkpt lat="43.43587" lon="5.99268">
        <ele>335.20001220703</ele>
        <time>2013-04-13T14:08:58Z</time>
      </trkpt>
      <trkpt lat="43.43581" lon="5.9927">
        <ele>336</ele>
        <time>2013-04-13T14:09:02Z</time>
      </trkpt>
      <trkpt lat="43.43573" lon="5.9927">
        <ele>336</ele>
        <time>2013-04-13T14:09:07Z</time>
      </trkpt>
      <trkpt lat="43.43549" lon="5.99283">
        <ele>336</ele>
        <time>2013-04-13T14:09:24Z</time>
      </trkpt>
      <trkpt lat="43.43548" lon="5.99283">
        <ele>336.39999389648</ele>
        <time>2013-04-13T14:09:25Z</time>
      </trkpt>
      <trkpt lat="43.43543" lon="5.99283">
        <ele>338.20001220703</ele>
        <time>2013-04-13T14:09:29Z</time>
      </trkpt>
      <trkpt lat="43.43541" lon="5.99283">
        <ele>338.20001220703</ele>
        <time>2013-04-13T14:09:30Z</time>
      </trkpt>
      <trkpt lat="43.43533" lon="5.99282">
        <ele>338.20001220703</ele>
        <time>2013-04-13T14:09:36Z</time>
      </trkpt>
      <trkpt lat="43.43525" lon="5.99282">
        <ele>338.60000610352</ele>
        <time>2013-04-13T14:09:41Z</time>
      </trkpt>
      <trkpt lat="43.43525" lon="5.99282">
        <ele>339</ele>
        <time>2013-04-13T14:09:42Z</time>
      </trkpt>
      <trkpt lat="43.43525" lon="5.99281">
        <ele>339.39999389648</ele>
        <time>2013-04-13T14:09:43Z</time>
      </trkpt>
      <trkpt lat="43.43525" lon="5.99281">
        <ele>340.20001220703</ele>
        <time>2013-04-13T14:09:55Z</time>
      </trkpt>
      <trkpt lat="43.43525" lon="5.99281">
        <ele>340.20001220703</ele>
        <time>2013-04-13T14:10:08Z</time>
      </trkpt>
      <trkpt lat="43.43522" lon="5.99282">
        <ele>340.20001220703</ele>
        <time>2013-04-13T14:10:12Z</time>
      </trkpt>
      <trkpt lat="43.43521" lon="5.99281">
        <ele>340.20001220703</ele>
        <time>2013-04-13T14:10:13Z</time>
      </trkpt>
      <trkpt lat="43.43512" lon="5.99284">
        <ele>340.20001220703</ele>
        <time>2013-04-13T14:10:19Z</time>
      </trkpt>
      <trkpt lat="43.43504" lon="5.99287">
        <ele>340.20001220703</ele>
        <time>2013-04-13T14:10:24Z</time>
      </trkpt>
      <trkpt lat="43.43493" lon="5.99292">
        <ele>340.20001220703</ele>
        <time>2013-04-13T14:10:31Z</time>
      </trkpt>
      <trkpt lat="43.43486" lon="5.99293">
        <ele>341</ele>
        <time>2013-04-13T14:10:36Z</time>
      </trkpt>
      <trkpt lat="43.43484" lon="5.99297">
        <ele>342.20001220703</ele>
        <time>2013-04-13T14:10:39Z</time>
      </trkpt>
      <trkpt lat="43.43476" lon="5.99307">
        <ele>342.20001220703</ele>
        <time>2013-04-13T14:10:46Z</time>
      </trkpt>
      <trkpt lat="43.43473" lon="5.99313">
        <ele>342.20001220703</ele>
        <time>2013-04-13T14:10:49Z</time>
      </trkpt>
      <trkpt lat="43.4347" lon="5.9932">
        <ele>342.20001220703</ele>
        <time>2013-04-13T14:10:53Z</time>
      </trkpt>
      <trkpt lat="43.43466" lon="5.99323">
        <ele>342.20001220703</ele>
        <time>2013-04-13T14:10:56Z</time>
      </trkpt>
      <trkpt lat="43.43459" lon="5.99325">
        <ele>342.20001220703</ele>
        <time>2013-04-13T14:11:01Z</time>
      </trkpt>
      <trkpt lat="43.43451" lon="5.99326">
        <ele>342.20001220703</ele>
        <time>2013-04-13T14:11:07Z</time>
      </trkpt>
      <trkpt lat="43.43445" lon="5.99324">
        <ele>343</ele>
        <time>2013-04-13T14:11:12Z</time>
      </trkpt>
      <trkpt lat="43.43444" lon="5.99324">
        <ele>343.39999389648</ele>
        <time>2013-04-13T14:11:13Z</time>
      </trkpt>
      <trkpt lat="43.43441" lon="5.99323">
        <ele>344.39999389648</ele>
        <time>2013-04-13T14:11:15Z</time>
      </trkpt>
      <trkpt lat="43.43433" lon="5.99319">
        <ele>344.39999389648</ele>
        <time>2013-04-13T14:11:21Z</time>
      </trkpt>
      <trkpt lat="43.4343" lon="5.9932">
        <ele>344.39999389648</ele>
        <time>2013-04-13T14:11:24Z</time>
      </trkpt>
      <trkpt lat="43.43427" lon="5.9932">
        <ele>344.39999389648</ele>
        <time>2013-04-13T14:11:26Z</time>
      </trkpt>
      <trkpt lat="43.43418" lon="5.9932">
        <ele>344.39999389648</ele>
        <time>2013-04-13T14:11:32Z</time>
      </trkpt>
      <trkpt lat="43.43412" lon="5.99321">
        <ele>344.79998779297</ele>
        <time>2013-04-13T14:11:36Z</time>
      </trkpt>
      <trkpt lat="43.43385" lon="5.99334">
        <ele>346.39999389648</ele>
        <time>2013-04-13T14:11:56Z</time>
      </trkpt>
      <trkpt lat="43.43383" lon="5.99333">
        <ele>346.39999389648</ele>
        <time>2013-04-13T14:11:58Z</time>
      </trkpt>
      <trkpt lat="43.43378" lon="5.99329">
        <ele>347.60000610352</ele>
        <time>2013-04-13T14:12:02Z</time>
      </trkpt>
      <trkpt lat="43.4337" lon="5.99324">
        <ele>348.39999389648</ele>
        <time>2013-04-13T14:12:09Z</time>
      </trkpt>
      <trkpt lat="43.43364" lon="5.99319">
        <ele>348.39999389648</ele>
        <time>2013-04-13T14:12:15Z</time>
      </trkpt>
      <trkpt lat="43.43362" lon="5.99318">
        <ele>348.39999389648</ele>
        <time>2013-04-13T14:12:16Z</time>
      </trkpt>
      <trkpt lat="43.43358" lon="5.99317">
        <ele>349.60000610352</ele>
        <time>2013-04-13T14:12:19Z</time>
      </trkpt>
      <trkpt lat="43.43356" lon="5.99317">
        <ele>350.39999389648</ele>
        <time>2013-04-13T14:12:21Z</time>
      </trkpt>
      <trkpt lat="43.43355" lon="5.99317">
        <ele>350.39999389648</ele>
        <time>2013-04-13T14:12:22Z</time>
      </trkpt>
      <trkpt lat="43.4335" lon="5.9932">
        <ele>350.39999389648</ele>
        <time>2013-04-13T14:12:27Z</time>
      </trkpt>
      <trkpt lat="43.4335" lon="5.9932">
        <ele>350.39999389648</ele>
        <time>2013-04-13T14:12:34Z</time>
      </trkpt>
      <trkpt lat="43.4335" lon="5.9932">
        <ele>350.39999389648</ele>
        <time>2013-04-13T14:12:54Z</time>
      </trkpt>
      <trkpt lat="43.4335" lon="5.9932">
        <ele>350.39999389648</ele>
        <time>2013-04-13T14:13:04Z</time>
      </trkpt>
      <trkpt lat="43.4335" lon="5.9932">
        <ele>350.39999389648</ele>
        <time>2013-04-13T14:13:08Z</time>
      </trkpt>
      <trkpt lat="43.4335" lon="5.9932">
        <ele>351.20001220703</ele>
        <time>2013-04-13T14:13:28Z</time>
      </trkpt>
      <trkpt lat="43.43351" lon="5.9932">
        <ele>352.39999389648</ele>
        <time>2013-04-13T14:13:51Z</time>
      </trkpt>
      <trkpt lat="43.43351" lon="5.9932">
        <ele>352.39999389648</ele>
        <time>2013-04-13T14:14:18Z</time>
      </trkpt>
      <trkpt lat="43.43351" lon="5.9932">
        <ele>352.39999389648</ele>
        <time>2013-04-13T14:14:27Z</time>
      </trkpt>
      <trkpt lat="43.4335" lon="5.99321">
        <ele>352.39999389648</ele>
        <time>2013-04-13T14:14:33Z</time>
      </trkpt>
      <trkpt lat="43.4335" lon="5.99321">
        <ele>352.39999389648</ele>
        <time>2013-04-13T14:15:04Z</time>
      </trkpt>
      <trkpt lat="43.43351" lon="5.99321">
        <ele>352.39999389648</ele>
        <time>2013-04-13T14:15:48Z</time>
      </trkpt>
      <trkpt lat="43.43351" lon="5.99321">
        <ele>352.39999389648</ele>
        <time>2013-04-13T14:16:01Z</time>
      </trkpt>
      <trkpt lat="43.43351" lon="5.99321">
        <ele>352.39999389648</ele>
        <time>2013-04-13T14:16:12Z</time>
      </trkpt>
      <trkpt lat="43.43349" lon="5.99321">
        <ele>352.39999389648</ele>
        <time>2013-04-13T14:16:20Z</time>
      </trkpt>
      <trkpt lat="43.43348" lon="5.99322">
        <ele>352.39999389648</ele>
        <time>2013-04-13T14:16:21Z</time>
      </trkpt>
      <trkpt lat="43.43346" lon="5.99323">
        <ele>352.39999389648</ele>
        <time>2013-04-13T14:16:24Z</time>
      </trkpt>
      <trkpt lat="43.4334" lon="5.99329">
        <ele>352.39999389648</ele>
        <time>2013-04-13T14:16:31Z</time>
      </trkpt>
      <trkpt lat="43.43336" lon="5.99335">
        <ele>352.39999389648</ele>
        <time>2013-04-13T14:16:37Z</time>
      </trkpt>
      <trkpt lat="43.43333" lon="5.99341">
        <ele>352.39999389648</ele>
        <time>2013-04-13T14:16:41Z</time>
      </trkpt>
      <trkpt lat="43.43333" lon="5.99344">
        <ele>352.39999389648</ele>
        <time>2013-04-13T14:16:42Z</time>
      </trkpt>
      <trkpt lat="43.43332" lon="5.99349">
        <ele>352.39999389648</ele>
        <time>2013-04-13T14:16:48Z</time>
      </trkpt>
      <trkpt lat="43.43332" lon="5.99349">
        <ele>352.39999389648</ele>
        <time>2013-04-13T14:17:16Z</time>
      </trkpt>
      <trkpt lat="43.43332" lon="5.99349">
        <ele>352.39999389648</ele>
        <time>2013-04-13T14:17:30Z</time>
      </trkpt>
      <trkpt lat="43.43332" lon="5.99349">
        <ele>352.39999389648</ele>
        <time>2013-04-13T14:17:50Z</time>
      </trkpt>
      <trkpt lat="43.43332" lon="5.9935">
        <ele>352.39999389648</ele>
        <time>2013-04-13T14:18:19Z</time>
      </trkpt>
      <trkpt lat="43.43332" lon="5.9935">
        <ele>352.39999389648</ele>
        <time>2013-04-13T14:18:36Z</time>
      </trkpt>
      <trkpt lat="43.43331" lon="5.9935">
        <ele>352.39999389648</ele>
        <time>2013-04-13T14:18:41Z</time>
      </trkpt>
      <trkpt lat="43.43329" lon="5.99352">
        <ele>352.39999389648</ele>
        <time>2013-04-13T14:18:43Z</time>
      </trkpt>
      <trkpt lat="43.43324" lon="5.99362">
        <ele>352.39999389648</ele>
        <time>2013-04-13T14:18:49Z</time>
      </trkpt>
      <trkpt lat="43.43317" lon="5.99371">
        <ele>352.39999389648</ele>
        <time>2013-04-13T14:18:55Z</time>
      </trkpt>
      <trkpt lat="43.43312" lon="5.99379">
        <ele>352.39999389648</ele>
        <time>2013-04-13T14:19:01Z</time>
      </trkpt>
      <trkpt lat="43.43312" lon="5.9938">
        <ele>352.39999389648</ele>
        <time>2013-04-13T14:19:02Z</time>
      </trkpt>
      <trkpt lat="43.43307" lon="5.99385">
        <ele>352.39999389648</ele>
        <time>2013-04-13T14:19:06Z</time>
      </trkpt>
      <trkpt lat="43.43306" lon="5.99386">
        <ele>352.39999389648</ele>
        <time>2013-04-13T14:19:07Z</time>
      </trkpt>
      <trkpt lat="43.43305" lon="5.99385">
        <ele>353</ele>
        <time>2013-04-13T14:19:08Z</time>
      </trkpt>
      <trkpt lat="43.43304" lon="5.99386">
        <ele>353.39999389648</ele>
        <time>2013-04-13T14:19:09Z</time>
      </trkpt>
      <trkpt lat="43.43304" lon="5.99385">
        <ele>353.79998779297</ele>
        <time>2013-04-13T14:19:10Z</time>
      </trkpt>
      <trkpt lat="43.43302" lon="5.99385">
        <ele>354.20001220703</ele>
        <time>2013-04-13T14:19:11Z</time>
      </trkpt>
      <trkpt lat="43.43301" lon="5.99385">
        <ele>354.60000610352</ele>
        <time>2013-04-13T14:19:12Z</time>
      </trkpt>
      <trkpt lat="43.43301" lon="5.99385">
        <ele>354.60000610352</ele>
        <time>2013-04-13T14:19:17Z</time>
      </trkpt>
      <trkpt lat="43.43298" lon="5.99384">
        <ele>354.60000610352</ele>
        <time>2013-04-13T14:19:26Z</time>
      </trkpt>
      <trkpt lat="43.43293" lon="5.99383">
        <ele>354.60000610352</ele>
        <time>2013-04-13T14:19:30Z</time>
      </trkpt>
      <trkpt lat="43.43293" lon="5.99383">
        <ele>354.60000610352</ele>
        <time>2013-04-13T14:19:31Z</time>
      </trkpt>
      <trkpt lat="43.43291" lon="5.99382">
        <ele>354.60000610352</ele>
        <time>2013-04-13T14:19:33Z</time>
      </trkpt>
      <trkpt lat="43.43287" lon="5.99381">
        <ele>355.39999389648</ele>
        <time>2013-04-13T14:19:36Z</time>
      </trkpt>
      <trkpt lat="43.43285" lon="5.9938">
        <ele>355.79998779297</ele>
        <time>2013-04-13T14:19:37Z</time>
      </trkpt>
      <trkpt lat="43.43285" lon="5.99379">
        <ele>356.20001220703</ele>
        <time>2013-04-13T14:19:38Z</time>
      </trkpt>
      <trkpt lat="43.43284" lon="5.99377">
        <ele>356.60000610352</ele>
        <time>2013-04-13T14:19:39Z</time>
      </trkpt>
      <trkpt lat="43.43281" lon="5.99372">
        <ele>356.60000610352</ele>
        <time>2013-04-13T14:19:44Z</time>
      </trkpt>
      <trkpt lat="43.43279" lon="5.99368">
        <ele>357</ele>
        <time>2013-04-13T14:19:46Z</time>
      </trkpt>
      <trkpt lat="43.4328" lon="5.99367">
        <ele>357.39999389648</ele>
        <time>2013-04-13T14:19:47Z</time>
      </trkpt>
      <trkpt lat="43.4328" lon="5.99367">
        <ele>358</ele>
        <time>2013-04-13T14:19:48Z</time>
      </trkpt>
      <trkpt lat="43.4328" lon="5.99367">
        <ele>358.79998779297</ele>
        <time>2013-04-13T14:20:05Z</time>
      </trkpt>
      <trkpt lat="43.4328" lon="5.99367">
        <ele>358.79998779297</ele>
        <time>2013-04-13T14:20:16Z</time>
      </trkpt>
      <trkpt lat="43.43279" lon="5.99364">
        <ele>358.79998779297</ele>
        <time>2013-04-13T14:20:26Z</time>
      </trkpt>
      <trkpt lat="43.43278" lon="5.99363">
        <ele>358.79998779297</ele>
        <time>2013-04-13T14:20:29Z</time>
      </trkpt>
      <trkpt lat="43.43278" lon="5.99362">
        <ele>358.79998779297</ele>
        <time>2013-04-13T14:20:33Z</time>
      </trkpt>
      <trkpt lat="43.43277" lon="5.99361">
        <ele>358.79998779297</ele>
        <time>2013-04-13T14:20:38Z</time>
      </trkpt>
      <trkpt lat="43.43277" lon="5.99361">
        <ele>360.79998779297</ele>
        <time>2013-04-13T14:20:53Z</time>
      </trkpt>
      <trkpt lat="43.43277" lon="5.99361">
        <ele>360.79998779297</ele>
        <time>2013-04-13T14:21:09Z</time>
      </trkpt>
      <trkpt lat="43.43277" lon="5.9936">
        <ele>360.79998779297</ele>
        <time>2013-04-13T14:21:10Z</time>
      </trkpt>
      <trkpt lat="43.43277" lon="5.99359">
        <ele>360.79998779297</ele>
        <time>2013-04-13T14:21:11Z</time>
      </trkpt>
      <trkpt lat="43.43276" lon="5.99352">
        <ele>360.79998779297</ele>
        <time>2013-04-13T14:21:15Z</time>
      </trkpt>
      <trkpt lat="43.43275" lon="5.99351">
        <ele>360.79998779297</ele>
        <time>2013-04-13T14:21:16Z</time>
      </trkpt>
      <trkpt lat="43.43272" lon="5.99347">
        <ele>360.79998779297</ele>
        <time>2013-04-13T14:21:18Z</time>
      </trkpt>
      <trkpt lat="43.4327" lon="5.99346">
        <ele>361.20001220703</ele>
        <time>2013-04-13T14:21:19Z</time>
      </trkpt>
      <trkpt lat="43.43269" lon="5.99345">
        <ele>361.60000610352</ele>
        <time>2013-04-13T14:21:20Z</time>
      </trkpt>
      <trkpt lat="43.43268" lon="5.99344">
        <ele>362.60000610352</ele>
        <time>2013-04-13T14:21:21Z</time>
      </trkpt>
      <trkpt lat="43.43266" lon="5.99339">
        <ele>363.39999389648</ele>
        <time>2013-04-13T14:21:24Z</time>
      </trkpt>
      <trkpt lat="43.43264" lon="5.99338">
        <ele>363.79998779297</ele>
        <time>2013-04-13T14:21:25Z</time>
      </trkpt>
      <trkpt lat="43.43263" lon="5.99337">
        <ele>364.39999389648</ele>
        <time>2013-04-13T14:21:26Z</time>
      </trkpt>
      <trkpt lat="43.43262" lon="5.99337">
        <ele>364.79998779297</ele>
        <time>2013-04-13T14:21:27Z</time>
      </trkpt>
      <trkpt lat="43.43263" lon="5.99337">
        <ele>365.20001220703</ele>
        <time>2013-04-13T14:21:28Z</time>
      </trkpt>
      <trkpt lat="43.43263" lon="5.99338">
        <ele>365.20001220703</ele>
        <time>2013-04-13T14:21:31Z</time>
      </trkpt>
      <trkpt lat="43.43263" lon="5.99338">
        <ele>365.20001220703</ele>
        <time>2013-04-13T14:21:43Z</time>
      </trkpt>
      <trkpt lat="43.43263" lon="5.99338">
        <ele>365.20001220703</ele>
        <time>2013-04-13T14:21:51Z</time>
      </trkpt>
      <trkpt lat="43.43261" lon="5.99336">
        <ele>365.20001220703</ele>
        <time>2013-04-13T14:21:59Z</time>
      </trkpt>
      <trkpt lat="43.43261" lon="5.99336">
        <ele>365.60000610352</ele>
        <time>2013-04-13T14:22:01Z</time>
      </trkpt>
      <trkpt lat="43.43261" lon="5.99336">
        <ele>367.39999389648</ele>
        <time>2013-04-13T14:22:08Z</time>
      </trkpt>
      <trkpt lat="43.4326" lon="5.99335">
        <ele>367.39999389648</ele>
        <time>2013-04-13T14:22:15Z</time>
      </trkpt>
      <trkpt lat="43.43259" lon="5.99334">
        <ele>367.39999389648</ele>
        <time>2013-04-13T14:22:22Z</time>
      </trkpt>
      <trkpt lat="43.43259" lon="5.99334">
        <ele>367.39999389648</ele>
        <time>2013-04-13T14:22:31Z</time>
      </trkpt>
      <trkpt lat="43.43259" lon="5.99334">
        <ele>367.39999389648</ele>
        <time>2013-04-13T14:22:36Z</time>
      </trkpt>
      <trkpt lat="43.43254" lon="5.99333">
        <ele>367.79998779297</ele>
        <time>2013-04-13T14:22:46Z</time>
      </trkpt>
      <trkpt lat="43.43254" lon="5.99332">
        <ele>368.20001220703</ele>
        <time>2013-04-13T14:22:47Z</time>
      </trkpt>
      <trkpt lat="43.43254" lon="5.99332">
        <ele>368.60000610352</ele>
        <time>2013-04-13T14:22:48Z</time>
      </trkpt>
      <trkpt lat="43.43252" lon="5.99332">
        <ele>369.39999389648</ele>
        <time>2013-04-13T14:22:50Z</time>
      </trkpt>
      <trkpt lat="43.43251" lon="5.99332">
        <ele>369.39999389648</ele>
        <time>2013-04-13T14:22:52Z</time>
      </trkpt>
      <trkpt lat="43.43248" lon="5.99332">
        <ele>369.79998779297</ele>
        <time>2013-04-13T14:22:58Z</time>
      </trkpt>
      <trkpt lat="43.43248" lon="5.99332">
        <ele>370.20001220703</ele>
        <time>2013-04-13T14:22:59Z</time>
      </trkpt>
      <trkpt lat="43.43246" lon="5.99332">
        <ele>371.39999389648</ele>
        <time>2013-04-13T14:23:01Z</time>
      </trkpt>
      <trkpt lat="43.43244" lon="5.99333">
        <ele>371.39999389648</ele>
        <time>2013-04-13T14:23:08Z</time>
      </trkpt>
      <trkpt lat="43.43241" lon="5.99334">
        <ele>372.20001220703</ele>
        <time>2013-04-13T14:23:14Z</time>
      </trkpt>
      <trkpt lat="43.4324" lon="5.99334">
        <ele>373</ele>
        <time>2013-04-13T14:23:16Z</time>
      </trkpt>
      <trkpt lat="43.4324" lon="5.99335">
        <ele>373.39999389648</ele>
        <time>2013-04-13T14:23:17Z</time>
      </trkpt>
      <trkpt lat="43.43237" lon="5.99336">
        <ele>373.39999389648</ele>
        <time>2013-04-13T14:23:21Z</time>
      </trkpt>
      <trkpt lat="43.43238" lon="5.99336">
        <ele>373.39999389648</ele>
        <time>2013-04-13T14:23:22Z</time>
      </trkpt>
      <trkpt lat="43.43236" lon="5.99336">
        <ele>373.39999389648</ele>
        <time>2013-04-13T14:23:28Z</time>
      </trkpt>
      <trkpt lat="43.43235" lon="5.99336">
        <ele>373.39999389648</ele>
        <time>2013-04-13T14:23:30Z</time>
      </trkpt>
      <trkpt lat="43.43235" lon="5.99336">
        <ele>373.39999389648</ele>
        <time>2013-04-13T14:23:36Z</time>
      </trkpt>
      <trkpt lat="43.43235" lon="5.99337">
        <ele>373.39999389648</ele>
        <time>2013-04-13T14:23:46Z</time>
      </trkpt>
      <trkpt lat="43.43235" lon="5.99337">
        <ele>373.39999389648</ele>
        <time>2013-04-13T14:23:53Z</time>
      </trkpt>
      <trkpt lat="43.43235" lon="5.99337">
        <ele>373.39999389648</ele>
        <time>2013-04-13T14:23:58Z</time>
      </trkpt>
      <trkpt lat="43.4323" lon="5.99337">
        <ele>373.39999389648</ele>
        <time>2013-04-13T14:24:02Z</time>
      </trkpt>
      <trkpt lat="43.43227" lon="5.99338">
        <ele>373.79998779297</ele>
        <time>2013-04-13T14:24:05Z</time>
      </trkpt>
      <trkpt lat="43.43225" lon="5.99339">
        <ele>374.39999389648</ele>
        <time>2013-04-13T14:24:06Z</time>
      </trkpt>
      <trkpt lat="43.43224" lon="5.9934">
        <ele>374.79998779297</ele>
        <time>2013-04-13T14:24:07Z</time>
      </trkpt>
      <trkpt lat="43.43223" lon="5.99341">
        <ele>375.20001220703</ele>
        <time>2013-04-13T14:24:08Z</time>
      </trkpt>
      <trkpt lat="43.43222" lon="5.99341">
        <ele>375.79998779297</ele>
        <time>2013-04-13T14:24:09Z</time>
      </trkpt>
      <trkpt lat="43.4322" lon="5.99343">
        <ele>375.79998779297</ele>
        <time>2013-04-13T14:24:11Z</time>
      </trkpt>
      <trkpt lat="43.43216" lon="5.99343">
        <ele>376.60000610352</ele>
        <time>2013-04-13T14:24:13Z</time>
      </trkpt>
      <trkpt lat="43.43214" lon="5.99343">
        <ele>377</ele>
        <time>2013-04-13T14:24:14Z</time>
      </trkpt>
      <trkpt lat="43.43211" lon="5.99343">
        <ele>377.79998779297</ele>
        <time>2013-04-13T14:24:16Z</time>
      </trkpt>
      <trkpt lat="43.43209" lon="5.99344">
        <ele>377.79998779297</ele>
        <time>2013-04-13T14:24:18Z</time>
      </trkpt>
      <trkpt lat="43.43206" lon="5.99347">
        <ele>379</ele>
        <time>2013-04-13T14:24:21Z</time>
      </trkpt>
      <trkpt lat="43.43205" lon="5.99347">
        <ele>379.39999389648</ele>
        <time>2013-04-13T14:24:22Z</time>
      </trkpt>
      <trkpt lat="43.43205" lon="5.99347">
        <ele>380</ele>
        <time>2013-04-13T14:24:23Z</time>
      </trkpt>
      <trkpt lat="43.43202" lon="5.99348">
        <ele>380</ele>
        <time>2013-04-13T14:24:26Z</time>
      </trkpt>
      <trkpt lat="43.432" lon="5.99351">
        <ele>380</ele>
        <time>2013-04-13T14:24:30Z</time>
      </trkpt>
      <trkpt lat="43.43197" lon="5.99353">
        <ele>380</ele>
        <time>2013-04-13T14:24:32Z</time>
      </trkpt>
      <trkpt lat="43.43193" lon="5.99356">
        <ele>380</ele>
        <time>2013-04-13T14:24:37Z</time>
      </trkpt>
      <trkpt lat="43.43192" lon="5.99356">
        <ele>380</ele>
        <time>2013-04-13T14:24:38Z</time>
      </trkpt>
      <trkpt lat="43.43192" lon="5.99356">
        <ele>380</ele>
        <time>2013-04-13T14:24:43Z</time>
      </trkpt>
      <trkpt lat="43.43192" lon="5.99356">
        <ele>381.60000610352</ele>
        <time>2013-04-13T14:24:55Z</time>
      </trkpt>
      <trkpt lat="43.43192" lon="5.99356">
        <ele>382</ele>
        <time>2013-04-13T14:25:09Z</time>
      </trkpt>
      <trkpt lat="43.43185" lon="5.99353">
        <ele>382</ele>
        <time>2013-04-13T14:25:13Z</time>
      </trkpt>
      <trkpt lat="43.43183" lon="5.99351">
        <ele>382</ele>
        <time>2013-04-13T14:25:15Z</time>
      </trkpt>
      <trkpt lat="43.43182" lon="5.99351">
        <ele>382</ele>
        <time>2013-04-13T14:25:16Z</time>
      </trkpt>
      <trkpt lat="43.43178" lon="5.99351">
        <ele>382.39999389648</ele>
        <time>2013-04-13T14:25:18Z</time>
      </trkpt>
      <trkpt lat="43.43177" lon="5.99352">
        <ele>382.79998779297</ele>
        <time>2013-04-13T14:25:19Z</time>
      </trkpt>
      <trkpt lat="43.43174" lon="5.99352">
        <ele>383.60000610352</ele>
        <time>2013-04-13T14:25:21Z</time>
      </trkpt>
      <trkpt lat="43.43173" lon="5.99351">
        <ele>384.20001220703</ele>
        <time>2013-04-13T14:25:22Z</time>
      </trkpt>
      <trkpt lat="43.4317" lon="5.99352">
        <ele>384.20001220703</ele>
        <time>2013-04-13T14:25:24Z</time>
      </trkpt>
      <trkpt lat="43.43167" lon="5.99352">
        <ele>384.60000610352</ele>
        <time>2013-04-13T14:25:26Z</time>
      </trkpt>
      <trkpt lat="43.43167" lon="5.99352">
        <ele>385.79998779297</ele>
        <time>2013-04-13T14:25:28Z</time>
      </trkpt>
      <trkpt lat="43.43167" lon="5.99352">
        <ele>386.20001220703</ele>
        <time>2013-04-13T14:25:33Z</time>
      </trkpt>
      <trkpt lat="43.43167" lon="5.99352">
        <ele>386.20001220703</ele>
        <time>2013-04-13T14:25:38Z</time>
      </trkpt>
      <trkpt lat="43.43167" lon="5.99352">
        <ele>386.20001220703</ele>
        <time>2013-04-13T14:25:40Z</time>
      </trkpt>
      <trkpt lat="43.43167" lon="5.99352">
        <ele>386.20001220703</ele>
        <time>2013-04-13T14:25:43Z</time>
      </trkpt>
      <trkpt lat="43.43165" lon="5.99351">
        <ele>386.20001220703</ele>
        <time>2013-04-13T14:25:52Z</time>
      </trkpt>
      <trkpt lat="43.43166" lon="5.99351">
        <ele>386.20001220703</ele>
        <time>2013-04-13T14:25:56Z</time>
      </trkpt>
      <trkpt lat="43.43166" lon="5.99351">
        <ele>386.20001220703</ele>
        <time>2013-04-13T14:26:11Z</time>
      </trkpt>
      <trkpt lat="43.43166" lon="5.99351">
        <ele>386.20001220703</ele>
        <time>2013-04-13T14:26:33Z</time>
      </trkpt>
      <trkpt lat="43.43166" lon="5.99351">
        <ele>386.20001220703</ele>
        <time>2013-04-13T14:26:36Z</time>
      </trkpt>
      <trkpt lat="43.43166" lon="5.99351">
        <ele>386.20001220703</ele>
        <time>2013-04-13T14:26:43Z</time>
      </trkpt>
      <trkpt lat="43.43166" lon="5.99351">
        <ele>386.20001220703</ele>
        <time>2013-04-13T14:26:59Z</time>
      </trkpt>
      <trkpt lat="43.43166" lon="5.99351">
        <ele>386.20001220703</ele>
        <time>2013-04-13T14:27:14Z</time>
      </trkpt>
      <trkpt lat="43.43164" lon="5.9935">
        <ele>386.20001220703</ele>
        <time>2013-04-13T14:27:20Z</time>
      </trkpt>
      <trkpt lat="43.43162" lon="5.99349">
        <ele>387.79998779297</ele>
        <time>2013-04-13T14:27:24Z</time>
      </trkpt>
      <trkpt lat="43.43162" lon="5.99349">
        <ele>388.20001220703</ele>
        <time>2013-04-13T14:27:28Z</time>
      </trkpt>
      <trkpt lat="43.43159" lon="5.99348">
        <ele>388.20001220703</ele>
        <time>2013-04-13T14:27:37Z</time>
      </trkpt>
      <trkpt lat="43.43159" lon="5.99348">
        <ele>388.60000610352</ele>
        <time>2013-04-13T14:27:42Z</time>
      </trkpt>
      <trkpt lat="43.43159" lon="5.99348">
        <ele>389.20001220703</ele>
        <time>2013-04-13T14:27:43Z</time>
      </trkpt>
      <trkpt lat="43.43156" lon="5.99347">
        <ele>390.39999389648</ele>
        <time>2013-04-13T14:27:49Z</time>
      </trkpt>
      <trkpt lat="43.43153" lon="5.99346">
        <ele>390.39999389648</ele>
        <time>2013-04-13T14:27:56Z</time>
      </trkpt>
      <trkpt lat="43.43151" lon="5.99343">
        <ele>390.39999389648</ele>
        <time>2013-04-13T14:28:02Z</time>
      </trkpt>
      <trkpt lat="43.43151" lon="5.99343">
        <ele>390.39999389648</ele>
        <time>2013-04-13T14:28:08Z</time>
      </trkpt>
      <trkpt lat="43.43151" lon="5.99343">
        <ele>392.39999389648</ele>
        <time>2013-04-13T14:28:26Z</time>
      </trkpt>
      <trkpt lat="43.43151" lon="5.99343">
        <ele>392.39999389648</ele>
        <time>2013-04-13T14:28:38Z</time>
      </trkpt>
      <trkpt lat="43.43151" lon="5.99343">
        <ele>392.39999389648</ele>
        <time>2013-04-13T14:28:46Z</time>
      </trkpt>
      <trkpt lat="43.43151" lon="5.99343">
        <ele>392.39999389648</ele>
        <time>2013-04-13T14:28:54Z</time>
      </trkpt>
      <trkpt lat="43.43151" lon="5.99343">
        <ele>392.79998779297</ele>
        <time>2013-04-13T14:29:01Z</time>
      </trkpt>
      <trkpt lat="43.43151" lon="5.99343">
        <ele>393.20001220703</ele>
        <time>2013-04-13T14:29:02Z</time>
      </trkpt>
      <trkpt lat="43.43149" lon="5.99342">
        <ele>394.60000610352</ele>
        <time>2013-04-13T14:29:05Z</time>
      </trkpt>
      <trkpt lat="43.43147" lon="5.99341">
        <ele>394.60000610352</ele>
        <time>2013-04-13T14:29:11Z</time>
      </trkpt>
      <trkpt lat="43.43147" lon="5.99341">
        <ele>395.39999389648</ele>
        <time>2013-04-13T14:29:13Z</time>
      </trkpt>
      <trkpt lat="43.43147" lon="5.99341">
        <ele>395.79998779297</ele>
        <time>2013-04-13T14:29:14Z</time>
      </trkpt>
      <trkpt lat="43.43147" lon="5.99341">
        <ele>396.60000610352</ele>
        <time>2013-04-13T14:29:16Z</time>
      </trkpt>
      <trkpt lat="43.43147" lon="5.99341">
        <ele>396.60000610352</ele>
        <time>2013-04-13T14:29:41Z</time>
      </trkpt>
      <trkpt lat="43.43147" lon="5.99341">
        <ele>396.60000610352</ele>
        <time>2013-04-13T14:29:47Z</time>
      </trkpt>
      <trkpt lat="43.43147" lon="5.99341">
        <ele>396.60000610352</ele>
        <time>2013-04-13T14:29:54Z</time>
      </trkpt>
      <trkpt lat="43.43147" lon="5.99341">
        <ele>396.60000610352</ele>
        <time>2013-04-13T14:30:04Z</time>
      </trkpt>
      <trkpt lat="43.43147" lon="5.99341">
        <ele>396.60000610352</ele>
        <time>2013-04-13T14:30:22Z</time>
      </trkpt>
      <trkpt lat="43.43146" lon="5.9934">
        <ele>396.60000610352</ele>
        <time>2013-04-13T14:30:29Z</time>
      </trkpt>
      <trkpt lat="43.43146" lon="5.9934">
        <ele>396.60000610352</ele>
        <time>2013-04-13T14:30:57Z</time>
      </trkpt>
      <trkpt lat="43.43146" lon="5.9934">
        <ele>396.60000610352</ele>
        <time>2013-04-13T14:31:06Z</time>
      </trkpt>
      <trkpt lat="43.43145" lon="5.9934">
        <ele>396.60000610352</ele>
        <time>2013-04-13T14:31:10Z</time>
      </trkpt>
      <trkpt lat="43.43145" lon="5.9934">
        <ele>396.60000610352</ele>
        <time>2013-04-13T14:31:21Z</time>
      </trkpt>
      <trkpt lat="43.43145" lon="5.9934">
        <ele>396.60000610352</ele>
        <time>2013-04-13T14:31:29Z</time>
      </trkpt>
      <trkpt lat="43.43145" lon="5.9934">
        <ele>396.60000610352</ele>
        <time>2013-04-13T14:31:33Z</time>
      </trkpt>
      <trkpt lat="43.43145" lon="5.9934">
        <ele>396.60000610352</ele>
        <time>2013-04-13T14:31:36Z</time>
      </trkpt>
      <trkpt lat="43.43142" lon="5.99334">
        <ele>396.60000610352</ele>
        <time>2013-04-13T14:31:43Z</time>
      </trkpt>
      <trkpt lat="43.4314" lon="5.99333">
        <ele>396.60000610352</ele>
        <time>2013-04-13T14:31:51Z</time>
      </trkpt>
      <trkpt lat="43.4314" lon="5.99333">
        <ele>396.60000610352</ele>
        <time>2013-04-13T14:31:59Z</time>
      </trkpt>
      <trkpt lat="43.4314" lon="5.99333">
        <ele>396.60000610352</ele>
        <time>2013-04-13T14:32:05Z</time>
      </trkpt>
      <trkpt lat="43.43137" lon="5.99329">
        <ele>396.60000610352</ele>
        <time>2013-04-13T14:32:11Z</time>
      </trkpt>
      <trkpt lat="43.4313" lon="5.99323">
        <ele>397</ele>
        <time>2013-04-13T14:32:16Z</time>
      </trkpt>
      <trkpt lat="43.43129" lon="5.99321">
        <ele>397.39999389648</ele>
        <time>2013-04-13T14:32:17Z</time>
      </trkpt>
      <trkpt lat="43.43128" lon="5.99321">
        <ele>397.79998779297</ele>
        <time>2013-04-13T14:32:18Z</time>
      </trkpt>
      <trkpt lat="43.43127" lon="5.9932">
        <ele>398.39999389648</ele>
        <time>2013-04-13T14:32:19Z</time>
      </trkpt>
      <trkpt lat="43.43126" lon="5.99319">
        <ele>398.79998779297</ele>
        <time>2013-04-13T14:32:20Z</time>
      </trkpt>
      <trkpt lat="43.43123" lon="5.99317">
        <ele>398.79998779297</ele>
        <time>2013-04-13T14:32:25Z</time>
      </trkpt>
      <trkpt lat="43.43123" lon="5.99317">
        <ele>398.79998779297</ele>
        <time>2013-04-13T14:32:51Z</time>
      </trkpt>
      <trkpt lat="43.43123" lon="5.99317">
        <ele>398.79998779297</ele>
        <time>2013-04-13T14:33:03Z</time>
      </trkpt>
      <trkpt lat="43.43123" lon="5.99317">
        <ele>398.79998779297</ele>
        <time>2013-04-13T14:33:06Z</time>
      </trkpt>
      <trkpt lat="43.43123" lon="5.99317">
        <ele>398.79998779297</ele>
        <time>2013-04-13T14:33:08Z</time>
      </trkpt>
      <trkpt lat="43.43123" lon="5.99317">
        <ele>398.79998779297</ele>
        <time>2013-04-13T14:33:11Z</time>
      </trkpt>
      <trkpt lat="43.43123" lon="5.99317">
        <ele>398.79998779297</ele>
        <time>2013-04-13T14:33:12Z</time>
      </trkpt>
      <trkpt lat="43.43122" lon="5.99316">
        <ele>399.20001220703</ele>
        <time>2013-04-13T14:33:13Z</time>
      </trkpt>
      <trkpt lat="43.43121" lon="5.99311">
        <ele>400.39999389648</ele>
        <time>2013-04-13T14:33:16Z</time>
      </trkpt>
      <trkpt lat="43.43119" lon="5.99306">
        <ele>400.79998779297</ele>
        <time>2013-04-13T14:33:20Z</time>
      </trkpt>
      <trkpt lat="43.43119" lon="5.99302">
        <ele>401.20001220703</ele>
        <time>2013-04-13T14:33:22Z</time>
      </trkpt>
      <trkpt lat="43.43119" lon="5.99301">
        <ele>401.60000610352</ele>
        <time>2013-04-13T14:33:23Z</time>
      </trkpt>
      <trkpt lat="43.43118" lon="5.99297">
        <ele>402.39999389648</ele>
        <time>2013-04-13T14:33:25Z</time>
      </trkpt>
      <trkpt lat="43.43117" lon="5.99295">
        <ele>402.79998779297</ele>
        <time>2013-04-13T14:33:26Z</time>
      </trkpt>
      <trkpt lat="43.43114" lon="5.99288">
        <ele>402.79998779297</ele>
        <time>2013-04-13T14:33:30Z</time>
      </trkpt>
      <trkpt lat="43.43111" lon="5.99285">
        <ele>402.79998779297</ele>
        <time>2013-04-13T14:33:32Z</time>
      </trkpt>
      <trkpt lat="43.4311" lon="5.99284">
        <ele>403.20001220703</ele>
        <time>2013-04-13T14:33:34Z</time>
      </trkpt>
      <trkpt lat="43.4311" lon="5.99284">
        <ele>404.39999389648</ele>
        <time>2013-04-13T14:33:36Z</time>
      </trkpt>
      <trkpt lat="43.4311" lon="5.99284">
        <ele>404.79998779297</ele>
        <time>2013-04-13T14:33:37Z</time>
      </trkpt>
      <trkpt lat="43.4311" lon="5.99284">
        <ele>404.79998779297</ele>
        <time>2013-04-13T14:33:50Z</time>
      </trkpt>
      <trkpt lat="43.4311" lon="5.99284">
        <ele>404.79998779297</ele>
        <time>2013-04-13T14:33:59Z</time>
      </trkpt>
      <trkpt lat="43.43109" lon="5.99284">
        <ele>404.79998779297</ele>
        <time>2013-04-13T14:34:08Z</time>
      </trkpt>
      <trkpt lat="43.43106" lon="5.99284">
        <ele>404.79998779297</ele>
        <time>2013-04-13T14:34:15Z</time>
      </trkpt>
      <trkpt lat="43.43106" lon="5.99284">
        <ele>404.79998779297</ele>
        <time>2013-04-13T14:34:21Z</time>
      </trkpt>
      <trkpt lat="43.43106" lon="5.99284">
        <ele>405.39999389648</ele>
        <time>2013-04-13T14:34:22Z</time>
      </trkpt>
      <trkpt lat="43.43106" lon="5.99284">
        <ele>406.20001220703</ele>
        <time>2013-04-13T14:34:24Z</time>
      </trkpt>
      <trkpt lat="43.43106" lon="5.99284">
        <ele>407</ele>
        <time>2013-04-13T14:34:25Z</time>
      </trkpt>
      <trkpt lat="43.43106" lon="5.99283">
        <ele>407</ele>
        <time>2013-04-13T14:34:27Z</time>
      </trkpt>
      <trkpt lat="43.43106" lon="5.99283">
        <ele>407</ele>
        <time>2013-04-13T14:34:31Z</time>
      </trkpt>
      <trkpt lat="43.43106" lon="5.99283">
        <ele>407</ele>
        <time>2013-04-13T14:34:44Z</time>
      </trkpt>
      <trkpt lat="43.43106" lon="5.99283">
        <ele>407</ele>
        <time>2013-04-13T14:34:58Z</time>
      </trkpt>
      <trkpt lat="43.43105" lon="5.99283">
        <ele>407</ele>
        <time>2013-04-13T14:35:04Z</time>
      </trkpt>
      <trkpt lat="43.43105" lon="5.99283">
        <ele>407</ele>
        <time>2013-04-13T14:35:11Z</time>
      </trkpt>
      <trkpt lat="43.43105" lon="5.99283">
        <ele>407</ele>
        <time>2013-04-13T14:35:16Z</time>
      </trkpt>
      <trkpt lat="43.43105" lon="5.99283">
        <ele>407</ele>
        <time>2013-04-13T14:35:22Z</time>
      </trkpt>
      <trkpt lat="43.43103" lon="5.99282">
        <ele>407</ele>
        <time>2013-04-13T14:35:28Z</time>
      </trkpt>
      <trkpt lat="43.43102" lon="5.99281">
        <ele>407</ele>
        <time>2013-04-13T14:35:29Z</time>
      </trkpt>
      <trkpt lat="43.43097" lon="5.9928">
        <ele>407</ele>
        <time>2013-04-13T14:35:32Z</time>
      </trkpt>
      <trkpt lat="43.43093" lon="5.99279">
        <ele>407</ele>
        <time>2013-04-13T14:35:35Z</time>
      </trkpt>
      <trkpt lat="43.43092" lon="5.99279">
        <ele>407</ele>
        <time>2013-04-13T14:35:36Z</time>
      </trkpt>
      <trkpt lat="43.43089" lon="5.99279">
        <ele>407.39999389648</ele>
        <time>2013-04-13T14:35:38Z</time>
      </trkpt>
      <trkpt lat="43.43086" lon="5.9928">
        <ele>408.60000610352</ele>
        <time>2013-04-13T14:35:40Z</time>
      </trkpt>
      <trkpt lat="43.43084" lon="5.99282">
        <ele>409</ele>
        <time>2013-04-13T14:35:43Z</time>
      </trkpt>
      <trkpt lat="43.43083" lon="5.99283">
        <ele>409</ele>
        <time>2013-04-13T14:35:48Z</time>
      </trkpt>
      <trkpt lat="43.43083" lon="5.99283">
        <ele>409</ele>
        <time>2013-04-13T14:36:11Z</time>
      </trkpt>
      <trkpt lat="43.43083" lon="5.99283">
        <ele>409</ele>
        <time>2013-04-13T14:36:24Z</time>
      </trkpt>
      <trkpt lat="43.43083" lon="5.99282">
        <ele>409</ele>
        <time>2013-04-13T14:36:28Z</time>
      </trkpt>
      <trkpt lat="43.43083" lon="5.99282">
        <ele>409</ele>
        <time>2013-04-13T14:36:38Z</time>
      </trkpt>
      <trkpt lat="43.43083" lon="5.99282">
        <ele>409</ele>
        <time>2013-04-13T14:36:52Z</time>
      </trkpt>
      <trkpt lat="43.43083" lon="5.99282">
        <ele>409</ele>
        <time>2013-04-13T14:37:13Z</time>
      </trkpt>
      <trkpt lat="43.43083" lon="5.99282">
        <ele>409</ele>
        <time>2013-04-13T14:38:20Z</time>
      </trkpt>
      <trkpt lat="43.43082" lon="5.99282">
        <ele>409</ele>
        <time>2013-04-13T14:38:24Z</time>
      </trkpt>
      <trkpt lat="43.43082" lon="5.99282">
        <ele>411</ele>
        <time>2013-04-13T14:38:49Z</time>
      </trkpt>
      <trkpt lat="43.43082" lon="5.99282">
        <ele>411</ele>
        <time>2013-04-13T14:39:00Z</time>
      </trkpt>
      <trkpt lat="43.43082" lon="5.99282">
        <ele>411</ele>
        <time>2013-04-13T14:39:03Z</time>
      </trkpt>
      <trkpt lat="43.43082" lon="5.99282">
        <ele>411</ele>
        <time>2013-04-13T14:39:11Z</time>
      </trkpt>
      <trkpt lat="43.43083" lon="5.99284">
        <ele>411</ele>
        <time>2013-04-13T14:39:13Z</time>
      </trkpt>
      <trkpt lat="43.43083" lon="5.99289">
        <ele>411</ele>
        <time>2013-04-13T14:39:16Z</time>
      </trkpt>
      <trkpt lat="43.4308" lon="5.99295">
        <ele>411</ele>
        <time>2013-04-13T14:39:20Z</time>
      </trkpt>
      <trkpt lat="43.43077" lon="5.99297">
        <ele>411</ele>
        <time>2013-04-13T14:39:22Z</time>
      </trkpt>
      <trkpt lat="43.43074" lon="5.99299">
        <ele>411</ele>
        <time>2013-04-13T14:39:25Z</time>
      </trkpt>
      <trkpt lat="43.43071" lon="5.993">
        <ele>411</ele>
        <time>2013-04-13T14:39:28Z</time>
      </trkpt>
      <trkpt lat="43.43064" lon="5.99302">
        <ele>411</ele>
        <time>2013-04-13T14:39:33Z</time>
      </trkpt>
      <trkpt lat="43.43059" lon="5.99304">
        <ele>411</ele>
        <time>2013-04-13T14:39:38Z</time>
      </trkpt>
      <trkpt lat="43.43054" lon="5.99306">
        <ele>413</ele>
        <time>2013-04-13T14:39:43Z</time>
      </trkpt>
      <trkpt lat="43.43053" lon="5.99306">
        <ele>413</ele>
        <time>2013-04-13T14:39:44Z</time>
      </trkpt>
      <trkpt lat="43.4305" lon="5.99311">
        <ele>413</ele>
        <time>2013-04-13T14:39:49Z</time>
      </trkpt>
      <trkpt lat="43.4305" lon="5.99313">
        <ele>413</ele>
        <time>2013-04-13T14:39:50Z</time>
      </trkpt>
      <trkpt lat="43.43048" lon="5.99322">
        <ele>413</ele>
        <time>2013-04-13T14:39:56Z</time>
      </trkpt>
      <trkpt lat="43.43048" lon="5.99336">
        <ele>413</ele>
        <time>2013-04-13T14:40:06Z</time>
      </trkpt>
      <trkpt lat="43.43046" lon="5.99344">
        <ele>413</ele>
        <time>2013-04-13T14:40:11Z</time>
      </trkpt>
      <trkpt lat="43.43046" lon="5.99349">
        <ele>413</ele>
        <time>2013-04-13T14:40:14Z</time>
      </trkpt>
      <trkpt lat="43.43041" lon="5.9938">
        <ele>415.20001220703</ele>
        <time>2013-04-13T14:40:34Z</time>
      </trkpt>
      <trkpt lat="43.4304" lon="5.9939">
        <ele>416</ele>
        <time>2013-04-13T14:40:41Z</time>
      </trkpt>
      <trkpt lat="43.43038" lon="5.99404">
        <ele>417.20001220703</ele>
        <time>2013-04-13T14:40:52Z</time>
      </trkpt>
      <trkpt lat="43.43037" lon="5.99413">
        <ele>417.20001220703</ele>
        <time>2013-04-13T14:40:58Z</time>
      </trkpt>
      <trkpt lat="43.43036" lon="5.99419">
        <ele>417.20001220703</ele>
        <time>2013-04-13T14:41:04Z</time>
      </trkpt>
      <trkpt lat="43.43034" lon="5.99427">
        <ele>417.20001220703</ele>
        <time>2013-04-13T14:41:10Z</time>
      </trkpt>
      <trkpt lat="43.43035" lon="5.99436">
        <ele>419</ele>
        <time>2013-04-13T14:41:15Z</time>
      </trkpt>
      <trkpt lat="43.43035" lon="5.99439">
        <ele>419.39999389648</ele>
        <time>2013-04-13T14:41:17Z</time>
      </trkpt>
      <trkpt lat="43.43034" lon="5.9944">
        <ele>419.39999389648</ele>
        <time>2013-04-13T14:41:18Z</time>
      </trkpt>
      <trkpt lat="43.43033" lon="5.99446">
        <ele>419.39999389648</ele>
        <time>2013-04-13T14:41:23Z</time>
      </trkpt>
      <trkpt lat="43.43031" lon="5.99459">
        <ele>419.39999389648</ele>
        <time>2013-04-13T14:41:32Z</time>
      </trkpt>
      <trkpt lat="43.43029" lon="5.99465">
        <ele>419.79998779297</ele>
        <time>2013-04-13T14:41:37Z</time>
      </trkpt>
      <trkpt lat="43.43028" lon="5.9947">
        <ele>421</ele>
        <time>2013-04-13T14:41:40Z</time>
      </trkpt>
      <trkpt lat="43.43028" lon="5.99473">
        <ele>421.39999389648</ele>
        <time>2013-04-13T14:41:42Z</time>
      </trkpt>
      <trkpt lat="43.43025" lon="5.99481">
        <ele>421.39999389648</ele>
        <time>2013-04-13T14:41:47Z</time>
      </trkpt>
      <trkpt lat="43.43025" lon="5.99482">
        <ele>421.39999389648</ele>
        <time>2013-04-13T14:41:48Z</time>
      </trkpt>
      <trkpt lat="43.43025" lon="5.99484">
        <ele>421.39999389648</ele>
        <time>2013-04-13T14:41:53Z</time>
      </trkpt>
      <trkpt lat="43.43025" lon="5.99484">
        <ele>421.39999389648</ele>
        <time>2013-04-13T14:42:18Z</time>
      </trkpt>
      <trkpt lat="43.43025" lon="5.99484">
        <ele>423.60000610352</ele>
        <time>2013-04-13T14:43:14Z</time>
      </trkpt>
      <trkpt lat="43.43025" lon="5.99484">
        <ele>423.60000610352</ele>
        <time>2013-04-13T14:43:31Z</time>
      </trkpt>
      <trkpt lat="43.43025" lon="5.99487">
        <ele>423.60000610352</ele>
        <time>2013-04-13T14:43:39Z</time>
      </trkpt>
      <trkpt lat="43.43024" lon="5.99498">
        <ele>423.60000610352</ele>
        <time>2013-04-13T14:43:44Z</time>
      </trkpt>
      <trkpt lat="43.43024" lon="5.99499">
        <ele>423.60000610352</ele>
        <time>2013-04-13T14:43:45Z</time>
      </trkpt>
      <trkpt lat="43.43022" lon="5.99505">
        <ele>423.60000610352</ele>
        <time>2013-04-13T14:43:48Z</time>
      </trkpt>
      <trkpt lat="43.43019" lon="5.9951">
        <ele>423.60000610352</ele>
        <time>2013-04-13T14:43:51Z</time>
      </trkpt>
      <trkpt lat="43.43019" lon="5.99513">
        <ele>423.60000610352</ele>
        <time>2013-04-13T14:43:53Z</time>
      </trkpt>
      <trkpt lat="43.43017" lon="5.9952">
        <ele>425.20001220703</ele>
        <time>2013-04-13T14:43:57Z</time>
      </trkpt>
      <trkpt lat="43.43015" lon="5.99527">
        <ele>425.60000610352</ele>
        <time>2013-04-13T14:44:01Z</time>
      </trkpt>
      <trkpt lat="43.43011" lon="5.99537">
        <ele>425.60000610352</ele>
        <time>2013-04-13T14:44:07Z</time>
      </trkpt>
      <trkpt lat="43.43007" lon="5.99546">
        <ele>425.60000610352</ele>
        <time>2013-04-13T14:44:12Z</time>
      </trkpt>
      <trkpt lat="43.43003" lon="5.99552">
        <ele>425.60000610352</ele>
        <time>2013-04-13T14:44:17Z</time>
      </trkpt>
      <trkpt lat="43.43003" lon="5.99556">
        <ele>425.60000610352</ele>
        <time>2013-04-13T14:44:19Z</time>
      </trkpt>
      <trkpt lat="43.43001" lon="5.99566">
        <ele>425.60000610352</ele>
        <time>2013-04-13T14:44:24Z</time>
      </trkpt>
      <trkpt lat="43.42994" lon="5.9958">
        <ele>425.60000610352</ele>
        <time>2013-04-13T14:44:31Z</time>
      </trkpt>
      <trkpt lat="43.42994" lon="5.99584">
        <ele>425.60000610352</ele>
        <time>2013-04-13T14:44:33Z</time>
      </trkpt>
      <trkpt lat="43.4299" lon="5.99593">
        <ele>425.60000610352</ele>
        <time>2013-04-13T14:44:37Z</time>
      </trkpt>
      <trkpt lat="43.4299" lon="5.99598">
        <ele>425.60000610352</ele>
        <time>2013-04-13T14:44:39Z</time>
      </trkpt>
      <trkpt lat="43.42986" lon="5.99612">
        <ele>425.60000610352</ele>
        <time>2013-04-13T14:44:45Z</time>
      </trkpt>
      <trkpt lat="43.42984" lon="5.99622">
        <ele>425.60000610352</ele>
        <time>2013-04-13T14:44:48Z</time>
      </trkpt>
      <trkpt lat="43.42982" lon="5.99643">
        <ele>425.20001220703</ele>
        <time>2013-04-13T14:44:55Z</time>
      </trkpt>
      <trkpt lat="43.42982" lon="5.99653">
        <ele>423.79998779297</ele>
        <time>2013-04-13T14:44:58Z</time>
      </trkpt>
      <trkpt lat="43.42981" lon="5.99656">
        <ele>423.39999389648</ele>
        <time>2013-04-13T14:44:59Z</time>
      </trkpt>
      <trkpt lat="43.42978" lon="5.9966">
        <ele>423.39999389648</ele>
        <time>2013-04-13T14:45:01Z</time>
      </trkpt>
      <trkpt lat="43.42976" lon="5.99669">
        <ele>423.39999389648</ele>
        <time>2013-04-13T14:45:04Z</time>
      </trkpt>
      <trkpt lat="43.42974" lon="5.99681">
        <ele>423.39999389648</ele>
        <time>2013-04-13T14:45:07Z</time>
      </trkpt>
      <trkpt lat="43.42973" lon="5.99688">
        <ele>423</ele>
        <time>2013-04-13T14:45:09Z</time>
      </trkpt>
      <trkpt lat="43.42972" lon="5.99692">
        <ele>422.60000610352</ele>
        <time>2013-04-13T14:45:10Z</time>
      </trkpt>
      <trkpt lat="43.42972" lon="5.99696">
        <ele>422.20001220703</ele>
        <time>2013-04-13T14:45:11Z</time>
      </trkpt>
      <trkpt lat="43.42971" lon="5.997">
        <ele>421.79998779297</ele>
        <time>2013-04-13T14:45:12Z</time>
      </trkpt>
      <trkpt lat="43.4297" lon="5.99705">
        <ele>421.39999389648</ele>
        <time>2013-04-13T14:45:13Z</time>
      </trkpt>
      <trkpt lat="43.42968" lon="5.99725">
        <ele>421.39999389648</ele>
        <time>2013-04-13T14:45:18Z</time>
      </trkpt>
      <trkpt lat="43.42966" lon="5.99736">
        <ele>420.20001220703</ele>
        <time>2013-04-13T14:45:22Z</time>
      </trkpt>
      <trkpt lat="43.42965" lon="5.99738">
        <ele>419.79998779297</ele>
        <time>2013-04-13T14:45:23Z</time>
      </trkpt>
      <trkpt lat="43.42965" lon="5.99741">
        <ele>419.39999389648</ele>
        <time>2013-04-13T14:45:24Z</time>
      </trkpt>
      <trkpt lat="43.42968" lon="5.99752">
        <ele>419.39999389648</ele>
        <time>2013-04-13T14:45:29Z</time>
      </trkpt>
      <trkpt lat="43.42972" lon="5.99753">
        <ele>419.39999389648</ele>
        <time>2013-04-13T14:45:32Z</time>
      </trkpt>
      <trkpt lat="43.42976" lon="5.99756">
        <ele>419.39999389648</ele>
        <time>2013-04-13T14:45:35Z</time>
      </trkpt>
      <trkpt lat="43.42989" lon="5.9976">
        <ele>418.60000610352</ele>
        <time>2013-04-13T14:45:43Z</time>
      </trkpt>
      <trkpt lat="43.42992" lon="5.9976">
        <ele>417.60000610352</ele>
        <time>2013-04-13T14:45:45Z</time>
      </trkpt>
      <trkpt lat="43.42992" lon="5.9976">
        <ele>417.20001220703</ele>
        <time>2013-04-13T14:45:46Z</time>
      </trkpt>
      <trkpt lat="43.42994" lon="5.9976">
        <ele>417.20001220703</ele>
        <time>2013-04-13T14:45:47Z</time>
      </trkpt>
      <trkpt lat="43.42999" lon="5.99758">
        <ele>417.20001220703</ele>
        <time>2013-04-13T14:45:50Z</time>
      </trkpt>
      <trkpt lat="43.43" lon="5.99758">
        <ele>417.20001220703</ele>
        <time>2013-04-13T14:45:52Z</time>
      </trkpt>
      <trkpt lat="43.43002" lon="5.99757">
        <ele>417.20001220703</ele>
        <time>2013-04-13T14:45:54Z</time>
      </trkpt>
      <trkpt lat="43.4301" lon="5.9976">
        <ele>417.20001220703</ele>
        <time>2013-04-13T14:45:59Z</time>
      </trkpt>
      <trkpt lat="43.4302" lon="5.99765">
        <ele>417.20001220703</ele>
        <time>2013-04-13T14:46:05Z</time>
      </trkpt>
      <trkpt lat="43.43024" lon="5.99784">
        <ele>417.20001220703</ele>
        <time>2013-04-13T14:46:10Z</time>
      </trkpt>
      <trkpt lat="43.43025" lon="5.99799">
        <ele>417.20001220703</ele>
        <time>2013-04-13T14:46:15Z</time>
      </trkpt>
      <trkpt lat="43.43024" lon="5.99818">
        <ele>416.20001220703</ele>
        <time>2013-04-13T14:46:20Z</time>
      </trkpt>
      <trkpt lat="43.43024" lon="5.99829">
        <ele>415.39999389648</ele>
        <time>2013-04-13T14:46:22Z</time>
      </trkpt>
      <trkpt lat="43.43025" lon="5.99842">
        <ele>414.60000610352</ele>
        <time>2013-04-13T14:46:24Z</time>
      </trkpt>
      <trkpt lat="43.43026" lon="5.99852">
        <ele>413.60000610352</ele>
        <time>2013-04-13T14:46:26Z</time>
      </trkpt>
      <trkpt lat="43.43027" lon="5.99857">
        <ele>413.20001220703</ele>
        <time>2013-04-13T14:46:27Z</time>
      </trkpt>
      <trkpt lat="43.43027" lon="5.99862">
        <ele>412.79998779297</ele>
        <time>2013-04-13T14:46:28Z</time>
      </trkpt>
      <trkpt lat="43.43029" lon="5.99876">
        <ele>412.79998779297</ele>
        <time>2013-04-13T14:46:31Z</time>
      </trkpt>
      <trkpt lat="43.43033" lon="5.999">
        <ele>412</ele>
        <time>2013-04-13T14:46:36Z</time>
      </trkpt>
      <trkpt lat="43.43033" lon="5.99904">
        <ele>411.60000610352</ele>
        <time>2013-04-13T14:46:37Z</time>
      </trkpt>
      <trkpt lat="43.43032" lon="5.99914">
        <ele>410.79998779297</ele>
        <time>2013-04-13T14:46:39Z</time>
      </trkpt>
      <trkpt lat="43.43032" lon="5.99922">
        <ele>410.79998779297</ele>
        <time>2013-04-13T14:46:41Z</time>
      </trkpt>
      <trkpt lat="43.43031" lon="5.99929">
        <ele>410</ele>
        <time>2013-04-13T14:46:43Z</time>
      </trkpt>
      <trkpt lat="43.4303" lon="5.99933">
        <ele>409.60000610352</ele>
        <time>2013-04-13T14:46:44Z</time>
      </trkpt>
      <trkpt lat="43.43029" lon="5.99937">
        <ele>408.79998779297</ele>
        <time>2013-04-13T14:46:45Z</time>
      </trkpt>
      <trkpt lat="43.43025" lon="5.99945">
        <ele>407.79998779297</ele>
        <time>2013-04-13T14:46:47Z</time>
      </trkpt>
      <trkpt lat="43.43021" lon="5.99956">
        <ele>406.39999389648</ele>
        <time>2013-04-13T14:46:50Z</time>
      </trkpt>
      <trkpt lat="43.43023" lon="5.99962">
        <ele>405.20001220703</ele>
        <time>2013-04-13T14:46:52Z</time>
      </trkpt>
      <trkpt lat="43.43024" lon="5.99965">
        <ele>404.60000610352</ele>
        <time>2013-04-13T14:46:53Z</time>
      </trkpt>
      <trkpt lat="43.43029" lon="5.99971">
        <ele>404</ele>
        <time>2013-04-13T14:46:56Z</time>
      </trkpt>
      <trkpt lat="43.43036" lon="5.99979">
        <ele>404</ele>
        <time>2013-04-13T14:46:59Z</time>
      </trkpt>
      <trkpt lat="43.43047" lon="5.99991">
        <ele>403.60000610352</ele>
        <time>2013-04-13T14:47:05Z</time>
      </trkpt>
      <trkpt lat="43.43047" lon="5.99995">
        <ele>403.20001220703</ele>
        <time>2013-04-13T14:47:06Z</time>
      </trkpt>
      <trkpt lat="43.43048" lon="5.99998">
        <ele>402.79998779297</ele>
        <time>2013-04-13T14:47:07Z</time>
      </trkpt>
      <trkpt lat="43.43048" lon="6.00001">
        <ele>402.39999389648</ele>
        <time>2013-04-13T14:47:08Z</time>
      </trkpt>
      <trkpt lat="43.43047" lon="6.00004">
        <ele>402</ele>
        <time>2013-04-13T14:47:09Z</time>
      </trkpt>
      <trkpt lat="43.43049" lon="6.00018">
        <ele>401.20001220703</ele>
        <time>2013-04-13T14:47:15Z</time>
      </trkpt>
      <trkpt lat="43.43048" lon="6.00018">
        <ele>400.79998779297</ele>
        <time>2013-04-13T14:47:16Z</time>
      </trkpt>
      <trkpt lat="43.43048" lon="6.00018">
        <ele>400</ele>
        <time>2013-04-13T14:47:29Z</time>
      </trkpt>
      <trkpt lat="43.43048" lon="6.0002">
        <ele>400</ele>
        <time>2013-04-13T14:47:34Z</time>
      </trkpt>
      <trkpt lat="43.43048" lon="6.00025">
        <ele>400</ele>
        <time>2013-04-13T14:47:36Z</time>
      </trkpt>
      <trkpt lat="43.43047" lon="6.00033">
        <ele>400</ele>
        <time>2013-04-13T14:47:41Z</time>
      </trkpt>
      <trkpt lat="43.43047" lon="6.00035">
        <ele>400</ele>
        <time>2013-04-13T14:47:42Z</time>
      </trkpt>
      <trkpt lat="43.43047" lon="6.0004">
        <ele>400</ele>
        <time>2013-04-13T14:47:47Z</time>
      </trkpt>
      <trkpt lat="43.43047" lon="6.0004">
        <ele>400</ele>
        <time>2013-04-13T14:48:11Z</time>
      </trkpt>
      <trkpt lat="43.43047" lon="6.0004">
        <ele>400</ele>
        <time>2013-04-13T14:48:49Z</time>
      </trkpt>
      <trkpt lat="43.43047" lon="6.0004">
        <ele>400</ele>
        <time>2013-04-13T14:48:59Z</time>
      </trkpt>
      <trkpt lat="43.43047" lon="6.0004">
        <ele>400</ele>
        <time>2013-04-13T14:49:07Z</time>
      </trkpt>
      <trkpt lat="43.43047" lon="6.0004">
        <ele>400</ele>
        <time>2013-04-13T14:49:14Z</time>
      </trkpt>
      <trkpt lat="43.43047" lon="6.00045">
        <ele>400</ele>
        <time>2013-04-13T14:49:17Z</time>
      </trkpt>
      <trkpt lat="43.43048" lon="6.00056">
        <ele>400</ele>
        <time>2013-04-13T14:49:22Z</time>
      </trkpt>
      <trkpt lat="43.43048" lon="6.0006">
        <ele>400</ele>
        <time>2013-04-13T14:49:24Z</time>
      </trkpt>
      <trkpt lat="43.4305" lon="6.00074">
        <ele>400</ele>
        <time>2013-04-13T14:49:31Z</time>
      </trkpt>
      <trkpt lat="43.4305" lon="6.00082">
        <ele>400</ele>
        <time>2013-04-13T14:49:35Z</time>
      </trkpt>
      <trkpt lat="43.43051" lon="6.0009">
        <ele>400</ele>
        <time>2013-04-13T14:49:38Z</time>
      </trkpt>
      <trkpt lat="43.4305" lon="6.00103">
        <ele>400</ele>
        <time>2013-04-13T14:49:43Z</time>
      </trkpt>
      <trkpt lat="43.4305" lon="6.00109">
        <ele>400</ele>
        <time>2013-04-13T14:49:45Z</time>
      </trkpt>
      <trkpt lat="43.4305" lon="6.00122">
        <ele>400</ele>
        <time>2013-04-13T14:49:50Z</time>
      </trkpt>
      <trkpt lat="43.4305" lon="6.00124">
        <ele>400</ele>
        <time>2013-04-13T14:49:51Z</time>
      </trkpt>
      <trkpt lat="43.4305" lon="6.00133">
        <ele>400</ele>
        <time>2013-04-13T14:49:54Z</time>
      </trkpt>
      <trkpt lat="43.43051" lon="6.00141">
        <ele>400</ele>
        <time>2013-04-13T14:49:57Z</time>
      </trkpt>
      <trkpt lat="43.43053" lon="6.00154">
        <ele>400</ele>
        <time>2013-04-13T14:50:03Z</time>
      </trkpt>
      <trkpt lat="43.43052" lon="6.00167">
        <ele>400</ele>
        <time>2013-04-13T14:50:07Z</time>
      </trkpt>
      <trkpt lat="43.43045" lon="6.00175">
        <ele>400</ele>
        <time>2013-04-13T14:50:12Z</time>
      </trkpt>
      <trkpt lat="43.43034" lon="6.00178">
        <ele>400</ele>
        <time>2013-04-13T14:50:18Z</time>
      </trkpt>
      <trkpt lat="43.43024" lon="6.00183">
        <ele>400</ele>
        <time>2013-04-13T14:50:24Z</time>
      </trkpt>
      <trkpt lat="43.43016" lon="6.00191">
        <ele>400</ele>
        <time>2013-04-13T14:50:30Z</time>
      </trkpt>
      <trkpt lat="43.4301" lon="6.00196">
        <ele>400</ele>
        <time>2013-04-13T14:50:34Z</time>
      </trkpt>
      <trkpt lat="43.43001" lon="6.00202">
        <ele>400</ele>
        <time>2013-04-13T14:50:40Z</time>
      </trkpt>
      <trkpt lat="43.4299" lon="6.00212">
        <ele>400</ele>
        <time>2013-04-13T14:50:47Z</time>
      </trkpt>
      <trkpt lat="43.42988" lon="6.00215">
        <ele>400.39999389648</ele>
        <time>2013-04-13T14:50:49Z</time>
      </trkpt>
      <trkpt lat="43.42986" lon="6.00218">
        <ele>401.60000610352</ele>
        <time>2013-04-13T14:50:51Z</time>
      </trkpt>
      <trkpt lat="43.42985" lon="6.0022">
        <ele>402.20001220703</ele>
        <time>2013-04-13T14:50:53Z</time>
      </trkpt>
      <trkpt lat="43.42985" lon="6.00222">
        <ele>402.20001220703</ele>
        <time>2013-04-13T14:50:54Z</time>
      </trkpt>
      <trkpt lat="43.42978" lon="6.00241">
        <ele>402.60000610352</ele>
        <time>2013-04-13T14:51:05Z</time>
      </trkpt>
      <trkpt lat="43.42974" lon="6.00255">
        <ele>404.20001220703</ele>
        <time>2013-04-13T14:51:13Z</time>
      </trkpt>
      <trkpt lat="43.42973" lon="6.00262">
        <ele>404.60000610352</ele>
        <time>2013-04-13T14:51:17Z</time>
      </trkpt>
      <trkpt lat="43.42972" lon="6.0027">
        <ele>406.20001220703</ele>
        <time>2013-04-13T14:51:22Z</time>
      </trkpt>
      <trkpt lat="43.42969" lon="6.0028">
        <ele>406.20001220703</ele>
        <time>2013-04-13T14:51:28Z</time>
      </trkpt>
      <trkpt lat="43.42969" lon="6.00284">
        <ele>406.60000610352</ele>
        <time>2013-04-13T14:51:30Z</time>
      </trkpt>
      <trkpt lat="43.42969" lon="6.00291">
        <ele>408.39999389648</ele>
        <time>2013-04-13T14:51:34Z</time>
      </trkpt>
      <trkpt lat="43.42968" lon="6.00292">
        <ele>408.39999389648</ele>
        <time>2013-04-13T14:51:35Z</time>
      </trkpt>
      <trkpt lat="43.42966" lon="6.00298">
        <ele>408.39999389648</ele>
        <time>2013-04-13T14:51:39Z</time>
      </trkpt>
      <trkpt lat="43.42965" lon="6.00304">
        <ele>409.20001220703</ele>
        <time>2013-04-13T14:51:42Z</time>
      </trkpt>
      <trkpt lat="43.42964" lon="6.00309">
        <ele>410.39999389648</ele>
        <time>2013-04-13T14:51:45Z</time>
      </trkpt>
      <trkpt lat="43.42964" lon="6.00312">
        <ele>410.39999389648</ele>
        <time>2013-04-13T14:51:47Z</time>
      </trkpt>
      <trkpt lat="43.42965" lon="6.00316">
        <ele>410.39999389648</ele>
        <time>2013-04-13T14:51:49Z</time>
      </trkpt>
      <trkpt lat="43.42964" lon="6.00323">
        <ele>410.39999389648</ele>
        <time>2013-04-13T14:51:53Z</time>
      </trkpt>
      <trkpt lat="43.42964" lon="6.00324">
        <ele>410.39999389648</ele>
        <time>2013-04-13T14:51:54Z</time>
      </trkpt>
      <trkpt lat="43.42965" lon="6.00324">
        <ele>410.39999389648</ele>
        <time>2013-04-13T14:51:59Z</time>
      </trkpt>
      <trkpt lat="43.42965" lon="6.00324">
        <ele>410.39999389648</ele>
        <time>2013-04-13T14:52:16Z</time>
      </trkpt>
      <trkpt lat="43.42965" lon="6.00324">
        <ele>410.39999389648</ele>
        <time>2013-04-13T14:52:41Z</time>
      </trkpt>
      <trkpt lat="43.42965" lon="6.00324">
        <ele>410.39999389648</ele>
        <time>2013-04-13T14:52:47Z</time>
      </trkpt>
      <trkpt lat="43.42965" lon="6.00324">
        <ele>410.39999389648</ele>
        <time>2013-04-13T14:52:52Z</time>
      </trkpt>
      <trkpt lat="43.42965" lon="6.00325">
        <ele>410.39999389648</ele>
        <time>2013-04-13T14:52:54Z</time>
      </trkpt>
      <trkpt lat="43.42965" lon="6.00325">
        <ele>410.39999389648</ele>
        <time>2013-04-13T14:53:15Z</time>
      </trkpt>
      <trkpt lat="43.42965" lon="6.00325">
        <ele>410.39999389648</ele>
        <time>2013-04-13T14:53:45Z</time>
      </trkpt>
      <trkpt lat="43.42965" lon="6.00325">
        <ele>410.39999389648</ele>
        <time>2013-04-13T14:54:09Z</time>
      </trkpt>
      <trkpt lat="43.42965" lon="6.00325">
        <ele>410.39999389648</ele>
        <time>2013-04-13T14:54:27Z</time>
      </trkpt>
      <trkpt lat="43.42965" lon="6.00326">
        <ele>410.39999389648</ele>
        <time>2013-04-13T14:54:39Z</time>
      </trkpt>
      <trkpt lat="43.42965" lon="6.00326">
        <ele>410.39999389648</ele>
        <time>2013-04-13T14:54:43Z</time>
      </trkpt>
      <trkpt lat="43.42964" lon="6.00328">
        <ele>411.20001220703</ele>
        <time>2013-04-13T14:54:49Z</time>
      </trkpt>
      <trkpt lat="43.42964" lon="6.00329">
        <ele>411.60000610352</ele>
        <time>2013-04-13T14:54:50Z</time>
      </trkpt>
      <trkpt lat="43.42963" lon="6.00332">
        <ele>412.39999389648</ele>
        <time>2013-04-13T14:54:53Z</time>
      </trkpt>
      <trkpt lat="43.42964" lon="6.00332">
        <ele>412.39999389648</ele>
        <time>2013-04-13T14:54:57Z</time>
      </trkpt>
      <trkpt lat="43.42964" lon="6.00332">
        <ele>412.39999389648</ele>
        <time>2013-04-13T14:55:01Z</time>
      </trkpt>
      <trkpt lat="43.42963" lon="6.00332">
        <ele>412.39999389648</ele>
        <time>2013-04-13T14:55:06Z</time>
      </trkpt>
      <trkpt lat="43.42963" lon="6.00332">
        <ele>412.39999389648</ele>
        <time>2013-04-13T14:55:07Z</time>
      </trkpt>
      <trkpt lat="43.42963" lon="6.00335">
        <ele>412.39999389648</ele>
        <time>2013-04-13T14:55:13Z</time>
      </trkpt>
      <trkpt lat="43.42963" lon="6.00337">
        <ele>412.39999389648</ele>
        <time>2013-04-13T14:55:15Z</time>
      </trkpt>
      <trkpt lat="43.42961" lon="6.00343">
        <ele>412.39999389648</ele>
        <time>2013-04-13T14:55:19Z</time>
      </trkpt>
      <trkpt lat="43.4296" lon="6.00345">
        <ele>412.39999389648</ele>
        <time>2013-04-13T14:55:20Z</time>
      </trkpt>
      <trkpt lat="43.4296" lon="6.00347">
        <ele>412.39999389648</ele>
        <time>2013-04-13T14:55:22Z</time>
      </trkpt>
      <trkpt lat="43.42958" lon="6.00351">
        <ele>412.39999389648</ele>
        <time>2013-04-13T14:55:25Z</time>
      </trkpt>
      <trkpt lat="43.42955" lon="6.00354">
        <ele>412.39999389648</ele>
        <time>2013-04-13T14:55:28Z</time>
      </trkpt>
      <trkpt lat="43.42952" lon="6.00356">
        <ele>412.39999389648</ele>
        <time>2013-04-13T14:55:31Z</time>
      </trkpt>
      <trkpt lat="43.4295" lon="6.00357">
        <ele>413.79998779297</ele>
        <time>2013-04-13T14:55:34Z</time>
      </trkpt>
      <trkpt lat="43.42946" lon="6.00359">
        <ele>414.60000610352</ele>
        <time>2013-04-13T14:55:37Z</time>
      </trkpt>
      <trkpt lat="43.42941" lon="6.00363">
        <ele>414.60000610352</ele>
        <time>2013-04-13T14:55:41Z</time>
      </trkpt>
      <trkpt lat="43.42938" lon="6.00365">
        <ele>414.60000610352</ele>
        <time>2013-04-13T14:55:44Z</time>
      </trkpt>
      <trkpt lat="43.42934" lon="6.0037">
        <ele>416</ele>
        <time>2013-04-13T14:55:48Z</time>
      </trkpt>
      <trkpt lat="43.42933" lon="6.00371">
        <ele>416.39999389648</ele>
        <time>2013-04-13T14:55:49Z</time>
      </trkpt>
      <trkpt lat="43.42931" lon="6.00373">
        <ele>416.79998779297</ele>
        <time>2013-04-13T14:55:50Z</time>
      </trkpt>
      <trkpt lat="43.42927" lon="6.00377">
        <ele>416.79998779297</ele>
        <time>2013-04-13T14:55:52Z</time>
      </trkpt>
      <trkpt lat="43.42925" lon="6.00379">
        <ele>417.20001220703</ele>
        <time>2013-04-13T14:55:53Z</time>
      </trkpt>
      <trkpt lat="43.42924" lon="6.00381">
        <ele>417.60000610352</ele>
        <time>2013-04-13T14:55:54Z</time>
      </trkpt>
      <trkpt lat="43.4292" lon="6.00384">
        <ele>418.39999389648</ele>
        <time>2013-04-13T14:55:56Z</time>
      </trkpt>
      <trkpt lat="43.42919" lon="6.00384">
        <ele>418.79998779297</ele>
        <time>2013-04-13T14:55:57Z</time>
      </trkpt>
      <trkpt lat="43.42916" lon="6.00386">
        <ele>419.39999389648</ele>
        <time>2013-04-13T14:55:59Z</time>
      </trkpt>
      <trkpt lat="43.42915" lon="6.00387">
        <ele>420.20001220703</ele>
        <time>2013-04-13T14:56:01Z</time>
      </trkpt>
      <trkpt lat="43.42913" lon="6.00389">
        <ele>421</ele>
        <time>2013-04-13T14:56:03Z</time>
      </trkpt>
      <trkpt lat="43.4291" lon="6.00393">
        <ele>421</ele>
        <time>2013-04-13T14:56:08Z</time>
      </trkpt>
      <trkpt lat="43.42908" lon="6.004">
        <ele>421</ele>
        <time>2013-04-13T14:56:14Z</time>
      </trkpt>
      <trkpt lat="43.42909" lon="6.00401">
        <ele>421</ele>
        <time>2013-04-13T14:56:17Z</time>
      </trkpt>
      <trkpt lat="43.42909" lon="6.00401">
        <ele>421</ele>
        <time>2013-04-13T14:56:36Z</time>
      </trkpt>
      <trkpt lat="43.42909" lon="6.00401">
        <ele>421</ele>
        <time>2013-04-13T14:56:56Z</time>
      </trkpt>
      <trkpt lat="43.42909" lon="6.00401">
        <ele>421</ele>
        <time>2013-04-13T14:57:02Z</time>
      </trkpt>
      <trkpt lat="43.42909" lon="6.00401">
        <ele>421</ele>
        <time>2013-04-13T14:57:22Z</time>
      </trkpt>
      <trkpt lat="43.42909" lon="6.00401">
        <ele>421</ele>
        <time>2013-04-13T14:57:35Z</time>
      </trkpt>
      <trkpt lat="43.42909" lon="6.00405">
        <ele>421</ele>
        <time>2013-04-13T14:57:42Z</time>
      </trkpt>
      <trkpt lat="43.42912" lon="6.00421">
        <ele>421</ele>
        <time>2013-04-13T14:57:48Z</time>
      </trkpt>
      <trkpt lat="43.42909" lon="6.00435">
        <ele>421</ele>
        <time>2013-04-13T14:57:53Z</time>
      </trkpt>
      <trkpt lat="43.42909" lon="6.00437">
        <ele>421</ele>
        <time>2013-04-13T14:57:54Z</time>
      </trkpt>
      <trkpt lat="43.42905" lon="6.00447">
        <ele>421</ele>
        <time>2013-04-13T14:57:59Z</time>
      </trkpt>
      <trkpt lat="43.429" lon="6.00458">
        <ele>421</ele>
        <time>2013-04-13T14:58:04Z</time>
      </trkpt>
      <trkpt lat="43.42899" lon="6.00468">
        <ele>421</ele>
        <time>2013-04-13T14:58:09Z</time>
      </trkpt>
      <trkpt lat="43.42894" lon="6.00482">
        <ele>421</ele>
        <time>2013-04-13T14:58:15Z</time>
      </trkpt>
      <trkpt lat="43.42889" lon="6.00488">
        <ele>421</ele>
        <time>2013-04-13T14:58:19Z</time>
      </trkpt>
      <trkpt lat="43.42886" lon="6.00492">
        <ele>421</ele>
        <time>2013-04-13T14:58:21Z</time>
      </trkpt>
      <trkpt lat="43.42881" lon="6.00501">
        <ele>421</ele>
        <time>2013-04-13T14:58:26Z</time>
      </trkpt>
      <trkpt lat="43.4288" lon="6.00503">
        <ele>421</ele>
        <time>2013-04-13T14:58:27Z</time>
      </trkpt>
      <trkpt lat="43.4288" lon="6.00515">
        <ele>421</ele>
        <time>2013-04-13T14:58:33Z</time>
      </trkpt>
      <trkpt lat="43.42879" lon="6.00519">
        <ele>421</ele>
        <time>2013-04-13T14:58:34Z</time>
      </trkpt>
      <trkpt lat="43.4288" lon="6.00523">
        <ele>420.60000610352</ele>
        <time>2013-04-13T14:58:35Z</time>
      </trkpt>
      <trkpt lat="43.4288" lon="6.00536">
        <ele>419.60000610352</ele>
        <time>2013-04-13T14:58:37Z</time>
      </trkpt>
      <trkpt lat="43.4288" lon="6.00541">
        <ele>419</ele>
        <time>2013-04-13T14:58:38Z</time>
      </trkpt>
      <trkpt lat="43.42881" lon="6.00545">
        <ele>418.39999389648</ele>
        <time>2013-04-13T14:58:39Z</time>
      </trkpt>
      <trkpt lat="43.42879" lon="6.00549">
        <ele>417.60000610352</ele>
        <time>2013-04-13T14:58:40Z</time>
      </trkpt>
      <trkpt lat="43.42878" lon="6.00553">
        <ele>416.39999389648</ele>
        <time>2013-04-13T14:58:42Z</time>
      </trkpt>
      <trkpt lat="43.42877" lon="6.0056">
        <ele>415.79998779297</ele>
        <time>2013-04-13T14:58:45Z</time>
      </trkpt>
      <trkpt lat="43.42877" lon="6.00565">
        <ele>415</ele>
        <time>2013-04-13T14:58:47Z</time>
      </trkpt>
      <trkpt lat="43.42877" lon="6.00569">
        <ele>414.60000610352</ele>
        <time>2013-04-13T14:58:48Z</time>
      </trkpt>
      <trkpt lat="43.42877" lon="6.00573">
        <ele>414</ele>
        <time>2013-04-13T14:58:49Z</time>
      </trkpt>
      <trkpt lat="43.42878" lon="6.00583">
        <ele>413.60000610352</ele>
        <time>2013-04-13T14:58:51Z</time>
      </trkpt>
      <trkpt lat="43.42877" lon="6.00593">
        <ele>412.79998779297</ele>
        <time>2013-04-13T14:58:53Z</time>
      </trkpt>
      <trkpt lat="43.42875" lon="6.00596">
        <ele>412.20001220703</ele>
        <time>2013-04-13T14:58:54Z</time>
      </trkpt>
      <trkpt lat="43.42873" lon="6.006">
        <ele>411.79998779297</ele>
        <time>2013-04-13T14:58:55Z</time>
      </trkpt>
      <trkpt lat="43.42871" lon="6.00603">
        <ele>411.20001220703</ele>
        <time>2013-04-13T14:58:56Z</time>
      </trkpt>
      <trkpt lat="43.42871" lon="6.00607">
        <ele>410.79998779297</ele>
        <time>2013-04-13T14:58:57Z</time>
      </trkpt>
      <trkpt lat="43.42871" lon="6.00611">
        <ele>410.20001220703</ele>
        <time>2013-04-13T14:58:58Z</time>
      </trkpt>
      <trkpt lat="43.4287" lon="6.00624">
        <ele>408.60000610352</ele>
        <time>2013-04-13T14:59:01Z</time>
      </trkpt>
      <trkpt lat="43.42871" lon="6.00629">
        <ele>407.79998779297</ele>
        <time>2013-04-13T14:59:02Z</time>
      </trkpt>
      <trkpt lat="43.42868" lon="6.0064">
        <ele>405.60000610352</ele>
        <time>2013-04-13T14:59:05Z</time>
      </trkpt>
      <trkpt lat="43.42868" lon="6.00644">
        <ele>404.39999389648</ele>
        <time>2013-04-13T14:59:06Z</time>
      </trkpt>
      <trkpt lat="43.42867" lon="6.00649">
        <ele>403.79998779297</ele>
        <time>2013-04-13T14:59:07Z</time>
      </trkpt>
      <trkpt lat="43.42866" lon="6.00654">
        <ele>403.39999389648</ele>
        <time>2013-04-13T14:59:08Z</time>
      </trkpt>
      <trkpt lat="43.42865" lon="6.00659">
        <ele>402.79998779297</ele>
        <time>2013-04-13T14:59:09Z</time>
      </trkpt>
      <trkpt lat="43.42864" lon="6.00668">
        <ele>401.60000610352</ele>
        <time>2013-04-13T14:59:11Z</time>
      </trkpt>
      <trkpt lat="43.42862" lon="6.00673">
        <ele>401</ele>
        <time>2013-04-13T14:59:12Z</time>
      </trkpt>
      <trkpt lat="43.4286" lon="6.00677">
        <ele>400.39999389648</ele>
        <time>2013-04-13T14:59:13Z</time>
      </trkpt>
      <trkpt lat="43.42859" lon="6.00681">
        <ele>399.79998779297</ele>
        <time>2013-04-13T14:59:14Z</time>
      </trkpt>
      <trkpt lat="43.42858" lon="6.00685">
        <ele>399.20001220703</ele>
        <time>2013-04-13T14:59:15Z</time>
      </trkpt>
      <trkpt lat="43.42857" lon="6.00688">
        <ele>398.60000610352</ele>
        <time>2013-04-13T14:59:16Z</time>
      </trkpt>
      <trkpt lat="43.42857" lon="6.0069">
        <ele>398</ele>
        <time>2013-04-13T14:59:17Z</time>
      </trkpt>
      <trkpt lat="43.42855" lon="6.00694">
        <ele>398</ele>
        <time>2013-04-13T14:59:19Z</time>
      </trkpt>
      <trkpt lat="43.42855" lon="6.00697">
        <ele>397.39999389648</ele>
        <time>2013-04-13T14:59:21Z</time>
      </trkpt>
      <trkpt lat="43.42855" lon="6.00697">
        <ele>397</ele>
        <time>2013-04-13T14:59:22Z</time>
      </trkpt>
      <trkpt lat="43.42855" lon="6.00697">
        <ele>395.79998779297</ele>
        <time>2013-04-13T14:59:25Z</time>
      </trkpt>
      <trkpt lat="43.42854" lon="6.00702">
        <ele>395.79998779297</ele>
        <time>2013-04-13T14:59:29Z</time>
      </trkpt>
      <trkpt lat="43.42849" lon="6.00716">
        <ele>395.79998779297</ele>
        <time>2013-04-13T14:59:34Z</time>
      </trkpt>
      <trkpt lat="43.42846" lon="6.00727">
        <ele>395.79998779297</ele>
        <time>2013-04-13T14:59:39Z</time>
      </trkpt>
      <trkpt lat="43.42842" lon="6.00737">
        <ele>395.79998779297</ele>
        <time>2013-04-13T14:59:43Z</time>
      </trkpt>
      <trkpt lat="43.42842" lon="6.00741">
        <ele>395.20001220703</ele>
        <time>2013-04-13T14:59:44Z</time>
      </trkpt>
      <trkpt lat="43.4284" lon="6.00747">
        <ele>394.39999389648</ele>
        <time>2013-04-13T14:59:46Z</time>
      </trkpt>
      <trkpt lat="43.42839" lon="6.0075">
        <ele>394</ele>
        <time>2013-04-13T14:59:47Z</time>
      </trkpt>
      <trkpt lat="43.42839" lon="6.00754">
        <ele>393.60000610352</ele>
        <time>2013-04-13T14:59:48Z</time>
      </trkpt>
      <trkpt lat="43.42839" lon="6.00758">
        <ele>393.60000610352</ele>
        <time>2013-04-13T14:59:49Z</time>
      </trkpt>
      <trkpt lat="43.42837" lon="6.0076">
        <ele>393.60000610352</ele>
        <time>2013-04-13T14:59:50Z</time>
      </trkpt>
      <trkpt lat="43.42831" lon="6.00769">
        <ele>393.60000610352</ele>
        <time>2013-04-13T14:59:53Z</time>
      </trkpt>
      <trkpt lat="43.42821" lon="6.00778">
        <ele>393.60000610352</ele>
        <time>2013-04-13T14:59:58Z</time>
      </trkpt>
      <trkpt lat="43.42815" lon="6.0078">
        <ele>393.60000610352</ele>
        <time>2013-04-13T15:00:02Z</time>
      </trkpt>
      <trkpt lat="43.4281" lon="6.00778">
        <ele>393.60000610352</ele>
        <time>2013-04-13T15:00:05Z</time>
      </trkpt>
      <trkpt lat="43.42806" lon="6.00778">
        <ele>393.60000610352</ele>
        <time>2013-04-13T15:00:07Z</time>
      </trkpt>
      <trkpt lat="43.428" lon="6.00776">
        <ele>393.60000610352</ele>
        <time>2013-04-13T15:00:11Z</time>
      </trkpt>
      <trkpt lat="43.42797" lon="6.00776">
        <ele>393.60000610352</ele>
        <time>2013-04-13T15:00:13Z</time>
      </trkpt>
      <trkpt lat="43.42794" lon="6.00776">
        <ele>393.60000610352</ele>
        <time>2013-04-13T15:00:15Z</time>
      </trkpt>
      <trkpt lat="43.42791" lon="6.00776">
        <ele>394</ele>
        <time>2013-04-13T15:00:17Z</time>
      </trkpt>
      <trkpt lat="43.42788" lon="6.00774">
        <ele>395.20001220703</ele>
        <time>2013-04-13T15:00:19Z</time>
      </trkpt>
      <trkpt lat="43.42785" lon="6.00774">
        <ele>395.79998779297</ele>
        <time>2013-04-13T15:00:22Z</time>
      </trkpt>
      <trkpt lat="43.4278" lon="6.00772">
        <ele>397.20001220703</ele>
        <time>2013-04-13T15:00:26Z</time>
      </trkpt>
      <trkpt lat="43.42778" lon="6.00772">
        <ele>398</ele>
        <time>2013-04-13T15:00:28Z</time>
      </trkpt>
      <trkpt lat="43.42776" lon="6.0077">
        <ele>398</ele>
        <time>2013-04-13T15:00:31Z</time>
      </trkpt>
      <trkpt lat="43.4277" lon="6.00765">
        <ele>400.20001220703</ele>
        <time>2013-04-13T15:00:37Z</time>
      </trkpt>
      <trkpt lat="43.42767" lon="6.00762">
        <ele>400.20001220703</ele>
        <time>2013-04-13T15:00:41Z</time>
      </trkpt>
      <trkpt lat="43.42764" lon="6.00761">
        <ele>400.20001220703</ele>
        <time>2013-04-13T15:00:44Z</time>
      </trkpt>
      <trkpt lat="43.42762" lon="6.0076">
        <ele>400.20001220703</ele>
        <time>2013-04-13T15:00:47Z</time>
      </trkpt>
      <trkpt lat="43.42762" lon="6.0076">
        <ele>400.20001220703</ele>
        <time>2013-04-13T15:00:52Z</time>
      </trkpt>
      <trkpt lat="43.42762" lon="6.0076">
        <ele>400.20001220703</ele>
        <time>2013-04-13T15:00:55Z</time>
      </trkpt>
      <trkpt lat="43.42762" lon="6.0076">
        <ele>400.20001220703</ele>
        <time>2013-04-13T15:00:59Z</time>
      </trkpt>
      <trkpt lat="43.42762" lon="6.0076">
        <ele>402.39999389648</ele>
        <time>2013-04-13T15:01:14Z</time>
      </trkpt>
      <trkpt lat="43.42762" lon="6.0076">
        <ele>402.39999389648</ele>
        <time>2013-04-13T15:01:40Z</time>
      </trkpt>
      <trkpt lat="43.42762" lon="6.0076">
        <ele>402.39999389648</ele>
        <time>2013-04-13T15:01:59Z</time>
      </trkpt>
      <trkpt lat="43.42757" lon="6.00756">
        <ele>402.39999389648</ele>
        <time>2013-04-13T15:02:02Z</time>
      </trkpt>
      <trkpt lat="43.42756" lon="6.00754">
        <ele>402.39999389648</ele>
        <time>2013-04-13T15:02:03Z</time>
      </trkpt>
      <trkpt lat="43.42753" lon="6.00752">
        <ele>402.39999389648</ele>
        <time>2013-04-13T15:02:06Z</time>
      </trkpt>
      <trkpt lat="43.4275" lon="6.00751">
        <ele>402.39999389648</ele>
        <time>2013-04-13T15:02:09Z</time>
      </trkpt>
      <trkpt lat="43.42744" lon="6.0075">
        <ele>402.39999389648</ele>
        <time>2013-04-13T15:02:13Z</time>
      </trkpt>
      <trkpt lat="43.42743" lon="6.00749">
        <ele>402.39999389648</ele>
        <time>2013-04-13T15:02:15Z</time>
      </trkpt>
      <trkpt lat="43.42739" lon="6.00749">
        <ele>402.79998779297</ele>
        <time>2013-04-13T15:02:17Z</time>
      </trkpt>
      <trkpt lat="43.42735" lon="6.0075">
        <ele>404.39999389648</ele>
        <time>2013-04-13T15:02:21Z</time>
      </trkpt>
      <trkpt lat="43.42728" lon="6.00751">
        <ele>404.39999389648</ele>
        <time>2013-04-13T15:02:26Z</time>
      </trkpt>
      <trkpt lat="43.4272" lon="6.00751">
        <ele>404.39999389648</ele>
        <time>2013-04-13T15:02:32Z</time>
      </trkpt>
      <trkpt lat="43.42709" lon="6.00757">
        <ele>404.39999389648</ele>
        <time>2013-04-13T15:02:39Z</time>
      </trkpt>
      <trkpt lat="43.42702" lon="6.00768">
        <ele>404.39999389648</ele>
        <time>2013-04-13T15:02:45Z</time>
      </trkpt>
      <trkpt lat="43.42693" lon="6.00782">
        <ele>404.39999389648</ele>
        <time>2013-04-13T15:02:52Z</time>
      </trkpt>
      <trkpt lat="43.42682" lon="6.00789">
        <ele>404.39999389648</ele>
        <time>2013-04-13T15:02:59Z</time>
      </trkpt>
      <trkpt lat="43.42668" lon="6.00808">
        <ele>404.39999389648</ele>
        <time>2013-04-13T15:03:08Z</time>
      </trkpt>
      <trkpt lat="43.42661" lon="6.00813">
        <ele>404.39999389648</ele>
        <time>2013-04-13T15:03:12Z</time>
      </trkpt>
      <trkpt lat="43.42657" lon="6.00813">
        <ele>404.39999389648</ele>
        <time>2013-04-13T15:03:14Z</time>
      </trkpt>
      <trkpt lat="43.42654" lon="6.0081">
        <ele>404.39999389648</ele>
        <time>2013-04-13T15:03:16Z</time>
      </trkpt>
      <trkpt lat="43.42649" lon="6.00805">
        <ele>404.39999389648</ele>
        <time>2013-04-13T15:03:19Z</time>
      </trkpt>
      <trkpt lat="43.42645" lon="6.00804">
        <ele>404.39999389648</ele>
        <time>2013-04-13T15:03:22Z</time>
      </trkpt>
      <trkpt lat="43.42645" lon="6.00805">
        <ele>404.39999389648</ele>
        <time>2013-04-13T15:03:27Z</time>
      </trkpt>
      <trkpt lat="43.42645" lon="6.00805">
        <ele>404.39999389648</ele>
        <time>2013-04-13T15:03:40Z</time>
      </trkpt>
      <trkpt lat="43.42645" lon="6.00805">
        <ele>404.39999389648</ele>
        <time>2013-04-13T15:03:54Z</time>
      </trkpt>
      <trkpt lat="43.42641" lon="6.00811">
        <ele>404.39999389648</ele>
        <time>2013-04-13T15:04:01Z</time>
      </trkpt>
      <trkpt lat="43.4264" lon="6.00818">
        <ele>404.39999389648</ele>
        <time>2013-04-13T15:04:05Z</time>
      </trkpt>
      <trkpt lat="43.42639" lon="6.00821">
        <ele>404.39999389648</ele>
        <time>2013-04-13T15:04:07Z</time>
      </trkpt>
      <trkpt lat="43.42639" lon="6.00823">
        <ele>404.39999389648</ele>
        <time>2013-04-13T15:04:08Z</time>
      </trkpt>
      <trkpt lat="43.42636" lon="6.00829">
        <ele>404.39999389648</ele>
        <time>2013-04-13T15:04:11Z</time>
      </trkpt>
      <trkpt lat="43.42625" lon="6.00839">
        <ele>404.39999389648</ele>
        <time>2013-04-13T15:04:19Z</time>
      </trkpt>
      <trkpt lat="43.42618" lon="6.00853">
        <ele>405.20001220703</ele>
        <time>2013-04-13T15:04:25Z</time>
      </trkpt>
      <trkpt lat="43.42617" lon="6.00857">
        <ele>406</ele>
        <time>2013-04-13T15:04:27Z</time>
      </trkpt>
      <trkpt lat="43.42616" lon="6.0086">
        <ele>406.39999389648</ele>
        <time>2013-04-13T15:04:28Z</time>
      </trkpt>
      <trkpt lat="43.42611" lon="6.00906">
        <ele>406.39999389648</ele>
        <time>2013-04-13T15:04:43Z</time>
      </trkpt>
      <trkpt lat="43.42609" lon="6.00924">
        <ele>406.39999389648</ele>
        <time>2013-04-13T15:04:48Z</time>
      </trkpt>
      <trkpt lat="43.42605" lon="6.00945">
        <ele>406.39999389648</ele>
        <time>2013-04-13T15:04:54Z</time>
      </trkpt>
      <trkpt lat="43.42601" lon="6.0097">
        <ele>406.39999389648</ele>
        <time>2013-04-13T15:05:00Z</time>
      </trkpt>
      <trkpt lat="43.42597" lon="6.0099">
        <ele>406.39999389648</ele>
        <time>2013-04-13T15:05:05Z</time>
      </trkpt>
      <trkpt lat="43.42596" lon="6.01024">
        <ele>406</ele>
        <time>2013-04-13T15:05:11Z</time>
      </trkpt>
      <trkpt lat="43.42596" lon="6.01031">
        <ele>405.60000610352</ele>
        <time>2013-04-13T15:05:12Z</time>
      </trkpt>
      <trkpt lat="43.42596" lon="6.01038">
        <ele>404.79998779297</ele>
        <time>2013-04-13T15:05:13Z</time>
      </trkpt>
      <trkpt lat="43.42596" lon="6.01045">
        <ele>404.39999389648</ele>
        <time>2013-04-13T15:05:14Z</time>
      </trkpt>
      <trkpt lat="43.42599" lon="6.01066">
        <ele>404.39999389648</ele>
        <time>2013-04-13T15:05:17Z</time>
      </trkpt>
      <trkpt lat="43.42596" lon="6.01075">
        <ele>404.39999389648</ele>
        <time>2013-04-13T15:05:19Z</time>
      </trkpt>
      <trkpt lat="43.42594" lon="6.01077">
        <ele>404.39999389648</ele>
        <time>2013-04-13T15:05:20Z</time>
      </trkpt>
      <trkpt lat="43.42582" lon="6.01081">
        <ele>404.39999389648</ele>
        <time>2013-04-13T15:05:24Z</time>
      </trkpt>
      <trkpt lat="43.4258" lon="6.01084">
        <ele>404</ele>
        <time>2013-04-13T15:05:25Z</time>
      </trkpt>
      <trkpt lat="43.4258" lon="6.01088">
        <ele>403.60000610352</ele>
        <time>2013-04-13T15:05:26Z</time>
      </trkpt>
      <trkpt lat="43.42581" lon="6.01095">
        <ele>402.60000610352</ele>
        <time>2013-04-13T15:05:28Z</time>
      </trkpt>
      <trkpt lat="43.42581" lon="6.01098">
        <ele>402.20001220703</ele>
        <time>2013-04-13T15:05:29Z</time>
      </trkpt>
      <trkpt lat="43.42581" lon="6.01108">
        <ele>402.20001220703</ele>
        <time>2013-04-13T15:05:31Z</time>
      </trkpt>
      <trkpt lat="43.42583" lon="6.01131">
        <ele>402.20001220703</ele>
        <time>2013-04-13T15:05:36Z</time>
      </trkpt>
      <trkpt lat="43.4258" lon="6.01134">
        <ele>401.39999389648</ele>
        <time>2013-04-13T15:05:38Z</time>
      </trkpt>
      <trkpt lat="43.42577" lon="6.01135">
        <ele>401</ele>
        <time>2013-04-13T15:05:39Z</time>
      </trkpt>
      <trkpt lat="43.42574" lon="6.01135">
        <ele>400.60000610352</ele>
        <time>2013-04-13T15:05:40Z</time>
      </trkpt>
      <trkpt lat="43.4257" lon="6.01135">
        <ele>400.20001220703</ele>
        <time>2013-04-13T15:05:41Z</time>
      </trkpt>
      <trkpt lat="43.42562" lon="6.01136">
        <ele>400.20001220703</ele>
        <time>2013-04-13T15:05:43Z</time>
      </trkpt>
      <trkpt lat="43.42546" lon="6.01134">
        <ele>399.60000610352</ele>
        <time>2013-04-13T15:05:47Z</time>
      </trkpt>
      <trkpt lat="43.4254" lon="6.01135">
        <ele>398.79998779297</ele>
        <time>2013-04-13T15:05:49Z</time>
      </trkpt>
      <trkpt lat="43.42538" lon="6.01137">
        <ele>398.20001220703</ele>
        <time>2013-04-13T15:05:50Z</time>
      </trkpt>
      <trkpt lat="43.42536" lon="6.01143">
        <ele>397.20001220703</ele>
        <time>2013-04-13T15:05:52Z</time>
      </trkpt>
      <trkpt lat="43.42536" lon="6.01147">
        <ele>396.79998779297</ele>
        <time>2013-04-13T15:05:53Z</time>
      </trkpt>
      <trkpt lat="43.42536" lon="6.01154">
        <ele>395.60000610352</ele>
        <time>2013-04-13T15:05:55Z</time>
      </trkpt>
      <trkpt lat="43.42535" lon="6.01171">
        <ele>394.79998779297</ele>
        <time>2013-04-13T15:05:59Z</time>
      </trkpt>
      <trkpt lat="43.42533" lon="6.01182">
        <ele>394</ele>
        <time>2013-04-13T15:06:01Z</time>
      </trkpt>
      <trkpt lat="43.42532" lon="6.01188">
        <ele>393.60000610352</ele>
        <time>2013-04-13T15:06:02Z</time>
      </trkpt>
      <trkpt lat="43.42531" lon="6.01193">
        <ele>393</ele>
        <time>2013-04-13T15:06:03Z</time>
      </trkpt>
      <trkpt lat="43.4253" lon="6.01197">
        <ele>392.60000610352</ele>
        <time>2013-04-13T15:06:04Z</time>
      </trkpt>
      <trkpt lat="43.42529" lon="6.012">
        <ele>392.20001220703</ele>
        <time>2013-04-13T15:06:05Z</time>
      </trkpt>
      <trkpt lat="43.42526" lon="6.01203">
        <ele>391.79998779297</ele>
        <time>2013-04-13T15:06:06Z</time>
      </trkpt>
      <trkpt lat="43.42524" lon="6.01205">
        <ele>391.39999389648</ele>
        <time>2013-04-13T15:06:07Z</time>
      </trkpt>
      <trkpt lat="43.42519" lon="6.01209">
        <ele>390.79998779297</ele>
        <time>2013-04-13T15:06:09Z</time>
      </trkpt>
      <trkpt lat="43.42517" lon="6.0121">
        <ele>390.20001220703</ele>
        <time>2013-04-13T15:06:10Z</time>
      </trkpt>
      <trkpt lat="43.42515" lon="6.01211">
        <ele>389.79998779297</ele>
        <time>2013-04-13T15:06:11Z</time>
      </trkpt>
      <trkpt lat="43.42513" lon="6.01212">
        <ele>389.20001220703</ele>
        <time>2013-04-13T15:06:12Z</time>
      </trkpt>
      <trkpt lat="43.42511" lon="6.01213">
        <ele>388.60000610352</ele>
        <time>2013-04-13T15:06:13Z</time>
      </trkpt>
      <trkpt lat="43.42508" lon="6.01215">
        <ele>388.20001220703</ele>
        <time>2013-04-13T15:06:15Z</time>
      </trkpt>
      <trkpt lat="43.42506" lon="6.01217">
        <ele>387.39999389648</ele>
        <time>2013-04-13T15:06:17Z</time>
      </trkpt>
      <trkpt lat="43.42505" lon="6.01217">
        <ele>386.79998779297</ele>
        <time>2013-04-13T15:06:18Z</time>
      </trkpt>
      <trkpt lat="43.42505" lon="6.01217">
        <ele>386.39999389648</ele>
        <time>2013-04-13T15:06:19Z</time>
      </trkpt>
      <trkpt lat="43.42502" lon="6.01219">
        <ele>386.39999389648</ele>
        <time>2013-04-13T15:06:26Z</time>
      </trkpt>
      <trkpt lat="43.42497" lon="6.01221">
        <ele>385.60000610352</ele>
        <time>2013-04-13T15:06:28Z</time>
      </trkpt>
      <trkpt lat="43.42493" lon="6.01226">
        <ele>384.39999389648</ele>
        <time>2013-04-13T15:06:30Z</time>
      </trkpt>
      <trkpt lat="43.42492" lon="6.01229">
        <ele>383.79998779297</ele>
        <time>2013-04-13T15:06:31Z</time>
      </trkpt>
      <trkpt lat="43.42491" lon="6.01231">
        <ele>383.20001220703</ele>
        <time>2013-04-13T15:06:32Z</time>
      </trkpt>
      <trkpt lat="43.4249" lon="6.01233">
        <ele>382.60000610352</ele>
        <time>2013-04-13T15:06:33Z</time>
      </trkpt>
      <trkpt lat="43.42489" lon="6.01236">
        <ele>382</ele>
        <time>2013-04-13T15:06:34Z</time>
      </trkpt>
      <trkpt lat="43.42489" lon="6.0124">
        <ele>382</ele>
        <time>2013-04-13T15:06:35Z</time>
      </trkpt>
      <trkpt lat="43.42488" lon="6.01244">
        <ele>382</ele>
        <time>2013-04-13T15:06:36Z</time>
      </trkpt>
      <trkpt lat="43.42482" lon="6.01249">
        <ele>382</ele>
        <time>2013-04-13T15:06:38Z</time>
      </trkpt>
      <trkpt lat="43.42476" lon="6.0126">
        <ele>382</ele>
        <time>2013-04-13T15:06:42Z</time>
      </trkpt>
      <trkpt lat="43.42477" lon="6.01264">
        <ele>382</ele>
        <time>2013-04-13T15:06:47Z</time>
      </trkpt>
      <trkpt lat="43.42477" lon="6.01264">
        <ele>382</ele>
        <time>2013-04-13T15:06:55Z</time>
      </trkpt>
      <trkpt lat="43.42477" lon="6.01264">
        <ele>382</ele>
        <time>2013-04-13T15:07:24Z</time>
      </trkpt>
      <trkpt lat="43.42477" lon="6.01264">
        <ele>382</ele>
        <time>2013-04-13T15:08:15Z</time>
      </trkpt>
      <trkpt lat="43.42477" lon="6.01264">
        <ele>382</ele>
        <time>2013-04-13T15:08:29Z</time>
      </trkpt>
      <trkpt lat="43.42477" lon="6.01264">
        <ele>382</ele>
        <time>2013-04-13T15:08:47Z</time>
      </trkpt>
      <trkpt lat="43.42477" lon="6.01264">
        <ele>382</ele>
        <time>2013-04-13T15:08:56Z</time>
      </trkpt>
      <trkpt lat="43.42476" lon="6.01265">
        <ele>382</ele>
        <time>2013-04-13T15:08:58Z</time>
      </trkpt>
      <trkpt lat="43.42476" lon="6.01265">
        <ele>382</ele>
        <time>2013-04-13T15:09:26Z</time>
      </trkpt>
      <trkpt lat="43.42476" lon="6.01265">
        <ele>382</ele>
        <time>2013-04-13T15:09:35Z</time>
      </trkpt>
      <trkpt lat="43.42476" lon="6.01265">
        <ele>382</ele>
        <time>2013-04-13T15:10:04Z</time>
      </trkpt>
      <trkpt lat="43.42477" lon="6.01264">
        <ele>382</ele>
        <time>2013-04-13T15:10:19Z</time>
      </trkpt>
      <trkpt lat="43.42477" lon="6.01264">
        <ele>382</ele>
        <time>2013-04-13T15:10:31Z</time>
      </trkpt>
      <trkpt lat="43.42477" lon="6.01264">
        <ele>382</ele>
        <time>2013-04-13T15:10:37Z</time>
      </trkpt>
      <trkpt lat="43.42477" lon="6.01264">
        <ele>382</ele>
        <time>2013-04-13T15:10:44Z</time>
      </trkpt>
      <trkpt lat="43.42477" lon="6.01263">
        <ele>382</ele>
        <time>2013-04-13T15:10:45Z</time>
      </trkpt>
      <trkpt lat="43.42477" lon="6.01263">
        <ele>382</ele>
        <time>2013-04-13T15:11:08Z</time>
      </trkpt>
      <trkpt lat="43.42477" lon="6.01263">
        <ele>382</ele>
        <time>2013-04-13T15:11:19Z</time>
      </trkpt>
      <trkpt lat="43.42477" lon="6.01263">
        <ele>382</ele>
        <time>2013-04-13T15:11:26Z</time>
      </trkpt>
      <trkpt lat="43.42477" lon="6.01263">
        <ele>382</ele>
        <time>2013-04-13T15:11:51Z</time>
      </trkpt>
      <trkpt lat="43.42477" lon="6.01263">
        <ele>382</ele>
        <time>2013-04-13T15:12:02Z</time>
      </trkpt>
      <trkpt lat="43.42477" lon="6.01263">
        <ele>382</ele>
        <time>2013-04-13T15:12:05Z</time>
      </trkpt>
      <trkpt lat="43.42477" lon="6.01263">
        <ele>382</ele>
        <time>2013-04-13T15:12:27Z</time>
      </trkpt>
      <trkpt lat="43.42477" lon="6.01263">
        <ele>382</ele>
        <time>2013-04-13T15:12:56Z</time>
      </trkpt>
      <trkpt lat="43.42477" lon="6.01263">
        <ele>382</ele>
        <time>2013-04-13T15:13:10Z</time>
      </trkpt>
      <trkpt lat="43.42477" lon="6.01263">
        <ele>382</ele>
        <time>2013-04-13T15:13:22Z</time>
      </trkpt>
      <trkpt lat="43.42477" lon="6.01263">
        <ele>382</ele>
        <time>2013-04-13T15:13:26Z</time>
      </trkpt>
      <trkpt lat="43.42477" lon="6.01263">
        <ele>382</ele>
        <time>2013-04-13T15:13:46Z</time>
      </trkpt>
      <trkpt lat="43.42477" lon="6.01263">
        <ele>382</ele>
        <time>2013-04-13T15:13:58Z</time>
      </trkpt>
      <trkpt lat="43.42477" lon="6.01263">
        <ele>382</ele>
        <time>2013-04-13T15:14:05Z</time>
      </trkpt>
      <trkpt lat="43.42477" lon="6.01263">
        <ele>382</ele>
        <time>2013-04-13T15:14:21Z</time>
      </trkpt>
      <trkpt lat="43.42477" lon="6.01263">
        <ele>382</ele>
        <time>2013-04-13T15:14:33Z</time>
      </trkpt>
      <trkpt lat="43.42477" lon="6.01263">
        <ele>382</ele>
        <time>2013-04-13T15:14:49Z</time>
      </trkpt>
      <trkpt lat="43.42477" lon="6.01263">
        <ele>382</ele>
        <time>2013-04-13T15:15:53Z</time>
      </trkpt>
      <trkpt lat="43.42477" lon="6.01263">
        <ele>382</ele>
        <time>2013-04-13T15:16:23Z</time>
      </trkpt>
      <trkpt lat="43.42476" lon="6.01263">
        <ele>382</ele>
        <time>2013-04-13T15:16:54Z</time>
      </trkpt>
      <trkpt lat="43.42476" lon="6.01263">
        <ele>382</ele>
        <time>2013-04-13T15:17:08Z</time>
      </trkpt>
      <trkpt lat="43.42476" lon="6.01264">
        <ele>382</ele>
        <time>2013-04-13T15:17:09Z</time>
      </trkpt>
      <trkpt lat="43.42476" lon="6.01264">
        <ele>382</ele>
        <time>2013-04-13T15:17:45Z</time>
      </trkpt>
      <trkpt lat="43.42476" lon="6.01264">
        <ele>382</ele>
        <time>2013-04-13T15:18:22Z</time>
      </trkpt>
      <trkpt lat="43.42476" lon="6.01264">
        <ele>382</ele>
        <time>2013-04-13T15:19:07Z</time>
      </trkpt>
      <trkpt lat="43.42476" lon="6.01264">
        <ele>382</ele>
        <time>2013-04-13T15:19:09Z</time>
      </trkpt>
      <trkpt lat="43.42476" lon="6.01264">
        <ele>382</ele>
        <time>2013-04-13T15:19:32Z</time>
      </trkpt>
      <trkpt lat="43.42476" lon="6.01264">
        <ele>382</ele>
        <time>2013-04-13T15:21:39Z</time>
      </trkpt>
      <trkpt lat="43.42476" lon="6.01264">
        <ele>382</ele>
        <time>2013-04-13T15:21:52Z</time>
      </trkpt>
      <trkpt lat="43.42476" lon="6.01264">
        <ele>382</ele>
        <time>2013-04-13T15:22:00Z</time>
      </trkpt>
      <trkpt lat="43.42476" lon="6.01263">
        <ele>382</ele>
        <time>2013-04-13T15:22:06Z</time>
      </trkpt>
      <trkpt lat="43.42474" lon="6.01258">
        <ele>382</ele>
        <time>2013-04-13T15:22:12Z</time>
      </trkpt>
      <trkpt lat="43.42474" lon="6.01255">
        <ele>382</ele>
        <time>2013-04-13T15:22:14Z</time>
      </trkpt>
      <trkpt lat="43.42476" lon="6.01251">
        <ele>382</ele>
        <time>2013-04-13T15:22:17Z</time>
      </trkpt>
      <trkpt lat="43.42478" lon="6.01254">
        <ele>382</ele>
        <time>2013-04-13T15:22:20Z</time>
      </trkpt>
      <trkpt lat="43.42479" lon="6.01255">
        <ele>382</ele>
        <time>2013-04-13T15:22:21Z</time>
      </trkpt>
      <trkpt lat="43.42479" lon="6.01257">
        <ele>382</ele>
        <time>2013-04-13T15:22:22Z</time>
      </trkpt>
      <trkpt lat="43.42479" lon="6.01263">
        <ele>382</ele>
        <time>2013-04-13T15:22:26Z</time>
      </trkpt>
      <trkpt lat="43.42479" lon="6.0127">
        <ele>382</ele>
        <time>2013-04-13T15:22:33Z</time>
      </trkpt>
      <trkpt lat="43.42479" lon="6.0127">
        <ele>382</ele>
        <time>2013-04-13T15:22:45Z</time>
      </trkpt>
      <trkpt lat="43.42479" lon="6.0127">
        <ele>382</ele>
        <time>2013-04-13T15:22:50Z</time>
      </trkpt>
      <trkpt lat="43.42479" lon="6.01272">
        <ele>382</ele>
        <time>2013-04-13T15:22:58Z</time>
      </trkpt>
      <trkpt lat="43.42478" lon="6.01273">
        <ele>382</ele>
        <time>2013-04-13T15:22:59Z</time>
      </trkpt>
      <trkpt lat="43.4248" lon="6.01279">
        <ele>382</ele>
        <time>2013-04-13T15:23:05Z</time>
      </trkpt>
      <trkpt lat="43.42482" lon="6.01283">
        <ele>383.20001220703</ele>
        <time>2013-04-13T15:23:08Z</time>
      </trkpt>
      <trkpt lat="43.42482" lon="6.01286">
        <ele>384</ele>
        <time>2013-04-13T15:23:11Z</time>
      </trkpt>
      <trkpt lat="43.42483" lon="6.01292">
        <ele>384</ele>
        <time>2013-04-13T15:23:15Z</time>
      </trkpt>
      <trkpt lat="43.42484" lon="6.013">
        <ele>384.79998779297</ele>
        <time>2013-04-13T15:23:22Z</time>
      </trkpt>
      <trkpt lat="43.42487" lon="6.01309">
        <ele>386</ele>
        <time>2013-04-13T15:23:30Z</time>
      </trkpt>
      <trkpt lat="43.42488" lon="6.01322">
        <ele>388</ele>
        <time>2013-04-13T15:23:41Z</time>
      </trkpt>
      <trkpt lat="43.42489" lon="6.01326">
        <ele>388</ele>
        <time>2013-04-13T15:23:44Z</time>
      </trkpt>
      <trkpt lat="43.42491" lon="6.01332">
        <ele>389.60000610352</ele>
        <time>2013-04-13T15:23:49Z</time>
      </trkpt>
      <trkpt lat="43.42491" lon="6.0134">
        <ele>390</ele>
        <time>2013-04-13T15:23:56Z</time>
      </trkpt>
      <trkpt lat="43.42492" lon="6.01347">
        <ele>391.39999389648</ele>
        <time>2013-04-13T15:24:02Z</time>
      </trkpt>
      <trkpt lat="43.42493" lon="6.01356">
        <ele>392.20001220703</ele>
        <time>2013-04-13T15:24:09Z</time>
      </trkpt>
      <trkpt lat="43.42493" lon="6.0137">
        <ele>393.39999389648</ele>
        <time>2013-04-13T15:24:20Z</time>
      </trkpt>
      <trkpt lat="43.42493" lon="6.01387">
        <ele>395.79998779297</ele>
        <time>2013-04-13T15:24:35Z</time>
      </trkpt>
      <trkpt lat="43.42493" lon="6.01388">
        <ele>396.20001220703</ele>
        <time>2013-04-13T15:24:36Z</time>
      </trkpt>
      <trkpt lat="43.42492" lon="6.01393">
        <ele>396.20001220703</ele>
        <time>2013-04-13T15:24:40Z</time>
      </trkpt>
      <trkpt lat="43.42491" lon="6.01395">
        <ele>396.20001220703</ele>
        <time>2013-04-13T15:24:42Z</time>
      </trkpt>
      <trkpt lat="43.42491" lon="6.01398">
        <ele>396.20001220703</ele>
        <time>2013-04-13T15:24:46Z</time>
      </trkpt>
      <trkpt lat="43.42491" lon="6.01398">
        <ele>396.20001220703</ele>
        <time>2013-04-13T15:24:59Z</time>
      </trkpt>
      <trkpt lat="43.42491" lon="6.01398">
        <ele>396.20001220703</ele>
        <time>2013-04-13T15:25:05Z</time>
      </trkpt>
      <trkpt lat="43.42491" lon="6.01398">
        <ele>396.20001220703</ele>
        <time>2013-04-13T15:25:27Z</time>
      </trkpt>
      <trkpt lat="43.42491" lon="6.01398">
        <ele>396.20001220703</ele>
        <time>2013-04-13T15:25:41Z</time>
      </trkpt>
      <trkpt lat="43.42491" lon="6.01398">
        <ele>396.20001220703</ele>
        <time>2013-04-13T15:25:44Z</time>
      </trkpt>
      <trkpt lat="43.42491" lon="6.01398">
        <ele>396.20001220703</ele>
        <time>2013-04-13T15:25:49Z</time>
      </trkpt>
      <trkpt lat="43.42491" lon="6.01398">
        <ele>396.20001220703</ele>
        <time>2013-04-13T15:25:51Z</time>
      </trkpt>
      <trkpt lat="43.42491" lon="6.01398">
        <ele>396.20001220703</ele>
        <time>2013-04-13T15:25:54Z</time>
      </trkpt>
      <trkpt lat="43.42491" lon="6.01399">
        <ele>396.20001220703</ele>
        <time>2013-04-13T15:25:56Z</time>
      </trkpt>
      <trkpt lat="43.42491" lon="6.01403">
        <ele>396.20001220703</ele>
        <time>2013-04-13T15:25:59Z</time>
      </trkpt>
      <trkpt lat="43.42488" lon="6.01417">
        <ele>396.60000610352</ele>
        <time>2013-04-13T15:26:07Z</time>
      </trkpt>
      <trkpt lat="43.42488" lon="6.01419">
        <ele>397</ele>
        <time>2013-04-13T15:26:08Z</time>
      </trkpt>
      <trkpt lat="43.42488" lon="6.01423">
        <ele>397.79998779297</ele>
        <time>2013-04-13T15:26:10Z</time>
      </trkpt>
      <trkpt lat="43.42488" lon="6.01433">
        <ele>398.20001220703</ele>
        <time>2013-04-13T15:26:15Z</time>
      </trkpt>
      <trkpt lat="43.42487" lon="6.01449">
        <ele>398.20001220703</ele>
        <time>2013-04-13T15:26:24Z</time>
      </trkpt>
      <trkpt lat="43.42487" lon="6.01455">
        <ele>398.20001220703</ele>
        <time>2013-04-13T15:26:28Z</time>
      </trkpt>
      <trkpt lat="43.42486" lon="6.01458">
        <ele>398.20001220703</ele>
        <time>2013-04-13T15:26:30Z</time>
      </trkpt>
      <trkpt lat="43.42485" lon="6.01469">
        <ele>398.20001220703</ele>
        <time>2013-04-13T15:26:36Z</time>
      </trkpt>
      <trkpt lat="43.42485" lon="6.01476">
        <ele>399.79998779297</ele>
        <time>2013-04-13T15:26:40Z</time>
      </trkpt>
      <trkpt lat="43.42485" lon="6.01494">
        <ele>400.20001220703</ele>
        <time>2013-04-13T15:26:49Z</time>
      </trkpt>
      <trkpt lat="43.42485" lon="6.01506">
        <ele>400.20001220703</ele>
        <time>2013-04-13T15:26:55Z</time>
      </trkpt>
      <trkpt lat="43.42488" lon="6.0152">
        <ele>400.20001220703</ele>
        <time>2013-04-13T15:27:02Z</time>
      </trkpt>
      <trkpt lat="43.4249" lon="6.0153">
        <ele>400.20001220703</ele>
        <time>2013-04-13T15:27:08Z</time>
      </trkpt>
      <trkpt lat="43.4249" lon="6.01532">
        <ele>400.20001220703</ele>
        <time>2013-04-13T15:27:09Z</time>
      </trkpt>
      <trkpt lat="43.42494" lon="6.01542">
        <ele>400.60000610352</ele>
        <time>2013-04-13T15:27:15Z</time>
      </trkpt>
      <trkpt lat="43.42498" lon="6.01554">
        <ele>402.39999389648</ele>
        <time>2013-04-13T15:27:23Z</time>
      </trkpt>
      <trkpt lat="43.42499" lon="6.01557">
        <ele>402.39999389648</ele>
        <time>2013-04-13T15:27:25Z</time>
      </trkpt>
      <trkpt lat="43.425" lon="6.01564">
        <ele>402.39999389648</ele>
        <time>2013-04-13T15:27:29Z</time>
      </trkpt>
      <trkpt lat="43.42502" lon="6.01574">
        <ele>402.39999389648</ele>
        <time>2013-04-13T15:27:35Z</time>
      </trkpt>
      <trkpt lat="43.42505" lon="6.01591">
        <ele>402.39999389648</ele>
        <time>2013-04-13T15:27:42Z</time>
      </trkpt>
      <trkpt lat="43.42506" lon="6.01603">
        <ele>402.39999389648</ele>
        <time>2013-04-13T15:27:46Z</time>
      </trkpt>
      <trkpt lat="43.42505" lon="6.01608">
        <ele>402.39999389648</ele>
        <time>2013-04-13T15:27:48Z</time>
      </trkpt>
      <trkpt lat="43.42504" lon="6.01613">
        <ele>402.39999389648</ele>
        <time>2013-04-13T15:27:50Z</time>
      </trkpt>
      <trkpt lat="43.42498" lon="6.01628">
        <ele>402.39999389648</ele>
        <time>2013-04-13T15:27:57Z</time>
      </trkpt>
      <trkpt lat="43.42488" lon="6.01642">
        <ele>402.39999389648</ele>
        <time>2013-04-13T15:28:05Z</time>
      </trkpt>
      <trkpt lat="43.42482" lon="6.0165">
        <ele>402.39999389648</ele>
        <time>2013-04-13T15:28:08Z</time>
      </trkpt>
      <trkpt lat="43.42478" lon="6.01658">
        <ele>402.39999389648</ele>
        <time>2013-04-13T15:28:11Z</time>
      </trkpt>
      <trkpt lat="43.42469" lon="6.01678">
        <ele>402.39999389648</ele>
        <time>2013-04-13T15:28:18Z</time>
      </trkpt>
      <trkpt lat="43.42463" lon="6.01696">
        <ele>402.39999389648</ele>
        <time>2013-04-13T15:28:25Z</time>
      </trkpt>
      <trkpt lat="43.42456" lon="6.01716">
        <ele>402.39999389648</ele>
        <time>2013-04-13T15:28:33Z</time>
      </trkpt>
      <trkpt lat="43.4245" lon="6.01733">
        <ele>402.39999389648</ele>
        <time>2013-04-13T15:28:39Z</time>
      </trkpt>
      <trkpt lat="43.42445" lon="6.01759">
        <ele>402.39999389648</ele>
        <time>2013-04-13T15:28:48Z</time>
      </trkpt>
      <trkpt lat="43.42443" lon="6.01777">
        <ele>402.39999389648</ele>
        <time>2013-04-13T15:28:55Z</time>
      </trkpt>
      <trkpt lat="43.42436" lon="6.01813">
        <ele>402.39999389648</ele>
        <time>2013-04-13T15:29:08Z</time>
      </trkpt>
      <trkpt lat="43.42435" lon="6.01821">
        <ele>403.60000610352</ele>
        <time>2013-04-13T15:29:11Z</time>
      </trkpt>
      <trkpt lat="43.42431" lon="6.01843">
        <ele>404.39999389648</ele>
        <time>2013-04-13T15:29:20Z</time>
      </trkpt>
      <trkpt lat="43.4243" lon="6.01853">
        <ele>404.79998779297</ele>
        <time>2013-04-13T15:29:24Z</time>
      </trkpt>
      <trkpt lat="43.42427" lon="6.0187">
        <ele>406.39999389648</ele>
        <time>2013-04-13T15:29:31Z</time>
      </trkpt>
      <trkpt lat="43.42424" lon="6.01886">
        <ele>406.39999389648</ele>
        <time>2013-04-13T15:29:38Z</time>
      </trkpt>
      <trkpt lat="43.4242" lon="6.01903">
        <ele>406.39999389648</ele>
        <time>2013-04-13T15:29:45Z</time>
      </trkpt>
      <trkpt lat="43.42416" lon="6.01922">
        <ele>406.39999389648</ele>
        <time>2013-04-13T15:29:51Z</time>
      </trkpt>
      <trkpt lat="43.42416" lon="6.01925">
        <ele>406.39999389648</ele>
        <time>2013-04-13T15:29:52Z</time>
      </trkpt>
      <trkpt lat="43.4241" lon="6.01946">
        <ele>406.39999389648</ele>
        <time>2013-04-13T15:29:59Z</time>
      </trkpt>
      <trkpt lat="43.4241" lon="6.01959">
        <ele>406.39999389648</ele>
        <time>2013-04-13T15:30:03Z</time>
      </trkpt>
      <trkpt lat="43.42411" lon="6.01963">
        <ele>406.39999389648</ele>
        <time>2013-04-13T15:30:05Z</time>
      </trkpt>
      <trkpt lat="43.42414" lon="6.01973">
        <ele>406.39999389648</ele>
        <time>2013-04-13T15:30:11Z</time>
      </trkpt>
      <trkpt lat="43.42418" lon="6.01978">
        <ele>406.39999389648</ele>
        <time>2013-04-13T15:30:15Z</time>
      </trkpt>
      <trkpt lat="43.42419" lon="6.01982">
        <ele>407.60000610352</ele>
        <time>2013-04-13T15:30:18Z</time>
      </trkpt>
      <trkpt lat="43.4242" lon="6.01983">
        <ele>408.20001220703</ele>
        <time>2013-04-13T15:30:19Z</time>
      </trkpt>
      <trkpt lat="43.42422" lon="6.01986">
        <ele>408.60000610352</ele>
        <time>2013-04-13T15:30:22Z</time>
      </trkpt>
      <trkpt lat="43.42425" lon="6.01988">
        <ele>408.60000610352</ele>
        <time>2013-04-13T15:30:25Z</time>
      </trkpt>
      <trkpt lat="43.42427" lon="6.01989">
        <ele>409.39999389648</ele>
        <time>2013-04-13T15:30:27Z</time>
      </trkpt>
      <trkpt lat="43.42434" lon="6.01991">
        <ele>410.79998779297</ele>
        <time>2013-04-13T15:30:34Z</time>
      </trkpt>
      <trkpt lat="43.4244" lon="6.01993">
        <ele>413.20001220703</ele>
        <time>2013-04-13T15:30:39Z</time>
      </trkpt>
      <trkpt lat="43.42449" lon="6.01994">
        <ele>415.20001220703</ele>
        <time>2013-04-13T15:30:49Z</time>
      </trkpt>
      <trkpt lat="43.42461" lon="6.01997">
        <ele>417.39999389648</ele>
        <time>2013-04-13T15:31:01Z</time>
      </trkpt>
      <trkpt lat="43.42468" lon="6.01998">
        <ele>417.79998779297</ele>
        <time>2013-04-13T15:31:09Z</time>
      </trkpt>
      <trkpt lat="43.42472" lon="6.01998">
        <ele>419.60000610352</ele>
        <time>2013-04-13T15:31:13Z</time>
      </trkpt>
      <trkpt lat="43.42477" lon="6.02">
        <ele>420</ele>
        <time>2013-04-13T15:31:19Z</time>
      </trkpt>
      <trkpt lat="43.42478" lon="6.02002">
        <ele>420.79998779297</ele>
        <time>2013-04-13T15:31:21Z</time>
      </trkpt>
      <trkpt lat="43.4248" lon="6.02003">
        <ele>421.60000610352</ele>
        <time>2013-04-13T15:31:23Z</time>
      </trkpt>
      <trkpt lat="43.42482" lon="6.0201">
        <ele>421.60000610352</ele>
        <time>2013-04-13T15:31:28Z</time>
      </trkpt>
      <trkpt lat="43.42482" lon="6.0201">
        <ele>421.60000610352</ele>
        <time>2013-04-13T15:31:30Z</time>
      </trkpt>
      <trkpt lat="43.42482" lon="6.0201">
        <ele>421.60000610352</ele>
        <time>2013-04-13T15:31:47Z</time>
      </trkpt>
      <trkpt lat="43.42482" lon="6.0201">
        <ele>421.60000610352</ele>
        <time>2013-04-13T15:32:07Z</time>
      </trkpt>
      <trkpt lat="43.42482" lon="6.02009">
        <ele>421.60000610352</ele>
        <time>2013-04-13T15:32:15Z</time>
      </trkpt>
      <trkpt lat="43.42482" lon="6.02009">
        <ele>421.60000610352</ele>
        <time>2013-04-13T15:32:23Z</time>
      </trkpt>
      <trkpt lat="43.42482" lon="6.02009">
        <ele>421.60000610352</ele>
        <time>2013-04-13T15:32:34Z</time>
      </trkpt>
      <trkpt lat="43.42481" lon="6.0201">
        <ele>421.60000610352</ele>
        <time>2013-04-13T15:32:36Z</time>
      </trkpt>
      <trkpt lat="43.4248" lon="6.02018">
        <ele>421.60000610352</ele>
        <time>2013-04-13T15:32:39Z</time>
      </trkpt>
      <trkpt lat="43.4248" lon="6.02036">
        <ele>421.60000610352</ele>
        <time>2013-04-13T15:32:45Z</time>
      </trkpt>
      <trkpt lat="43.42481" lon="6.02053">
        <ele>421.20001220703</ele>
        <time>2013-04-13T15:32:51Z</time>
      </trkpt>
      <trkpt lat="43.42481" lon="6.02069">
        <ele>419.39999389648</ele>
        <time>2013-04-13T15:32:55Z</time>
      </trkpt>
      <trkpt lat="43.4248" lon="6.02084">
        <ele>419</ele>
        <time>2013-04-13T15:32:58Z</time>
      </trkpt>
      <trkpt lat="43.4248" lon="6.02089">
        <ele>418.39999389648</ele>
        <time>2013-04-13T15:32:59Z</time>
      </trkpt>
      <trkpt lat="43.4248" lon="6.02095">
        <ele>418</ele>
        <time>2013-04-13T15:33:00Z</time>
      </trkpt>
      <trkpt lat="43.4248" lon="6.021">
        <ele>417.60000610352</ele>
        <time>2013-04-13T15:33:01Z</time>
      </trkpt>
      <trkpt lat="43.4248" lon="6.02106">
        <ele>417</ele>
        <time>2013-04-13T15:33:02Z</time>
      </trkpt>
      <trkpt lat="43.4248" lon="6.02112">
        <ele>416.39999389648</ele>
        <time>2013-04-13T15:33:03Z</time>
      </trkpt>
      <trkpt lat="43.4248" lon="6.02118">
        <ele>416</ele>
        <time>2013-04-13T15:33:04Z</time>
      </trkpt>
      <trkpt lat="43.4248" lon="6.02125">
        <ele>415.39999389648</ele>
        <time>2013-04-13T15:33:05Z</time>
      </trkpt>
      <trkpt lat="43.4248" lon="6.02131">
        <ele>415</ele>
        <time>2013-04-13T15:33:06Z</time>
      </trkpt>
      <trkpt lat="43.42479" lon="6.02145">
        <ele>414</ele>
        <time>2013-04-13T15:33:08Z</time>
      </trkpt>
      <trkpt lat="43.42479" lon="6.02151">
        <ele>413.60000610352</ele>
        <time>2013-04-13T15:33:09Z</time>
      </trkpt>
      <trkpt lat="43.42479" lon="6.02157">
        <ele>413.20001220703</ele>
        <time>2013-04-13T15:33:10Z</time>
      </trkpt>
      <trkpt lat="43.42479" lon="6.02164">
        <ele>412.79998779297</ele>
        <time>2013-04-13T15:33:11Z</time>
      </trkpt>
      <trkpt lat="43.42478" lon="6.02192">
        <ele>412.79998779297</ele>
        <time>2013-04-13T15:33:16Z</time>
      </trkpt>
      <trkpt lat="43.42477" lon="6.02215">
        <ele>412.79998779297</ele>
        <time>2013-04-13T15:33:21Z</time>
      </trkpt>
      <trkpt lat="43.42477" lon="6.02228">
        <ele>412.79998779297</ele>
        <time>2013-04-13T15:33:24Z</time>
      </trkpt>
      <trkpt lat="43.42475" lon="6.02245">
        <ele>412.39999389648</ele>
        <time>2013-04-13T15:33:28Z</time>
      </trkpt>
      <trkpt lat="43.42475" lon="6.02249">
        <ele>412</ele>
        <time>2013-04-13T15:33:29Z</time>
      </trkpt>
      <trkpt lat="43.42474" lon="6.02253">
        <ele>411.60000610352</ele>
        <time>2013-04-13T15:33:30Z</time>
      </trkpt>
      <trkpt lat="43.42474" lon="6.02258">
        <ele>411.20001220703</ele>
        <time>2013-04-13T15:33:31Z</time>
      </trkpt>
      <trkpt lat="43.42473" lon="6.02263">
        <ele>410.79998779297</ele>
        <time>2013-04-13T15:33:32Z</time>
      </trkpt>
      <trkpt lat="43.42472" lon="6.02293">
        <ele>410.79998779297</ele>
        <time>2013-04-13T15:33:38Z</time>
      </trkpt>
      <trkpt lat="43.42472" lon="6.02298">
        <ele>410.39999389648</ele>
        <time>2013-04-13T15:33:39Z</time>
      </trkpt>
      <trkpt lat="43.42469" lon="6.02316">
        <ele>408.60000610352</ele>
        <time>2013-04-13T15:33:42Z</time>
      </trkpt>
      <trkpt lat="43.42467" lon="6.0233">
        <ele>408.20001220703</ele>
        <time>2013-04-13T15:33:44Z</time>
      </trkpt>
      <trkpt lat="43.42467" lon="6.02337">
        <ele>407.60000610352</ele>
        <time>2013-04-13T15:33:45Z</time>
      </trkpt>
      <trkpt lat="43.42468" lon="6.02345">
        <ele>407.20001220703</ele>
        <time>2013-04-13T15:33:46Z</time>
      </trkpt>
      <trkpt lat="43.42467" lon="6.02354">
        <ele>406.79998779297</ele>
        <time>2013-04-13T15:33:47Z</time>
      </trkpt>
      <trkpt lat="43.42467" lon="6.02362">
        <ele>406.20001220703</ele>
        <time>2013-04-13T15:33:48Z</time>
      </trkpt>
      <trkpt lat="43.42466" lon="6.02371">
        <ele>405.79998779297</ele>
        <time>2013-04-13T15:33:49Z</time>
      </trkpt>
      <trkpt lat="43.42465" lon="6.0238">
        <ele>405.20001220703</ele>
        <time>2013-04-13T15:33:50Z</time>
      </trkpt>
      <trkpt lat="43.42463" lon="6.02389">
        <ele>404.60000610352</ele>
        <time>2013-04-13T15:33:51Z</time>
      </trkpt>
      <trkpt lat="43.42462" lon="6.02397">
        <ele>404.20001220703</ele>
        <time>2013-04-13T15:33:52Z</time>
      </trkpt>
      <trkpt lat="43.42459" lon="6.02403">
        <ele>403.79998779297</ele>
        <time>2013-04-13T15:33:53Z</time>
      </trkpt>
      <trkpt lat="43.42456" lon="6.02408">
        <ele>403.39999389648</ele>
        <time>2013-04-13T15:33:54Z</time>
      </trkpt>
      <trkpt lat="43.42453" lon="6.02413">
        <ele>403</ele>
        <time>2013-04-13T15:33:55Z</time>
      </trkpt>
      <trkpt lat="43.4245" lon="6.02419">
        <ele>402.39999389648</ele>
        <time>2013-04-13T15:33:56Z</time>
      </trkpt>
      <trkpt lat="43.42447" lon="6.02424">
        <ele>402</ele>
        <time>2013-04-13T15:33:57Z</time>
      </trkpt>
      <trkpt lat="43.4244" lon="6.02444">
        <ele>402</ele>
        <time>2013-04-13T15:34:01Z</time>
      </trkpt>
      <trkpt lat="43.42435" lon="6.02466">
        <ele>402</ele>
        <time>2013-04-13T15:34:06Z</time>
      </trkpt>
      <trkpt lat="43.42429" lon="6.025">
        <ele>402</ele>
        <time>2013-04-13T15:34:13Z</time>
      </trkpt>
      <trkpt lat="43.42427" lon="6.02527">
        <ele>402</ele>
        <time>2013-04-13T15:34:18Z</time>
      </trkpt>
      <trkpt lat="43.42424" lon="6.02537">
        <ele>402</ele>
        <time>2013-04-13T15:34:20Z</time>
      </trkpt>
      <trkpt lat="43.4242" lon="6.02561">
        <ele>401.60000610352</ele>
        <time>2013-04-13T15:34:24Z</time>
      </trkpt>
      <trkpt lat="43.4242" lon="6.02568">
        <ele>401.20001220703</ele>
        <time>2013-04-13T15:34:25Z</time>
      </trkpt>
      <trkpt lat="43.42419" lon="6.02574">
        <ele>400.79998779297</ele>
        <time>2013-04-13T15:34:26Z</time>
      </trkpt>
      <trkpt lat="43.42419" lon="6.0258">
        <ele>400.20001220703</ele>
        <time>2013-04-13T15:34:27Z</time>
      </trkpt>
      <trkpt lat="43.42419" lon="6.02587">
        <ele>399.79998779297</ele>
        <time>2013-04-13T15:34:28Z</time>
      </trkpt>
      <trkpt lat="43.4242" lon="6.02615">
        <ele>399.79998779297</ele>
        <time>2013-04-13T15:34:32Z</time>
      </trkpt>
      <trkpt lat="43.42429" lon="6.02626">
        <ele>399.39999389648</ele>
        <time>2013-04-13T15:34:35Z</time>
      </trkpt>
      <trkpt lat="43.42434" lon="6.02629">
        <ele>398.60000610352</ele>
        <time>2013-04-13T15:34:37Z</time>
      </trkpt>
      <trkpt lat="43.42437" lon="6.02636">
        <ele>397.60000610352</ele>
        <time>2013-04-13T15:34:39Z</time>
      </trkpt>
      <trkpt lat="43.4244" lon="6.02648">
        <ele>397.60000610352</ele>
        <time>2013-04-13T15:34:42Z</time>
      </trkpt>
      <trkpt lat="43.4244" lon="6.02652">
        <ele>397.60000610352</ele>
        <time>2013-04-13T15:34:43Z</time>
      </trkpt>
      <trkpt lat="43.4244" lon="6.02656">
        <ele>397.60000610352</ele>
        <time>2013-04-13T15:34:44Z</time>
      </trkpt>
      <trkpt lat="43.42442" lon="6.02681">
        <ele>397.60000610352</ele>
        <time>2013-04-13T15:34:50Z</time>
      </trkpt>
      <trkpt lat="43.42441" lon="6.027">
        <ele>399</ele>
        <time>2013-04-13T15:34:55Z</time>
      </trkpt>
      <trkpt lat="43.42441" lon="6.02726">
        <ele>399.79998779297</ele>
        <time>2013-04-13T15:35:02Z</time>
      </trkpt>
      <trkpt lat="43.42442" lon="6.0273">
        <ele>399.79998779297</ele>
        <time>2013-04-13T15:35:03Z</time>
      </trkpt>
      <trkpt lat="43.42439" lon="6.02744">
        <ele>399.79998779297</ele>
        <time>2013-04-13T15:35:07Z</time>
      </trkpt>
      <trkpt lat="43.42439" lon="6.02748">
        <ele>399.79998779297</ele>
        <time>2013-04-13T15:35:08Z</time>
      </trkpt>
      <trkpt lat="43.42431" lon="6.02765">
        <ele>401.79998779297</ele>
        <time>2013-04-13T15:35:14Z</time>
      </trkpt>
      <trkpt lat="43.4243" lon="6.02772">
        <ele>401.79998779297</ele>
        <time>2013-04-13T15:35:16Z</time>
      </trkpt>
      <trkpt lat="43.4243" lon="6.0278">
        <ele>401.79998779297</ele>
        <time>2013-04-13T15:35:18Z</time>
      </trkpt>
      <trkpt lat="43.4243" lon="6.02799">
        <ele>401.79998779297</ele>
        <time>2013-04-13T15:35:23Z</time>
      </trkpt>
      <trkpt lat="43.42426" lon="6.02808">
        <ele>401.79998779297</ele>
        <time>2013-04-13T15:35:26Z</time>
      </trkpt>
      <trkpt lat="43.42422" lon="6.02818">
        <ele>402.60000610352</ele>
        <time>2013-04-13T15:35:29Z</time>
      </trkpt>
      <trkpt lat="43.42419" lon="6.02829">
        <ele>404</ele>
        <time>2013-04-13T15:35:32Z</time>
      </trkpt>
      <trkpt lat="43.42414" lon="6.02839">
        <ele>404</ele>
        <time>2013-04-13T15:35:35Z</time>
      </trkpt>
      <trkpt lat="43.42407" lon="6.02858">
        <ele>404</ele>
        <time>2013-04-13T15:35:41Z</time>
      </trkpt>
      <trkpt lat="43.42402" lon="6.02867">
        <ele>404.39999389648</ele>
        <time>2013-04-13T15:35:45Z</time>
      </trkpt>
      <trkpt lat="43.42393" lon="6.02888">
        <ele>406</ele>
        <time>2013-04-13T15:35:54Z</time>
      </trkpt>
      <trkpt lat="43.42391" lon="6.02893">
        <ele>406</ele>
        <time>2013-04-13T15:35:57Z</time>
      </trkpt>
      <trkpt lat="43.42389" lon="6.02898">
        <ele>406</ele>
        <time>2013-04-13T15:36:00Z</time>
      </trkpt>
      <trkpt lat="43.42386" lon="6.02908">
        <ele>406</ele>
        <time>2013-04-13T15:36:05Z</time>
      </trkpt>
      <trkpt lat="43.42382" lon="6.02925">
        <ele>406</ele>
        <time>2013-04-13T15:36:14Z</time>
      </trkpt>
      <trkpt lat="43.42381" lon="6.02932">
        <ele>406</ele>
        <time>2013-04-13T15:36:18Z</time>
      </trkpt>
      <trkpt lat="43.42379" lon="6.0294">
        <ele>406</ele>
        <time>2013-04-13T15:36:22Z</time>
      </trkpt>
      <trkpt lat="43.42377" lon="6.02949">
        <ele>406</ele>
        <time>2013-04-13T15:36:26Z</time>
      </trkpt>
      <trkpt lat="43.42377" lon="6.02953">
        <ele>406</ele>
        <time>2013-04-13T15:36:28Z</time>
      </trkpt>
      <trkpt lat="43.42377" lon="6.02961">
        <ele>406</ele>
        <time>2013-04-13T15:36:31Z</time>
      </trkpt>
      <trkpt lat="43.42376" lon="6.02972">
        <ele>406</ele>
        <time>2013-04-13T15:36:35Z</time>
      </trkpt>
      <trkpt lat="43.42376" lon="6.02987">
        <ele>406</ele>
        <time>2013-04-13T15:36:44Z</time>
      </trkpt>
      <trkpt lat="43.42376" lon="6.0299">
        <ele>406</ele>
        <time>2013-04-13T15:36:49Z</time>
      </trkpt>
      <trkpt lat="43.42376" lon="6.02994">
        <ele>406</ele>
        <time>2013-04-13T15:36:50Z</time>
      </trkpt>
      <trkpt lat="43.42377" lon="6.03001">
        <ele>405.60000610352</ele>
        <time>2013-04-13T15:36:52Z</time>
      </trkpt>
      <trkpt lat="43.4238" lon="6.03009">
        <ele>404.79998779297</ele>
        <time>2013-04-13T15:36:54Z</time>
      </trkpt>
      <trkpt lat="43.42381" lon="6.03014">
        <ele>404.39999389648</ele>
        <time>2013-04-13T15:36:55Z</time>
      </trkpt>
      <trkpt lat="43.42382" lon="6.03019">
        <ele>404</ele>
        <time>2013-04-13T15:36:56Z</time>
      </trkpt>
      <trkpt lat="43.42382" lon="6.0303">
        <ele>403.39999389648</ele>
        <time>2013-04-13T15:36:58Z</time>
      </trkpt>
      <trkpt lat="43.42382" lon="6.03036">
        <ele>403</ele>
        <time>2013-04-13T15:36:59Z</time>
      </trkpt>
      <trkpt lat="43.42383" lon="6.03043">
        <ele>402.60000610352</ele>
        <time>2013-04-13T15:37:00Z</time>
      </trkpt>
      <trkpt lat="43.42383" lon="6.0305">
        <ele>402</ele>
        <time>2013-04-13T15:37:01Z</time>
      </trkpt>
      <trkpt lat="43.42382" lon="6.03057">
        <ele>401.60000610352</ele>
        <time>2013-04-13T15:37:02Z</time>
      </trkpt>
      <trkpt lat="43.42381" lon="6.03066">
        <ele>401.20001220703</ele>
        <time>2013-04-13T15:37:03Z</time>
      </trkpt>
      <trkpt lat="43.4238" lon="6.03075">
        <ele>400.60000610352</ele>
        <time>2013-04-13T15:37:04Z</time>
      </trkpt>
      <trkpt lat="43.42379" lon="6.03084">
        <ele>400.20001220703</ele>
        <time>2013-04-13T15:37:05Z</time>
      </trkpt>
      <trkpt lat="43.42377" lon="6.03094">
        <ele>399.60000610352</ele>
        <time>2013-04-13T15:37:06Z</time>
      </trkpt>
      <trkpt lat="43.42376" lon="6.03103">
        <ele>399</ele>
        <time>2013-04-13T15:37:07Z</time>
      </trkpt>
      <trkpt lat="43.42374" lon="6.03112">
        <ele>398.39999389648</ele>
        <time>2013-04-13T15:37:08Z</time>
      </trkpt>
      <trkpt lat="43.42373" lon="6.03122">
        <ele>397.79998779297</ele>
        <time>2013-04-13T15:37:09Z</time>
      </trkpt>
      <trkpt lat="43.42373" lon="6.03131">
        <ele>397.20001220703</ele>
        <time>2013-04-13T15:37:10Z</time>
      </trkpt>
      <trkpt lat="43.42372" lon="6.0314">
        <ele>396.39999389648</ele>
        <time>2013-04-13T15:37:11Z</time>
      </trkpt>
      <trkpt lat="43.42372" lon="6.03151">
        <ele>396</ele>
        <time>2013-04-13T15:37:12Z</time>
      </trkpt>
      <trkpt lat="43.42371" lon="6.0316">
        <ele>395.60000610352</ele>
        <time>2013-04-13T15:37:13Z</time>
      </trkpt>
      <trkpt lat="43.4237" lon="6.03169">
        <ele>395</ele>
        <time>2013-04-13T15:37:14Z</time>
      </trkpt>
      <trkpt lat="43.4237" lon="6.03178">
        <ele>394.60000610352</ele>
        <time>2013-04-13T15:37:15Z</time>
      </trkpt>
      <trkpt lat="43.4237" lon="6.03187">
        <ele>394.20001220703</ele>
        <time>2013-04-13T15:37:16Z</time>
      </trkpt>
      <trkpt lat="43.42369" lon="6.03211">
        <ele>394.20001220703</ele>
        <time>2013-04-13T15:37:19Z</time>
      </trkpt>
      <trkpt lat="43.42369" lon="6.0322">
        <ele>393.79998779297</ele>
        <time>2013-04-13T15:37:20Z</time>
      </trkpt>
      <trkpt lat="43.42368" lon="6.03235">
        <ele>392.39999389648</ele>
        <time>2013-04-13T15:37:22Z</time>
      </trkpt>
      <trkpt lat="43.42367" lon="6.03256">
        <ele>392</ele>
        <time>2013-04-13T15:37:25Z</time>
      </trkpt>
      <trkpt lat="43.42373" lon="6.03279">
        <ele>392</ele>
        <time>2013-04-13T15:37:29Z</time>
      </trkpt>
      <trkpt lat="43.42374" lon="6.03284">
        <ele>392</ele>
        <time>2013-04-13T15:37:30Z</time>
      </trkpt>
      <trkpt lat="43.42374" lon="6.03315">
        <ele>392</ele>
        <time>2013-04-13T15:37:36Z</time>
      </trkpt>
      <trkpt lat="43.42379" lon="6.03329">
        <ele>392</ele>
        <time>2013-04-13T15:37:40Z</time>
      </trkpt>
      <trkpt lat="43.42387" lon="6.03328">
        <ele>392</ele>
        <time>2013-04-13T15:37:43Z</time>
      </trkpt>
      <trkpt lat="43.42389" lon="6.03327">
        <ele>392</ele>
        <time>2013-04-13T15:37:44Z</time>
      </trkpt>
      <trkpt lat="43.4239" lon="6.03327">
        <ele>392</ele>
        <time>2013-04-13T15:37:47Z</time>
      </trkpt>
      <trkpt lat="43.4239" lon="6.03327">
        <ele>392</ele>
        <time>2013-04-13T15:37:53Z</time>
      </trkpt>
      <trkpt lat="43.42388" lon="6.03326">
        <ele>392</ele>
        <time>2013-04-13T15:37:59Z</time>
      </trkpt>
      <trkpt lat="43.42386" lon="6.03328">
        <ele>392</ele>
        <time>2013-04-13T15:38:05Z</time>
      </trkpt>
      <trkpt lat="43.42385" lon="6.03328">
        <ele>392</ele>
        <time>2013-04-13T15:38:11Z</time>
      </trkpt>
      <trkpt lat="43.42385" lon="6.03328">
        <ele>392</ele>
        <time>2013-04-13T15:38:31Z</time>
      </trkpt>
      <trkpt lat="43.42385" lon="6.03328">
        <ele>390.79998779297</ele>
        <time>2013-04-13T15:39:12Z</time>
      </trkpt>
      <trkpt lat="43.42385" lon="6.03328">
        <ele>390</ele>
        <time>2013-04-13T15:40:17Z</time>
      </trkpt>
      <trkpt lat="43.42385" lon="6.03328">
        <ele>390</ele>
        <time>2013-04-13T15:40:33Z</time>
      </trkpt>
      <trkpt lat="43.42385" lon="6.03328">
        <ele>390</ele>
        <time>2013-04-13T15:40:51Z</time>
      </trkpt>
      <trkpt lat="43.42385" lon="6.03328">
        <ele>390</ele>
        <time>2013-04-13T15:41:10Z</time>
      </trkpt>
      <trkpt lat="43.42385" lon="6.03328">
        <ele>390</ele>
        <time>2013-04-13T15:41:41Z</time>
      </trkpt>
      <trkpt lat="43.42385" lon="6.03328">
        <ele>390</ele>
        <time>2013-04-13T15:42:00Z</time>
      </trkpt>
      <trkpt lat="43.42385" lon="6.03328">
        <ele>390</ele>
        <time>2013-04-13T15:42:16Z</time>
      </trkpt>
      <trkpt lat="43.42385" lon="6.03328">
        <ele>390</ele>
        <time>2013-04-13T15:42:33Z</time>
      </trkpt>
      <trkpt lat="43.42385" lon="6.03328">
        <ele>390</ele>
        <time>2013-04-13T15:43:06Z</time>
      </trkpt>
      <trkpt lat="43.42386" lon="6.03328">
        <ele>390</ele>
        <time>2013-04-13T15:46:17Z</time>
      </trkpt>
      <trkpt lat="43.42386" lon="6.03328">
        <ele>390</ele>
        <time>2013-04-13T15:46:34Z</time>
      </trkpt>
      <trkpt lat="43.42386" lon="6.03328">
        <ele>390</ele>
        <time>2013-04-13T15:46:51Z</time>
      </trkpt>
      <trkpt lat="43.42386" lon="6.03328">
        <ele>390</ele>
        <time>2013-04-13T15:47:13Z</time>
      </trkpt>
      <trkpt lat="43.42387" lon="6.03328">
        <ele>390</ele>
        <time>2013-04-13T15:47:18Z</time>
      </trkpt>
      <trkpt lat="43.42387" lon="6.03328">
        <ele>390</ele>
        <time>2013-04-13T15:47:25Z</time>
      </trkpt>
      <trkpt lat="43.42391" lon="6.03326">
        <ele>390</ele>
        <time>2013-04-13T15:47:36Z</time>
      </trkpt>
      <trkpt lat="43.42404" lon="6.03323">
        <ele>390</ele>
        <time>2013-04-13T15:47:42Z</time>
      </trkpt>
      <trkpt lat="43.42413" lon="6.03322">
        <ele>389.60000610352</ele>
        <time>2013-04-13T15:47:46Z</time>
      </trkpt>
      <trkpt lat="43.42415" lon="6.03321">
        <ele>389.20001220703</ele>
        <time>2013-04-13T15:47:47Z</time>
      </trkpt>
      <trkpt lat="43.42418" lon="6.03321">
        <ele>388.79998779297</ele>
        <time>2013-04-13T15:47:48Z</time>
      </trkpt>
      <trkpt lat="43.42421" lon="6.0332">
        <ele>388.39999389648</ele>
        <time>2013-04-13T15:47:49Z</time>
      </trkpt>
      <trkpt lat="43.42424" lon="6.03319">
        <ele>388</ele>
        <time>2013-04-13T15:47:50Z</time>
      </trkpt>
      <trkpt lat="43.42427" lon="6.03318">
        <ele>387.60000610352</ele>
        <time>2013-04-13T15:47:51Z</time>
      </trkpt>
      <trkpt lat="43.42431" lon="6.03315">
        <ele>387.20001220703</ele>
        <time>2013-04-13T15:47:52Z</time>
      </trkpt>
      <trkpt lat="43.42435" lon="6.03314">
        <ele>386.79998779297</ele>
        <time>2013-04-13T15:47:53Z</time>
      </trkpt>
      <trkpt lat="43.42438" lon="6.03315">
        <ele>386.20001220703</ele>
        <time>2013-04-13T15:47:54Z</time>
      </trkpt>
      <trkpt lat="43.42442" lon="6.03315">
        <ele>385.60000610352</ele>
        <time>2013-04-13T15:47:55Z</time>
      </trkpt>
      <trkpt lat="43.42446" lon="6.03316">
        <ele>385</ele>
        <time>2013-04-13T15:47:56Z</time>
      </trkpt>
      <trkpt lat="43.4245" lon="6.03316">
        <ele>384.39999389648</ele>
        <time>2013-04-13T15:47:57Z</time>
      </trkpt>
      <trkpt lat="43.42457" lon="6.03314">
        <ele>383</ele>
        <time>2013-04-13T15:47:59Z</time>
      </trkpt>
      <trkpt lat="43.4246" lon="6.03312">
        <ele>382.39999389648</ele>
        <time>2013-04-13T15:48:00Z</time>
      </trkpt>
      <trkpt lat="43.42469" lon="6.03305">
        <ele>379.60000610352</ele>
        <time>2013-04-13T15:48:03Z</time>
      </trkpt>
      <trkpt lat="43.4247" lon="6.03303">
        <ele>379</ele>
        <time>2013-04-13T15:48:04Z</time>
      </trkpt>
      <trkpt lat="43.42475" lon="6.03299">
        <ele>377.79998779297</ele>
        <time>2013-04-13T15:48:06Z</time>
      </trkpt>
      <trkpt lat="43.42485" lon="6.03287">
        <ele>376.39999389648</ele>
        <time>2013-04-13T15:48:10Z</time>
      </trkpt>
      <trkpt lat="43.42488" lon="6.03283">
        <ele>376</ele>
        <time>2013-04-13T15:48:11Z</time>
      </trkpt>
      <trkpt lat="43.42489" lon="6.03279">
        <ele>375.60000610352</ele>
        <time>2013-04-13T15:48:12Z</time>
      </trkpt>
      <trkpt lat="43.4249" lon="6.03275">
        <ele>375.20001220703</ele>
        <time>2013-04-13T15:48:13Z</time>
      </trkpt>
      <trkpt lat="43.42493" lon="6.0327">
        <ele>374.79998779297</ele>
        <time>2013-04-13T15:48:14Z</time>
      </trkpt>
      <trkpt lat="43.42499" lon="6.03261">
        <ele>374.20001220703</ele>
        <time>2013-04-13T15:48:16Z</time>
      </trkpt>
      <trkpt lat="43.42502" lon="6.03258">
        <ele>373.79998779297</ele>
        <time>2013-04-13T15:48:17Z</time>
      </trkpt>
      <trkpt lat="43.42505" lon="6.03255">
        <ele>373.39999389648</ele>
        <time>2013-04-13T15:48:18Z</time>
      </trkpt>
      <trkpt lat="43.42508" lon="6.03253">
        <ele>373</ele>
        <time>2013-04-13T15:48:19Z</time>
      </trkpt>
      <trkpt lat="43.4251" lon="6.03253">
        <ele>372.60000610352</ele>
        <time>2013-04-13T15:48:20Z</time>
      </trkpt>
      <trkpt lat="43.42513" lon="6.03254">
        <ele>372.20001220703</ele>
        <time>2013-04-13T15:48:22Z</time>
      </trkpt>
      <trkpt lat="43.42515" lon="6.03254">
        <ele>371.39999389648</ele>
        <time>2013-04-13T15:48:24Z</time>
      </trkpt>
      <trkpt lat="43.42516" lon="6.03254">
        <ele>371</ele>
        <time>2013-04-13T15:48:25Z</time>
      </trkpt>
      <trkpt lat="43.42517" lon="6.03254">
        <ele>370.60000610352</ele>
        <time>2013-04-13T15:48:26Z</time>
      </trkpt>
      <trkpt lat="43.42517" lon="6.03255">
        <ele>370.60000610352</ele>
        <time>2013-04-13T15:48:29Z</time>
      </trkpt>
      <trkpt lat="43.42519" lon="6.03255">
        <ele>370.60000610352</ele>
        <time>2013-04-13T15:48:36Z</time>
      </trkpt>
      <trkpt lat="43.42523" lon="6.03255">
        <ele>370.60000610352</ele>
        <time>2013-04-13T15:48:38Z</time>
      </trkpt>
      <trkpt lat="43.42534" lon="6.03266">
        <ele>370.60000610352</ele>
        <time>2013-04-13T15:48:43Z</time>
      </trkpt>
      <trkpt lat="43.42537" lon="6.03278">
        <ele>370.60000610352</ele>
        <time>2013-04-13T15:48:49Z</time>
      </trkpt>
      <trkpt lat="43.42538" lon="6.03283">
        <ele>370.60000610352</ele>
        <time>2013-04-13T15:48:52Z</time>
      </trkpt>
      <trkpt lat="43.42538" lon="6.0329">
        <ele>370.60000610352</ele>
        <time>2013-04-13T15:48:55Z</time>
      </trkpt>
      <trkpt lat="43.42539" lon="6.03302">
        <ele>370.60000610352</ele>
        <time>2013-04-13T15:49:00Z</time>
      </trkpt>
      <trkpt lat="43.4254" lon="6.03307">
        <ele>370.60000610352</ele>
        <time>2013-04-13T15:49:02Z</time>
      </trkpt>
      <trkpt lat="43.4254" lon="6.03316">
        <ele>370.60000610352</ele>
        <time>2013-04-13T15:49:06Z</time>
      </trkpt>
      <trkpt lat="43.42539" lon="6.03321">
        <ele>370.60000610352</ele>
        <time>2013-04-13T15:49:08Z</time>
      </trkpt>
      <trkpt lat="43.42538" lon="6.03324">
        <ele>371.39999389648</ele>
        <time>2013-04-13T15:49:10Z</time>
      </trkpt>
      <trkpt lat="43.42538" lon="6.03331">
        <ele>372.60000610352</ele>
        <time>2013-04-13T15:49:14Z</time>
      </trkpt>
      <trkpt lat="43.4254" lon="6.03341">
        <ele>372.60000610352</ele>
        <time>2013-04-13T15:49:20Z</time>
      </trkpt>
      <trkpt lat="43.42544" lon="6.03352">
        <ele>372.60000610352</ele>
        <time>2013-04-13T15:49:26Z</time>
      </trkpt>
      <trkpt lat="43.42546" lon="6.03359">
        <ele>373</ele>
        <time>2013-04-13T15:49:30Z</time>
      </trkpt>
      <trkpt lat="43.42546" lon="6.03361">
        <ele>373.39999389648</ele>
        <time>2013-04-13T15:49:31Z</time>
      </trkpt>
      <trkpt lat="43.42546" lon="6.03363">
        <ele>373.79998779297</ele>
        <time>2013-04-13T15:49:32Z</time>
      </trkpt>
      <trkpt lat="43.42546" lon="6.03367">
        <ele>374.60000610352</ele>
        <time>2013-04-13T15:49:34Z</time>
      </trkpt>
      <trkpt lat="43.42545" lon="6.03386">
        <ele>374.60000610352</ele>
        <time>2013-04-13T15:49:45Z</time>
      </trkpt>
      <trkpt lat="43.42545" lon="6.03387">
        <ele>374.60000610352</ele>
        <time>2013-04-13T15:49:46Z</time>
      </trkpt>
      <trkpt lat="43.42546" lon="6.03391">
        <ele>375</ele>
        <time>2013-04-13T15:49:49Z</time>
      </trkpt>
      <trkpt lat="43.42547" lon="6.03392">
        <ele>375.39999389648</ele>
        <time>2013-04-13T15:49:50Z</time>
      </trkpt>
      <trkpt lat="43.42551" lon="6.03394">
        <ele>376.60000610352</ele>
        <time>2013-04-13T15:49:53Z</time>
      </trkpt>
      <trkpt lat="43.42562" lon="6.03398">
        <ele>376.60000610352</ele>
        <time>2013-04-13T15:50:03Z</time>
      </trkpt>
      <trkpt lat="43.42565" lon="6.034">
        <ele>376.60000610352</ele>
        <time>2013-04-13T15:50:05Z</time>
      </trkpt>
      <trkpt lat="43.42569" lon="6.03408">
        <ele>376.60000610352</ele>
        <time>2013-04-13T15:50:11Z</time>
      </trkpt>
      <trkpt lat="43.42579" lon="6.03422">
        <ele>376.60000610352</ele>
        <time>2013-04-13T15:50:22Z</time>
      </trkpt>
      <trkpt lat="43.42586" lon="6.03434">
        <ele>376.60000610352</ele>
        <time>2013-04-13T15:50:31Z</time>
      </trkpt>
      <trkpt lat="43.42591" lon="6.03438">
        <ele>376.60000610352</ele>
        <time>2013-04-13T15:50:37Z</time>
      </trkpt>
      <trkpt lat="43.42598" lon="6.03445">
        <ele>376.60000610352</ele>
        <time>2013-04-13T15:50:44Z</time>
      </trkpt>
      <trkpt lat="43.42606" lon="6.03452">
        <ele>376.60000610352</ele>
        <time>2013-04-13T15:50:51Z</time>
      </trkpt>
      <trkpt lat="43.42607" lon="6.03455">
        <ele>376.60000610352</ele>
        <time>2013-04-13T15:50:53Z</time>
      </trkpt>
      <trkpt lat="43.42613" lon="6.0346">
        <ele>378.20001220703</ele>
        <time>2013-04-13T15:50:58Z</time>
      </trkpt>
      <trkpt lat="43.42618" lon="6.03464">
        <ele>378.60000610352</ele>
        <time>2013-04-13T15:51:02Z</time>
      </trkpt>
      <trkpt lat="43.42621" lon="6.03464">
        <ele>379</ele>
        <time>2013-04-13T15:51:05Z</time>
      </trkpt>
      <trkpt lat="43.42624" lon="6.03466">
        <ele>380</ele>
        <time>2013-04-13T15:51:07Z</time>
      </trkpt>
      <trkpt lat="43.42631" lon="6.0347">
        <ele>380.79998779297</ele>
        <time>2013-04-13T15:51:13Z</time>
      </trkpt>
      <trkpt lat="43.42632" lon="6.03471">
        <ele>380.79998779297</ele>
        <time>2013-04-13T15:51:14Z</time>
      </trkpt>
      <trkpt lat="43.42633" lon="6.03474">
        <ele>381.20001220703</ele>
        <time>2013-04-13T15:51:17Z</time>
      </trkpt>
      <trkpt lat="43.42635" lon="6.03479">
        <ele>382.79998779297</ele>
        <time>2013-04-13T15:51:21Z</time>
      </trkpt>
      <trkpt lat="43.42639" lon="6.03485">
        <ele>382.79998779297</ele>
        <time>2013-04-13T15:51:27Z</time>
      </trkpt>
      <trkpt lat="43.42642" lon="6.03494">
        <ele>382.79998779297</ele>
        <time>2013-04-13T15:51:34Z</time>
      </trkpt>
      <trkpt lat="43.42644" lon="6.03502">
        <ele>382.79998779297</ele>
        <time>2013-04-13T15:51:40Z</time>
      </trkpt>
      <trkpt lat="43.42645" lon="6.03507">
        <ele>384</ele>
        <time>2013-04-13T15:51:44Z</time>
      </trkpt>
      <trkpt lat="43.42646" lon="6.03508">
        <ele>384.79998779297</ele>
        <time>2013-04-13T15:51:45Z</time>
      </trkpt>
      <trkpt lat="43.42646" lon="6.03511">
        <ele>384.79998779297</ele>
        <time>2013-04-13T15:51:48Z</time>
      </trkpt>
      <trkpt lat="43.42646" lon="6.03511">
        <ele>384.79998779297</ele>
        <time>2013-04-13T15:52:05Z</time>
      </trkpt>
      <trkpt lat="43.42646" lon="6.03511">
        <ele>384.79998779297</ele>
        <time>2013-04-13T15:52:23Z</time>
      </trkpt>
      <trkpt lat="43.42647" lon="6.03512">
        <ele>384.79998779297</ele>
        <time>2013-04-13T15:52:24Z</time>
      </trkpt>
      <trkpt lat="43.4265" lon="6.03522">
        <ele>384.79998779297</ele>
        <time>2013-04-13T15:52:29Z</time>
      </trkpt>
      <trkpt lat="43.42652" lon="6.03534">
        <ele>384.79998779297</ele>
        <time>2013-04-13T15:52:34Z</time>
      </trkpt>
      <trkpt lat="43.42655" lon="6.03559">
        <ele>384.79998779297</ele>
        <time>2013-04-13T15:52:43Z</time>
      </trkpt>
      <trkpt lat="43.42657" lon="6.03569">
        <ele>384.79998779297</ele>
        <time>2013-04-13T15:52:46Z</time>
      </trkpt>
      <trkpt lat="43.42658" lon="6.03577">
        <ele>384.39999389648</ele>
        <time>2013-04-13T15:52:48Z</time>
      </trkpt>
      <trkpt lat="43.42658" lon="6.03582">
        <ele>384</ele>
        <time>2013-04-13T15:52:49Z</time>
      </trkpt>
      <trkpt lat="43.42659" lon="6.03586">
        <ele>383.60000610352</ele>
        <time>2013-04-13T15:52:50Z</time>
      </trkpt>
      <trkpt lat="43.4266" lon="6.0359">
        <ele>383.20001220703</ele>
        <time>2013-04-13T15:52:51Z</time>
      </trkpt>
      <trkpt lat="43.4266" lon="6.03594">
        <ele>382.79998779297</ele>
        <time>2013-04-13T15:52:52Z</time>
      </trkpt>
      <trkpt lat="43.42663" lon="6.03601">
        <ele>382.79998779297</ele>
        <time>2013-04-13T15:52:55Z</time>
      </trkpt>
      <trkpt lat="43.42666" lon="6.03604">
        <ele>382.79998779297</ele>
        <time>2013-04-13T15:52:57Z</time>
      </trkpt>
      <trkpt lat="43.42672" lon="6.0361">
        <ele>382.79998779297</ele>
        <time>2013-04-13T15:53:01Z</time>
      </trkpt>
      <trkpt lat="43.42672" lon="6.03611">
        <ele>382.79998779297</ele>
        <time>2013-04-13T15:53:02Z</time>
      </trkpt>
      <trkpt lat="43.42677" lon="6.0362">
        <ele>382.79998779297</ele>
        <time>2013-04-13T15:53:06Z</time>
      </trkpt>
      <trkpt lat="43.42681" lon="6.03637">
        <ele>382.79998779297</ele>
        <time>2013-04-13T15:53:13Z</time>
      </trkpt>
      <trkpt lat="43.42682" lon="6.03642">
        <ele>382.79998779297</ele>
        <time>2013-04-13T15:53:15Z</time>
      </trkpt>
      <trkpt lat="43.42681" lon="6.03655">
        <ele>382.79998779297</ele>
        <time>2013-04-13T15:53:21Z</time>
      </trkpt>
      <trkpt lat="43.42681" lon="6.03667">
        <ele>382.79998779297</ele>
        <time>2013-04-13T15:53:27Z</time>
      </trkpt>
      <trkpt lat="43.4268" lon="6.0367">
        <ele>382.79998779297</ele>
        <time>2013-04-13T15:53:28Z</time>
      </trkpt>
      <trkpt lat="43.42682" lon="6.03671">
        <ele>382.79998779297</ele>
        <time>2013-04-13T15:53:32Z</time>
      </trkpt>
      <trkpt lat="43.42682" lon="6.03674">
        <ele>382.79998779297</ele>
        <time>2013-04-13T15:53:45Z</time>
      </trkpt>
      <trkpt lat="43.42682" lon="6.03684">
        <ele>381.79998779297</ele>
        <time>2013-04-13T15:53:48Z</time>
      </trkpt>
      <trkpt lat="43.42682" lon="6.03687">
        <ele>381.39999389648</ele>
        <time>2013-04-13T15:53:49Z</time>
      </trkpt>
      <trkpt lat="43.42682" lon="6.03688">
        <ele>381</ele>
        <time>2013-04-13T15:53:50Z</time>
      </trkpt>
      <trkpt lat="43.42681" lon="6.03693">
        <ele>380.60000610352</ele>
        <time>2013-04-13T15:53:52Z</time>
      </trkpt>
      <trkpt lat="43.4268" lon="6.03704">
        <ele>380.60000610352</ele>
        <time>2013-04-13T15:53:55Z</time>
      </trkpt>
      <trkpt lat="43.42681" lon="6.03708">
        <ele>380.20001220703</ele>
        <time>2013-04-13T15:53:56Z</time>
      </trkpt>
      <trkpt lat="43.42681" lon="6.03713">
        <ele>379.79998779297</ele>
        <time>2013-04-13T15:53:57Z</time>
      </trkpt>
      <trkpt lat="43.42681" lon="6.03717">
        <ele>379.39999389648</ele>
        <time>2013-04-13T15:53:58Z</time>
      </trkpt>
      <trkpt lat="43.4268" lon="6.03721">
        <ele>378.79998779297</ele>
        <time>2013-04-13T15:53:59Z</time>
      </trkpt>
      <trkpt lat="43.42682" lon="6.03727">
        <ele>378.39999389648</ele>
        <time>2013-04-13T15:54:01Z</time>
      </trkpt>
      <trkpt lat="43.42681" lon="6.03738">
        <ele>378</ele>
        <time>2013-04-13T15:54:04Z</time>
      </trkpt>
      <trkpt lat="43.4268" lon="6.03741">
        <ele>377.60000610352</ele>
        <time>2013-04-13T15:54:05Z</time>
      </trkpt>
      <trkpt lat="43.4268" lon="6.03744">
        <ele>377.20001220703</ele>
        <time>2013-04-13T15:54:06Z</time>
      </trkpt>
      <trkpt lat="43.4268" lon="6.03746">
        <ele>376.79998779297</ele>
        <time>2013-04-13T15:54:07Z</time>
      </trkpt>
      <trkpt lat="43.4268" lon="6.03748">
        <ele>376.39999389648</ele>
        <time>2013-04-13T15:54:08Z</time>
      </trkpt>
      <trkpt lat="43.42678" lon="6.03757">
        <ele>376</ele>
        <time>2013-04-13T15:54:11Z</time>
      </trkpt>
      <trkpt lat="43.42678" lon="6.03759">
        <ele>375.60000610352</ele>
        <time>2013-04-13T15:54:12Z</time>
      </trkpt>
      <trkpt lat="43.42678" lon="6.03761">
        <ele>374.79998779297</ele>
        <time>2013-04-13T15:54:13Z</time>
      </trkpt>
      <trkpt lat="43.42677" lon="6.03763">
        <ele>374.39999389648</ele>
        <time>2013-04-13T15:54:14Z</time>
      </trkpt>
      <trkpt lat="43.42677" lon="6.03776">
        <ele>373</ele>
        <time>2013-04-13T15:54:19Z</time>
      </trkpt>
      <trkpt lat="43.42677" lon="6.03782">
        <ele>372.20001220703</ele>
        <time>2013-04-13T15:54:21Z</time>
      </trkpt>
      <trkpt lat="43.42674" lon="6.0379">
        <ele>371.20001220703</ele>
        <time>2013-04-13T15:54:24Z</time>
      </trkpt>
      <trkpt lat="43.42672" lon="6.03798">
        <ele>370</ele>
        <time>2013-04-13T15:54:27Z</time>
      </trkpt>
      <trkpt lat="43.42672" lon="6.03804">
        <ele>369.60000610352</ele>
        <time>2013-04-13T15:54:29Z</time>
      </trkpt>
      <trkpt lat="43.42672" lon="6.03806">
        <ele>369</ele>
        <time>2013-04-13T15:54:30Z</time>
      </trkpt>
      <trkpt lat="43.4268" lon="6.03814">
        <ele>367.39999389648</ele>
        <time>2013-04-13T15:54:35Z</time>
      </trkpt>
      <trkpt lat="43.42683" lon="6.03819">
        <ele>366.20001220703</ele>
        <time>2013-04-13T15:54:37Z</time>
      </trkpt>
      <trkpt lat="43.42683" lon="6.03823">
        <ele>365.60000610352</ele>
        <time>2013-04-13T15:54:38Z</time>
      </trkpt>
      <trkpt lat="43.42683" lon="6.03826">
        <ele>365</ele>
        <time>2013-04-13T15:54:39Z</time>
      </trkpt>
      <trkpt lat="43.42684" lon="6.03831">
        <ele>364</ele>
        <time>2013-04-13T15:54:41Z</time>
      </trkpt>
      <trkpt lat="43.42685" lon="6.03841">
        <ele>363.60000610352</ele>
        <time>2013-04-13T15:54:44Z</time>
      </trkpt>
      <trkpt lat="43.42685" lon="6.03848">
        <ele>362.60000610352</ele>
        <time>2013-04-13T15:54:46Z</time>
      </trkpt>
      <trkpt lat="43.42685" lon="6.0385">
        <ele>362</ele>
        <time>2013-04-13T15:54:47Z</time>
      </trkpt>
      <trkpt lat="43.42686" lon="6.03852">
        <ele>361.20001220703</ele>
        <time>2013-04-13T15:54:49Z</time>
      </trkpt>
      <trkpt lat="43.42686" lon="6.03852">
        <ele>361.20001220703</ele>
        <time>2013-04-13T15:54:50Z</time>
      </trkpt>
      <trkpt lat="43.42686" lon="6.03852">
        <ele>361.20001220703</ele>
        <time>2013-04-13T15:54:57Z</time>
      </trkpt>
      <trkpt lat="43.42686" lon="6.03855">
        <ele>361.20001220703</ele>
        <time>2013-04-13T15:54:59Z</time>
      </trkpt>
      <trkpt lat="43.42686" lon="6.03868">
        <ele>360.20001220703</ele>
        <time>2013-04-13T15:55:03Z</time>
      </trkpt>
      <trkpt lat="43.42686" lon="6.03872">
        <ele>359.79998779297</ele>
        <time>2013-04-13T15:55:04Z</time>
      </trkpt>
      <trkpt lat="43.42686" lon="6.03876">
        <ele>359.20001220703</ele>
        <time>2013-04-13T15:55:05Z</time>
      </trkpt>
      <trkpt lat="43.42686" lon="6.0388">
        <ele>358.79998779297</ele>
        <time>2013-04-13T15:55:06Z</time>
      </trkpt>
      <trkpt lat="43.42686" lon="6.03896">
        <ele>358.79998779297</ele>
        <time>2013-04-13T15:55:10Z</time>
      </trkpt>
      <trkpt lat="43.42689" lon="6.03904">
        <ele>358.39999389648</ele>
        <time>2013-04-13T15:55:12Z</time>
      </trkpt>
      <trkpt lat="43.42693" lon="6.03912">
        <ele>357</ele>
        <time>2013-04-13T15:55:15Z</time>
      </trkpt>
      <trkpt lat="43.42692" lon="6.03916">
        <ele>356.60000610352</ele>
        <time>2013-04-13T15:55:16Z</time>
      </trkpt>
      <trkpt lat="43.4269" lon="6.03923">
        <ele>356.20001220703</ele>
        <time>2013-04-13T15:55:18Z</time>
      </trkpt>
      <trkpt lat="43.4269" lon="6.03931">
        <ele>354.79998779297</ele>
        <time>2013-04-13T15:55:21Z</time>
      </trkpt>
      <trkpt lat="43.42691" lon="6.03934">
        <ele>354.39999389648</ele>
        <time>2013-04-13T15:55:22Z</time>
      </trkpt>
      <trkpt lat="43.42698" lon="6.03943">
        <ele>354</ele>
        <time>2013-04-13T15:55:25Z</time>
      </trkpt>
      <trkpt lat="43.42704" lon="6.03948">
        <ele>352.79998779297</ele>
        <time>2013-04-13T15:55:27Z</time>
      </trkpt>
      <trkpt lat="43.42711" lon="6.0395">
        <ele>352.39999389648</ele>
        <time>2013-04-13T15:55:29Z</time>
      </trkpt>
      <trkpt lat="43.42728" lon="6.03955">
        <ele>352.39999389648</ele>
        <time>2013-04-13T15:55:35Z</time>
      </trkpt>
      <trkpt lat="43.42726" lon="6.03973">
        <ele>352.39999389648</ele>
        <time>2013-04-13T15:55:39Z</time>
      </trkpt>
      <trkpt lat="43.4272" lon="6.03996">
        <ele>351.60000610352</ele>
        <time>2013-04-13T15:55:46Z</time>
      </trkpt>
      <trkpt lat="43.42719" lon="6.04001">
        <ele>350.79998779297</ele>
        <time>2013-04-13T15:55:48Z</time>
      </trkpt>
      <trkpt lat="43.42718" lon="6.04003">
        <ele>350.39999389648</ele>
        <time>2013-04-13T15:55:49Z</time>
      </trkpt>
      <trkpt lat="43.42715" lon="6.04011">
        <ele>350.39999389648</ele>
        <time>2013-04-13T15:55:52Z</time>
      </trkpt>
      <trkpt lat="43.42708" lon="6.04023">
        <ele>350.39999389648</ele>
        <time>2013-04-13T15:55:56Z</time>
      </trkpt>
      <trkpt lat="43.42698" lon="6.04041">
        <ele>350</ele>
        <time>2013-04-13T15:56:01Z</time>
      </trkpt>
      <trkpt lat="43.42697" lon="6.04045">
        <ele>349.60000610352</ele>
        <time>2013-04-13T15:56:02Z</time>
      </trkpt>
      <trkpt lat="43.42696" lon="6.04049">
        <ele>349.20001220703</ele>
        <time>2013-04-13T15:56:03Z</time>
      </trkpt>
      <trkpt lat="43.42694" lon="6.04053">
        <ele>348.79998779297</ele>
        <time>2013-04-13T15:56:04Z</time>
      </trkpt>
      <trkpt lat="43.42694" lon="6.04057">
        <ele>348.39999389648</ele>
        <time>2013-04-13T15:56:05Z</time>
      </trkpt>
      <trkpt lat="43.42693" lon="6.04064">
        <ele>348.39999389648</ele>
        <time>2013-04-13T15:56:07Z</time>
      </trkpt>
      <trkpt lat="43.42693" lon="6.04081">
        <ele>348.39999389648</ele>
        <time>2013-04-13T15:56:12Z</time>
      </trkpt>
      <trkpt lat="43.42694" lon="6.04097">
        <ele>348.39999389648</ele>
        <time>2013-04-13T15:56:18Z</time>
      </trkpt>
      <trkpt lat="43.42688" lon="6.0411">
        <ele>348.39999389648</ele>
        <time>2013-04-13T15:56:23Z</time>
      </trkpt>
      <trkpt lat="43.42685" lon="6.04112">
        <ele>348.39999389648</ele>
        <time>2013-04-13T15:56:24Z</time>
      </trkpt>
      <trkpt lat="43.4267" lon="6.0412">
        <ele>348.39999389648</ele>
        <time>2013-04-13T15:56:28Z</time>
      </trkpt>
      <trkpt lat="43.42661" lon="6.0413">
        <ele>347.39999389648</ele>
        <time>2013-04-13T15:56:31Z</time>
      </trkpt>
      <trkpt lat="43.42659" lon="6.04134">
        <ele>347</ele>
        <time>2013-04-13T15:56:32Z</time>
      </trkpt>
      <trkpt lat="43.42657" lon="6.04139">
        <ele>346.60000610352</ele>
        <time>2013-04-13T15:56:33Z</time>
      </trkpt>
      <trkpt lat="43.42655" lon="6.04144">
        <ele>346.20001220703</ele>
        <time>2013-04-13T15:56:34Z</time>
      </trkpt>
      <trkpt lat="43.42648" lon="6.04166">
        <ele>346.20001220703</ele>
        <time>2013-04-13T15:56:38Z</time>
      </trkpt>
      <trkpt lat="43.42646" lon="6.04171">
        <ele>345.79998779297</ele>
        <time>2013-04-13T15:56:39Z</time>
      </trkpt>
      <trkpt lat="43.42634" lon="6.0419">
        <ele>344</ele>
        <time>2013-04-13T15:56:43Z</time>
      </trkpt>
      <trkpt lat="43.42633" lon="6.04194">
        <ele>344</ele>
        <time>2013-04-13T15:56:44Z</time>
      </trkpt>
      <trkpt lat="43.42633" lon="6.04207">
        <ele>344</ele>
        <time>2013-04-13T15:56:47Z</time>
      </trkpt>
      <trkpt lat="43.42636" lon="6.04226">
        <ele>343.60000610352</ele>
        <time>2013-04-13T15:56:51Z</time>
      </trkpt>
      <trkpt lat="43.42638" lon="6.04237">
        <ele>342.60000610352</ele>
        <time>2013-04-13T15:56:53Z</time>
      </trkpt>
      <trkpt lat="43.4264" lon="6.04248">
        <ele>341.79998779297</ele>
        <time>2013-04-13T15:56:55Z</time>
      </trkpt>
      <trkpt lat="43.42641" lon="6.04255">
        <ele>341.79998779297</ele>
        <time>2013-04-13T15:56:56Z</time>
      </trkpt>
      <trkpt lat="43.42643" lon="6.04261">
        <ele>341.79998779297</ele>
        <time>2013-04-13T15:56:57Z</time>
      </trkpt>
      <trkpt lat="43.42646" lon="6.04275">
        <ele>341.39999389648</ele>
        <time>2013-04-13T15:56:59Z</time>
      </trkpt>
      <trkpt lat="43.42648" lon="6.04281">
        <ele>340.79998779297</ele>
        <time>2013-04-13T15:57:00Z</time>
      </trkpt>
      <trkpt lat="43.42649" lon="6.04288">
        <ele>340.39999389648</ele>
        <time>2013-04-13T15:57:01Z</time>
      </trkpt>
      <trkpt lat="43.42651" lon="6.04294">
        <ele>340</ele>
        <time>2013-04-13T15:57:02Z</time>
      </trkpt>
      <trkpt lat="43.42654" lon="6.043">
        <ele>339.39999389648</ele>
        <time>2013-04-13T15:57:03Z</time>
      </trkpt>
      <trkpt lat="43.42656" lon="6.04306">
        <ele>339.39999389648</ele>
        <time>2013-04-13T15:57:04Z</time>
      </trkpt>
      <trkpt lat="43.42657" lon="6.04316">
        <ele>338.60000610352</ele>
        <time>2013-04-13T15:57:06Z</time>
      </trkpt>
      <trkpt lat="43.42651" lon="6.04329">
        <ele>337.39999389648</ele>
        <time>2013-04-13T15:57:09Z</time>
      </trkpt>
      <trkpt lat="43.42651" lon="6.04334">
        <ele>337.39999389648</ele>
        <time>2013-04-13T15:57:10Z</time>
      </trkpt>
      <trkpt lat="43.42651" lon="6.04343">
        <ele>337.39999389648</ele>
        <time>2013-04-13T15:57:12Z</time>
      </trkpt>
      <trkpt lat="43.42652" lon="6.04352">
        <ele>337.39999389648</ele>
        <time>2013-04-13T15:57:14Z</time>
      </trkpt>
      <trkpt lat="43.42653" lon="6.04357">
        <ele>336.79998779297</ele>
        <time>2013-04-13T15:57:15Z</time>
      </trkpt>
      <trkpt lat="43.4266" lon="6.04376">
        <ele>335</ele>
        <time>2013-04-13T15:57:19Z</time>
      </trkpt>
      <trkpt lat="43.42662" lon="6.04392">
        <ele>334.60000610352</ele>
        <time>2013-04-13T15:57:22Z</time>
      </trkpt>
      <trkpt lat="43.42661" lon="6.04398">
        <ele>334.20001220703</ele>
        <time>2013-04-13T15:57:23Z</time>
      </trkpt>
      <trkpt lat="43.42661" lon="6.04403">
        <ele>333.79998779297</ele>
        <time>2013-04-13T15:57:24Z</time>
      </trkpt>
      <trkpt lat="43.42661" lon="6.04408">
        <ele>333.39999389648</ele>
        <time>2013-04-13T15:57:25Z</time>
      </trkpt>
      <trkpt lat="43.4266" lon="6.04412">
        <ele>333</ele>
        <time>2013-04-13T15:57:26Z</time>
      </trkpt>
      <trkpt lat="43.4266" lon="6.04422">
        <ele>333</ele>
        <time>2013-04-13T15:57:28Z</time>
      </trkpt>
      <trkpt lat="43.42661" lon="6.04436">
        <ele>332.39999389648</ele>
        <time>2013-04-13T15:57:32Z</time>
      </trkpt>
      <trkpt lat="43.42661" lon="6.04439">
        <ele>332</ele>
        <time>2013-04-13T15:57:33Z</time>
      </trkpt>
      <trkpt lat="43.42662" lon="6.04442">
        <ele>331.60000610352</ele>
        <time>2013-04-13T15:57:34Z</time>
      </trkpt>
      <trkpt lat="43.42664" lon="6.04452">
        <ele>330.79998779297</ele>
        <time>2013-04-13T15:57:37Z</time>
      </trkpt>
      <trkpt lat="43.42665" lon="6.04455">
        <ele>330.39999389648</ele>
        <time>2013-04-13T15:57:39Z</time>
      </trkpt>
      <trkpt lat="43.42665" lon="6.04455">
        <ele>330</ele>
        <time>2013-04-13T15:57:40Z</time>
      </trkpt>
      <trkpt lat="43.42665" lon="6.04455">
        <ele>329.60000610352</ele>
        <time>2013-04-13T15:57:41Z</time>
      </trkpt>
      <trkpt lat="43.42665" lon="6.04455">
        <ele>328.60000610352</ele>
        <time>2013-04-13T15:57:43Z</time>
      </trkpt>
      <trkpt lat="43.42666" lon="6.04458">
        <ele>328.60000610352</ele>
        <time>2013-04-13T15:57:46Z</time>
      </trkpt>
      <trkpt lat="43.42665" lon="6.04461">
        <ele>328.60000610352</ele>
        <time>2013-04-13T15:57:47Z</time>
      </trkpt>
      <trkpt lat="43.42667" lon="6.04477">
        <ele>328.60000610352</ele>
        <time>2013-04-13T15:57:51Z</time>
      </trkpt>
      <trkpt lat="43.42667" lon="6.04482">
        <ele>328.60000610352</ele>
        <time>2013-04-13T15:57:52Z</time>
      </trkpt>
      <trkpt lat="43.42667" lon="6.04493">
        <ele>328.20001220703</ele>
        <time>2013-04-13T15:57:54Z</time>
      </trkpt>
      <trkpt lat="43.42668" lon="6.04498">
        <ele>327.39999389648</ele>
        <time>2013-04-13T15:57:55Z</time>
      </trkpt>
      <trkpt lat="43.42669" lon="6.04504">
        <ele>326.79998779297</ele>
        <time>2013-04-13T15:57:56Z</time>
      </trkpt>
      <trkpt lat="43.42671" lon="6.0451">
        <ele>326.39999389648</ele>
        <time>2013-04-13T15:57:57Z</time>
      </trkpt>
      <trkpt lat="43.42674" lon="6.04516">
        <ele>326</ele>
        <time>2013-04-13T15:57:58Z</time>
      </trkpt>
      <trkpt lat="43.42676" lon="6.04521">
        <ele>325.60000610352</ele>
        <time>2013-04-13T15:57:59Z</time>
      </trkpt>
      <trkpt lat="43.42679" lon="6.04527">
        <ele>325.20001220703</ele>
        <time>2013-04-13T15:58:00Z</time>
      </trkpt>
      <trkpt lat="43.42685" lon="6.04537">
        <ele>324.20001220703</ele>
        <time>2013-04-13T15:58:02Z</time>
      </trkpt>
      <trkpt lat="43.4269" lon="6.04547">
        <ele>323.39999389648</ele>
        <time>2013-04-13T15:58:04Z</time>
      </trkpt>
      <trkpt lat="43.42691" lon="6.04551">
        <ele>323</ele>
        <time>2013-04-13T15:58:05Z</time>
      </trkpt>
      <trkpt lat="43.42694" lon="6.04561">
        <ele>322.20001220703</ele>
        <time>2013-04-13T15:58:07Z</time>
      </trkpt>
      <trkpt lat="43.42698" lon="6.04577">
        <ele>321.79998779297</ele>
        <time>2013-04-13T15:58:10Z</time>
      </trkpt>
      <trkpt lat="43.42699" lon="6.04588">
        <ele>320.79998779297</ele>
        <time>2013-04-13T15:58:12Z</time>
      </trkpt>
      <trkpt lat="43.42701" lon="6.04619">
        <ele>319.79998779297</ele>
        <time>2013-04-13T15:58:17Z</time>
      </trkpt>
      <trkpt lat="43.42701" lon="6.04637">
        <ele>319.39999389648</ele>
        <time>2013-04-13T15:58:20Z</time>
      </trkpt>
      <trkpt lat="43.427" lon="6.04643">
        <ele>319</ele>
        <time>2013-04-13T15:58:21Z</time>
      </trkpt>
      <trkpt lat="43.42701" lon="6.04654">
        <ele>318.20001220703</ele>
        <time>2013-04-13T15:58:23Z</time>
      </trkpt>
      <trkpt lat="43.42704" lon="6.04682">
        <ele>317.79998779297</ele>
        <time>2013-04-13T15:58:28Z</time>
      </trkpt>
      <trkpt lat="43.42703" lon="6.04694">
        <ele>317.20001220703</ele>
        <time>2013-04-13T15:58:30Z</time>
      </trkpt>
      <trkpt lat="43.42702" lon="6.04711">
        <ele>315.79998779297</ele>
        <time>2013-04-13T15:58:33Z</time>
      </trkpt>
      <trkpt lat="43.42702" lon="6.04717">
        <ele>315.20001220703</ele>
        <time>2013-04-13T15:58:34Z</time>
      </trkpt>
      <trkpt lat="43.42707" lon="6.04742">
        <ele>314.39999389648</ele>
        <time>2013-04-13T15:58:39Z</time>
      </trkpt>
      <trkpt lat="43.42707" lon="6.0475">
        <ele>313.60000610352</ele>
        <time>2013-04-13T15:58:41Z</time>
      </trkpt>
      <trkpt lat="43.42708" lon="6.04776">
        <ele>312</ele>
        <time>2013-04-13T15:58:46Z</time>
      </trkpt>
      <trkpt lat="43.42709" lon="6.04787">
        <ele>311.20001220703</ele>
        <time>2013-04-13T15:58:48Z</time>
      </trkpt>
      <trkpt lat="43.42711" lon="6.04797">
        <ele>310.60000610352</ele>
        <time>2013-04-13T15:58:50Z</time>
      </trkpt>
      <trkpt lat="43.42712" lon="6.04801">
        <ele>310.20001220703</ele>
        <time>2013-04-13T15:58:51Z</time>
      </trkpt>
      <trkpt lat="43.42715" lon="6.04803">
        <ele>309.79998779297</ele>
        <time>2013-04-13T15:58:52Z</time>
      </trkpt>
      <trkpt lat="43.42717" lon="6.04803">
        <ele>309.39999389648</ele>
        <time>2013-04-13T15:58:53Z</time>
      </trkpt>
      <trkpt lat="43.4272" lon="6.04804">
        <ele>308.79998779297</ele>
        <time>2013-04-13T15:58:54Z</time>
      </trkpt>
      <trkpt lat="43.42735" lon="6.04808">
        <ele>308.79998779297</ele>
        <time>2013-04-13T15:58:59Z</time>
      </trkpt>
      <trkpt lat="43.42745" lon="6.04806">
        <ele>308.79998779297</ele>
        <time>2013-04-13T15:59:03Z</time>
      </trkpt>
      <trkpt lat="43.42747" lon="6.04806">
        <ele>308.79998779297</ele>
        <time>2013-04-13T15:59:04Z</time>
      </trkpt>
      <trkpt lat="43.42751" lon="6.04804">
        <ele>308.79998779297</ele>
        <time>2013-04-13T15:59:07Z</time>
      </trkpt>
      <trkpt lat="43.42756" lon="6.04804">
        <ele>308.79998779297</ele>
        <time>2013-04-13T15:59:10Z</time>
      </trkpt>
      <trkpt lat="43.42757" lon="6.04805">
        <ele>308.79998779297</ele>
        <time>2013-04-13T15:59:11Z</time>
      </trkpt>
      <trkpt lat="43.42757" lon="6.04805">
        <ele>308.79998779297</ele>
        <time>2013-04-13T15:59:16Z</time>
      </trkpt>
      <trkpt lat="43.42757" lon="6.04805">
        <ele>308.79998779297</ele>
        <time>2013-04-13T15:59:43Z</time>
      </trkpt>
      <trkpt lat="43.42757" lon="6.04805">
        <ele>308.79998779297</ele>
        <time>2013-04-13T15:59:52Z</time>
      </trkpt>
      <trkpt lat="43.42757" lon="6.04805">
        <ele>308.79998779297</ele>
        <time>2013-04-13T15:59:59Z</time>
      </trkpt>
      <trkpt lat="43.42757" lon="6.04805">
        <ele>308.79998779297</ele>
        <time>2013-04-13T16:00:13Z</time>
      </trkpt>
      <trkpt lat="43.42757" lon="6.04805">
        <ele>308.79998779297</ele>
        <time>2013-04-13T16:00:31Z</time>
      </trkpt>
      <trkpt lat="43.42757" lon="6.04805">
        <ele>308.79998779297</ele>
        <time>2013-04-13T16:00:40Z</time>
      </trkpt>
      <trkpt lat="43.42757" lon="6.04805">
        <ele>308.79998779297</ele>
        <time>2013-04-13T16:01:02Z</time>
      </trkpt>
      <trkpt lat="43.42757" lon="6.04806">
        <ele>308.79998779297</ele>
        <time>2013-04-13T16:01:32Z</time>
      </trkpt>
      <trkpt lat="43.42757" lon="6.04806">
        <ele>308.79998779297</ele>
        <time>2013-04-13T16:01:56Z</time>
      </trkpt>
      <trkpt lat="43.42757" lon="6.04806">
        <ele>308.79998779297</ele>
        <time>2013-04-13T16:01:58Z</time>
      </trkpt>
      <trkpt lat="43.42759" lon="6.04808">
        <ele>308.79998779297</ele>
        <time>2013-04-13T16:02:08Z</time>
      </trkpt>
      <trkpt lat="43.4277" lon="6.04817">
        <ele>308.79998779297</ele>
        <time>2013-04-13T16:02:13Z</time>
      </trkpt>
      <trkpt lat="43.42776" lon="6.04827">
        <ele>308</ele>
        <time>2013-04-13T16:02:16Z</time>
      </trkpt>
      <trkpt lat="43.42778" lon="6.04832">
        <ele>307.60000610352</ele>
        <time>2013-04-13T16:02:17Z</time>
      </trkpt>
      <trkpt lat="43.42778" lon="6.04842">
        <ele>306.79998779297</ele>
        <time>2013-04-13T16:02:19Z</time>
      </trkpt>
      <trkpt lat="43.42777" lon="6.04847">
        <ele>306.79998779297</ele>
        <time>2013-04-13T16:02:20Z</time>
      </trkpt>
      <trkpt lat="43.42774" lon="6.04857">
        <ele>306.39999389648</ele>
        <time>2013-04-13T16:02:22Z</time>
      </trkpt>
      <trkpt lat="43.42773" lon="6.04863">
        <ele>306</ele>
        <time>2013-04-13T16:02:23Z</time>
      </trkpt>
      <trkpt lat="43.42762" lon="6.04888">
        <ele>303.79998779297</ele>
        <time>2013-04-13T16:02:28Z</time>
      </trkpt>
      <trkpt lat="43.42759" lon="6.04893">
        <ele>303.39999389648</ele>
        <time>2013-04-13T16:02:29Z</time>
      </trkpt>
      <trkpt lat="43.42757" lon="6.04899">
        <ele>303</ele>
        <time>2013-04-13T16:02:30Z</time>
      </trkpt>
      <trkpt lat="43.42757" lon="6.04906">
        <ele>302.60000610352</ele>
        <time>2013-04-13T16:02:31Z</time>
      </trkpt>
      <trkpt lat="43.4276" lon="6.04931">
        <ele>301.79998779297</ele>
        <time>2013-04-13T16:02:35Z</time>
      </trkpt>
      <trkpt lat="43.42761" lon="6.04938">
        <ele>301.39999389648</ele>
        <time>2013-04-13T16:02:36Z</time>
      </trkpt>
      <trkpt lat="43.42761" lon="6.04951">
        <ele>300.60000610352</ele>
        <time>2013-04-13T16:02:38Z</time>
      </trkpt>
      <trkpt lat="43.42762" lon="6.04971">
        <ele>300.20001220703</ele>
        <time>2013-04-13T16:02:41Z</time>
      </trkpt>
      <trkpt lat="43.42762" lon="6.04978">
        <ele>299.60000610352</ele>
        <time>2013-04-13T16:02:42Z</time>
      </trkpt>
      <trkpt lat="43.42763" lon="6.04984">
        <ele>299.20001220703</ele>
        <time>2013-04-13T16:02:43Z</time>
      </trkpt>
      <trkpt lat="43.42764" lon="6.04991">
        <ele>298.79998779297</ele>
        <time>2013-04-13T16:02:44Z</time>
      </trkpt>
      <trkpt lat="43.42767" lon="6.05016">
        <ele>297.60000610352</ele>
        <time>2013-04-13T16:02:48Z</time>
      </trkpt>
      <trkpt lat="43.42763" lon="6.05031">
        <ele>296.39999389648</ele>
        <time>2013-04-13T16:02:51Z</time>
      </trkpt>
      <trkpt lat="43.42761" lon="6.05041">
        <ele>296.39999389648</ele>
        <time>2013-04-13T16:02:53Z</time>
      </trkpt>
      <trkpt lat="43.42752" lon="6.05059">
        <ele>296.39999389648</ele>
        <time>2013-04-13T16:02:58Z</time>
      </trkpt>
      <trkpt lat="43.42751" lon="6.0507">
        <ele>296.39999389648</ele>
        <time>2013-04-13T16:03:00Z</time>
      </trkpt>
      <trkpt lat="43.4275" lon="6.05082">
        <ele>295.39999389648</ele>
        <time>2013-04-13T16:03:02Z</time>
      </trkpt>
      <trkpt lat="43.42749" lon="6.05095">
        <ele>294.60000610352</ele>
        <time>2013-04-13T16:03:04Z</time>
      </trkpt>
      <trkpt lat="43.42752" lon="6.05109">
        <ele>294.20001220703</ele>
        <time>2013-04-13T16:03:07Z</time>
      </trkpt>
      <trkpt lat="43.42752" lon="6.05119">
        <ele>293.79998779297</ele>
        <time>2013-04-13T16:03:09Z</time>
      </trkpt>
      <trkpt lat="43.42749" lon="6.05131">
        <ele>292.39999389648</ele>
        <time>2013-04-13T16:03:12Z</time>
      </trkpt>
      <trkpt lat="43.42747" lon="6.05135">
        <ele>292</ele>
        <time>2013-04-13T16:03:13Z</time>
      </trkpt>
      <trkpt lat="43.42738" lon="6.05152">
        <ele>292</ele>
        <time>2013-04-13T16:03:17Z</time>
      </trkpt>
      <trkpt lat="43.42735" lon="6.05161">
        <ele>291.60000610352</ele>
        <time>2013-04-13T16:03:19Z</time>
      </trkpt>
      <trkpt lat="43.42733" lon="6.05168">
        <ele>290.79998779297</ele>
        <time>2013-04-13T16:03:21Z</time>
      </trkpt>
      <trkpt lat="43.42731" lon="6.05172">
        <ele>290.39999389648</ele>
        <time>2013-04-13T16:03:22Z</time>
      </trkpt>
      <trkpt lat="43.42728" lon="6.05181">
        <ele>289.39999389648</ele>
        <time>2013-04-13T16:03:24Z</time>
      </trkpt>
      <trkpt lat="43.42725" lon="6.05186">
        <ele>289</ele>
        <time>2013-04-13T16:03:25Z</time>
      </trkpt>
      <trkpt lat="43.42717" lon="6.05201">
        <ele>287.60000610352</ele>
        <time>2013-04-13T16:03:28Z</time>
      </trkpt>
      <trkpt lat="43.4271" lon="6.05209">
        <ele>287.60000610352</ele>
        <time>2013-04-13T16:03:30Z</time>
      </trkpt>
      <trkpt lat="43.42703" lon="6.05214">
        <ele>286.60000610352</ele>
        <time>2013-04-13T16:03:32Z</time>
      </trkpt>
      <trkpt lat="43.427" lon="6.05216">
        <ele>286.20001220703</ele>
        <time>2013-04-13T16:03:33Z</time>
      </trkpt>
      <trkpt lat="43.42696" lon="6.05217">
        <ele>285.79998779297</ele>
        <time>2013-04-13T16:03:34Z</time>
      </trkpt>
      <trkpt lat="43.42692" lon="6.05218">
        <ele>285.39999389648</ele>
        <time>2013-04-13T16:03:35Z</time>
      </trkpt>
      <trkpt lat="43.42689" lon="6.05219">
        <ele>285</ele>
        <time>2013-04-13T16:03:36Z</time>
      </trkpt>
      <trkpt lat="43.42684" lon="6.05223">
        <ele>284.20001220703</ele>
        <time>2013-04-13T16:03:38Z</time>
      </trkpt>
      <trkpt lat="43.42678" lon="6.05228">
        <ele>283.20001220703</ele>
        <time>2013-04-13T16:03:40Z</time>
      </trkpt>
      <trkpt lat="43.42675" lon="6.05231">
        <ele>282.79998779297</ele>
        <time>2013-04-13T16:03:41Z</time>
      </trkpt>
      <trkpt lat="43.42671" lon="6.05233">
        <ele>282.39999389648</ele>
        <time>2013-04-13T16:03:42Z</time>
      </trkpt>
      <trkpt lat="43.42668" lon="6.05234">
        <ele>282</ele>
        <time>2013-04-13T16:03:43Z</time>
      </trkpt>
      <trkpt lat="43.42665" lon="6.05236">
        <ele>281.60000610352</ele>
        <time>2013-04-13T16:03:44Z</time>
      </trkpt>
      <trkpt lat="43.42662" lon="6.05239">
        <ele>281</ele>
        <time>2013-04-13T16:03:45Z</time>
      </trkpt>
      <trkpt lat="43.42649" lon="6.05254">
        <ele>281</ele>
        <time>2013-04-13T16:03:50Z</time>
      </trkpt>
      <trkpt lat="43.42648" lon="6.05254">
        <ele>280.60000610352</ele>
        <time>2013-04-13T16:03:52Z</time>
      </trkpt>
      <trkpt lat="43.42648" lon="6.05254">
        <ele>279.79998779297</ele>
        <time>2013-04-13T16:03:54Z</time>
      </trkpt>
      <trkpt lat="43.42648" lon="6.05255">
        <ele>279.20001220703</ele>
        <time>2013-04-13T16:03:55Z</time>
      </trkpt>
      <trkpt lat="43.42648" lon="6.05255">
        <ele>278.79998779297</ele>
        <time>2013-04-13T16:03:56Z</time>
      </trkpt>
      <trkpt lat="43.42644" lon="6.05257">
        <ele>278.79998779297</ele>
        <time>2013-04-13T16:03:59Z</time>
      </trkpt>
      <trkpt lat="43.42632" lon="6.05259">
        <ele>278.79998779297</ele>
        <time>2013-04-13T16:04:05Z</time>
      </trkpt>
      <trkpt lat="43.42621" lon="6.05253">
        <ele>278.79998779297</ele>
        <time>2013-04-13T16:04:10Z</time>
      </trkpt>
      <trkpt lat="43.42612" lon="6.05247">
        <ele>278.39999389648</ele>
        <time>2013-04-13T16:04:13Z</time>
      </trkpt>
      <trkpt lat="43.42601" lon="6.05241">
        <ele>277</ele>
        <time>2013-04-13T16:04:16Z</time>
      </trkpt>
      <trkpt lat="43.42598" lon="6.05239">
        <ele>276.60000610352</ele>
        <time>2013-04-13T16:04:17Z</time>
      </trkpt>
      <trkpt lat="43.42592" lon="6.05235">
        <ele>276.60000610352</ele>
        <time>2013-04-13T16:04:19Z</time>
      </trkpt>
      <trkpt lat="43.42576" lon="6.05224">
        <ele>276.60000610352</ele>
        <time>2013-04-13T16:04:25Z</time>
      </trkpt>
      <trkpt lat="43.42561" lon="6.05219">
        <ele>276.60000610352</ele>
        <time>2013-04-13T16:04:30Z</time>
      </trkpt>
      <trkpt lat="43.42545" lon="6.05224">
        <ele>276.60000610352</ele>
        <time>2013-04-13T16:04:35Z</time>
      </trkpt>
      <trkpt lat="43.42532" lon="6.05226">
        <ele>275.39999389648</ele>
        <time>2013-04-13T16:04:38Z</time>
      </trkpt>
      <trkpt lat="43.42528" lon="6.05226">
        <ele>274.79998779297</ele>
        <time>2013-04-13T16:04:39Z</time>
      </trkpt>
      <trkpt lat="43.42523" lon="6.05227">
        <ele>274.39999389648</ele>
        <time>2013-04-13T16:04:40Z</time>
      </trkpt>
      <trkpt lat="43.42518" lon="6.05227">
        <ele>274.39999389648</ele>
        <time>2013-04-13T16:04:41Z</time>
      </trkpt>
      <trkpt lat="43.42513" lon="6.05226">
        <ele>274.39999389648</ele>
        <time>2013-04-13T16:04:42Z</time>
      </trkpt>
      <trkpt lat="43.42498" lon="6.05223">
        <ele>274.39999389648</ele>
        <time>2013-04-13T16:04:46Z</time>
      </trkpt>
      <trkpt lat="43.42485" lon="6.05215">
        <ele>274.39999389648</ele>
        <time>2013-04-13T16:04:50Z</time>
      </trkpt>
      <trkpt lat="43.42471" lon="6.05213">
        <ele>274.39999389648</ele>
        <time>2013-04-13T16:04:54Z</time>
      </trkpt>
      <trkpt lat="43.42467" lon="6.05213">
        <ele>274.39999389648</ele>
        <time>2013-04-13T16:04:55Z</time>
      </trkpt>
      <trkpt lat="43.42454" lon="6.05215">
        <ele>274.39999389648</ele>
        <time>2013-04-13T16:04:59Z</time>
      </trkpt>
      <trkpt lat="43.4245" lon="6.05217">
        <ele>274</ele>
        <time>2013-04-13T16:05:00Z</time>
      </trkpt>
      <trkpt lat="43.42431" lon="6.05224">
        <ele>272.20001220703</ele>
        <time>2013-04-13T16:05:03Z</time>
      </trkpt>
      <trkpt lat="43.42425" lon="6.05224">
        <ele>271.60000610352</ele>
        <time>2013-04-13T16:05:04Z</time>
      </trkpt>
      <trkpt lat="43.4242" lon="6.05224">
        <ele>271</ele>
        <time>2013-04-13T16:05:05Z</time>
      </trkpt>
      <trkpt lat="43.42409" lon="6.05224">
        <ele>269.60000610352</ele>
        <time>2013-04-13T16:05:07Z</time>
      </trkpt>
      <trkpt lat="43.42404" lon="6.05224">
        <ele>269.60000610352</ele>
        <time>2013-04-13T16:05:08Z</time>
      </trkpt>
      <trkpt lat="43.42398" lon="6.05224">
        <ele>269.60000610352</ele>
        <time>2013-04-13T16:05:09Z</time>
      </trkpt>
      <trkpt lat="43.42372" lon="6.05227">
        <ele>269.60000610352</ele>
        <time>2013-04-13T16:05:14Z</time>
      </trkpt>
      <trkpt lat="43.42366" lon="6.05227">
        <ele>269</ele>
        <time>2013-04-13T16:05:15Z</time>
      </trkpt>
      <trkpt lat="43.42361" lon="6.05229">
        <ele>268.60000610352</ele>
        <time>2013-04-13T16:05:16Z</time>
      </trkpt>
      <trkpt lat="43.42355" lon="6.05231">
        <ele>268.20001220703</ele>
        <time>2013-04-13T16:05:17Z</time>
      </trkpt>
      <trkpt lat="43.42349" lon="6.05232">
        <ele>267.60000610352</ele>
        <time>2013-04-13T16:05:18Z</time>
      </trkpt>
      <trkpt lat="43.42344" lon="6.05232">
        <ele>267.20001220703</ele>
        <time>2013-04-13T16:05:19Z</time>
      </trkpt>
      <trkpt lat="43.42332" lon="6.05228">
        <ele>266.79998779297</ele>
        <time>2013-04-13T16:05:21Z</time>
      </trkpt>
      <trkpt lat="43.42326" lon="6.05225">
        <ele>266.39999389648</ele>
        <time>2013-04-13T16:05:22Z</time>
      </trkpt>
      <trkpt lat="43.42318" lon="6.05224">
        <ele>265.79998779297</ele>
        <time>2013-04-13T16:05:23Z</time>
      </trkpt>
      <trkpt lat="43.4231" lon="6.05222">
        <ele>265.39999389648</ele>
        <time>2013-04-13T16:05:24Z</time>
      </trkpt>
      <trkpt lat="43.42302" lon="6.05222">
        <ele>265</ele>
        <time>2013-04-13T16:05:25Z</time>
      </trkpt>
      <trkpt lat="43.42287" lon="6.05217">
        <ele>263.79998779297</ele>
        <time>2013-04-13T16:05:27Z</time>
      </trkpt>
      <trkpt lat="43.4228" lon="6.05215">
        <ele>263.20001220703</ele>
        <time>2013-04-13T16:05:28Z</time>
      </trkpt>
      <trkpt lat="43.42273" lon="6.05214">
        <ele>262.79998779297</ele>
        <time>2013-04-13T16:05:29Z</time>
      </trkpt>
      <trkpt lat="43.42265" lon="6.05214">
        <ele>262.79998779297</ele>
        <time>2013-04-13T16:05:30Z</time>
      </trkpt>
      <trkpt lat="43.42258" lon="6.05215">
        <ele>262.20001220703</ele>
        <time>2013-04-13T16:05:31Z</time>
      </trkpt>
      <trkpt lat="43.42252" lon="6.05215">
        <ele>261.79998779297</ele>
        <time>2013-04-13T16:05:32Z</time>
      </trkpt>
      <trkpt lat="43.42245" lon="6.05215">
        <ele>261.39999389648</ele>
        <time>2013-04-13T16:05:33Z</time>
      </trkpt>
      <trkpt lat="43.42238" lon="6.05214">
        <ele>261</ele>
        <time>2013-04-13T16:05:34Z</time>
      </trkpt>
      <trkpt lat="43.42227" lon="6.05205">
        <ele>260.60000610352</ele>
        <time>2013-04-13T16:05:36Z</time>
      </trkpt>
      <trkpt lat="43.42216" lon="6.05195">
        <ele>259.60000610352</ele>
        <time>2013-04-13T16:05:38Z</time>
      </trkpt>
      <trkpt lat="43.42199" lon="6.05186">
        <ele>258.20001220703</ele>
        <time>2013-04-13T16:05:41Z</time>
      </trkpt>
      <trkpt lat="43.42164" lon="6.05162">
        <ele>257</ele>
        <time>2013-04-13T16:05:47Z</time>
      </trkpt>
      <trkpt lat="43.42154" lon="6.05156">
        <ele>256</ele>
        <time>2013-04-13T16:05:49Z</time>
      </trkpt>
      <trkpt lat="43.42149" lon="6.05152">
        <ele>256</ele>
        <time>2013-04-13T16:05:50Z</time>
      </trkpt>
      <trkpt lat="43.42134" lon="6.05133">
        <ele>256</ele>
        <time>2013-04-13T16:05:54Z</time>
      </trkpt>
      <trkpt lat="43.42131" lon="6.05128">
        <ele>256</ele>
        <time>2013-04-13T16:05:55Z</time>
      </trkpt>
      <trkpt lat="43.42127" lon="6.05123">
        <ele>256</ele>
        <time>2013-04-13T16:05:56Z</time>
      </trkpt>
      <trkpt lat="43.42115" lon="6.05117">
        <ele>256</ele>
        <time>2013-04-13T16:05:59Z</time>
      </trkpt>
      <trkpt lat="43.42111" lon="6.05117">
        <ele>255.60000610352</ele>
        <time>2013-04-13T16:06:00Z</time>
      </trkpt>
      <trkpt lat="43.42107" lon="6.05117">
        <ele>255.19999694824</ele>
        <time>2013-04-13T16:06:01Z</time>
      </trkpt>
      <trkpt lat="43.42105" lon="6.05117">
        <ele>254.60000610352</ele>
        <time>2013-04-13T16:06:02Z</time>
      </trkpt>
      <trkpt lat="43.42104" lon="6.05117">
        <ele>253.80000305176</ele>
        <time>2013-04-13T16:06:03Z</time>
      </trkpt>
      <trkpt lat="43.421" lon="6.05117">
        <ele>253.80000305176</ele>
        <time>2013-04-13T16:06:09Z</time>
      </trkpt>
      <trkpt lat="43.42097" lon="6.05119">
        <ele>253.80000305176</ele>
        <time>2013-04-13T16:06:13Z</time>
      </trkpt>
      <trkpt lat="43.42093" lon="6.05117">
        <ele>253.80000305176</ele>
        <time>2013-04-13T16:06:16Z</time>
      </trkpt>
      <trkpt lat="43.42092" lon="6.05116">
        <ele>253.80000305176</ele>
        <time>2013-04-13T16:06:17Z</time>
      </trkpt>
      <trkpt lat="43.4209" lon="6.05115">
        <ele>253.80000305176</ele>
        <time>2013-04-13T16:06:18Z</time>
      </trkpt>
      <trkpt lat="43.42085" lon="6.05115">
        <ele>253</ele>
        <time>2013-04-13T16:06:21Z</time>
      </trkpt>
      <trkpt lat="43.42082" lon="6.05116">
        <ele>252.19999694824</ele>
        <time>2013-04-13T16:06:23Z</time>
      </trkpt>
      <trkpt lat="43.4208" lon="6.05116">
        <ele>251.80000305176</ele>
        <time>2013-04-13T16:06:24Z</time>
      </trkpt>
      <trkpt lat="43.42074" lon="6.05115">
        <ele>251.80000305176</ele>
        <time>2013-04-13T16:06:26Z</time>
      </trkpt>
      <trkpt lat="43.42053" lon="6.05118">
        <ele>251.80000305176</ele>
        <time>2013-04-13T16:06:31Z</time>
      </trkpt>
      <trkpt lat="43.42028" lon="6.05124">
        <ele>251.39999389648</ele>
        <time>2013-04-13T16:06:36Z</time>
      </trkpt>
      <trkpt lat="43.42022" lon="6.05126">
        <ele>251</ele>
        <time>2013-04-13T16:06:37Z</time>
      </trkpt>
      <trkpt lat="43.42017" lon="6.05127">
        <ele>250.60000610352</ele>
        <time>2013-04-13T16:06:38Z</time>
      </trkpt>
      <trkpt lat="43.42007" lon="6.05129">
        <ele>249.80000305176</ele>
        <time>2013-04-13T16:06:40Z</time>
      </trkpt>
      <trkpt lat="43.41993" lon="6.05133">
        <ele>249.80000305176</ele>
        <time>2013-04-13T16:06:43Z</time>
      </trkpt>
      <trkpt lat="43.41962" lon="6.0514">
        <ele>249.80000305176</ele>
        <time>2013-04-13T16:06:50Z</time>
      </trkpt>
      <trkpt lat="43.41956" lon="6.05142">
        <ele>249.80000305176</ele>
        <time>2013-04-13T16:06:51Z</time>
      </trkpt>
      <trkpt lat="43.4195" lon="6.05145">
        <ele>249.19999694824</ele>
        <time>2013-04-13T16:06:52Z</time>
      </trkpt>
      <trkpt lat="43.41944" lon="6.05149">
        <ele>248.39999389648</ele>
        <time>2013-04-13T16:06:53Z</time>
      </trkpt>
      <trkpt lat="43.41937" lon="6.05152">
        <ele>248</ele>
        <time>2013-04-13T16:06:54Z</time>
      </trkpt>
      <trkpt lat="43.41931" lon="6.05156">
        <ele>247.60000610352</ele>
        <time>2013-04-13T16:06:55Z</time>
      </trkpt>
      <trkpt lat="43.41917" lon="6.05162">
        <ele>247.19999694824</ele>
        <time>2013-04-13T16:06:57Z</time>
      </trkpt>
      <trkpt lat="43.41909" lon="6.05165">
        <ele>246.60000610352</ele>
        <time>2013-04-13T16:06:58Z</time>
      </trkpt>
      <trkpt lat="43.41903" lon="6.05168">
        <ele>246.19999694824</ele>
        <time>2013-04-13T16:06:59Z</time>
      </trkpt>
      <trkpt lat="43.41895" lon="6.05172">
        <ele>245.80000305176</ele>
        <time>2013-04-13T16:07:00Z</time>
      </trkpt>
      <trkpt lat="43.41887" lon="6.05175">
        <ele>245.39999389648</ele>
        <time>2013-04-13T16:07:01Z</time>
      </trkpt>
      <trkpt lat="43.4188" lon="6.05178">
        <ele>245.39999389648</ele>
        <time>2013-04-13T16:07:02Z</time>
      </trkpt>
      <trkpt lat="43.41864" lon="6.05184">
        <ele>245</ele>
        <time>2013-04-13T16:07:04Z</time>
      </trkpt>
      <trkpt lat="43.41856" lon="6.05186">
        <ele>244.60000610352</ele>
        <time>2013-04-13T16:07:05Z</time>
      </trkpt>
      <trkpt lat="43.41848" lon="6.05187">
        <ele>244.19999694824</ele>
        <time>2013-04-13T16:07:06Z</time>
      </trkpt>
      <trkpt lat="43.41839" lon="6.05187">
        <ele>243.80000305176</ele>
        <time>2013-04-13T16:07:07Z</time>
      </trkpt>
      <trkpt lat="43.41831" lon="6.05188">
        <ele>243.39999389648</ele>
        <time>2013-04-13T16:07:08Z</time>
      </trkpt>
      <trkpt lat="43.41815" lon="6.05187">
        <ele>242.80000305176</ele>
        <time>2013-04-13T16:07:10Z</time>
      </trkpt>
      <trkpt lat="43.41807" lon="6.05187">
        <ele>242.19999694824</ele>
        <time>2013-04-13T16:07:11Z</time>
      </trkpt>
      <trkpt lat="43.41799" lon="6.05186">
        <ele>241.39999389648</ele>
        <time>2013-04-13T16:07:12Z</time>
      </trkpt>
      <trkpt lat="43.41791" lon="6.05185">
        <ele>240.80000305176</ele>
        <time>2013-04-13T16:07:13Z</time>
      </trkpt>
      <trkpt lat="43.41784" lon="6.05185">
        <ele>240</ele>
        <time>2013-04-13T16:07:14Z</time>
      </trkpt>
      <trkpt lat="43.41776" lon="6.05184">
        <ele>239.19999694824</ele>
        <time>2013-04-13T16:07:15Z</time>
      </trkpt>
      <trkpt lat="43.4176" lon="6.05181">
        <ele>238</ele>
        <time>2013-04-13T16:07:17Z</time>
      </trkpt>
      <trkpt lat="43.41745" lon="6.05177">
        <ele>236.80000305176</ele>
        <time>2013-04-13T16:07:19Z</time>
      </trkpt>
      <trkpt lat="43.41737" lon="6.05167">
        <ele>236.19999694824</ele>
        <time>2013-04-13T16:07:21Z</time>
      </trkpt>
      <trkpt lat="43.41736" lon="6.05151">
        <ele>236.19999694824</ele>
        <time>2013-04-13T16:07:23Z</time>
      </trkpt>
      <trkpt lat="43.41737" lon="6.05144">
        <ele>236.19999694824</ele>
        <time>2013-04-13T16:07:24Z</time>
      </trkpt>
      <trkpt lat="43.41737" lon="6.05113">
        <ele>236.19999694824</ele>
        <time>2013-04-13T16:07:29Z</time>
      </trkpt>
      <trkpt lat="43.41735" lon="6.05108">
        <ele>236.19999694824</ele>
        <time>2013-04-13T16:07:30Z</time>
      </trkpt>
      <trkpt lat="43.41727" lon="6.05105">
        <ele>236.19999694824</ele>
        <time>2013-04-13T16:07:32Z</time>
      </trkpt>
      <trkpt lat="43.41722" lon="6.05108">
        <ele>235.80000305176</ele>
        <time>2013-04-13T16:07:33Z</time>
      </trkpt>
      <trkpt lat="43.41717" lon="6.05112">
        <ele>235.19999694824</ele>
        <time>2013-04-13T16:07:34Z</time>
      </trkpt>
      <trkpt lat="43.41712" lon="6.05115">
        <ele>234.80000305176</ele>
        <time>2013-04-13T16:07:35Z</time>
      </trkpt>
      <trkpt lat="43.41706" lon="6.05119">
        <ele>234.19999694824</ele>
        <time>2013-04-13T16:07:36Z</time>
      </trkpt>
      <trkpt lat="43.417" lon="6.05123">
        <ele>233.80000305176</ele>
        <time>2013-04-13T16:07:37Z</time>
      </trkpt>
      <trkpt lat="43.41695" lon="6.05128">
        <ele>233.19999694824</ele>
        <time>2013-04-13T16:07:38Z</time>
      </trkpt>
      <trkpt lat="43.41685" lon="6.05138">
        <ele>232.19999694824</ele>
        <time>2013-04-13T16:07:40Z</time>
      </trkpt>
      <trkpt lat="43.4168" lon="6.05145">
        <ele>231.60000610352</ele>
        <time>2013-04-13T16:07:41Z</time>
      </trkpt>
      <trkpt lat="43.41675" lon="6.05151">
        <ele>231.19999694824</ele>
        <time>2013-04-13T16:07:42Z</time>
      </trkpt>
      <trkpt lat="43.4167" lon="6.05157">
        <ele>230.39999389648</ele>
        <time>2013-04-13T16:07:43Z</time>
      </trkpt>
      <trkpt lat="43.41664" lon="6.05162">
        <ele>230</ele>
        <time>2013-04-13T16:07:44Z</time>
      </trkpt>
      <trkpt lat="43.41657" lon="6.05164">
        <ele>229.39999389648</ele>
        <time>2013-04-13T16:07:45Z</time>
      </trkpt>
      <trkpt lat="43.41642" lon="6.05163">
        <ele>228.39999389648</ele>
        <time>2013-04-13T16:07:47Z</time>
      </trkpt>
      <trkpt lat="43.41626" lon="6.05162">
        <ele>227.39999389648</ele>
        <time>2013-04-13T16:07:49Z</time>
      </trkpt>
      <trkpt lat="43.41609" lon="6.0516">
        <ele>226.39999389648</ele>
        <time>2013-04-13T16:07:51Z</time>
      </trkpt>
      <trkpt lat="43.41601" lon="6.05159">
        <ele>226</ele>
        <time>2013-04-13T16:07:52Z</time>
      </trkpt>
      <trkpt lat="43.41594" lon="6.05158">
        <ele>225.60000610352</ele>
        <time>2013-04-13T16:07:53Z</time>
      </trkpt>
      <trkpt lat="43.41586" lon="6.05157">
        <ele>225</ele>
        <time>2013-04-13T16:07:54Z</time>
      </trkpt>
      <trkpt lat="43.41569" lon="6.05154">
        <ele>225</ele>
        <time>2013-04-13T16:07:56Z</time>
      </trkpt>
      <trkpt lat="43.41544" lon="6.05151">
        <ele>224.60000610352</ele>
        <time>2013-04-13T16:07:59Z</time>
      </trkpt>
      <trkpt lat="43.41527" lon="6.05152">
        <ele>223.60000610352</ele>
        <time>2013-04-13T16:08:01Z</time>
      </trkpt>
      <trkpt lat="43.41519" lon="6.05154">
        <ele>223</ele>
        <time>2013-04-13T16:08:02Z</time>
      </trkpt>
      <trkpt lat="43.41512" lon="6.05155">
        <ele>222.19999694824</ele>
        <time>2013-04-13T16:08:03Z</time>
      </trkpt>
      <trkpt lat="43.41506" lon="6.05157">
        <ele>221.60000610352</ele>
        <time>2013-04-13T16:08:04Z</time>
      </trkpt>
      <trkpt lat="43.41501" lon="6.05159">
        <ele>221</ele>
        <time>2013-04-13T16:08:05Z</time>
      </trkpt>
      <trkpt lat="43.41497" lon="6.05161">
        <ele>220.19999694824</ele>
        <time>2013-04-13T16:08:06Z</time>
      </trkpt>
      <trkpt lat="43.41493" lon="6.05174">
        <ele>220.19999694824</ele>
        <time>2013-04-13T16:08:09Z</time>
      </trkpt>
      <trkpt lat="43.41498" lon="6.05188">
        <ele>220.19999694824</ele>
        <time>2013-04-13T16:08:12Z</time>
      </trkpt>
      <trkpt lat="43.415" lon="6.05192">
        <ele>220.19999694824</ele>
        <time>2013-04-13T16:08:13Z</time>
      </trkpt>
      <trkpt lat="43.41506" lon="6.05204">
        <ele>220.19999694824</ele>
        <time>2013-04-13T16:08:16Z</time>
      </trkpt>
      <trkpt lat="43.41525" lon="6.0524">
        <ele>220.19999694824</ele>
        <time>2013-04-13T16:08:25Z</time>
      </trkpt>
      <trkpt lat="43.41531" lon="6.05252">
        <ele>220.19999694824</ele>
        <time>2013-04-13T16:08:28Z</time>
      </trkpt>
      <trkpt lat="43.41548" lon="6.05309">
        <ele>220.19999694824</ele>
        <time>2013-04-13T16:08:41Z</time>
      </trkpt>
      <trkpt lat="43.41553" lon="6.05327">
        <ele>220.19999694824</ele>
        <time>2013-04-13T16:08:45Z</time>
      </trkpt>
      <trkpt lat="43.41562" lon="6.05351">
        <ele>220.19999694824</ele>
        <time>2013-04-13T16:08:51Z</time>
      </trkpt>
      <trkpt lat="43.41571" lon="6.05372">
        <ele>220.60000610352</ele>
        <time>2013-04-13T16:08:56Z</time>
      </trkpt>
      <trkpt lat="43.41578" lon="6.05389">
        <ele>222.39999389648</ele>
        <time>2013-04-13T16:09:00Z</time>
      </trkpt>
      <trkpt lat="43.41589" lon="6.05424">
        <ele>222.39999389648</ele>
        <time>2013-04-13T16:09:07Z</time>
      </trkpt>
      <trkpt lat="43.41601" lon="6.05466">
        <ele>222.39999389648</ele>
        <time>2013-04-13T16:09:15Z</time>
      </trkpt>
      <trkpt lat="43.41626" lon="6.05563">
        <ele>222.39999389648</ele>
        <time>2013-04-13T16:09:33Z</time>
      </trkpt>
      <trkpt lat="43.4163" lon="6.0558">
        <ele>222.39999389648</ele>
        <time>2013-04-13T16:09:36Z</time>
      </trkpt>
      <trkpt lat="43.41634" lon="6.05602">
        <ele>222.39999389648</ele>
        <time>2013-04-13T16:09:40Z</time>
      </trkpt>
      <trkpt lat="43.41639" lon="6.05648">
        <ele>222.39999389648</ele>
        <time>2013-04-13T16:09:48Z</time>
      </trkpt>
      <trkpt lat="43.41642" lon="6.0569">
        <ele>222.80000305176</ele>
        <time>2013-04-13T16:09:56Z</time>
      </trkpt>
      <trkpt lat="43.41643" lon="6.05701">
        <ele>223.60000610352</ele>
        <time>2013-04-13T16:09:58Z</time>
      </trkpt>
      <trkpt lat="43.41644" lon="6.05711">
        <ele>224.39999389648</ele>
        <time>2013-04-13T16:10:00Z</time>
      </trkpt>
      <trkpt lat="43.41644" lon="6.05733">
        <ele>224.39999389648</ele>
        <time>2013-04-13T16:10:04Z</time>
      </trkpt>
      <trkpt lat="43.41645" lon="6.05785">
        <ele>224.39999389648</ele>
        <time>2013-04-13T16:10:13Z</time>
      </trkpt>
      <trkpt lat="43.41643" lon="6.05827">
        <ele>224.39999389648</ele>
        <time>2013-04-13T16:10:20Z</time>
      </trkpt>
      <trkpt lat="43.41643" lon="6.05833">
        <ele>224.39999389648</ele>
        <time>2013-04-13T16:10:21Z</time>
      </trkpt>
      <trkpt lat="43.4164" lon="6.05878">
        <ele>224.39999389648</ele>
        <time>2013-04-13T16:10:28Z</time>
      </trkpt>
      <trkpt lat="43.41637" lon="6.05906">
        <ele>224.39999389648</ele>
        <time>2013-04-13T16:10:32Z</time>
      </trkpt>
      <trkpt lat="43.41635" lon="6.05927">
        <ele>224.39999389648</ele>
        <time>2013-04-13T16:10:35Z</time>
      </trkpt>
      <trkpt lat="43.41632" lon="6.05942">
        <ele>224.39999389648</ele>
        <time>2013-04-13T16:10:37Z</time>
      </trkpt>
      <trkpt lat="43.41627" lon="6.05981">
        <ele>223.60000610352</ele>
        <time>2013-04-13T16:10:42Z</time>
      </trkpt>
      <trkpt lat="43.41625" lon="6.05989">
        <ele>223.19999694824</ele>
        <time>2013-04-13T16:10:43Z</time>
      </trkpt>
      <trkpt lat="43.41624" lon="6.05998">
        <ele>222.80000305176</ele>
        <time>2013-04-13T16:10:44Z</time>
      </trkpt>
      <trkpt lat="43.41622" lon="6.06007">
        <ele>222.39999389648</ele>
        <time>2013-04-13T16:10:45Z</time>
      </trkpt>
      <trkpt lat="43.41617" lon="6.06046">
        <ele>222.39999389648</ele>
        <time>2013-04-13T16:10:49Z</time>
      </trkpt>
      <trkpt lat="43.41615" lon="6.06067">
        <ele>222</ele>
        <time>2013-04-13T16:10:51Z</time>
      </trkpt>
      <trkpt lat="43.41615" lon="6.06078">
        <ele>221.60000610352</ele>
        <time>2013-04-13T16:10:52Z</time>
      </trkpt>
      <trkpt lat="43.41615" lon="6.06087">
        <ele>221</ele>
        <time>2013-04-13T16:10:53Z</time>
      </trkpt>
      <trkpt lat="43.41616" lon="6.06095">
        <ele>220.60000610352</ele>
        <time>2013-04-13T16:10:54Z</time>
      </trkpt>
      <trkpt lat="43.41618" lon="6.06102">
        <ele>220.19999694824</ele>
        <time>2013-04-13T16:10:55Z</time>
      </trkpt>
      <trkpt lat="43.41623" lon="6.06113">
        <ele>220.19999694824</ele>
        <time>2013-04-13T16:10:57Z</time>
      </trkpt>
      <trkpt lat="43.41627" lon="6.06121">
        <ele>220.19999694824</ele>
        <time>2013-04-13T16:10:59Z</time>
      </trkpt>
      <trkpt lat="43.41628" lon="6.06127">
        <ele>220.19999694824</ele>
        <time>2013-04-13T16:11:01Z</time>
      </trkpt>
      <trkpt lat="43.41624" lon="6.06137">
        <ele>220.19999694824</ele>
        <time>2013-04-13T16:11:05Z</time>
      </trkpt>
      <trkpt lat="43.41609" lon="6.06156">
        <ele>220.19999694824</ele>
        <time>2013-04-13T16:11:10Z</time>
      </trkpt>
      <trkpt lat="43.416" lon="6.06177">
        <ele>220.19999694824</ele>
        <time>2013-04-13T16:11:15Z</time>
      </trkpt>
      <trkpt lat="43.41598" lon="6.06198">
        <ele>220.19999694824</ele>
        <time>2013-04-13T16:11:21Z</time>
      </trkpt>
      <trkpt lat="43.4159" lon="6.06199">
        <ele>220.19999694824</ele>
        <time>2013-04-13T16:11:25Z</time>
      </trkpt>
      <trkpt lat="43.41587" lon="6.06195">
        <ele>220.19999694824</ele>
        <time>2013-04-13T16:11:27Z</time>
      </trkpt>
      <trkpt lat="43.41582" lon="6.06189">
        <ele>220.19999694824</ele>
        <time>2013-04-13T16:11:30Z</time>
      </trkpt>
      <trkpt lat="43.41578" lon="6.06179">
        <ele>220.19999694824</ele>
        <time>2013-04-13T16:11:35Z</time>
      </trkpt>
      <trkpt lat="43.41563" lon="6.06173">
        <ele>220.19999694824</ele>
        <time>2013-04-13T16:11:42Z</time>
      </trkpt>
      <trkpt lat="43.41547" lon="6.06179">
        <ele>220.19999694824</ele>
        <time>2013-04-13T16:11:47Z</time>
      </trkpt>
      <trkpt lat="43.41543" lon="6.0618">
        <ele>220.19999694824</ele>
        <time>2013-04-13T16:11:48Z</time>
      </trkpt>
      <trkpt lat="43.41534" lon="6.06179">
        <ele>220.19999694824</ele>
        <time>2013-04-13T16:11:50Z</time>
      </trkpt>
      <trkpt lat="43.41525" lon="6.06181">
        <ele>220.19999694824</ele>
        <time>2013-04-13T16:11:52Z</time>
      </trkpt>
      <trkpt lat="43.4152" lon="6.06183">
        <ele>219.80000305176</ele>
        <time>2013-04-13T16:11:53Z</time>
      </trkpt>
      <trkpt lat="43.41515" lon="6.06184">
        <ele>219.39999389648</ele>
        <time>2013-04-13T16:11:54Z</time>
      </trkpt>
      <trkpt lat="43.41509" lon="6.06184">
        <ele>219</ele>
        <time>2013-04-13T16:11:55Z</time>
      </trkpt>
      <trkpt lat="43.41504" lon="6.06185">
        <ele>218.60000610352</ele>
        <time>2013-04-13T16:11:56Z</time>
      </trkpt>
      <trkpt lat="43.41498" lon="6.06185">
        <ele>218.19999694824</ele>
        <time>2013-04-13T16:11:57Z</time>
      </trkpt>
      <trkpt lat="43.41492" lon="6.06184">
        <ele>218.19999694824</ele>
        <time>2013-04-13T16:11:58Z</time>
      </trkpt>
      <trkpt lat="43.41482" lon="6.06181">
        <ele>218.19999694824</ele>
        <time>2013-04-13T16:12:00Z</time>
      </trkpt>
      <trkpt lat="43.41449" lon="6.06172">
        <ele>218.19999694824</ele>
        <time>2013-04-13T16:12:07Z</time>
      </trkpt>
      <trkpt lat="43.41425" lon="6.06166">
        <ele>217.60000610352</ele>
        <time>2013-04-13T16:12:12Z</time>
      </trkpt>
      <trkpt lat="43.4142" lon="6.06164">
        <ele>216.80000305176</ele>
        <time>2013-04-13T16:12:13Z</time>
      </trkpt>
      <trkpt lat="43.4141" lon="6.06158">
        <ele>216</ele>
        <time>2013-04-13T16:12:15Z</time>
      </trkpt>
      <trkpt lat="43.41396" lon="6.06147">
        <ele>216</ele>
        <time>2013-04-13T16:12:18Z</time>
      </trkpt>
      <trkpt lat="43.41388" lon="6.06138">
        <ele>216</ele>
        <time>2013-04-13T16:12:20Z</time>
      </trkpt>
      <trkpt lat="43.41379" lon="6.06129">
        <ele>215</ele>
        <time>2013-04-13T16:12:22Z</time>
      </trkpt>
      <trkpt lat="43.4137" lon="6.06119">
        <ele>214</ele>
        <time>2013-04-13T16:12:24Z</time>
      </trkpt>
      <trkpt lat="43.41366" lon="6.06114">
        <ele>213.39999389648</ele>
        <time>2013-04-13T16:12:25Z</time>
      </trkpt>
      <trkpt lat="43.41351" lon="6.06099">
        <ele>213.39999389648</ele>
        <time>2013-04-13T16:12:28Z</time>
      </trkpt>
      <trkpt lat="43.41342" lon="6.06089">
        <ele>212.39999389648</ele>
        <time>2013-04-13T16:12:30Z</time>
      </trkpt>
      <trkpt lat="43.41332" lon="6.0608">
        <ele>211.60000610352</ele>
        <time>2013-04-13T16:12:32Z</time>
      </trkpt>
      <trkpt lat="43.4131" lon="6.06057">
        <ele>211</ele>
        <time>2013-04-13T16:12:37Z</time>
      </trkpt>
      <trkpt lat="43.41305" lon="6.06055">
        <ele>211</ele>
        <time>2013-04-13T16:12:38Z</time>
      </trkpt>
      <trkpt lat="43.41294" lon="6.06058">
        <ele>210.60000610352</ele>
        <time>2013-04-13T16:12:40Z</time>
      </trkpt>
      <trkpt lat="43.41274" lon="6.06069">
        <ele>208.80000305176</ele>
        <time>2013-04-13T16:12:44Z</time>
      </trkpt>
      <trkpt lat="43.41252" lon="6.06081">
        <ele>208.80000305176</ele>
        <time>2013-04-13T16:12:48Z</time>
      </trkpt>
      <trkpt lat="43.41232" lon="6.06092">
        <ele>208.80000305176</ele>
        <time>2013-04-13T16:12:52Z</time>
      </trkpt>
      <trkpt lat="43.41216" lon="6.06102">
        <ele>208.80000305176</ele>
        <time>2013-04-13T16:12:55Z</time>
      </trkpt>
      <trkpt lat="43.41211" lon="6.06105">
        <ele>208.39999389648</ele>
        <time>2013-04-13T16:12:56Z</time>
      </trkpt>
      <trkpt lat="43.41207" lon="6.06108">
        <ele>208</ele>
        <time>2013-04-13T16:12:57Z</time>
      </trkpt>
      <trkpt lat="43.41201" lon="6.06111">
        <ele>207.19999694824</ele>
        <time>2013-04-13T16:12:59Z</time>
      </trkpt>
      <trkpt lat="43.41199" lon="6.06112">
        <ele>206.80000305176</ele>
        <time>2013-04-13T16:13:00Z</time>
      </trkpt>
      <trkpt lat="43.41198" lon="6.06113">
        <ele>206.80000305176</ele>
        <time>2013-04-13T16:13:04Z</time>
      </trkpt>
      <trkpt lat="43.41195" lon="6.06116">
        <ele>206.80000305176</ele>
        <time>2013-04-13T16:13:07Z</time>
      </trkpt>
      <trkpt lat="43.41192" lon="6.06123">
        <ele>206.80000305176</ele>
        <time>2013-04-13T16:13:09Z</time>
      </trkpt>
      <trkpt lat="43.41194" lon="6.06143">
        <ele>206.80000305176</ele>
        <time>2013-04-13T16:13:13Z</time>
      </trkpt>
      <trkpt lat="43.41198" lon="6.0617">
        <ele>206.80000305176</ele>
        <time>2013-04-13T16:13:18Z</time>
      </trkpt>
      <trkpt lat="43.41199" lon="6.06195">
        <ele>206.80000305176</ele>
        <time>2013-04-13T16:13:23Z</time>
      </trkpt>
      <trkpt lat="43.41197" lon="6.062">
        <ele>206.80000305176</ele>
        <time>2013-04-13T16:13:25Z</time>
      </trkpt>
      <trkpt lat="43.41192" lon="6.06202">
        <ele>206.80000305176</ele>
        <time>2013-04-13T16:13:27Z</time>
      </trkpt>
      <trkpt lat="43.41175" lon="6.06208">
        <ele>206.80000305176</ele>
        <time>2013-04-13T16:13:32Z</time>
      </trkpt>
      <trkpt lat="43.41167" lon="6.0621">
        <ele>206.80000305176</ele>
        <time>2013-04-13T16:13:35Z</time>
      </trkpt>
      <trkpt lat="43.4114" lon="6.06219">
        <ele>206.80000305176</ele>
        <time>2013-04-13T16:13:43Z</time>
      </trkpt>
      <trkpt lat="43.41117" lon="6.06227">
        <ele>205.39999389648</ele>
        <time>2013-04-13T16:13:48Z</time>
      </trkpt>
      <trkpt lat="43.41109" lon="6.0623">
        <ele>204.60000610352</ele>
        <time>2013-04-13T16:13:50Z</time>
      </trkpt>
      <trkpt lat="43.41104" lon="6.0623">
        <ele>204.60000610352</ele>
        <time>2013-04-13T16:13:51Z</time>
      </trkpt>
      <trkpt lat="43.41081" lon="6.06238">
        <ele>204.60000610352</ele>
        <time>2013-04-13T16:13:56Z</time>
      </trkpt>
      <trkpt lat="43.4105" lon="6.06247">
        <ele>204.60000610352</ele>
        <time>2013-04-13T16:14:03Z</time>
      </trkpt>
      <trkpt lat="43.41019" lon="6.06253">
        <ele>204.60000610352</ele>
        <time>2013-04-13T16:14:10Z</time>
      </trkpt>
      <trkpt lat="43.40993" lon="6.06256">
        <ele>204.60000610352</ele>
        <time>2013-04-13T16:14:16Z</time>
      </trkpt>
      <trkpt lat="43.4099" lon="6.06256">
        <ele>204.60000610352</ele>
        <time>2013-04-13T16:14:17Z</time>
      </trkpt>
      <trkpt lat="43.40976" lon="6.06257">
        <ele>204.60000610352</ele>
        <time>2013-04-13T16:14:22Z</time>
      </trkpt>
      <trkpt lat="43.40966" lon="6.06252">
        <ele>204.60000610352</ele>
        <time>2013-04-13T16:14:26Z</time>
      </trkpt>
      <trkpt lat="43.40964" lon="6.06252">
        <ele>204.60000610352</ele>
        <time>2013-04-13T16:14:27Z</time>
      </trkpt>
      <trkpt lat="43.40964" lon="6.06252">
        <ele>204.60000610352</ele>
        <time>2013-04-13T16:14:30Z</time>
      </trkpt>
      <trkpt lat="43.40964" lon="6.06253">
        <ele>204.60000610352</ele>
        <time>2013-04-13T16:14:38Z</time>
      </trkpt>
      <trkpt lat="43.40964" lon="6.06253">
        <ele>204.60000610352</ele>
        <time>2013-04-13T16:14:47Z</time>
      </trkpt>
      <trkpt lat="43.40964" lon="6.06253">
        <ele>204.60000610352</ele>
        <time>2013-04-13T16:14:59Z</time>
      </trkpt>
      <trkpt lat="43.40958" lon="6.06256">
        <ele>204.60000610352</ele>
        <time>2013-04-13T16:15:06Z</time>
      </trkpt>
      <trkpt lat="43.40957" lon="6.06259">
        <ele>204.60000610352</ele>
        <time>2013-04-13T16:15:07Z</time>
      </trkpt>
      <trkpt lat="43.40955" lon="6.06267">
        <ele>204.60000610352</ele>
        <time>2013-04-13T16:15:09Z</time>
      </trkpt>
      <trkpt lat="43.40953" lon="6.06275">
        <ele>204.60000610352</ele>
        <time>2013-04-13T16:15:11Z</time>
      </trkpt>
      <trkpt lat="43.40948" lon="6.06284">
        <ele>204.60000610352</ele>
        <time>2013-04-13T16:15:14Z</time>
      </trkpt>
      <trkpt lat="43.40936" lon="6.06303">
        <ele>204.60000610352</ele>
        <time>2013-04-13T16:15:20Z</time>
      </trkpt>
      <trkpt lat="43.40923" lon="6.06316">
        <ele>204.60000610352</ele>
        <time>2013-04-13T16:15:25Z</time>
      </trkpt>
      <trkpt lat="43.40904" lon="6.06342">
        <ele>204.60000610352</ele>
        <time>2013-04-13T16:15:31Z</time>
      </trkpt>
      <trkpt lat="43.40884" lon="6.06367">
        <ele>204.60000610352</ele>
        <time>2013-04-13T16:15:36Z</time>
      </trkpt>
      <trkpt lat="43.40879" lon="6.06372">
        <ele>204.60000610352</ele>
        <time>2013-04-13T16:15:37Z</time>
      </trkpt>
      <trkpt lat="43.40866" lon="6.06389">
        <ele>204.19999694824</ele>
        <time>2013-04-13T16:15:40Z</time>
      </trkpt>
      <trkpt lat="43.40862" lon="6.06394">
        <ele>203.60000610352</ele>
        <time>2013-04-13T16:15:41Z</time>
      </trkpt>
      <trkpt lat="43.40857" lon="6.06398">
        <ele>203.19999694824</ele>
        <time>2013-04-13T16:15:42Z</time>
      </trkpt>
      <trkpt lat="43.40852" lon="6.06402">
        <ele>202.60000610352</ele>
        <time>2013-04-13T16:15:43Z</time>
      </trkpt>
      <trkpt lat="43.40847" lon="6.06405">
        <ele>202.19999694824</ele>
        <time>2013-04-13T16:15:44Z</time>
      </trkpt>
      <trkpt lat="43.40821" lon="6.06414">
        <ele>202.19999694824</ele>
        <time>2013-04-13T16:15:49Z</time>
      </trkpt>
      <trkpt lat="43.408" lon="6.06402">
        <ele>202.19999694824</ele>
        <time>2013-04-13T16:15:53Z</time>
      </trkpt>
      <trkpt lat="43.40786" lon="6.06404">
        <ele>202.19999694824</ele>
        <time>2013-04-13T16:15:56Z</time>
      </trkpt>
      <trkpt lat="43.40772" lon="6.06408">
        <ele>202.19999694824</ele>
        <time>2013-04-13T16:15:59Z</time>
      </trkpt>
      <trkpt lat="43.40741" lon="6.06417">
        <ele>202.19999694824</ele>
        <time>2013-04-13T16:16:07Z</time>
      </trkpt>
      <trkpt lat="43.40718" lon="6.06424">
        <ele>202.19999694824</ele>
        <time>2013-04-13T16:16:13Z</time>
      </trkpt>
      <trkpt lat="43.40696" lon="6.06429">
        <ele>202.60000610352</ele>
        <time>2013-04-13T16:16:19Z</time>
      </trkpt>
      <trkpt lat="43.40685" lon="6.06437">
        <ele>204.39999389648</ele>
        <time>2013-04-13T16:16:23Z</time>
      </trkpt>
      <trkpt lat="43.40673" lon="6.0645">
        <ele>204.39999389648</ele>
        <time>2013-04-13T16:16:28Z</time>
      </trkpt>
      <trkpt lat="43.4066" lon="6.06463">
        <ele>205.19999694824</ele>
        <time>2013-04-13T16:16:33Z</time>
      </trkpt>
      <trkpt lat="43.40643" lon="6.06481">
        <ele>206.60000610352</ele>
        <time>2013-04-13T16:16:40Z</time>
      </trkpt>
      <trkpt lat="43.40638" lon="6.06486">
        <ele>207</ele>
        <time>2013-04-13T16:16:42Z</time>
      </trkpt>
      <trkpt lat="43.40631" lon="6.06492">
        <ele>208.19999694824</ele>
        <time>2013-04-13T16:16:45Z</time>
      </trkpt>
      <trkpt lat="43.40625" lon="6.06497">
        <ele>208.60000610352</ele>
        <time>2013-04-13T16:16:47Z</time>
      </trkpt>
      <trkpt lat="43.40611" lon="6.065">
        <ele>209</ele>
        <time>2013-04-13T16:16:53Z</time>
      </trkpt>
      <trkpt lat="43.40602" lon="6.06499">
        <ele>210.60000610352</ele>
        <time>2013-04-13T16:16:57Z</time>
      </trkpt>
      <trkpt lat="43.40586" lon="6.06494">
        <ele>210.60000610352</ele>
        <time>2013-04-13T16:17:04Z</time>
      </trkpt>
      <trkpt lat="43.40579" lon="6.06494">
        <ele>211.60000610352</ele>
        <time>2013-04-13T16:17:08Z</time>
      </trkpt>
      <trkpt lat="43.40575" lon="6.06494">
        <ele>212.39999389648</ele>
        <time>2013-04-13T16:17:10Z</time>
      </trkpt>
      <trkpt lat="43.40574" lon="6.06494">
        <ele>212.80000305176</ele>
        <time>2013-04-13T16:17:11Z</time>
      </trkpt>
      <trkpt lat="43.40568" lon="6.06493">
        <ele>212.80000305176</ele>
        <time>2013-04-13T16:17:15Z</time>
      </trkpt>
      <trkpt lat="43.40554" lon="6.06488">
        <ele>212.80000305176</ele>
        <time>2013-04-13T16:17:21Z</time>
      </trkpt>
      <trkpt lat="43.40545" lon="6.06487">
        <ele>212.80000305176</ele>
        <time>2013-04-13T16:17:25Z</time>
      </trkpt>
      <trkpt lat="43.40533" lon="6.06483">
        <ele>213.19999694824</ele>
        <time>2013-04-13T16:17:30Z</time>
      </trkpt>
      <trkpt lat="43.40531" lon="6.06482">
        <ele>214</ele>
        <time>2013-04-13T16:17:31Z</time>
      </trkpt>
      <trkpt lat="43.40527" lon="6.06482">
        <ele>214.80000305176</ele>
        <time>2013-04-13T16:17:33Z</time>
      </trkpt>
      <trkpt lat="43.40516" lon="6.0648">
        <ele>214.80000305176</ele>
        <time>2013-04-13T16:17:38Z</time>
      </trkpt>
      <trkpt lat="43.40513" lon="6.06479">
        <ele>214.80000305176</ele>
        <time>2013-04-13T16:17:40Z</time>
      </trkpt>
      <trkpt lat="43.40509" lon="6.06477">
        <ele>214.80000305176</ele>
        <time>2013-04-13T16:17:43Z</time>
      </trkpt>
      <trkpt lat="43.40507" lon="6.06477">
        <ele>214.80000305176</ele>
        <time>2013-04-13T16:17:46Z</time>
      </trkpt>
      <trkpt lat="43.40507" lon="6.06477">
        <ele>214.80000305176</ele>
        <time>2013-04-13T16:17:48Z</time>
      </trkpt>
      <trkpt lat="43.40507" lon="6.06477">
        <ele>214.80000305176</ele>
        <time>2013-04-13T16:18:01Z</time>
      </trkpt>
      <trkpt lat="43.40507" lon="6.06477">
        <ele>214.80000305176</ele>
        <time>2013-04-13T16:18:09Z</time>
      </trkpt>
      <trkpt lat="43.40504" lon="6.06478">
        <ele>214.80000305176</ele>
        <time>2013-04-13T16:18:14Z</time>
      </trkpt>
      <trkpt lat="43.40503" lon="6.06484">
        <ele>214.80000305176</ele>
        <time>2013-04-13T16:18:17Z</time>
      </trkpt>
      <trkpt lat="43.40501" lon="6.06489">
        <ele>214.80000305176</ele>
        <time>2013-04-13T16:18:19Z</time>
      </trkpt>
      <trkpt lat="43.40506" lon="6.06503">
        <ele>214.80000305176</ele>
        <time>2013-04-13T16:18:23Z</time>
      </trkpt>
      <trkpt lat="43.40515" lon="6.06506">
        <ele>214.80000305176</ele>
        <time>2013-04-13T16:18:26Z</time>
      </trkpt>
      <trkpt lat="43.40519" lon="6.06507">
        <ele>214.80000305176</ele>
        <time>2013-04-13T16:18:27Z</time>
      </trkpt>
      <trkpt lat="43.40527" lon="6.0651">
        <ele>214.80000305176</ele>
        <time>2013-04-13T16:18:29Z</time>
      </trkpt>
      <trkpt lat="43.4054" lon="6.06513">
        <ele>214.80000305176</ele>
        <time>2013-04-13T16:18:32Z</time>
      </trkpt>
      <trkpt lat="43.40559" lon="6.06522">
        <ele>214.80000305176</ele>
        <time>2013-04-13T16:18:37Z</time>
      </trkpt>
      <trkpt lat="43.40564" lon="6.06522">
        <ele>214.80000305176</ele>
        <time>2013-04-13T16:18:38Z</time>
      </trkpt>
      <trkpt lat="43.40588" lon="6.06528">
        <ele>214.80000305176</ele>
        <time>2013-04-13T16:18:44Z</time>
      </trkpt>
      <trkpt lat="43.40599" lon="6.0653">
        <ele>214.39999389648</ele>
        <time>2013-04-13T16:18:47Z</time>
      </trkpt>
      <trkpt lat="43.40603" lon="6.06531">
        <ele>214</ele>
        <time>2013-04-13T16:18:48Z</time>
      </trkpt>
      <trkpt lat="43.40607" lon="6.06532">
        <ele>213.60000610352</ele>
        <time>2013-04-13T16:18:49Z</time>
      </trkpt>
      <trkpt lat="43.4061" lon="6.06533">
        <ele>213.19999694824</ele>
        <time>2013-04-13T16:18:50Z</time>
      </trkpt>
      <trkpt lat="43.40612" lon="6.06534">
        <ele>212.80000305176</ele>
        <time>2013-04-13T16:18:51Z</time>
      </trkpt>
      <trkpt lat="43.40612" lon="6.06535">
        <ele>212.39999389648</ele>
        <time>2013-04-13T16:18:53Z</time>
      </trkpt>
      <trkpt lat="43.40612" lon="6.06535">
        <ele>210.80000305176</ele>
        <time>2013-04-13T16:18:57Z</time>
      </trkpt>
      <trkpt lat="43.40613" lon="6.06535">
        <ele>210.80000305176</ele>
        <time>2013-04-13T16:19:01Z</time>
      </trkpt>
      <trkpt lat="43.40614" lon="6.06535">
        <ele>210.80000305176</ele>
        <time>2013-04-13T16:19:02Z</time>
      </trkpt>
      <trkpt lat="43.4062" lon="6.06533">
        <ele>210.80000305176</ele>
        <time>2013-04-13T16:19:07Z</time>
      </trkpt>
      <trkpt lat="43.40624" lon="6.06527">
        <ele>210.80000305176</ele>
        <time>2013-04-13T16:19:09Z</time>
      </trkpt>
      <trkpt lat="43.40627" lon="6.06518">
        <ele>210.80000305176</ele>
        <time>2013-04-13T16:19:11Z</time>
      </trkpt>
      <trkpt lat="43.40637" lon="6.06499">
        <ele>210.80000305176</ele>
        <time>2013-04-13T16:19:15Z</time>
      </trkpt>
      <trkpt lat="43.40641" lon="6.06494">
        <ele>210.80000305176</ele>
        <time>2013-04-13T16:19:16Z</time>
      </trkpt>
      <trkpt lat="43.40654" lon="6.06479">
        <ele>210.39999389648</ele>
        <time>2013-04-13T16:19:19Z</time>
      </trkpt>
      <trkpt lat="43.40659" lon="6.06473">
        <ele>210</ele>
        <time>2013-04-13T16:19:20Z</time>
      </trkpt>
      <trkpt lat="43.40664" lon="6.06467">
        <ele>209.39999389648</ele>
        <time>2013-04-13T16:19:21Z</time>
      </trkpt>
      <trkpt lat="43.40675" lon="6.06455">
        <ele>208.60000610352</ele>
        <time>2013-04-13T16:19:23Z</time>
      </trkpt>
      <trkpt lat="43.40688" lon="6.06444">
        <ele>208</ele>
        <time>2013-04-13T16:19:25Z</time>
      </trkpt>
      <trkpt lat="43.40694" lon="6.0644">
        <ele>207.60000610352</ele>
        <time>2013-04-13T16:19:26Z</time>
      </trkpt>
      <trkpt lat="43.40702" lon="6.06437">
        <ele>207</ele>
        <time>2013-04-13T16:19:27Z</time>
      </trkpt>
      <trkpt lat="43.4071" lon="6.06434">
        <ele>206.60000610352</ele>
        <time>2013-04-13T16:19:28Z</time>
      </trkpt>
      <trkpt lat="43.40718" lon="6.06433">
        <ele>206</ele>
        <time>2013-04-13T16:19:29Z</time>
      </trkpt>
      <trkpt lat="43.40733" lon="6.06431">
        <ele>205.60000610352</ele>
        <time>2013-04-13T16:19:31Z</time>
      </trkpt>
      <trkpt lat="43.40747" lon="6.06428">
        <ele>204.80000305176</ele>
        <time>2013-04-13T16:19:33Z</time>
      </trkpt>
      <trkpt lat="43.40755" lon="6.06427">
        <ele>204.19999694824</ele>
        <time>2013-04-13T16:19:34Z</time>
      </trkpt>
      <trkpt lat="43.40762" lon="6.06425">
        <ele>203.80000305176</ele>
        <time>2013-04-13T16:19:35Z</time>
      </trkpt>
      <trkpt lat="43.40768" lon="6.06422">
        <ele>203.80000305176</ele>
        <time>2013-04-13T16:19:36Z</time>
      </trkpt>
      <trkpt lat="43.40782" lon="6.06417">
        <ele>203.39999389648</ele>
        <time>2013-04-13T16:19:38Z</time>
      </trkpt>
      <trkpt lat="43.40796" lon="6.06413">
        <ele>202.60000610352</ele>
        <time>2013-04-13T16:19:40Z</time>
      </trkpt>
      <trkpt lat="43.40812" lon="6.06413">
        <ele>201.60000610352</ele>
        <time>2013-04-13T16:19:42Z</time>
      </trkpt>
      <trkpt lat="43.40819" lon="6.06415">
        <ele>201.60000610352</ele>
        <time>2013-04-13T16:19:43Z</time>
      </trkpt>
      <trkpt lat="43.40837" lon="6.06418">
        <ele>201.60000610352</ele>
        <time>2013-04-13T16:19:46Z</time>
      </trkpt>
      <trkpt lat="43.40842" lon="6.06418">
        <ele>201.60000610352</ele>
        <time>2013-04-13T16:19:47Z</time>
      </trkpt>
      <trkpt lat="43.4085" lon="6.06413">
        <ele>201.60000610352</ele>
        <time>2013-04-13T16:19:49Z</time>
      </trkpt>
      <trkpt lat="43.40858" lon="6.06406">
        <ele>201.60000610352</ele>
        <time>2013-04-13T16:19:51Z</time>
      </trkpt>
      <trkpt lat="43.40871" lon="6.06396">
        <ele>201.60000610352</ele>
        <time>2013-04-13T16:19:54Z</time>
      </trkpt>
      <trkpt lat="43.40874" lon="6.06391">
        <ele>201.60000610352</ele>
        <time>2013-04-13T16:19:55Z</time>
      </trkpt>
      <trkpt lat="43.40881" lon="6.06383">
        <ele>201.60000610352</ele>
        <time>2013-04-13T16:19:57Z</time>
      </trkpt>
      <trkpt lat="43.4089" lon="6.06372">
        <ele>201.60000610352</ele>
        <time>2013-04-13T16:20:00Z</time>
      </trkpt>
      <trkpt lat="43.40898" lon="6.06362">
        <ele>201.60000610352</ele>
        <time>2013-04-13T16:20:03Z</time>
      </trkpt>
      <trkpt lat="43.40903" lon="6.06356">
        <ele>201.60000610352</ele>
        <time>2013-04-13T16:20:05Z</time>
      </trkpt>
      <trkpt lat="43.40912" lon="6.06345">
        <ele>202.19999694824</ele>
        <time>2013-04-13T16:20:08Z</time>
      </trkpt>
      <trkpt lat="43.40918" lon="6.06336">
        <ele>203</ele>
        <time>2013-04-13T16:20:10Z</time>
      </trkpt>
      <trkpt lat="43.40924" lon="6.06328">
        <ele>203.80000305176</ele>
        <time>2013-04-13T16:20:12Z</time>
      </trkpt>
      <trkpt lat="43.40941" lon="6.06309">
        <ele>203.80000305176</ele>
        <time>2013-04-13T16:20:17Z</time>
      </trkpt>
      <trkpt lat="43.40952" lon="6.06299">
        <ele>203.80000305176</ele>
        <time>2013-04-13T16:20:20Z</time>
      </trkpt>
      <trkpt lat="43.40961" lon="6.06298">
        <ele>203.80000305176</ele>
        <time>2013-04-13T16:20:22Z</time>
      </trkpt>
      <trkpt lat="43.40967" lon="6.06309">
        <ele>203.80000305176</ele>
        <time>2013-04-13T16:20:24Z</time>
      </trkpt>
      <trkpt lat="43.40974" lon="6.06329">
        <ele>203.80000305176</ele>
        <time>2013-04-13T16:20:27Z</time>
      </trkpt>
      <trkpt lat="43.40977" lon="6.06343">
        <ele>203.80000305176</ele>
        <time>2013-04-13T16:20:29Z</time>
      </trkpt>
      <trkpt lat="43.40992" lon="6.06384">
        <ele>203.80000305176</ele>
        <time>2013-04-13T16:20:35Z</time>
      </trkpt>
      <trkpt lat="43.40995" lon="6.0639">
        <ele>203.80000305176</ele>
        <time>2013-04-13T16:20:36Z</time>
      </trkpt>
      <trkpt lat="43.41003" lon="6.064">
        <ele>203.80000305176</ele>
        <time>2013-04-13T16:20:38Z</time>
      </trkpt>
      <trkpt lat="43.41014" lon="6.06415">
        <ele>203.80000305176</ele>
        <time>2013-04-13T16:20:41Z</time>
      </trkpt>
      <trkpt lat="43.41037" lon="6.06444">
        <ele>203.39999389648</ele>
        <time>2013-04-13T16:20:47Z</time>
      </trkpt>
      <trkpt lat="43.41049" lon="6.06458">
        <ele>201.80000305176</ele>
        <time>2013-04-13T16:20:50Z</time>
      </trkpt>
      <trkpt lat="43.41077" lon="6.06494">
        <ele>201.80000305176</ele>
        <time>2013-04-13T16:20:58Z</time>
      </trkpt>
      <trkpt lat="43.41095" lon="6.0652">
        <ele>201.80000305176</ele>
        <time>2013-04-13T16:21:04Z</time>
      </trkpt>
      <trkpt lat="43.41117" lon="6.0655">
        <ele>201.80000305176</ele>
        <time>2013-04-13T16:21:10Z</time>
      </trkpt>
      <trkpt lat="43.41133" lon="6.06567">
        <ele>201.80000305176</ele>
        <time>2013-04-13T16:21:14Z</time>
      </trkpt>
      <trkpt lat="43.41139" lon="6.06575">
        <ele>201.80000305176</ele>
        <time>2013-04-13T16:21:16Z</time>
      </trkpt>
      <trkpt lat="43.41151" lon="6.06587">
        <ele>201.80000305176</ele>
        <time>2013-04-13T16:21:19Z</time>
      </trkpt>
      <trkpt lat="43.41158" lon="6.06595">
        <ele>201.80000305176</ele>
        <time>2013-04-13T16:21:21Z</time>
      </trkpt>
      <trkpt lat="43.41176" lon="6.06617">
        <ele>201.80000305176</ele>
        <time>2013-04-13T16:21:26Z</time>
      </trkpt>
      <trkpt lat="43.41202" lon="6.06652">
        <ele>201.80000305176</ele>
        <time>2013-04-13T16:21:33Z</time>
      </trkpt>
      <trkpt lat="43.41234" lon="6.06688">
        <ele>201.80000305176</ele>
        <time>2013-04-13T16:21:41Z</time>
      </trkpt>
      <trkpt lat="43.41256" lon="6.06713">
        <ele>201.80000305176</ele>
        <time>2013-04-13T16:21:47Z</time>
      </trkpt>
      <trkpt lat="43.4127" lon="6.06742">
        <ele>202.19999694824</ele>
        <time>2013-04-13T16:21:53Z</time>
      </trkpt>
      <trkpt lat="43.41272" lon="6.06747">
        <ele>202.60000610352</ele>
        <time>2013-04-13T16:21:54Z</time>
      </trkpt>
      <trkpt lat="43.41277" lon="6.06757">
        <ele>203.39999389648</ele>
        <time>2013-04-13T16:21:56Z</time>
      </trkpt>
      <trkpt lat="43.4128" lon="6.06762">
        <ele>203.80000305176</ele>
        <time>2013-04-13T16:21:57Z</time>
      </trkpt>
      <trkpt lat="43.41288" lon="6.06775">
        <ele>203.80000305176</ele>
        <time>2013-04-13T16:22:00Z</time>
      </trkpt>
      <trkpt lat="43.41301" lon="6.06791">
        <ele>203.80000305176</ele>
        <time>2013-04-13T16:22:04Z</time>
      </trkpt>
      <trkpt lat="43.41315" lon="6.06802">
        <ele>204.19999694824</ele>
        <time>2013-04-13T16:22:08Z</time>
      </trkpt>
      <trkpt lat="43.41322" lon="6.06807">
        <ele>205</ele>
        <time>2013-04-13T16:22:10Z</time>
      </trkpt>
      <trkpt lat="43.41326" lon="6.06809">
        <ele>205.39999389648</ele>
        <time>2013-04-13T16:22:11Z</time>
      </trkpt>
      <trkpt lat="43.4133" lon="6.06811">
        <ele>205.80000305176</ele>
        <time>2013-04-13T16:22:12Z</time>
      </trkpt>
      <trkpt lat="43.41343" lon="6.06818">
        <ele>205.80000305176</ele>
        <time>2013-04-13T16:22:16Z</time>
      </trkpt>
      <trkpt lat="43.41369" lon="6.06832">
        <ele>205.80000305176</ele>
        <time>2013-04-13T16:22:24Z</time>
      </trkpt>
      <trkpt lat="43.41385" lon="6.0684">
        <ele>205.80000305176</ele>
        <time>2013-04-13T16:22:29Z</time>
      </trkpt>
      <trkpt lat="43.41405" lon="6.06858">
        <ele>205.80000305176</ele>
        <time>2013-04-13T16:22:35Z</time>
      </trkpt>
      <trkpt lat="43.41413" lon="6.06871">
        <ele>205.80000305176</ele>
        <time>2013-04-13T16:22:38Z</time>
      </trkpt>
      <trkpt lat="43.41417" lon="6.06886">
        <ele>205.80000305176</ele>
        <time>2013-04-13T16:22:41Z</time>
      </trkpt>
      <trkpt lat="43.41417" lon="6.06892">
        <ele>205.80000305176</ele>
        <time>2013-04-13T16:22:42Z</time>
      </trkpt>
      <trkpt lat="43.41419" lon="6.06904">
        <ele>205.80000305176</ele>
        <time>2013-04-13T16:22:44Z</time>
      </trkpt>
      <trkpt lat="43.41425" lon="6.06914">
        <ele>205.80000305176</ele>
        <time>2013-04-13T16:22:46Z</time>
      </trkpt>
      <trkpt lat="43.41442" lon="6.06923">
        <ele>205.80000305176</ele>
        <time>2013-04-13T16:22:50Z</time>
      </trkpt>
      <trkpt lat="43.4146" lon="6.06913">
        <ele>205.80000305176</ele>
        <time>2013-04-13T16:22:54Z</time>
      </trkpt>
      <trkpt lat="43.41467" lon="6.06904">
        <ele>205.80000305176</ele>
        <time>2013-04-13T16:22:56Z</time>
      </trkpt>
      <trkpt lat="43.4148" lon="6.06894">
        <ele>205.80000305176</ele>
        <time>2013-04-13T16:22:59Z</time>
      </trkpt>
      <trkpt lat="43.415" lon="6.06897">
        <ele>205.80000305176</ele>
        <time>2013-04-13T16:23:03Z</time>
      </trkpt>
      <trkpt lat="43.41521" lon="6.06902">
        <ele>205.80000305176</ele>
        <time>2013-04-13T16:23:08Z</time>
      </trkpt>
      <trkpt lat="43.41526" lon="6.06905">
        <ele>205.80000305176</ele>
        <time>2013-04-13T16:23:09Z</time>
      </trkpt>
      <trkpt lat="43.41555" lon="6.0692">
        <ele>205.80000305176</ele>
        <time>2013-04-13T16:23:16Z</time>
      </trkpt>
      <trkpt lat="43.4159" lon="6.06936">
        <ele>206.60000610352</ele>
        <time>2013-04-13T16:23:25Z</time>
      </trkpt>
      <trkpt lat="43.416" lon="6.0694">
        <ele>207.80000305176</ele>
        <time>2013-04-13T16:23:28Z</time>
      </trkpt>
      <trkpt lat="43.41624" lon="6.06953">
        <ele>208.39999389648</ele>
        <time>2013-04-13T16:23:35Z</time>
      </trkpt>
      <trkpt lat="43.41628" lon="6.06954">
        <ele>208.80000305176</ele>
        <time>2013-04-13T16:23:36Z</time>
      </trkpt>
      <trkpt lat="43.41638" lon="6.06959">
        <ele>210</ele>
        <time>2013-04-13T16:23:39Z</time>
      </trkpt>
      <trkpt lat="43.41647" lon="6.06965">
        <ele>210</ele>
        <time>2013-04-13T16:23:42Z</time>
      </trkpt>
      <trkpt lat="43.4166" lon="6.06971">
        <ele>210.39999389648</ele>
        <time>2013-04-13T16:23:46Z</time>
      </trkpt>
      <trkpt lat="43.41666" lon="6.06974">
        <ele>211.19999694824</ele>
        <time>2013-04-13T16:23:48Z</time>
      </trkpt>
      <trkpt lat="43.41672" lon="6.06978">
        <ele>212</ele>
        <time>2013-04-13T16:23:50Z</time>
      </trkpt>
      <trkpt lat="43.41692" lon="6.06989">
        <ele>212</ele>
        <time>2013-04-13T16:23:57Z</time>
      </trkpt>
      <trkpt lat="43.41698" lon="6.07004">
        <ele>212</ele>
        <time>2013-04-13T16:24:01Z</time>
      </trkpt>
      <trkpt lat="43.41703" lon="6.07029">
        <ele>212</ele>
        <time>2013-04-13T16:24:06Z</time>
      </trkpt>
      <trkpt lat="43.4171" lon="6.07055">
        <ele>212</ele>
        <time>2013-04-13T16:24:11Z</time>
      </trkpt>
      <trkpt lat="43.41712" lon="6.07062">
        <ele>212</ele>
        <time>2013-04-13T16:24:12Z</time>
      </trkpt>
      <trkpt lat="43.41719" lon="6.07079">
        <ele>212</ele>
        <time>2013-04-13T16:24:15Z</time>
      </trkpt>
      <trkpt lat="43.41727" lon="6.07087">
        <ele>212</ele>
        <time>2013-04-13T16:24:17Z</time>
      </trkpt>
      <trkpt lat="43.41746" lon="6.07091">
        <ele>212</ele>
        <time>2013-04-13T16:24:21Z</time>
      </trkpt>
      <trkpt lat="43.41774" lon="6.07097">
        <ele>212</ele>
        <time>2013-04-13T16:24:27Z</time>
      </trkpt>
      <trkpt lat="43.41796" lon="6.07099">
        <ele>212</ele>
        <time>2013-04-13T16:24:32Z</time>
      </trkpt>
      <trkpt lat="43.41804" lon="6.07103">
        <ele>212</ele>
        <time>2013-04-13T16:24:34Z</time>
      </trkpt>
      <trkpt lat="43.41826" lon="6.07119">
        <ele>212</ele>
        <time>2013-04-13T16:24:40Z</time>
      </trkpt>
      <trkpt lat="43.41845" lon="6.07135">
        <ele>212</ele>
        <time>2013-04-13T16:24:46Z</time>
      </trkpt>
      <trkpt lat="43.41847" lon="6.07142">
        <ele>212</ele>
        <time>2013-04-13T16:24:48Z</time>
      </trkpt>
      <trkpt lat="43.41847" lon="6.0715">
        <ele>212.39999389648</ele>
        <time>2013-04-13T16:24:50Z</time>
      </trkpt>
      <trkpt lat="43.41847" lon="6.07154">
        <ele>212.80000305176</ele>
        <time>2013-04-13T16:24:51Z</time>
      </trkpt>
      <trkpt lat="43.41846" lon="6.07168">
        <ele>214.19999694824</ele>
        <time>2013-04-13T16:24:55Z</time>
      </trkpt>
      <trkpt lat="43.41845" lon="6.07174">
        <ele>214.19999694824</ele>
        <time>2013-04-13T16:24:59Z</time>
      </trkpt>
      <trkpt lat="43.41845" lon="6.07176">
        <ele>214.60000610352</ele>
        <time>2013-04-13T16:25:00Z</time>
      </trkpt>
      <trkpt lat="43.41844" lon="6.07178">
        <ele>215</ele>
        <time>2013-04-13T16:25:01Z</time>
      </trkpt>
      <trkpt lat="43.41844" lon="6.0718">
        <ele>215.39999389648</ele>
        <time>2013-04-13T16:25:02Z</time>
      </trkpt>
      <trkpt lat="43.41843" lon="6.07182">
        <ele>215.80000305176</ele>
        <time>2013-04-13T16:25:03Z</time>
      </trkpt>
      <trkpt lat="43.41842" lon="6.07185">
        <ele>216.19999694824</ele>
        <time>2013-04-13T16:25:04Z</time>
      </trkpt>
      <trkpt lat="43.41843" lon="6.07193">
        <ele>216.19999694824</ele>
        <time>2013-04-13T16:25:07Z</time>
      </trkpt>
      <trkpt lat="43.41853" lon="6.07198">
        <ele>216.19999694824</ele>
        <time>2013-04-13T16:25:11Z</time>
      </trkpt>
      <trkpt lat="43.41864" lon="6.07207">
        <ele>216.19999694824</ele>
        <time>2013-04-13T16:25:17Z</time>
      </trkpt>
      <trkpt lat="43.41867" lon="6.07215">
        <ele>216.60000610352</ele>
        <time>2013-04-13T16:25:21Z</time>
      </trkpt>
      <trkpt lat="43.41866" lon="6.07226">
        <ele>217.80000305176</ele>
        <time>2013-04-13T16:25:24Z</time>
      </trkpt>
      <trkpt lat="43.41865" lon="6.07232">
        <ele>218.19999694824</ele>
        <time>2013-04-13T16:25:26Z</time>
      </trkpt>
      <trkpt lat="43.41864" lon="6.07257">
        <ele>218.19999694824</ele>
        <time>2013-04-13T16:25:34Z</time>
      </trkpt>
      <trkpt lat="43.41864" lon="6.07261">
        <ele>218.19999694824</ele>
        <time>2013-04-13T16:25:36Z</time>
      </trkpt>
      <trkpt lat="43.41863" lon="6.07264">
        <ele>218.19999694824</ele>
        <time>2013-04-13T16:25:39Z</time>
      </trkpt>
      <trkpt lat="43.41863" lon="6.07264">
        <ele>218.19999694824</ele>
        <time>2013-04-13T16:25:45Z</time>
      </trkpt>
      <trkpt lat="43.41863" lon="6.07264">
        <ele>218.19999694824</ele>
        <time>2013-04-13T16:26:28Z</time>
      </trkpt>
    </trkseg>
  </trk>
</gpx>